GFSSGP_sfc_wetblb_000.txt.gz
Wetbulb
64.54 59.58 52.10 52.05 46.18 44.62 41.40 46.02 48.77 50.59 49.23 49.15 50.09 48.80 48.54 48.16 48.05 42.81 57.59 62.48 65.84 66.56 68.99 70.89 73.10 72.16 71.22 70.25 69.17 68.58 67.88 67.08 66.53 67.47 67.12 68.23 67.68 66.59 66.08 65.80 65.52 65.43 65.51 64.03 64.73 65.34 65.45 66.09 66.99
62.51 58.06 50.99 48.29 42.18 39.35 41.30 46.69 48.79 51.62 52.54 50.18 49.11 48.88 47.42 47.22 54.91 57.72 58.43 65.11 66.92 68.03 69.25 69.73 73.32 71.73 70.71 70.03 68.99 68.11 67.55 67.35 66.79 67.01 68.17 68.39 67.58 67.15 66.32 65.50 64.35 64.68 64.16 63.92 64.11 63.93 63.61 63.74 64.44
58.23 54.82 46.73 43.82 40.59 39.08 41.55 48.15 50.51 52.85 50.38 49.29 47.90 49.79 48.49 48.46 55.04 58.40 59.91 65.42 66.92 67.76 69.35 70.58 73.26 71.96 70.58 69.52 69.17 67.97 67.63 66.98 67.11 67.91 68.66 68.71 67.84 67.36 66.23 65.06 64.25 63.64 63.60 63.23 63.95 62.84 63.50 63.24 63.04
52.89 48.50 45.25 41.16 39.28 44.07 45.16 48.09 51.42 52.26 50.93 49.85 48.71 47.74 50.14 54.73 56.06 59.41 61.32 64.84 65.85 66.20 68.25 71.80 73.03 72.38 71.53 69.72 68.95 67.96 67.17 67.28 66.94 68.65 69.21 68.61 68.10 67.44 65.38 64.36 64.18 63.86 63.35 62.78 62.56 63.12 62.87 63.54 63.29
49.71 43.75 38.39 36.75 39.18 43.51 45.34 49.62 53.81 52.08 50.58 49.09 48.65 48.12 49.16 56.95 59.24 60.87 60.94 64.53 63.80 64.41 67.83 71.21 73.21 72.51 71.58 70.05 69.16 68.34 67.32 67.47 66.86 67.20 68.22 68.17 68.47 66.94 65.66 64.70 64.00 64.13 63.79 63.36 62.57 62.66 63.51 63.30 63.50
46.55 42.91 35.48 34.17 38.44 42.80 44.57 47.77 50.99 51.78 51.19 48.79 48.24 49.94 50.16 56.20 58.82 59.84 61.09 60.74 64.78 65.41 68.14 70.40 72.10 72.27 71.64 70.57 69.70 68.66 67.65 67.73 67.43 67.99 67.34 67.05 66.85 66.09 66.27 65.32 64.68 64.73 65.14 64.67 63.57 62.87 63.01 63.81 63.86
45.07 41.38 36.69 36.25 38.75 41.15 45.28 49.35 49.55 51.68 49.14 48.46 49.87 49.41 51.50 54.52 58.73 60.36 59.81 59.89 64.86 67.16 68.57 69.13 70.07 70.61 70.72 70.38 70.19 69.41 68.61 68.73 68.62 66.97 67.31 67.28 67.13 66.08 66.59 65.36 65.64 65.51 65.55 64.86 63.86 62.84 62.80 63.22 63.82
47.46 43.58 37.82 36.71 38.26 40.77 47.04 50.40 51.85 50.31 50.43 50.55 51.37 49.21 49.89 54.48 58.63 59.98 59.06 59.03 62.52 65.82 67.41 67.53 66.59 67.08 67.00 67.19 69.69 69.08 68.77 68.25 68.12 67.97 67.34 66.52 65.94 66.61 66.50 66.64 66.12 65.90 65.84 64.78 63.75 62.98 62.07 62.33 63.48
49.69 40.96 36.76 38.89 40.58 43.59 47.96 47.55 52.01 52.99 50.06 49.82 53.15 51.62 55.14 56.67 59.39 58.04 57.26 57.93 59.47 64.65 65.34 65.89 65.16 64.66 64.77 64.85 66.64 68.31 68.32 67.48 67.00 66.91 66.05 64.80 62.03 62.36 63.67 64.86 65.49 66.30 65.53 64.84 63.98 62.93 61.77 62.45 63.15
45.99 40.42 41.96 45.11 44.19 45.72 47.81 48.19 49.60 50.39 49.80 47.99 52.44 57.35 57.57 58.27 57.41 56.83 56.27 57.29 57.56 59.89 62.70 64.82 64.58 64.13 62.88 64.28 62.99 64.06 63.93 63.11 62.95 63.42 62.50 61.49 60.34 60.02 62.78 63.42 65.17 65.23 65.65 65.13 64.38 63.52 62.53 62.56 56.61
46.56 42.72 46.55 48.59 49.60 49.54 48.12 48.45 49.67 47.90 48.09 49.69 49.80 54.54 56.52 55.95 56.69 56.79 56.80 57.64 58.36 58.45 58.82 63.70 63.69 63.86 62.75 62.29 61.07 61.48 61.45 61.16 61.25 61.37 61.11 60.52 60.44 58.76 59.36 59.85 61.29 62.08 62.93 60.53 61.38 59.15 57.29 54.80 54.24
45.01 48.64 48.58 50.29 51.46 48.96 47.52 49.83 48.53 48.03 49.89 52.09 52.53 54.09 56.98 56.37 56.47 57.29 57.36 57.73 57.28 58.31 59.13 59.21 62.24 62.72 61.80 61.11 61.17 60.55 60.59 60.30 59.89 60.41 60.35 59.34 58.84 57.58 57.53 58.86 60.08 59.75 59.29 58.30 57.42 56.49 55.59 54.25 53.51
46.35 48.66 50.35 51.21 50.34 48.15 49.04 47.72 48.19 47.86 51.09 50.97 52.45 55.78 57.09 56.83 56.45 57.31 58.33 58.41 57.93 58.16 59.25 59.84 59.33 61.28 61.19 58.39 60.41 59.54 59.68 60.33 60.12 59.76 60.26 59.99 59.15 57.90 56.76 57.99 58.87 58.82 57.78 57.38 56.57 56.11 56.09 54.50 53.26
48.97 48.20 47.79 48.35 48.62 48.22 47.29 47.74 46.66 49.16 50.43 49.89 51.22 53.05 55.34 56.65 57.56 56.67 57.39 58.31 57.73 57.54 59.70 60.57 60.78 60.59 60.52 59.54 58.74 59.83 59.41 59.31 59.43 59.63 60.01 59.37 59.80 59.16 56.96 57.07 57.72 57.72 57.47 57.07 57.31 56.41 56.02 55.03 53.74
48.67 44.61 46.11 46.86 47.51 47.34 46.90 44.57 45.32 49.05 47.61 48.65 49.34 49.48 51.65 54.14 54.74 56.74 56.78 57.53 57.91 57.76 57.68 59.42 61.12 61.28 60.72 60.37 58.50 58.09 58.91 59.33 58.79 59.38 58.92 59.08 58.98 58.60 58.70 57.19 56.50 56.67 54.97 55.33 55.07 54.68 53.53 52.82 52.25
42.34 41.59 38.18 43.71 46.05 47.48 46.54 39.74 46.94 48.75 44.88 46.81 48.22 45.99 47.17 48.04 49.16 48.85 50.25 53.01 56.12 56.97 56.02 57.97 61.90 61.81 61.36 61.71 61.04 58.70 57.70 56.92 58.00 58.13 57.96 58.41 58.41 57.69 57.12 57.01 56.47 55.44 54.60 54.22 53.62 53.81 53.39 52.55 52.08
39.45 35.46 36.56 40.51 45.73 45.42 44.06 41.05 46.69 46.59 46.51 46.82 43.83 43.43 45.67 47.22 48.93 49.51 51.27 50.84 51.08 51.08 55.25 55.66 58.27 60.60 61.47 61.92 62.27 60.99 58.77 57.50 57.65 56.71 56.71 57.22 57.67 57.99 57.10 56.96 57.17 56.06 54.51 54.68 54.95 55.03 53.92 54.70 53.97
35.76 35.49 36.57 36.74 41.98 43.19 41.25 42.41 45.20 45.42 43.97 42.75 42.35 43.23 45.39 47.37 48.20 49.57 51.69 50.86 51.80 51.20 51.63 53.26 55.85 57.98 60.03 60.57 60.68 60.30 60.38 60.22 58.60 58.24 57.98 57.27 57.17 57.38 57.55 58.17 57.84 56.75 55.59 55.63 54.48 55.05 54.71 55.28 55.66
40.06 37.05 36.17 39.53 43.86 42.95 41.79 41.31 44.47 44.14 42.78 41.98 42.49 43.70 45.13 46.85 47.08 49.49 50.07 50.41 51.36 51.54 51.52 51.49 52.95 53.66 57.79 59.08 58.76 58.56 60.24 60.10 59.60 59.60 59.52 58.95 58.43 57.87 57.32 58.10 58.25 57.30 57.21 57.74 57.20 55.70 55.11 55.11 53.37
40.02 37.31 36.28 40.68 44.29 42.00 40.20 40.99 43.22 41.32 42.26 43.20 44.56 44.40 45.95 46.48 47.66 49.01 49.36 48.79 49.24 49.18 50.47 51.04 51.63 52.59 54.80 57.50 58.89 59.79 59.58 59.88 60.52 60.98 60.94 60.70 60.18 59.82 59.01 58.44 58.86 58.44 57.76 57.68 57.66 56.17 55.83 55.87 54.66
38.90 36.81 36.93 39.20 42.38 41.91 39.02 38.92 38.09 41.65 42.92 44.34 44.46 45.43 46.27 46.87 47.47 47.75 47.99 48.24 48.15 47.82 47.79 49.92 50.94 52.71 53.29 56.88 58.58 58.68 59.36 59.06 58.92 59.23 59.87 60.88 61.39 61.65 60.99 60.98 59.95 59.66 58.23 58.37 58.37 57.59 55.82 56.46 58.25
36.19 41.90 42.49 40.94 37.40 33.87 38.70 31.27 34.36 39.04 41.52 42.41 41.89 43.84 44.77 46.05 46.81 47.58 48.05 48.08 47.84 47.86 48.33 49.28 50.03 50.43 51.64 52.86 53.21 53.44 54.15 53.95 55.85 56.78 57.87 57.90 59.01 60.11 61.10 61.35 61.24 60.94 60.23 58.92 59.30 59.73 58.81 58.56 56.56
40.36 44.27 41.02 39.64 35.27 33.31 34.45 32.72 35.29 39.29 39.46 41.89 42.37 42.92 44.03 44.94 46.32 46.94 47.52 48.59 48.28 48.18 48.02 48.59 49.58 50.33 49.66 49.24 49.66 49.66 49.13 51.64 52.96 52.89 52.07 52.93 54.71 56.16 57.23 58.96 59.90 60.30 60.93 61.02 61.07 60.75 60.47 60.62 59.29
44.76 40.42 38.73 36.24 34.30 29.53 34.12 34.75 33.92 36.90 40.50 40.79 41.30 42.78 44.43 45.15 45.88 46.69 47.34 48.47 48.12 47.87 48.29 48.58 49.16 48.98 49.18 49.02 48.47 47.84 47.41 47.60 48.41 48.21 49.23 49.90 51.52 53.56 52.70 52.88 54.90 58.66 59.92 60.71 61.70 61.98 61.70 61.65 60.97
39.72 35.67 30.26 29.10 28.65 29.31 33.63 32.61 36.97 40.48 41.80 45.06 43.07 42.98 43.49 44.80 45.69 46.16 46.06 46.89 47.29 47.16 47.34 48.74 48.52 48.16 48.30 48.14 48.19 47.91 47.53 47.45 47.11 47.03 47.29 47.67 48.90 49.24 50.36 49.65 50.01 50.41 51.35 53.58 57.52 59.85 60.76 61.14 60.46
36.67 36.53 31.22 27.58 27.33 31.02 34.16 31.45 37.22 39.98 42.55 44.57 45.10 44.31 43.99 44.79 45.46 46.05 46.00 46.42 46.71 47.31 47.18 46.99 47.24 47.23 47.73 47.78 47.77 47.76 48.10 48.14 48.06 47.60 47.43 47.67 47.90 48.45 48.87 49.54 49.82 49.94 50.26 50.51 50.65 51.53 53.75 56.46 58.04
36.77 34.93 38.37 34.13 31.68 30.56 33.34 36.48 38.35 41.27 41.71 43.05 43.11 43.46 43.25 44.28 45.13 45.79 45.83 46.42 46.71 46.26 45.50 46.05 46.55 46.77 47.18 47.33 47.67 47.54 47.46 47.63 47.39 47.21 47.56 47.79 48.20 50.00 49.41 49.12 48.47 49.18 49.44 49.69 49.67 49.78 49.71 50.41 51.30
37.98 40.05 33.94 33.18 28.28 26.12 29.64 31.26 34.52 36.36 39.50 41.83 42.17 42.56 43.25 43.68 44.73 45.43 45.97 46.27 45.66 45.28 45.26 45.95 46.59 46.53 46.63 46.85 46.71 47.17 46.81 46.82 46.56 46.31 45.91 46.15 46.91 47.40 47.59 47.73 47.96 48.35 48.87 49.10 49.02 48.97 49.34 49.15 49.69
36.48 34.27 34.43 34.57 32.55 28.34 26.16 31.12 37.79 38.45 40.04 41.95 42.81 43.59 43.79 43.31 44.09 44.70 45.41 45.03 44.92 44.97 45.46 45.71 45.81 45.01 44.70 45.31 45.22 44.82 45.54 45.24 44.54 44.16 44.37 44.38 44.69 45.03 45.28 45.83 46.28 46.78 47.38 47.22 46.99 47.07 47.51 47.45 48.04
37.88 37.55 35.73 31.40 29.96 30.10 28.67 31.90 39.84 38.37 40.50 41.87 43.25 44.38 43.12 44.06 44.40 44.42 43.76 44.32 44.54 44.26 44.31 43.65 43.19 42.31 42.39 43.25 42.95 42.77 43.65 42.64 41.77 41.53 42.03 42.78 42.42 43.21 43.40 44.28 44.56 44.66 44.48 45.26 45.63 45.67 46.17 46.09 44.88

GFSSGP_sfc_wetblb_003.txt.gz
Wetbulb
66.43 59.35 50.50 51.88 45.18 43.68 40.18 44.57 46.83 49.03 48.98 47.65 48.67 47.93 46.85 46.95 46.45 42.80 56.74 62.71 64.77 65.24 67.94 70.38 72.76 72.51 71.82 71.00 70.08 68.87 68.21 67.05 66.45 67.06 66.53 67.98 67.03 66.57 66.21 65.84 65.70 65.50 64.30 63.69 65.03 65.76 64.29 66.21 66.93
62.16 56.18 50.41 47.12 41.55 37.90 39.69 44.72 47.16 49.76 52.39 49.71 48.28 48.84 46.86 46.18 53.78 56.53 57.26 62.83 65.75 66.89 68.45 69.23 72.82 72.61 71.91 70.93 69.83 68.98 68.05 67.44 66.82 67.12 68.09 68.57 67.85 66.43 66.06 65.06 64.82 64.52 63.94 63.69 64.31 64.45 63.43 64.30 66.27
55.69 51.13 46.48 43.33 38.81 38.12 40.26 45.38 48.65 50.83 52.26 48.01 47.00 48.23 47.37 47.79 53.49 56.54 59.67 65.09 66.17 67.04 68.69 69.44 72.91 72.24 71.26 70.54 69.59 68.77 68.00 67.75 67.27 67.46 68.16 68.80 68.17 66.46 66.43 65.21 64.75 63.82 63.94 63.54 64.06 63.40 63.16 63.51 64.23
51.33 47.74 43.79 39.57 37.50 42.43 43.41 46.67 47.10 47.69 52.12 48.53 47.34 47.48 49.58 53.48 54.01 58.56 61.55 65.35 65.61 66.14 67.50 70.28 73.17 72.06 71.23 70.07 69.63 68.61 67.99 67.54 67.44 68.16 68.38 69.46 68.22 67.01 66.50 65.02 64.65 64.20 63.81 63.48 63.37 64.04 63.51 63.75 63.95
48.34 43.29 37.33 35.47 37.48 41.48 43.67 46.15 47.07 47.94 50.35 49.23 48.60 47.46 49.11 53.76 58.70 59.78 61.93 64.88 64.70 65.01 67.19 70.48 72.91 72.23 70.90 70.00 69.44 68.67 67.50 67.48 67.34 68.36 68.83 69.23 68.44 67.32 66.05 64.87 64.28 64.46 64.18 64.13 63.27 63.15 64.02 64.14 63.92
46.76 42.33 34.92 32.54 36.51 41.22 42.79 44.74 45.95 47.72 49.43 48.89 46.70 47.38 49.66 55.05 58.81 59.44 60.87 62.69 65.17 65.06 67.66 70.25 71.98 72.38 71.74 70.53 69.53 68.92 67.80 67.52 66.95 67.11 67.86 67.57 68.59 67.64 66.00 65.93 65.15 64.85 65.05 64.95 64.31 63.62 63.33 63.85 64.33
44.75 40.89 35.94 34.60 36.90 39.96 43.45 47.58 47.30 47.90 48.89 49.39 49.90 46.71 51.31 53.52 58.54 59.70 58.98 61.03 63.51 65.11 67.25 68.47 69.92 70.85 71.25 70.71 70.35 70.13 68.58 68.67 68.29 68.11 67.33 67.59 67.20 66.77 66.34 66.22 65.53 65.75 65.73 66.01 65.44 64.48 63.61 63.44 63.78
46.41 43.38 37.25 36.20 36.46 39.39 44.95 47.60 49.29 48.63 47.27 49.94 50.67 48.36 49.02 53.42 58.10 58.95 58.26 58.81 62.36 65.09 66.90 66.89 67.81 68.69 68.00 67.59 70.09 69.78 69.06 68.64 68.84 68.16 67.33 66.83 66.32 66.80 66.82 67.23 66.43 65.90 66.07 66.00 65.54 64.55 63.86 63.05 63.15
47.74 40.67 36.96 38.72 38.63 41.33 46.45 46.37 49.50 51.50 49.15 49.84 51.24 51.02 54.64 55.45 58.30 57.17 56.42 56.40 59.60 64.06 64.77 65.72 65.73 65.57 65.63 65.53 67.06 69.06 68.69 68.10 67.44 66.52 66.21 65.11 62.35 61.82 63.23 64.85 65.67 66.04 66.01 66.11 65.67 64.83 64.00 63.68 63.42
45.38 40.10 41.82 44.77 42.65 43.68 47.47 46.54 48.02 48.56 48.03 48.17 49.71 55.99 56.57 56.97 56.42 56.28 55.64 55.68 56.05 61.34 63.11 64.37 64.00 63.59 63.42 65.52 63.63 64.14 64.62 64.18 63.03 62.38 62.34 62.03 60.67 60.07 62.16 62.86 65.54 65.46 65.77 66.03 65.37 64.91 64.54 63.60 56.79
45.17 42.00 45.65 47.30 47.59 48.45 47.42 47.28 48.53 46.63 46.01 49.04 49.15 50.40 55.23 55.84 56.07 56.25 55.96 56.03 56.22 58.15 61.45 64.02 63.10 62.85 62.03 62.14 60.61 61.73 61.92 61.26 60.66 60.74 60.61 60.45 60.38 58.74 59.02 59.07 59.83 61.11 62.36 61.23 62.31 60.21 58.90 55.80 55.03
43.45 47.53 47.72 49.31 50.17 48.60 47.06 48.12 47.03 47.50 49.03 51.32 51.20 51.32 55.75 55.62 55.84 56.41 56.01 56.09 56.45 57.33 58.02 61.78 63.35 62.65 61.72 61.57 59.62 60.23 60.95 60.14 59.13 59.71 60.04 59.20 58.35 57.52 56.96 57.40 57.73 58.11 59.02 58.45 57.57 56.68 56.21 55.12 54.06
45.25 47.94 49.77 50.47 50.16 48.59 48.57 46.03 46.15 47.18 50.24 50.22 50.74 51.56 54.83 55.81 55.75 56.47 56.91 56.93 56.56 57.14 58.04 58.03 60.80 62.60 62.39 60.23 59.32 59.38 59.73 60.06 59.62 59.21 59.61 59.46 58.41 57.84 56.66 56.46 56.56 57.27 57.50 57.12 56.45 55.89 55.77 54.84 54.34
48.79 48.60 49.07 48.03 47.82 47.05 46.19 46.54 45.20 47.74 49.16 49.10 48.90 50.13 52.34 55.58 55.96 55.49 55.35 56.24 56.74 56.94 57.69 59.01 58.52 60.48 61.50 60.67 58.91 59.59 58.74 59.08 58.80 58.73 59.44 59.36 59.47 58.02 57.03 56.38 56.24 56.83 56.94 56.93 56.74 56.67 55.91 55.64 54.72
47.94 43.96 45.49 46.53 47.57 46.15 46.02 44.39 44.15 48.45 46.72 46.57 46.66 47.08 48.44 50.74 53.07 54.95 56.04 56.19 57.12 57.64 58.14 58.06 59.24 58.96 58.91 59.72 58.36 59.38 59.15 58.87 58.47 59.00 58.33 58.43 58.51 58.09 58.32 56.90 55.74 56.30 56.12 56.19 56.14 55.22 54.71 54.03 54.01
42.09 40.84 37.97 43.48 44.81 46.01 46.61 40.33 46.33 48.53 45.38 46.13 44.39 43.29 44.71 46.74 47.56 48.25 50.04 49.88 49.79 52.71 56.00 56.31 60.04 59.99 59.09 59.17 58.14 57.82 57.65 58.19 58.29 58.11 57.96 57.85 58.35 57.92 56.94 57.60 57.11 56.55 54.78 54.83 54.26 54.32 53.45 53.15 53.32
41.66 34.50 35.99 40.18 43.91 43.27 42.63 39.93 46.33 45.27 44.92 45.15 42.13 43.25 45.86 46.74 48.19 48.87 50.78 50.46 50.86 50.62 50.37 53.41 56.04 58.54 59.28 59.22 59.31 58.11 56.67 56.41 57.00 56.30 56.60 57.12 57.35 57.23 57.12 57.04 57.59 56.26 55.81 54.59 54.79 54.74 53.10 54.08 53.57
36.82 35.20 36.48 36.19 40.86 41.26 39.54 40.96 45.81 44.00 43.06 41.19 41.49 43.39 44.67 46.55 47.14 48.28 49.74 49.16 50.89 50.49 50.68 51.38 53.72 56.42 58.39 58.97 59.54 59.20 59.06 57.58 56.57 56.05 56.29 56.56 56.65 56.69 56.84 57.42 57.34 56.44 56.18 55.96 54.47 54.55 54.94 54.18 55.13
40.04 37.53 35.40 37.95 41.63 39.60 39.61 40.72 43.71 43.36 41.60 40.43 41.87 43.04 44.43 45.97 46.37 48.07 48.35 48.17 48.69 49.61 50.37 50.15 51.50 52.19 56.02 57.84 57.32 57.31 58.25 58.95 58.70 58.88 58.86 58.30 57.59 57.10 56.12 56.96 57.19 57.13 56.43 57.14 57.27 55.43 54.54 54.56 53.60
40.24 36.44 36.30 40.06 42.38 39.64 38.60 39.85 42.42 41.36 41.04 40.97 42.36 42.94 44.28 45.25 45.65 47.14 47.78 47.12 47.07 46.91 47.71 48.87 50.29 51.65 53.86 57.18 58.00 58.65 58.42 58.73 59.32 60.04 60.28 60.32 59.96 59.46 58.41 57.49 58.12 58.15 57.10 56.71 56.68 56.12 55.52 55.40 56.21
38.73 36.51 36.19 37.05 41.05 40.31 38.49 37.72 39.51 39.89 40.94 43.48 43.20 44.07 45.39 45.60 45.51 45.93 46.33 46.27 46.17 46.23 46.61 48.46 48.75 49.56 51.38 54.55 57.60 57.65 57.47 57.12 56.03 56.35 57.17 57.35 57.91 59.20 59.65 59.61 59.52 59.36 57.88 57.56 58.12 57.03 55.98 55.71 57.31
41.24 42.05 39.96 39.25 36.73 33.00 37.90 30.54 35.54 37.75 39.61 41.18 40.67 42.43 44.11 44.75 45.26 46.33 46.58 46.27 46.03 46.39 47.14 47.97 48.62 49.15 49.86 49.66 50.39 50.67 50.90 50.68 51.81 52.88 52.25 51.78 52.89 53.83 54.04 55.07 56.21 57.93 59.25 58.27 58.62 59.60 59.10 57.85 56.42
41.03 42.20 39.78 38.84 35.20 31.67 33.08 31.58 35.47 36.50 38.14 40.19 40.84 41.11 42.41 44.47 45.53 45.93 46.30 46.99 46.66 46.86 46.63 47.01 48.30 48.56 48.01 47.86 47.18 47.19 46.46 47.12 48.13 47.77 47.75 48.43 49.36 50.63 49.66 49.53 49.43 50.85 53.06 55.21 57.46 58.67 59.60 60.19 59.10
42.96 39.14 37.53 34.97 33.25 28.51 33.15 33.87 34.11 34.63 39.45 38.50 39.82 40.88 42.97 44.33 44.53 45.38 46.19 46.75 46.17 45.97 46.51 46.84 47.73 47.29 47.46 47.92 47.49 46.37 45.65 46.02 46.81 46.50 47.03 47.19 47.71 48.53 48.96 48.85 48.24 47.60 47.92 48.64 50.12 51.48 53.27 56.08 57.95
38.90 35.57 29.71 28.49 28.28 28.27 31.85 31.18 38.29 38.63 40.05 42.89 41.82 41.03 42.14 43.84 44.21 44.65 45.04 45.35 45.60 45.18 45.32 47.07 46.63 46.26 46.50 46.89 46.61 46.12 45.85 45.57 45.26 45.21 45.41 45.29 46.15 46.64 47.10 46.83 47.10 47.23 47.52 47.86 47.82 48.26 48.75 50.14 50.95
36.16 36.88 30.76 26.10 26.37 28.54 32.42 29.82 36.89 39.09 40.10 43.36 43.79 42.18 42.21 43.23 43.64 44.16 44.68 44.69 44.27 44.43 44.57 45.06 45.41 45.48 45.83 45.79 45.51 45.07 45.00 45.31 44.94 44.50 44.55 44.40 44.59 45.20 45.39 46.26 46.40 46.45 47.09 47.67 47.80 47.51 47.50 48.03 48.00
35.31 33.85 37.56 33.42 29.79 28.54 31.53 34.76 37.76 40.00 38.95 40.82 41.37 41.51 41.65 42.93 43.45 43.91 44.50 43.99 43.23 43.34 43.91 44.55 44.70 44.60 44.78 44.58 44.58 44.01 43.29 43.12 42.92 42.80 42.72 42.89 42.95 44.99 44.34 44.47 44.33 45.12 45.79 46.53 46.53 45.72 45.81 46.36 46.57
37.61 39.48 33.45 31.87 27.42 25.38 28.29 29.33 33.93 35.65 37.14 39.11 39.90 40.66 41.64 42.61 43.47 43.73 43.87 43.02 43.03 43.70 44.09 43.93 43.42 42.60 42.65 42.74 42.64 43.00 42.02 41.64 41.31 40.77 40.20 40.59 41.33 41.78 41.78 41.94 42.84 43.32 43.97 43.82 43.48 44.33 45.41 45.01 45.55
34.58 32.75 33.25 34.02 31.07 26.99 24.85 30.14 36.63 37.57 39.55 40.58 40.94 41.87 41.63 41.74 43.14 43.22 42.53 42.48 43.21 43.27 42.41 41.54 40.94 40.56 40.41 41.00 40.62 40.00 39.75 39.14 38.16 37.66 38.01 38.27 38.87 39.28 39.41 39.68 40.10 40.02 40.07 40.82 42.24 42.34 43.26 43.81 42.86
35.54 35.44 34.30 30.41 28.58 28.17 26.83 30.68 37.47 37.88 40.46 41.76 41.98 42.28 41.76 42.50 42.75 42.39 42.10 42.65 42.36 41.43 40.23 39.20 38.95 38.71 39.00 39.27 38.43 38.02 36.81 36.11 35.55 35.77 36.18 36.57 36.02 37.03 37.30 37.37 37.20 36.81 37.81 39.14 39.56 39.05 41.89 40.39 40.01

GFSSGP_sfc_wetblb_006.txt.gz
Wetbulb
65.86 56.06 50.15 51.08 44.14 42.45 38.89 43.38 46.70 47.62 48.35 46.92 48.09 46.16 45.91 46.02 45.74 43.27 54.60 61.46 62.79 64.19 65.92 70.20 72.98 72.39 71.93 70.58 70.35 69.14 68.31 66.74 66.55 66.42 65.73 67.07 66.86 66.30 65.51 66.20 65.68 64.25 64.02 63.83 65.47 65.04 65.67 64.60 66.54
57.64 53.93 50.32 46.46 41.03 37.02 39.03 43.36 45.83 47.28 50.77 51.89 47.41 47.25 46.31 46.22 52.78 55.67 56.15 61.86 64.76 65.14 66.88 68.74 72.58 72.37 72.11 71.38 70.57 69.32 68.53 67.65 66.73 66.81 66.82 68.68 67.88 66.18 65.85 65.15 64.62 64.88 64.12 63.80 64.66 65.65 64.48 64.27 65.61
53.34 50.71 46.24 42.90 38.66 37.17 38.91 43.93 47.20 48.65 48.64 48.60 45.99 47.77 46.45 47.53 51.61 55.33 58.76 62.62 65.20 65.74 67.68 68.62 71.96 72.34 72.26 71.18 70.21 69.32 68.41 68.01 67.27 66.92 67.24 68.96 67.96 67.54 66.25 65.18 64.85 64.69 64.32 64.09 64.22 64.23 63.32 63.75 64.42
50.75 47.22 43.04 38.55 36.24 41.49 42.36 43.78 45.48 45.56 48.91 48.70 46.29 46.75 49.06 51.07 52.89 57.86 61.10 64.44 64.60 65.39 66.91 69.36 72.25 72.51 71.83 70.85 69.95 69.18 68.22 67.90 67.31 67.48 68.13 69.55 68.64 67.11 66.97 65.07 64.82 64.36 64.05 63.93 63.83 64.52 63.99 64.01 64.39
47.76 42.75 36.83 34.13 36.12 39.96 42.31 44.62 44.80 44.82 47.25 48.90 46.21 45.76 47.99 51.87 58.14 58.35 62.90 64.85 64.14 64.96 66.42 68.42 72.04 72.43 71.42 70.71 69.96 69.20 68.26 67.80 67.30 67.59 68.21 69.05 69.54 67.66 67.32 65.79 64.67 64.51 64.53 64.33 64.18 63.80 64.02 64.40 64.37
46.49 42.24 35.85 32.65 34.55 39.81 42.00 43.77 44.30 45.15 46.94 49.98 45.16 45.97 48.76 53.28 56.54 58.30 62.82 63.24 64.92 64.99 66.71 68.51 71.74 72.32 71.91 70.67 69.91 69.32 67.97 67.72 67.27 67.34 67.69 68.91 69.11 68.69 66.81 65.75 65.38 65.00 64.80 64.94 64.92 64.56 63.90 63.62 64.25
44.28 40.83 36.80 34.38 36.05 38.63 41.94 46.33 44.17 46.36 46.04 47.95 47.30 45.57 50.00 53.32 57.63 58.98 59.80 61.34 63.75 64.79 66.16 67.75 69.20 70.52 71.23 70.82 70.43 69.86 68.70 68.72 67.96 67.71 68.31 67.13 67.85 67.30 66.05 66.44 66.34 65.70 65.41 65.16 65.91 65.77 65.16 64.31 63.95
45.57 43.25 36.79 35.98 36.60 38.23 43.16 47.24 47.75 46.23 46.95 49.97 49.72 46.31 47.34 52.98 57.47 58.15 57.55 59.99 60.50 63.39 65.44 66.23 67.43 68.46 68.07 67.68 69.97 69.85 69.63 68.92 68.85 68.52 67.94 66.51 66.42 66.60 67.04 67.32 66.98 65.95 65.82 65.62 65.72 65.86 65.38 64.77 63.90
46.50 40.24 37.12 38.81 38.44 40.63 44.50 45.98 48.46 49.64 47.80 48.54 49.32 50.00 53.28 56.01 57.17 56.06 54.53 56.08 58.29 62.71 63.84 65.30 66.13 66.69 66.86 66.27 66.82 69.18 68.96 68.32 67.99 67.38 66.12 64.95 62.09 61.58 62.46 63.97 65.78 66.03 65.74 65.78 65.32 65.58 65.37 65.28 64.53
44.54 39.49 41.12 44.46 42.24 41.83 45.88 45.70 47.63 47.06 46.56 46.65 47.54 53.60 55.56 55.71 54.89 55.59 55.15 55.23 55.49 59.44 62.44 64.18 64.50 64.90 64.83 66.57 64.62 65.11 65.01 64.39 63.25 62.57 61.38 61.86 60.85 60.02 61.29 61.95 64.21 65.53 65.71 65.74 65.50 65.55 65.89 64.45 57.85
44.36 41.29 44.63 46.64 46.88 46.08 46.70 47.14 47.92 45.43 45.02 47.48 48.41 49.79 52.75 54.18 55.55 55.72 55.42 55.51 55.48 56.22 61.15 63.71 63.49 63.66 63.14 63.28 62.10 62.07 62.36 61.72 61.02 60.58 60.20 60.35 60.43 58.51 58.22 57.99 58.10 58.42 61.15 60.10 61.14 60.12 58.90 57.37 56.03
42.73 46.37 46.42 48.39 49.24 47.97 46.78 47.76 46.60 46.54 47.99 50.44 50.01 49.97 50.13 54.30 54.92 55.73 55.36 54.84 54.28 56.17 58.08 62.33 63.36 62.86 62.00 61.72 60.68 60.38 60.66 60.25 59.44 59.44 59.59 58.53 58.11 57.52 56.66 56.41 56.57 56.51 57.39 57.59 57.81 57.41 57.06 56.08 55.51
44.43 46.67 48.61 49.38 49.41 48.51 48.35 45.79 45.39 46.25 49.59 49.55 49.27 49.11 49.21 52.43 54.56 54.87 55.87 56.14 55.76 56.09 57.38 57.92 61.84 62.74 62.29 60.77 59.95 59.03 58.98 60.23 59.64 58.91 58.96 58.77 57.76 57.16 56.67 56.33 55.91 56.04 56.69 56.75 56.87 56.65 56.97 56.11 55.50
47.91 48.41 48.60 48.32 48.58 46.77 45.68 46.20 45.00 46.48 47.68 48.01 47.75 47.45 47.47 50.07 54.26 54.07 55.21 55.78 55.67 56.52 56.86 57.99 57.90 61.32 61.97 61.68 59.74 59.85 58.56 58.81 58.73 58.66 58.69 58.62 58.32 57.52 56.98 56.43 56.16 55.71 56.54 57.17 57.04 57.07 56.89 56.41 55.30
48.11 44.27 46.00 45.59 46.25 46.39 45.57 44.18 43.69 47.90 44.86 46.43 45.50 44.34 45.87 46.62 48.68 48.89 50.93 50.57 50.75 52.12 55.58 57.05 58.00 57.98 60.31 60.69 59.88 59.71 59.28 59.12 58.10 58.54 58.07 58.13 58.12 57.50 57.78 56.70 56.43 56.86 56.29 56.51 56.42 56.01 55.71 55.48 55.28
43.00 40.64 37.49 43.31 43.83 45.06 44.80 39.39 44.73 46.80 45.02 45.38 44.45 42.66 44.93 47.08 47.97 48.52 49.79 49.68 50.05 49.98 50.21 51.31 58.16 58.56 57.42 58.39 58.36 58.55 58.66 58.45 58.17 57.74 57.82 57.72 58.03 57.63 56.87 57.20 57.54 57.54 55.33 55.15 54.94 54.92 54.10 53.77 54.00
41.89 38.01 35.95 39.70 43.35 42.72 41.56 38.45 43.88 43.92 43.85 42.81 40.95 41.82 44.23 45.89 47.04 47.29 48.54 48.87 49.84 49.42 49.67 50.93 53.36 56.21 57.87 57.33 57.53 56.95 56.66 56.83 57.03 56.71 56.66 57.02 57.35 57.35 56.82 57.03 57.37 56.50 55.29 54.40 54.53 54.93 53.30 54.76 54.91
38.91 38.25 35.05 36.17 40.09 39.99 39.26 39.42 44.65 43.35 42.23 41.05 40.06 41.82 43.25 45.23 45.76 46.77 47.74 46.83 48.13 48.68 49.70 50.49 52.16 52.55 56.08 57.61 57.62 57.74 57.37 56.24 55.48 55.05 55.31 55.77 55.88 56.07 55.95 56.27 56.32 56.01 55.05 55.37 54.44 53.90 55.96 55.33 55.56
40.86 36.93 37.42 38.10 40.75 37.74 37.74 37.99 41.92 43.27 42.02 39.98 40.30 42.55 43.11 44.94 45.11 46.92 46.91 46.55 47.16 47.14 47.53 47.95 50.94 51.93 55.82 56.73 56.33 56.37 56.83 57.68 58.11 58.82 59.26 58.69 57.86 57.32 55.99 55.56 55.73 55.89 55.12 56.29 56.71 55.11 53.80 55.15 54.80
40.63 39.14 35.50 39.81 40.79 38.06 38.41 38.52 41.45 41.46 41.37 39.77 41.40 42.36 43.18 43.98 44.86 46.05 46.18 45.64 45.76 45.87 46.96 48.23 48.60 49.56 52.85 56.43 56.94 57.50 57.53 57.92 58.11 57.18 55.74 55.67 57.00 57.27 57.63 57.25 57.06 57.01 56.57 56.51 55.82 55.68 56.50 56.78 56.84
40.22 38.73 37.00 37.84 39.55 39.16 37.02 36.43 37.52 38.93 39.75 41.31 42.22 42.99 43.61 44.28 44.85 44.68 45.13 44.93 45.11 45.32 45.76 47.27 47.39 48.44 49.18 50.64 53.95 53.46 53.80 52.47 51.38 51.45 50.33 50.91 51.42 50.62 50.32 50.73 51.62 53.18 55.48 56.05 56.65 57.06 56.93 56.15 57.55
40.00 41.41 42.01 38.84 35.82 31.77 36.64 29.87 34.77 36.61 37.95 39.86 40.13 42.11 43.00 43.93 43.88 45.68 46.02 45.54 45.30 45.68 46.39 46.74 47.48 47.62 48.21 47.64 48.33 47.53 47.22 46.48 47.33 47.78 47.20 48.04 48.70 48.71 48.34 48.17 47.68 47.67 49.51 48.83 50.57 51.42 54.21 55.29 54.33
42.25 43.51 41.72 40.50 34.15 30.17 32.45 30.67 33.93 34.15 36.48 38.60 39.64 40.65 41.99 43.25 44.23 44.74 45.31 45.74 45.64 45.98 45.30 45.55 46.98 47.18 47.07 47.12 46.47 46.62 45.49 45.41 45.80 45.76 45.36 45.76 46.63 47.42 47.38 47.01 46.27 46.14 46.87 46.62 46.88 47.37 47.81 49.14 50.73
45.04 41.34 39.22 36.70 32.97 28.00 32.41 33.12 31.80 33.98 36.14 36.88 38.37 39.84 42.26 43.26 43.79 44.45 44.78 45.03 44.47 44.64 45.05 45.26 46.52 45.97 46.16 46.30 45.75 44.96 43.90 43.58 43.75 43.72 43.58 44.25 44.88 45.57 45.61 45.81 45.60 45.33 45.55 45.82 46.50 46.68 46.21 46.79 47.59
41.87 38.78 32.05 29.36 27.69 27.65 30.59 29.39 34.19 37.06 38.53 40.92 41.07 40.32 41.67 42.83 43.18 43.67 43.68 43.58 43.58 43.72 44.38 45.75 45.40 44.58 44.87 44.68 44.03 43.60 43.09 42.35 41.84 41.74 41.95 41.39 41.98 42.65 42.98 43.28 43.63 43.97 44.55 45.20 45.76 45.62 45.29 45.67 45.81
39.47 37.01 29.99 26.00 25.83 27.67 30.73 28.79 35.11 36.86 39.05 40.28 43.07 41.65 41.75 42.31 42.49 43.43 43.23 42.57 42.71 43.53 43.65 43.84 43.75 43.43 43.65 43.53 42.50 41.59 41.29 41.63 41.05 40.45 40.52 40.18 40.44 41.02 41.05 41.57 41.89 42.46 43.03 43.66 43.30 43.21 43.75 44.41 44.45
35.28 34.97 36.65 31.69 27.73 27.82 30.79 33.38 38.58 38.75 38.37 38.00 40.09 40.61 40.87 41.75 42.46 42.96 42.39 41.88 42.38 42.83 42.82 42.48 42.06 41.74 41.72 41.39 41.16 39.59 38.95 38.54 38.06 38.13 37.73 37.92 38.12 39.96 39.33 38.80 38.81 39.55 39.76 39.71 39.93 40.91 41.28 41.94 43.11
37.93 39.77 32.75 31.49 26.96 25.12 27.75 28.25 32.92 35.73 36.41 36.97 37.98 39.24 40.33 41.70 42.25 42.35 41.83 41.80 42.48 42.42 41.35 40.60 40.44 39.85 39.72 39.39 38.87 38.10 36.74 36.34 35.94 35.61 34.76 34.87 35.58 35.98 36.21 36.23 36.23 36.30 36.13 36.88 37.08 39.85 38.27 39.22 42.11
34.42 32.89 32.36 33.73 30.50 26.62 24.28 29.67 34.94 35.99 37.47 38.51 38.56 39.41 40.22 41.54 42.13 41.98 41.22 41.96 42.00 40.67 39.48 38.60 38.47 38.28 37.64 37.60 36.51 35.12 34.72 34.32 33.65 33.15 33.20 33.18 33.41 33.90 34.13 34.26 34.54 34.21 34.16 34.90 35.07 37.06 36.38 37.61 37.61
34.70 34.45 34.24 30.72 27.20 26.79 26.44 30.11 36.26 36.24 36.96 39.79 39.70 40.80 40.62 41.93 42.30 41.30 41.14 41.42 40.38 38.69 37.46 36.62 36.69 36.45 36.20 36.29 34.57 33.27 32.63 32.01 31.17 31.14 31.63 32.04 31.39 32.61 32.54 32.70 32.92 32.82 33.15 33.52 34.14 33.43 34.07 35.56 34.37

GFSSGP_sfc_wetblb_009.txt.gz
Wetbulb
64.19 55.90 54.95 56.30 49.64 47.61 44.21 47.39 50.95 51.00 52.42 54.43 52.99 50.99 51.60 52.52 50.77 50.44 60.71 64.90 65.31 66.71 67.75 71.49 73.26 72.73 72.66 71.51 70.43 69.09 68.62 67.39 66.95 66.22 66.40 65.56 66.36 65.73 65.41 65.86 65.47 64.73 64.33 64.20 64.69 65.06 65.92 64.81 65.99
57.91 54.67 54.39 50.94 45.50 42.13 44.16 48.31 49.15 51.58 52.98 54.16 52.15 51.93 51.63 52.05 56.95 59.07 61.76 64.31 66.00 66.96 68.36 70.98 73.15 72.49 72.51 71.34 70.90 69.74 68.73 67.49 66.72 66.64 66.33 66.95 67.77 66.75 65.72 64.98 64.56 64.92 64.80 63.97 64.47 65.89 65.92 64.74 65.77
55.28 53.10 50.89 46.82 42.80 41.98 44.16 48.34 49.98 50.61 50.34 50.35 51.69 52.61 52.39 53.23 55.66 59.37 62.96 65.27 66.77 66.97 68.72 70.61 72.18 72.63 72.45 71.90 71.27 69.97 68.88 68.63 67.36 66.77 67.38 68.25 68.71 66.43 66.49 65.37 64.76 64.66 64.32 64.39 64.22 64.95 64.55 64.37 64.63
53.23 51.78 47.96 43.00 41.29 45.74 46.81 49.29 48.84 47.96 52.46 52.04 51.34 50.99 54.20 56.36 58.56 61.47 63.67 65.93 66.79 67.43 69.12 70.63 72.12 72.42 72.93 71.69 70.50 69.47 69.01 68.31 67.69 67.13 67.24 68.14 69.05 67.86 67.12 65.81 64.74 64.28 64.13 64.06 64.16 63.87 64.76 64.45 64.32
51.36 47.85 42.49 40.03 40.19 43.72 46.42 47.70 47.68 48.03 49.65 51.48 51.39 51.32 53.26 57.15 61.84 62.05 65.18 65.89 66.39 67.62 69.23 69.98 71.47 72.47 72.06 71.19 70.44 69.55 68.93 68.21 67.56 67.36 68.09 68.41 69.65 69.03 67.06 66.42 65.10 64.68 64.56 64.61 64.44 64.34 64.11 63.88 64.52
51.06 47.26 42.30 40.46 40.42 43.42 45.25 46.65 47.46 48.80 50.05 51.82 50.62 50.96 54.05 58.33 61.42 62.08 65.49 66.22 66.97 67.61 68.81 69.54 71.00 72.64 72.42 71.48 70.55 69.79 68.86 68.17 67.53 67.42 67.75 68.52 69.42 69.46 68.75 66.57 65.54 65.28 65.05 64.73 64.90 65.09 64.97 64.42 64.22
49.68 46.26 42.69 40.83 41.18 42.93 44.90 49.26 48.89 49.37 49.25 51.40 52.15 50.73 54.32 57.95 60.94 62.23 65.08 66.03 66.92 67.73 68.45 69.25 70.21 71.70 71.49 71.36 70.93 70.51 69.43 69.01 68.82 68.10 68.07 68.83 68.06 67.74 66.20 66.35 66.45 66.48 65.97 65.20 65.17 66.37 65.99 65.49 64.89
49.04 47.72 41.05 41.68 41.93 42.85 46.44 49.21 51.05 50.16 50.72 53.58 53.63 51.26 53.23 57.45 60.33 61.46 62.18 64.26 65.64 66.82 67.96 68.77 69.83 71.20 71.27 70.70 70.22 70.07 69.87 69.34 69.07 68.65 68.10 67.26 66.48 66.66 66.69 67.39 66.57 66.62 66.02 65.79 65.39 65.90 66.43 65.48 65.30
49.87 44.41 40.92 42.86 41.42 45.80 47.45 48.77 51.50 52.77 51.10 51.67 52.93 54.73 57.32 59.36 59.83 60.17 60.09 60.36 63.07 64.80 66.63 68.15 69.09 70.32 70.53 70.28 69.30 69.57 69.11 68.65 68.01 67.64 66.79 66.00 66.10 65.48 64.98 64.68 65.16 65.72 66.00 65.71 65.56 65.53 65.75 66.10 65.49
48.16 43.46 43.71 47.33 45.92 45.72 47.69 48.88 50.58 50.51 49.81 50.56 52.17 54.86 58.73 58.91 59.16 59.31 59.10 59.47 59.61 62.52 65.13 66.95 68.15 69.03 69.78 69.30 69.62 69.33 68.82 68.71 67.76 66.94 66.14 66.06 65.72 64.85 63.69 62.91 63.42 64.55 65.14 65.58 65.73 65.64 65.70 65.62 64.62
47.19 44.47 46.90 48.32 48.65 48.25 48.12 49.30 51.30 49.33 48.85 50.50 51.59 53.09 53.62 57.09 58.20 58.68 58.93 59.12 59.60 60.64 63.53 65.97 67.09 68.09 68.45 68.61 68.57 68.17 68.06 67.75 67.05 66.00 64.88 64.55 64.09 64.11 63.69 63.37 63.28 63.50 61.97 63.12 63.24 63.42 63.49 63.49 63.35
45.54 47.30 48.15 49.96 50.80 50.55 49.05 50.44 49.74 49.47 51.93 53.40 53.01 52.44 51.83 52.83 54.63 57.07 58.38 59.26 59.34 59.94 61.12 64.02 66.36 66.85 67.27 67.63 67.23 66.89 66.12 66.18 65.68 65.08 64.24 63.37 62.98 62.77 62.85 62.69 62.79 62.37 62.58 62.25 62.37 62.10 62.38 62.37 62.39
46.09 48.30 49.50 49.99 50.10 49.78 50.28 49.10 49.51 48.91 51.79 53.08 51.55 51.38 51.37 51.25 53.23 57.12 58.94 59.66 60.09 59.37 60.54 61.33 64.10 65.92 66.59 66.09 66.07 65.54 64.80 64.81 64.92 64.62 64.08 63.35 62.60 62.23 62.54 62.44 62.29 62.10 62.22 61.80 61.64 61.64 61.37 61.33 61.36
49.56 49.64 50.39 50.21 50.71 49.36 47.99 49.52 48.35 52.31 51.38 51.08 50.11 50.14 49.38 49.54 53.09 57.39 57.79 58.44 58.66 58.73 59.29 60.92 61.09 63.85 65.71 65.69 65.55 65.16 64.52 64.25 63.53 63.60 63.51 63.04 62.62 62.28 61.95 62.00 61.81 61.68 61.80 61.90 61.46 61.26 61.11 61.04 61.13
49.67 47.11 48.08 48.17 49.10 48.95 48.45 45.85 45.27 52.01 49.92 49.44 49.41 47.75 48.80 49.84 51.40 51.53 52.29 52.87 53.21 54.33 54.73 55.50 59.04 61.43 63.32 64.70 65.03 64.79 64.34 63.56 63.19 62.94 62.85 62.41 62.23 62.30 62.14 61.80 61.48 61.59 61.72 61.18 61.04 60.65 60.31 59.79 60.04
46.69 45.52 42.89 47.63 46.84 47.24 47.37 43.33 47.82 47.80 47.68 48.30 47.68 47.48 48.75 49.40 49.86 50.73 51.71 52.81 53.53 53.81 54.53 55.50 56.28 60.76 61.15 62.50 63.21 63.46 63.45 63.46 63.23 62.81 62.47 62.05 61.80 61.80 61.55 61.03 61.17 61.64 61.09 60.47 59.96 59.73 59.21 59.14 57.96
42.99 39.77 40.05 43.61 46.73 46.72 45.23 42.59 46.83 47.79 47.73 47.30 46.87 47.52 48.43 49.00 49.84 49.91 50.54 51.25 52.41 53.33 54.30 55.80 56.70 57.95 60.06 60.28 61.03 61.32 61.18 61.68 61.88 61.56 61.33 61.16 60.96 60.89 60.60 60.55 60.72 60.80 60.21 59.89 59.44 59.38 58.83 58.48 59.31
37.59 39.95 39.82 39.82 43.88 43.27 42.26 41.90 45.28 46.31 46.37 47.11 46.44 46.73 47.68 47.97 48.05 49.18 49.95 50.39 51.10 51.81 52.97 54.99 56.58 57.61 60.00 60.81 61.14 61.55 61.60 61.67 61.55 61.71 61.74 61.31 60.94 60.36 59.94 60.23 60.34 60.42 59.93 59.94 59.95 59.04 59.45 58.08 58.14
41.64 41.59 41.35 42.33 43.60 41.74 41.13 40.50 44.37 46.05 45.37 45.07 43.97 46.00 47.01 47.56 48.52 49.13 49.46 49.90 51.12 51.04 51.78 52.19 54.96 57.06 60.21 60.44 60.54 61.03 60.00 58.84 57.30 56.56 56.17 56.24 57.01 57.49 57.37 57.22 56.78 57.49 57.60 57.58 58.02 58.37 57.82 58.10 59.33
41.55 40.10 39.17 41.59 42.69 41.91 41.71 41.44 44.88 44.51 44.93 45.26 44.08 45.53 46.62 47.25 47.77 48.21 48.80 49.30 49.08 49.63 50.46 51.16 51.65 52.93 57.16 60.31 60.53 60.75 57.69 55.20 54.31 53.74 53.14 53.06 51.95 51.70 51.56 51.51 51.66 52.14 52.79 52.48 52.99 53.94 53.21 54.76 56.59
41.71 40.14 39.21 40.35 41.52 42.01 39.63 39.91 40.95 43.69 44.09 43.37 44.37 46.25 46.80 47.23 46.92 47.35 48.04 48.25 48.93 48.79 49.21 50.15 50.80 51.24 51.78 53.72 54.83 54.42 54.08 53.40 52.24 50.98 50.57 50.59 50.97 50.09 49.80 49.85 49.64 49.85 50.37 49.53 50.29 50.73 50.18 48.94 51.24
40.85 42.92 43.32 40.67 40.33 36.52 40.72 33.71 38.52 42.25 41.51 42.23 43.41 45.38 46.04 46.62 47.23 47.66 47.79 48.12 48.52 48.32 49.65 49.99 50.10 50.45 50.78 51.86 51.23 50.34 49.66 48.02 48.52 48.72 48.95 48.94 49.30 49.06 48.03 48.30 48.35 48.41 48.64 48.13 48.59 48.96 48.93 48.38 47.25
42.68 45.47 43.96 42.46 38.95 35.49 35.97 34.95 38.31 38.58 39.05 40.84 42.35 44.10 45.45 46.59 47.30 46.70 47.25 47.63 47.93 48.56 48.48 49.11 49.18 48.87 49.05 49.07 49.12 48.39 46.99 47.40 47.14 46.81 46.26 46.60 46.94 47.58 45.96 46.23 46.44 46.32 46.64 47.10 47.35 47.18 47.31 47.97 47.06
42.71 41.58 40.46 38.63 36.24 31.20 34.95 36.39 36.52 38.52 39.75 40.12 41.95 43.25 44.96 45.79 46.42 46.38 46.71 47.16 47.28 48.21 48.48 48.62 47.88 46.85 47.05 47.09 46.83 46.12 45.29 44.54 44.04 43.74 43.11 43.41 43.84 44.60 43.65 43.67 43.85 44.31 44.09 44.42 44.96 45.70 46.23 46.14 46.37
42.78 41.18 34.19 30.79 30.04 30.64 33.71 32.79 38.06 40.47 41.12 42.96 43.38 43.10 44.66 45.99 45.95 45.94 45.91 46.29 46.70 47.10 47.53 47.48 46.97 45.25 45.41 44.83 44.21 44.18 43.42 42.78 41.53 41.03 40.50 40.09 40.21 41.15 40.94 41.51 41.05 41.49 41.78 41.89 42.29 42.48 44.07 44.29 44.20
41.86 41.10 34.13 28.59 28.19 30.70 32.85 31.85 38.32 41.51 42.31 42.40 44.33 44.11 44.77 45.14 45.71 45.75 45.68 45.84 45.97 45.90 45.86 45.63 45.07 44.28 44.00 43.08 41.67 41.38 41.23 40.54 39.84 39.47 39.06 38.54 38.57 39.38 39.61 39.59 39.57 39.50 39.45 39.21 39.95 40.11 42.79 41.37 42.20
37.90 38.12 40.12 32.94 31.79 30.83 33.87 36.57 41.20 41.53 40.61 40.19 41.55 42.96 44.01 44.51 44.93 45.16 44.76 45.33 45.31 44.80 44.20 44.04 43.34 42.69 42.55 41.36 39.79 38.69 38.45 37.98 37.49 37.57 37.68 37.36 37.50 37.66 37.70 37.96 37.64 38.02 37.80 37.79 38.06 38.09 39.47 39.43 40.13
41.16 42.48 35.72 34.17 29.28 27.70 30.99 31.50 36.14 38.84 39.74 39.19 39.65 42.46 43.02 43.93 44.40 44.25 44.02 44.56 44.29 43.14 42.57 42.54 41.98 40.92 40.25 39.09 38.31 36.86 36.60 36.52 36.39 36.38 35.45 35.49 35.98 36.24 36.19 36.16 36.23 36.41 36.35 36.50 36.58 36.87 37.76 37.61 37.36
36.54 36.61 36.00 36.03 33.13 29.89 27.88 32.86 38.14 38.71 39.39 40.38 40.24 42.00 43.05 43.70 44.14 43.85 43.70 44.30 42.81 41.67 41.13 40.54 39.93 39.38 38.44 37.11 36.03 35.29 35.06 35.01 34.94 34.59 34.66 34.70 34.96 34.88 34.64 34.59 34.67 34.75 34.71 35.11 35.07 35.18 35.85 35.25 36.40
37.66 37.01 37.36 32.76 29.54 29.46 30.11 33.26 39.38 38.38 38.75 40.50 40.79 41.69 43.19 44.41 44.16 43.43 43.54 42.52 40.87 39.65 39.03 38.58 38.12 37.54 36.69 35.59 34.68 34.09 34.03 33.80 33.45 33.40 33.59 33.95 33.44 34.02 33.64 33.61 33.47 33.54 33.60 33.94 33.68 33.47 34.45 34.53 34.63

GFSSGP_sfc_wetblb_012.txt.gz
Wetbulb
66.57 59.82 62.18 60.68 52.31 52.43 47.88 49.73 55.04 53.24 54.51 56.22 56.73 55.23 55.31 56.27 54.46 53.20 65.89 68.74 68.01 68.86 69.22 72.94 73.62 73.25 72.48 72.37 70.74 69.76 68.95 67.59 66.69 65.93 65.81 64.91 65.77 65.30 65.16 65.38 65.36 65.24 64.77 64.53 65.81 66.41 67.46 65.95 65.19
63.76 58.72 60.40 57.94 48.17 45.40 46.95 52.92 52.86 54.51 54.97 55.98 56.13 55.99 55.09 55.09 58.81 61.59 64.74 68.18 68.39 68.98 69.41 71.27 72.94 72.84 73.02 72.08 71.11 69.70 69.00 67.83 66.72 66.45 65.72 66.43 67.22 66.52 65.67 65.03 64.70 64.80 65.22 64.48 64.59 65.73 66.09 65.60 65.73
61.02 57.82 55.58 52.81 48.55 44.66 47.63 52.59 52.58 53.70 55.78 54.77 55.83 56.14 55.99 56.37 58.83 61.89 66.47 68.43 68.75 69.00 69.94 71.13 73.42 72.76 72.82 71.72 71.33 70.28 69.22 68.53 67.33 66.47 67.18 67.31 68.54 66.25 66.33 65.08 64.91 64.64 64.34 64.43 64.33 64.30 65.02 65.27 64.98
60.19 58.94 55.06 47.76 44.05 48.22 49.80 52.37 51.48 53.43 55.78 56.00 56.44 55.24 57.38 60.51 61.19 64.88 67.10 68.42 68.40 68.99 70.31 71.33 72.92 72.69 72.89 72.37 71.39 70.25 69.38 68.51 68.04 67.48 66.96 67.63 68.90 68.01 67.31 66.24 64.73 64.04 64.00 64.25 64.22 64.08 63.85 64.62 64.72
60.97 56.18 50.12 47.58 46.78 47.40 50.33 51.56 51.73 51.89 54.14 55.48 56.09 55.79 56.41 61.21 64.79 65.34 67.30 68.13 67.80 68.85 69.95 70.12 71.81 72.34 72.20 71.75 70.70 69.75 69.28 68.16 67.82 67.37 67.38 68.42 68.67 69.55 67.73 66.88 65.24 64.19 64.47 64.60 64.62 64.57 64.65 64.56 64.16
56.26 55.05 47.82 46.29 48.03 50.39 52.57 52.17 52.50 53.26 54.38 55.25 55.19 54.73 57.40 62.83 64.17 65.46 67.96 68.04 68.40 68.91 69.72 69.53 70.71 72.20 72.50 71.71 70.87 69.44 69.30 68.46 67.91 66.97 67.71 67.72 68.72 69.25 69.35 67.22 65.76 64.81 65.48 65.26 64.60 65.64 65.93 65.46 65.11
54.24 51.76 48.08 48.23 48.01 49.61 50.21 52.61 51.99 52.76 54.05 54.27 56.05 53.55 57.73 61.55 64.65 66.28 67.90 68.31 68.70 69.30 69.64 69.67 70.04 71.42 71.93 71.86 71.47 70.66 69.74 68.96 68.55 67.58 67.33 68.44 67.42 67.20 67.22 66.17 65.68 66.70 66.45 65.80 65.25 65.94 66.38 66.32 65.85
56.12 53.03 48.07 48.75 47.79 48.48 52.01 51.30 55.13 53.87 53.49 57.42 56.70 54.70 56.05 61.41 63.45 65.64 66.94 67.55 68.46 69.10 69.49 69.64 70.04 71.21 71.61 71.39 70.43 70.46 70.19 69.61 69.37 69.01 68.30 67.48 66.56 65.78 65.52 66.25 66.20 66.20 66.49 65.96 65.69 65.82 65.98 66.35 66.31
55.51 49.43 46.58 48.18 48.13 50.09 51.81 51.99 56.15 57.08 55.18 55.76 56.68 57.21 59.13 62.08 63.14 64.14 64.11 65.40 66.76 67.69 69.10 69.94 69.77 70.59 71.17 71.03 70.45 69.87 69.14 68.67 68.21 67.82 67.06 66.70 65.80 66.72 65.79 65.44 64.78 65.11 65.43 65.73 65.63 65.57 65.95 66.73 66.10
53.41 49.45 49.04 52.65 53.06 51.71 52.49 53.50 54.81 54.61 54.93 55.04 55.28 57.85 58.72 59.09 61.06 61.55 62.58 63.01 64.29 65.84 67.64 69.03 69.75 69.86 70.61 70.08 70.61 70.28 69.69 69.53 69.01 68.21 67.51 66.53 65.85 66.30 65.52 63.98 63.52 64.53 64.91 65.22 65.47 65.46 65.38 65.72 65.30
53.82 49.42 52.92 52.89 53.62 53.29 53.01 53.85 55.50 54.26 53.20 54.99 54.54 56.08 57.89 58.14 58.67 59.41 60.94 63.09 63.91 64.85 66.24 67.86 69.23 69.84 70.04 70.06 70.31 70.11 69.87 69.55 69.09 68.49 67.83 66.53 65.53 65.55 65.86 65.56 65.21 65.25 63.34 64.57 64.93 64.97 64.72 64.57 64.75
50.26 53.25 53.74 54.14 54.33 53.62 53.01 55.13 53.97 55.44 55.85 58.63 58.44 58.66 57.08 57.13 57.44 58.16 59.46 62.08 63.73 64.08 64.83 66.15 68.10 69.16 69.67 70.01 69.89 69.66 69.24 69.15 68.76 68.40 67.60 66.76 65.65 65.03 64.72 64.37 64.54 64.66 64.85 64.54 64.79 64.52 64.73 64.59 64.57
51.25 53.03 53.85 54.72 54.28 53.91 54.64 53.28 54.24 54.90 57.94 59.32 59.01 57.47 56.46 56.48 56.94 58.21 61.44 62.70 63.78 63.75 64.84 65.43 66.21 67.80 69.00 69.29 69.55 69.41 68.77 68.41 68.24 68.17 67.51 66.93 65.82 64.98 65.00 64.79 64.93 64.88 64.97 64.82 64.75 64.86 64.72 64.76 64.89
54.04 53.46 53.52 54.54 54.24 54.61 52.42 53.81 52.96 55.73 58.67 58.16 57.17 56.22 56.15 54.88 55.45 58.36 60.25 61.66 62.69 62.86 62.93 63.88 65.15 66.02 67.84 68.54 69.02 68.83 68.83 68.38 68.04 67.74 67.28 66.35 66.14 65.86 65.54 65.20 65.11 65.09 65.29 65.29 65.04 64.83 64.68 64.53 64.79
54.60 50.28 52.58 53.38 53.89 53.23 54.51 50.94 51.74 56.38 55.52 53.27 54.20 54.86 53.98 54.61 55.82 56.24 57.20 57.88 58.50 59.82 59.81 60.49 60.87 64.03 66.18 67.48 68.28 68.54 68.71 67.71 67.71 67.58 67.03 66.14 65.89 65.75 65.58 65.05 64.98 65.31 65.50 64.97 65.11 64.94 64.89 64.45 64.52
50.52 51.09 46.37 52.11 53.43 53.80 51.93 46.75 53.29 54.51 52.36 52.13 52.27 53.33 54.17 53.89 54.57 55.80 56.45 57.34 58.35 59.21 60.38 61.33 60.42 61.52 64.73 66.29 67.12 67.62 68.03 67.95 67.92 67.63 67.06 65.88 65.40 65.09 65.06 64.72 64.83 65.30 64.98 64.84 64.40 64.05 63.36 63.18 63.00
49.34 43.82 45.57 48.04 53.04 52.21 50.02 48.38 52.21 52.38 52.25 52.28 53.34 53.04 53.43 53.99 54.70 55.54 56.08 56.81 57.86 59.21 60.74 61.41 61.67 62.68 63.99 64.87 65.48 65.45 65.25 66.14 66.00 66.29 65.97 64.93 64.51 64.38 64.52 64.60 64.65 64.35 63.70 63.09 62.65 62.30 62.08 61.10 60.78
42.25 43.80 45.67 46.04 49.51 48.59 48.45 48.29 51.47 53.03 51.69 52.28 52.54 52.74 53.28 53.33 53.06 54.55 55.25 56.83 57.44 59.36 61.18 62.02 62.99 63.49 64.14 64.69 65.05 65.30 65.33 65.22 64.57 63.44 62.83 63.16 62.00 61.49 61.74 60.16 58.78 59.43 59.29 58.41 57.88 57.87 58.93 58.86 59.08
47.35 45.87 45.19 48.02 49.70 47.01 48.23 49.20 49.77 53.14 52.86 51.79 51.82 52.23 52.75 52.74 53.30 54.27 54.98 56.34 57.07 58.09 59.32 61.24 62.68 63.71 64.40 64.50 63.96 62.60 59.56 58.79 57.44 56.86 56.24 55.69 55.48 55.32 55.29 55.25 54.82 54.99 54.77 54.24 54.23 54.30 53.46 53.87 55.13
47.66 44.75 44.05 48.26 47.32 46.76 48.38 48.45 51.46 52.81 51.66 51.89 51.79 51.90 52.33 51.96 52.72 53.09 54.09 54.76 55.26 55.87 56.68 58.04 60.07 62.81 63.67 64.25 62.36 59.41 57.47 56.32 55.84 55.43 54.68 54.42 53.64 53.32 53.04 53.02 52.94 53.02 52.83 52.69 52.37 52.45 51.28 51.86 52.60
46.04 43.58 44.99 45.08 46.46 48.22 46.22 46.96 49.13 48.51 48.53 48.33 50.32 52.82 52.75 52.31 51.74 52.43 53.18 53.94 54.82 54.65 55.08 55.52 56.48 57.45 57.99 58.32 57.71 57.19 56.89 56.09 54.57 53.52 52.91 52.40 52.53 51.31 51.22 51.21 51.11 51.05 51.17 50.26 50.42 50.13 49.39 47.76 49.62
41.75 48.59 47.26 45.38 43.74 41.23 46.68 40.60 47.20 49.40 47.74 47.66 49.42 51.08 51.64 51.99 52.45 52.58 52.91 53.42 53.81 54.05 55.19 55.07 55.16 55.22 55.85 56.75 55.76 54.80 53.40 51.39 51.57 51.56 51.63 51.18 50.68 49.24 47.99 48.23 48.22 48.27 48.23 47.69 47.57 47.64 47.69 47.51 45.65
45.50 49.11 47.47 46.19 43.56 41.51 44.61 41.22 46.02 45.57 45.94 46.39 48.98 50.57 51.24 52.13 52.16 51.78 52.25 52.37 53.15 54.07 54.03 53.94 53.59 53.22 53.49 53.60 53.59 52.47 51.05 50.83 50.51 49.96 49.12 48.65 48.34 47.48 45.56 45.63 45.64 45.51 45.52 45.66 45.56 45.34 45.39 46.33 44.93
47.84 45.88 45.19 44.52 41.40 37.94 43.54 42.07 44.07 45.96 45.93 46.94 48.85 50.31 50.82 51.40 51.77 51.85 52.01 52.51 52.48 53.34 53.23 52.82 51.64 51.00 51.51 51.23 50.82 50.18 49.12 48.09 47.55 46.66 45.87 45.50 45.21 45.22 43.97 43.79 43.88 44.01 43.64 43.29 43.42 43.87 44.34 45.00 44.00
46.94 43.53 36.39 34.97 34.87 36.48 40.17 39.35 45.01 47.42 46.42 48.24 48.27 49.89 50.83 51.47 51.10 50.69 50.87 51.46 51.84 51.87 51.78 51.06 50.17 48.66 49.27 48.69 48.06 47.57 46.86 45.97 44.69 43.91 43.18 42.41 42.34 42.43 41.87 42.37 42.00 41.97 42.06 41.98 42.20 42.18 42.88 43.80 42.14
42.19 44.94 39.20 32.12 34.42 37.72 38.27 38.12 44.41 46.35 47.42 47.93 50.69 51.18 51.19 50.97 51.50 51.22 51.57 51.63 51.21 50.77 50.54 50.07 48.99 47.68 47.06 46.34 45.28 45.00 44.51 43.80 42.71 41.99 41.59 40.98 40.66 40.76 41.05 40.71 40.76 40.65 40.69 40.83 41.01 41.06 41.34 42.05 41.79
41.31 39.77 45.13 38.43 38.50 37.95 41.04 43.26 46.79 46.14 45.88 46.27 48.14 49.70 49.82 50.57 50.84 50.83 51.06 51.29 50.58 49.91 49.33 48.90 47.99 46.67 45.51 44.43 43.83 42.49 42.00 41.45 40.83 40.58 40.70 39.96 39.75 39.20 39.71 39.98 39.66 39.99 39.86 39.75 39.67 39.58 39.58 39.90 40.59
44.70 47.91 38.22 40.34 33.33 32.39 38.28 39.31 43.15 44.66 44.95 44.99 46.52 48.34 49.78 50.47 50.45 50.34 50.46 50.37 49.88 48.83 48.18 47.80 47.11 44.95 43.94 43.00 42.06 41.01 40.20 39.99 39.79 39.65 38.77 38.83 38.94 38.93 38.82 38.67 38.58 38.60 38.67 38.65 38.52 38.52 38.69 38.36 38.64
43.34 41.59 42.30 42.62 39.81 37.03 36.00 39.81 45.79 45.20 45.71 45.59 46.92 49.31 49.87 49.70 50.10 49.77 50.05 49.79 48.36 47.66 47.00 45.73 45.13 43.81 42.34 41.36 40.54 39.98 39.14 38.60 38.51 38.23 38.18 38.07 38.20 37.95 37.64 37.40 37.27 37.21 37.16 37.54 37.23 37.12 37.18 36.79 37.33
46.74 43.84 43.80 39.17 35.45 38.56 38.45 40.74 45.38 45.62 45.69 45.57 47.62 48.91 50.08 50.45 50.45 49.87 49.65 48.15 46.63 46.10 45.37 44.39 43.89 42.79 41.32 39.98 39.23 38.41 37.97 38.02 37.76 37.46 37.46 37.44 36.99 37.38 36.83 36.63 36.40 36.35 36.34 36.39 35.86 35.63 36.18 36.08 36.05

GFSSGP_sfc_wetblb_015.txt.gz
Wetbulb
68.57 64.88 61.39 60.42 51.67 50.80 48.20 50.09 55.96 55.27 55.73 57.01 57.46 56.41 56.34 57.17 55.70 53.42 66.77 68.71 68.17 68.62 70.52 72.07 73.68 73.38 72.67 72.35 71.69 70.20 68.93 67.83 66.98 65.62 65.44 64.91 65.21 65.62 65.57 65.61 65.62 65.87 65.46 65.05 65.88 66.75 67.19 67.06 66.18
65.85 63.11 60.70 55.74 46.72 45.66 46.46 52.62 52.55 56.03 56.65 57.52 57.17 56.99 56.47 55.91 59.79 63.30 65.86 68.38 68.27 68.63 70.37 71.82 73.83 72.88 72.68 72.48 71.14 70.05 69.34 68.06 66.69 65.88 65.34 65.63 66.07 65.77 65.46 64.99 64.88 64.78 65.19 64.88 65.19 65.28 65.83 66.01 65.88
65.01 62.13 55.96 52.91 47.58 43.43 47.50 52.66 54.76 55.40 57.67 56.83 56.63 57.94 57.53 57.29 60.74 63.32 67.23 68.49 68.44 68.50 69.75 72.48 73.68 72.95 73.01 72.21 71.13 70.05 69.39 68.29 66.92 65.72 66.05 67.39 67.53 67.63 66.71 65.38 65.04 64.70 64.57 64.57 64.36 64.14 64.59 65.24 65.20
61.74 59.77 56.78 49.60 47.69 48.88 49.90 53.37 53.37 53.80 57.33 57.63 57.82 56.17 59.22 62.53 62.90 66.19 67.99 68.37 68.41 68.84 70.11 72.16 73.72 72.75 72.82 71.79 71.43 70.27 69.40 68.73 68.16 66.65 66.77 66.98 67.70 69.37 67.22 66.54 65.51 64.25 64.18 64.54 64.61 64.28 64.17 64.10 64.26
62.13 57.12 49.92 49.30 49.60 50.21 50.72 53.10 52.61 52.60 54.83 55.86 57.27 56.64 57.98 62.46 65.70 66.32 67.69 67.91 68.02 68.79 70.22 70.69 72.68 72.31 71.77 72.14 71.09 70.14 69.41 68.14 67.50 66.84 66.58 67.32 68.48 69.03 68.58 67.15 65.93 64.85 64.42 64.60 64.46 64.66 64.74 64.96 64.71
55.77 55.82 48.02 46.61 49.95 52.47 53.02 53.72 53.34 54.11 55.54 56.00 55.50 55.51 58.38 64.10 65.44 66.42 67.84 67.65 68.55 68.94 69.69 69.87 71.18 72.10 72.16 71.84 70.99 69.71 69.28 68.10 67.36 66.40 66.85 67.35 68.02 68.52 68.66 68.21 66.45 65.17 65.44 65.29 64.86 65.19 65.83 66.76 66.21
54.42 52.15 48.27 48.67 49.39 51.27 53.51 53.01 52.64 53.83 54.66 55.61 57.30 54.67 59.43 61.30 64.59 66.86 67.87 68.10 68.67 69.61 69.54 69.51 69.79 70.55 72.18 72.01 71.69 70.27 69.59 68.62 67.81 67.17 66.73 67.83 66.91 66.49 67.30 66.92 65.83 66.25 66.66 66.34 65.72 65.86 66.28 66.51 66.60
57.30 54.09 49.01 49.68 48.32 49.31 54.63 53.16 53.57 54.54 54.25 58.56 58.17 55.30 56.83 61.52 63.95 66.36 67.45 67.49 68.44 69.28 69.55 69.54 70.01 70.74 71.48 70.43 70.71 70.49 70.45 69.93 69.01 68.97 68.45 67.46 67.09 66.49 65.77 66.29 66.50 65.79 65.97 66.06 66.00 65.74 65.80 66.32 66.46
58.94 50.00 47.04 48.60 49.44 50.92 54.84 52.95 56.07 58.20 56.07 56.71 57.70 57.69 59.65 60.93 63.61 64.62 65.15 66.09 67.02 68.04 69.11 69.72 69.65 70.40 70.90 70.86 70.52 69.86 69.34 68.79 68.27 67.67 66.87 66.80 64.65 65.83 66.28 65.92 65.71 64.64 65.22 65.43 65.76 65.90 65.91 66.48 66.43
54.22 49.13 49.16 53.31 53.69 52.72 54.30 54.00 55.69 55.28 55.49 55.94 57.28 58.94 60.08 59.93 60.12 60.58 61.86 63.58 65.07 66.05 67.65 69.15 69.59 69.66 70.37 69.88 70.39 70.05 69.78 69.10 68.51 68.21 67.55 67.26 65.39 65.60 65.68 64.59 64.61 65.08 65.47 65.37 65.61 65.65 65.93 65.54 64.02
54.80 49.41 53.30 54.00 55.02 55.16 53.64 53.91 56.51 54.95 53.55 56.43 55.85 57.47 59.22 59.55 59.13 59.15 60.39 62.01 64.16 65.66 66.92 68.01 69.26 69.77 69.88 69.92 69.87 69.76 69.38 69.00 68.47 67.96 67.38 66.66 65.39 64.90 65.26 65.16 65.14 65.37 63.71 64.54 65.17 65.29 64.82 64.69 64.56
51.62 54.01 54.22 54.87 55.65 54.52 53.13 55.17 54.13 55.40 56.25 58.91 59.49 60.20 59.99 58.96 57.93 58.57 58.80 60.50 63.61 65.04 65.60 66.87 68.14 69.20 69.58 69.83 69.51 69.53 68.90 68.73 68.33 68.01 67.34 66.60 65.63 65.09 64.74 64.40 64.79 64.88 64.72 64.36 65.03 64.76 64.92 64.94 64.95
51.41 53.50 54.73 55.45 55.40 55.10 55.47 53.44 53.56 54.58 58.17 59.82 59.93 59.92 59.68 59.22 58.81 58.78 59.66 62.39 63.72 64.59 65.57 66.32 67.09 68.07 69.03 69.25 69.39 69.37 68.77 68.34 68.20 68.12 67.88 67.21 66.09 65.33 65.35 65.10 65.17 65.23 65.47 65.03 64.91 65.11 65.24 65.32 65.43
53.97 54.34 54.09 55.02 54.66 54.91 53.19 53.65 54.48 55.51 58.43 58.38 58.68 58.55 58.78 58.91 58.04 58.30 60.37 61.63 63.38 64.67 64.93 65.97 66.28 66.78 68.08 68.59 68.94 68.96 68.91 68.55 68.24 68.16 67.83 67.17 66.66 66.06 65.90 65.70 65.59 65.61 65.86 65.80 65.40 65.09 65.00 64.89 64.88
53.75 50.17 52.53 53.36 54.23 53.43 55.17 51.12 51.70 56.37 57.69 56.52 54.72 55.54 56.51 56.66 57.73 57.96 58.96 59.51 60.27 61.63 61.53 61.69 62.40 64.62 66.45 67.91 68.69 68.83 68.84 68.37 68.09 67.89 67.64 66.97 66.61 66.27 65.99 65.65 65.48 65.70 65.89 65.17 64.82 64.37 64.33 63.41 63.41
49.13 49.77 44.65 51.48 53.30 54.02 53.50 46.66 53.33 56.81 55.46 53.56 53.82 54.32 55.60 56.04 56.41 57.65 58.27 59.19 60.12 60.76 61.14 62.48 62.09 61.09 64.93 67.09 68.15 68.21 68.29 68.11 67.67 67.26 67.16 66.45 66.08 65.88 65.40 65.09 64.66 64.58 64.52 63.96 63.22 62.21 61.50 61.28 60.77
47.06 42.99 44.82 48.24 53.60 52.69 52.07 48.35 53.11 55.92 53.45 52.95 53.89 54.45 55.27 55.67 56.20 57.12 57.66 58.76 59.63 61.06 62.10 62.50 63.35 63.76 64.98 66.76 67.01 66.76 66.38 66.16 65.94 66.32 66.08 65.71 65.03 64.97 64.96 62.52 60.29 60.91 60.67 59.36 58.04 57.28 57.38 56.82 56.89
42.39 42.70 45.01 45.54 50.73 51.79 49.96 49.23 52.58 54.73 54.17 53.70 53.87 54.44 54.90 55.21 55.06 56.53 57.59 58.97 60.25 61.95 62.86 63.75 64.17 64.58 65.15 65.48 65.56 65.83 65.27 62.70 60.99 59.53 58.75 58.28 57.50 57.59 58.02 56.95 56.21 56.28 56.25 55.27 54.99 53.94 54.89 54.39 54.36
46.50 45.74 45.37 48.70 51.32 50.27 49.01 48.80 51.31 53.29 54.08 53.74 53.77 53.79 54.55 54.68 55.60 56.44 57.59 58.54 59.23 61.20 62.66 63.57 63.74 64.64 65.25 65.12 63.76 61.43 58.63 57.91 56.90 56.44 56.08 55.57 55.18 55.03 54.64 54.49 54.09 54.11 53.53 53.33 52.77 52.52 51.81 52.00 52.97
45.57 44.55 45.98 48.31 50.54 48.81 48.32 48.23 51.49 53.25 53.70 54.91 53.75 53.67 54.21 53.99 54.27 55.09 56.04 56.86 57.15 58.16 60.21 62.14 63.12 64.31 63.99 62.01 60.82 59.26 57.58 56.52 55.81 55.43 54.46 53.97 52.71 52.32 52.22 51.74 51.64 51.39 51.35 50.97 50.20 49.90 48.52 49.27 49.78
44.92 44.23 45.04 44.86 48.63 48.94 47.81 46.44 49.20 52.74 54.49 53.79 53.43 54.70 54.94 53.75 53.17 53.92 54.91 55.59 56.33 56.13 57.19 57.75 58.24 58.66 58.77 58.93 58.36 57.58 57.28 56.59 54.22 53.37 52.68 51.89 51.33 49.29 48.91 48.89 48.46 48.59 48.96 48.24 48.01 47.70 46.97 45.29 47.46
41.20 48.10 47.66 46.17 45.34 40.34 48.54 39.70 47.91 50.86 49.06 49.79 51.20 53.25 53.85 53.77 53.82 54.14 54.34 54.73 55.17 55.44 56.66 56.59 56.72 57.03 57.56 58.18 57.16 55.94 53.58 51.04 51.68 51.74 51.52 50.93 49.89 47.80 46.41 46.42 46.21 46.26 46.44 45.80 45.98 45.70 45.51 45.72 44.13
43.41 49.38 47.25 46.68 45.35 43.54 43.77 41.80 46.28 50.74 48.09 49.18 50.85 52.63 53.42 53.65 53.49 53.42 53.98 54.36 55.03 55.56 55.20 55.08 54.77 54.50 54.94 54.99 54.58 53.19 51.50 51.14 50.99 50.57 49.38 48.62 47.97 47.03 44.97 44.75 44.69 44.30 44.40 44.24 43.69 44.20 43.81 44.92 43.80
48.47 47.95 46.87 46.17 43.62 37.19 43.37 43.29 44.16 46.96 48.37 50.21 50.88 52.09 52.68 52.83 53.21 53.62 53.96 54.30 53.93 54.60 54.15 53.91 52.75 52.11 52.52 52.47 52.02 51.20 50.16 49.46 48.52 47.44 46.48 46.06 45.76 45.27 43.85 43.55 43.38 43.33 42.83 42.52 42.92 43.48 43.60 43.38 43.66
46.13 42.39 35.71 34.55 34.76 36.03 44.88 43.23 45.92 47.25 48.64 50.06 50.05 51.28 52.31 52.75 52.64 52.22 52.25 52.67 52.94 52.87 52.55 51.93 51.21 49.93 50.32 50.00 49.50 48.97 48.25 47.43 45.64 44.97 44.15 43.33 42.99 42.55 41.87 42.04 41.50 41.55 42.33 42.31 42.35 42.03 42.15 41.99 41.79
42.57 43.70 38.07 31.26 33.33 37.59 42.55 38.64 44.81 48.87 49.85 51.48 51.95 52.26 52.41 52.17 52.55 52.03 52.68 52.94 52.70 52.23 51.64 51.05 49.74 48.41 48.37 47.78 46.96 46.66 46.39 45.31 44.16 43.26 42.62 41.89 41.28 40.91 41.11 40.88 40.80 40.67 40.75 40.59 40.88 40.89 41.18 41.09 40.72
40.95 40.92 45.88 40.90 42.28 40.21 41.13 44.90 47.01 48.57 48.12 48.66 50.51 51.47 51.18 51.76 52.20 52.20 52.84 52.94 52.25 51.63 51.30 50.38 48.74 47.55 46.88 46.28 45.70 44.50 43.96 43.14 42.34 41.98 41.72 40.96 40.67 39.91 39.93 40.05 39.55 39.70 39.67 39.55 39.52 39.07 39.04 39.42 39.36
44.95 48.53 40.39 42.16 34.30 33.57 40.00 41.53 42.69 45.20 46.75 47.74 48.59 50.37 51.15 52.01 52.14 52.35 52.41 52.26 51.94 51.21 50.47 49.93 48.65 46.71 45.80 45.06 44.24 43.19 42.10 41.54 41.30 41.05 39.80 39.52 39.58 39.31 39.00 38.82 38.58 38.48 38.57 38.57 38.58 38.25 38.55 37.84 38.17
42.19 41.52 44.09 44.77 42.48 37.48 36.96 40.36 48.53 46.74 47.38 47.72 48.92 50.91 51.42 51.68 51.72 51.82 52.11 52.02 50.96 50.19 49.30 48.24 46.61 45.31 44.40 43.95 43.24 42.17 40.93 40.56 40.48 39.68 39.15 38.63 38.63 38.30 37.93 37.77 37.49 37.43 37.35 37.47 37.07 36.88 37.00 36.45 36.69
46.43 43.29 44.93 39.98 37.66 41.14 39.88 40.10 47.73 48.07 48.17 48.53 49.43 50.59 52.19 52.28 52.06 51.83 51.84 50.80 49.33 48.84 47.98 47.13 46.28 44.89 43.87 42.79 41.89 40.68 40.49 40.22 39.36 38.43 38.10 38.01 37.48 37.83 37.44 37.16 36.89 36.72 36.59 36.49 35.69 35.34 35.83 35.20 35.16

GFSSGP_sfc_wetblb_018.txt.gz
Wetbulb
67.98 64.60 61.47 57.67 48.69 46.83 43.88 46.13 50.91 52.78 52.61 53.35 54.66 52.72 51.98 53.72 52.77 49.94 62.30 64.91 66.45 67.61 70.73 72.34 74.38 73.68 72.94 72.95 71.90 70.10 69.05 67.71 67.08 65.86 66.13 65.40 65.65 66.55 66.80 66.37 66.25 66.29 66.35 65.96 66.01 66.34 67.15 67.24 67.13
65.92 64.22 59.25 54.03 43.24 40.27 42.68 48.27 50.54 52.61 53.70 54.40 54.80 53.69 52.66 51.69 59.52 60.87 62.51 65.20 66.82 68.27 69.50 70.29 74.03 73.34 72.81 72.90 71.69 70.33 69.19 67.84 67.20 65.66 65.81 65.66 66.07 66.27 65.76 65.16 65.75 65.63 65.17 65.13 65.15 64.84 65.43 65.86 66.04
65.87 62.46 52.77 49.93 45.36 39.84 42.69 49.93 50.28 51.85 53.91 53.69 53.24 54.66 53.33 54.19 60.51 61.10 64.69 65.64 66.23 65.83 69.13 72.31 74.16 73.52 73.16 72.35 71.10 70.24 69.61 68.19 67.12 65.64 65.89 67.06 67.18 67.84 66.89 65.92 65.80 64.95 64.72 64.42 64.31 64.18 64.00 64.40 64.75
60.57 57.22 53.87 45.59 44.13 48.22 46.26 48.94 50.72 50.58 53.82 55.17 54.79 52.68 56.84 60.12 60.20 62.93 65.55 65.78 65.23 65.44 70.45 72.71 73.57 73.61 73.76 72.66 71.34 70.59 69.64 69.00 68.23 66.58 66.58 66.41 67.32 68.29 67.65 66.81 65.81 64.99 64.70 64.38 64.28 64.00 64.09 64.29 63.93
59.64 54.84 46.22 44.77 46.63 49.84 47.52 49.64 50.90 48.98 51.53 53.20 53.73 52.36 54.55 59.59 62.70 64.21 64.52 65.59 64.93 65.90 69.94 72.02 73.78 73.11 73.07 72.60 71.65 70.55 69.80 68.77 68.26 66.83 66.40 66.84 68.33 68.91 68.88 67.46 66.22 65.26 64.79 64.48 63.75 63.96 64.25 64.93 65.44
53.33 53.49 44.03 42.41 46.00 50.90 50.09 50.48 50.63 50.11 52.27 53.30 51.58 51.50 54.09 60.20 62.30 62.96 64.69 63.59 66.25 66.17 67.95 70.61 72.22 72.80 72.43 72.39 71.27 70.51 69.83 68.67 67.87 66.53 66.09 66.62 67.36 68.25 68.50 68.31 66.93 65.80 65.58 65.36 65.10 64.39 65.82 66.19 66.80
52.11 48.97 45.36 45.42 46.02 48.30 52.38 50.95 47.07 49.76 51.06 51.71 53.29 49.91 54.96 57.50 61.77 64.26 63.57 64.61 64.94 66.63 66.68 67.05 68.84 70.99 72.39 72.16 71.73 70.95 70.13 69.36 68.61 67.66 66.57 67.54 66.49 66.22 67.72 68.73 67.23 66.58 66.48 66.12 66.23 65.79 65.70 66.30 66.55
54.99 51.44 46.14 46.56 45.96 47.03 52.56 52.43 51.47 49.74 50.61 55.96 54.48 49.85 50.15 55.97 61.66 63.51 64.05 63.75 64.04 65.80 66.23 66.04 67.04 68.17 69.84 69.22 70.98 70.46 70.37 69.75 69.08 68.71 68.16 67.15 66.39 66.72 67.63 67.76 67.83 66.54 66.09 66.03 65.55 65.78 65.89 65.78 66.28
58.05 47.56 44.49 46.33 47.26 49.15 52.85 50.90 54.09 55.71 52.87 54.26 55.11 53.53 56.63 59.15 61.75 61.50 60.78 62.50 62.77 65.51 65.41 65.69 66.22 67.84 69.31 68.26 68.94 69.81 69.51 69.00 68.26 67.70 66.88 65.91 62.47 62.02 64.37 65.48 66.45 65.87 65.29 65.39 65.57 66.00 66.18 66.64 66.40
52.61 46.67 46.77 51.27 51.37 50.23 52.65 51.98 52.39 52.79 52.82 52.40 53.90 56.55 57.30 57.21 55.66 55.78 59.20 60.35 61.58 62.82 64.44 65.52 65.67 66.43 67.04 68.69 67.72 67.22 67.13 66.27 65.50 65.09 64.41 63.94 62.14 61.03 63.39 63.43 64.73 65.80 66.04 66.01 65.88 66.17 66.74 66.05 63.01
53.02 47.64 51.53 51.83 52.93 53.64 52.16 51.90 53.67 51.43 50.33 53.09 52.75 55.12 56.77 56.07 55.21 55.27 55.88 57.31 60.55 62.26 63.67 65.02 65.65 65.86 66.48 66.25 67.34 66.74 66.57 66.30 65.78 64.99 63.45 62.76 61.31 60.10 60.51 60.87 61.61 61.15 63.01 61.78 63.15 63.64 63.63 62.03 61.67
49.93 53.00 52.97 53.28 54.35 53.78 51.14 52.99 51.58 52.10 52.32 56.02 56.19 57.04 56.98 56.42 55.62 55.10 54.33 54.17 57.41 61.20 62.40 64.40 64.97 65.61 65.58 66.36 65.71 65.43 64.89 64.71 63.79 63.77 63.52 61.87 60.91 60.17 59.89 59.65 60.04 60.21 60.41 59.98 60.14 60.51 61.18 61.24 61.56
50.51 52.33 53.85 54.07 53.84 53.51 54.02 51.29 51.29 51.78 54.49 56.15 56.84 57.23 56.38 56.50 56.26 55.76 55.04 56.96 57.77 60.20 61.77 62.32 63.54 64.79 65.54 65.31 65.58 65.26 64.45 64.35 64.27 64.08 63.89 62.79 61.57 60.74 61.00 60.76 60.90 60.91 61.18 60.90 60.85 61.12 62.42 62.53 62.80
52.11 52.53 53.35 53.88 53.39 53.20 51.58 51.47 51.69 52.67 54.65 54.67 55.75 55.81 55.30 55.77 55.02 53.33 55.06 56.09 58.25 60.05 61.70 62.72 63.02 63.21 65.15 65.09 64.84 64.87 64.81 64.38 64.23 64.12 63.75 63.79 62.66 62.01 62.07 61.89 63.04 62.77 63.46 63.36 62.90 62.47 62.21 62.37 62.13
50.82 47.63 51.50 51.67 52.61 51.91 52.60 48.55 49.24 53.62 54.56 53.78 54.05 53.61 53.26 53.39 54.53 52.50 54.66 55.18 55.70 56.62 57.60 58.10 59.10 61.84 62.80 64.63 65.17 64.83 64.62 65.27 65.02 64.24 64.82 63.60 63.16 62.34 62.12 61.84 62.10 62.64 63.01 62.98 62.53 61.58 59.77 58.31 58.32
47.16 47.34 42.35 49.48 51.94 52.21 50.63 43.45 50.95 54.10 53.25 52.65 52.56 49.85 51.43 53.57 53.31 53.41 54.27 54.33 54.53 55.68 57.50 58.86 59.96 56.98 60.35 63.61 64.63 64.74 65.67 64.30 64.64 63.86 64.24 63.79 63.65 62.46 61.80 61.86 58.96 59.36 58.53 56.78 53.73 53.16 52.56 52.39 51.96
44.89 38.96 41.34 44.92 51.46 51.11 49.05 45.06 51.08 53.81 52.61 50.20 49.37 49.57 51.56 52.07 52.51 53.41 53.53 55.11 54.78 57.09 58.36 58.64 58.73 57.67 61.24 63.46 63.50 63.78 62.80 62.08 60.64 60.95 58.32 56.62 55.27 56.00 56.09 53.83 51.91 52.16 52.52 51.15 50.50 49.50 49.17 48.32 48.96
37.44 39.97 41.81 42.70 48.15 49.49 47.68 46.68 49.96 52.40 50.44 48.84 49.31 49.69 50.20 51.63 51.84 52.80 53.95 54.90 56.59 58.15 59.40 59.58 60.55 61.10 62.02 61.88 61.71 59.57 56.67 55.20 54.38 53.13 52.35 52.61 52.23 52.15 51.45 50.99 50.00 50.03 49.69 49.09 47.85 46.83 47.52 47.06 46.89
42.04 41.95 42.01 44.87 50.02 47.41 46.83 47.11 48.93 50.82 50.87 49.47 49.54 49.43 49.35 50.64 51.99 52.90 53.44 54.60 56.65 58.59 58.89 59.72 60.21 60.87 61.11 60.93 58.76 55.57 53.01 51.85 51.32 51.14 50.91 49.88 49.30 49.81 48.15 48.23 47.97 47.62 47.06 46.35 45.85 44.87 43.91 43.54 43.96
41.48 40.49 41.51 45.66 48.97 47.65 46.34 46.15 48.80 49.42 50.32 50.62 50.03 49.56 49.26 49.89 50.19 51.37 52.43 52.30 54.56 56.47 57.75 58.94 59.43 58.60 58.14 57.08 55.83 54.32 52.22 51.28 50.75 50.31 49.49 48.19 46.55 46.20 46.27 44.49 44.41 44.07 44.01 43.48 42.70 42.16 41.70 42.18 42.46
39.20 39.72 41.17 42.04 47.01 48.11 44.16 42.23 44.94 48.45 50.19 50.80 51.84 51.23 50.57 50.00 49.30 49.84 50.05 50.95 51.64 52.50 53.06 54.30 54.60 54.93 54.98 54.70 54.20 53.14 52.86 50.89 48.52 47.88 46.89 46.44 44.94 43.93 43.36 42.78 42.12 41.91 42.01 41.09 40.45 40.26 39.66 38.93 40.40
35.74 43.38 43.17 44.44 41.37 37.16 44.04 32.66 42.37 46.49 47.98 49.77 48.59 48.08 49.61 49.73 49.78 50.35 50.27 50.04 50.31 51.01 52.19 52.84 53.42 53.73 54.17 53.61 52.29 50.26 47.68 45.63 46.26 45.95 45.69 44.76 44.02 42.12 42.08 41.83 40.95 40.27 40.49 38.97 38.88 40.93 38.91 38.67 37.72
38.42 45.03 43.29 43.63 42.18 41.65 41.88 36.60 41.02 46.01 45.47 47.17 45.64 46.88 49.42 49.52 49.56 49.42 49.99 51.18 51.33 51.06 49.92 49.87 50.15 50.24 50.30 50.00 49.18 47.49 45.71 45.26 45.02 44.47 43.01 42.42 42.18 41.16 40.81 40.48 39.43 38.79 39.06 38.06 37.83 37.48 37.37 38.35 37.22
42.24 42.16 43.01 43.66 41.86 35.42 39.49 38.33 38.18 42.37 44.70 45.22 46.13 47.54 49.27 49.11 49.09 49.65 50.42 51.06 50.13 49.97 49.26 48.15 47.78 47.76 47.78 47.19 46.44 45.18 43.60 43.03 42.06 40.78 40.09 39.90 40.07 39.84 39.09 39.81 38.12 37.87 37.70 37.26 37.35 36.95 36.54 36.56 36.37
41.00 38.35 33.24 33.56 33.49 31.11 40.85 37.74 40.28 42.44 45.87 47.93 46.94 47.61 48.71 48.99 48.87 48.81 48.51 48.62 48.77 48.16 47.65 47.40 46.43 45.38 45.46 44.66 43.99 43.21 41.91 40.58 38.83 38.59 37.94 37.34 37.32 36.93 36.39 37.08 36.33 36.21 36.61 37.08 36.73 35.82 35.27 35.44 34.66
39.15 35.55 32.88 28.23 29.08 31.78 40.45 35.10 39.42 45.18 46.55 48.01 48.87 48.83 48.89 48.43 48.48 48.29 48.35 48.26 48.17 47.99 46.41 45.69 44.59 43.55 43.29 42.29 41.25 40.73 40.61 39.45 38.53 37.74 37.12 36.19 35.79 35.53 36.10 36.05 35.83 35.66 36.07 35.85 35.29 34.86 34.70 34.91 33.77
39.38 33.04 41.02 37.28 36.78 33.96 35.46 38.23 41.16 44.58 43.85 45.74 47.11 48.15 47.60 48.03 48.24 48.14 48.53 48.63 47.73 46.58 46.01 44.78 43.58 42.72 42.14 41.17 39.67 38.46 38.14 37.61 36.93 36.52 36.24 35.73 35.41 37.28 35.65 35.11 34.49 34.71 34.90 35.06 34.31 33.33 33.15 33.07 32.80
43.40 43.77 37.53 38.50 31.02 29.15 33.79 35.59 36.37 40.14 41.32 43.64 45.85 46.40 47.34 48.10 48.22 48.30 48.80 48.17 47.40 46.78 45.70 44.35 43.18 41.66 40.81 39.85 38.71 37.84 36.59 36.62 36.29 35.64 34.64 34.81 35.02 35.30 34.54 34.02 33.92 33.94 33.98 33.81 33.02 32.68 33.25 32.94 32.79
39.61 39.85 41.99 41.49 38.29 32.27 29.64 33.04 42.57 42.18 43.79 43.23 44.81 47.57 47.88 47.85 48.27 48.55 48.43 47.82 46.43 45.61 44.64 42.70 41.35 40.50 39.61 39.10 37.87 36.39 36.03 36.13 35.43 34.54 34.30 34.33 34.32 33.78 33.60 33.66 33.25 33.15 33.05 32.95 32.13 31.70 32.76 32.18 31.20
42.39 41.86 41.01 35.57 33.53 35.93 34.43 33.06 43.90 43.32 44.33 45.07 44.82 48.43 48.62 48.70 48.59 48.49 47.85 46.39 44.92 44.18 43.14 41.65 40.90 39.67 38.96 38.27 36.87 36.16 35.93 35.23 34.06 33.66 33.84 33.90 32.70 33.15 32.98 33.09 32.91 32.72 32.78 32.35 31.50 30.91 31.71 30.15 30.40

GFSSGP_sfc_wetblb_021.txt.gz
Wetbulb
68.32 63.83 60.56 54.36 44.37 42.37 40.36 44.54 44.40 49.57 49.95 50.11 51.42 50.29 48.91 49.97 50.75 48.74 60.26 65.50 69.10 69.81 72.48 73.49 74.56 74.05 73.14 73.20 71.58 70.40 69.19 68.03 66.84 66.69 65.86 66.26 66.76 67.25 66.70 66.51 66.35 66.22 66.11 65.28 65.43 65.52 66.72 66.99 66.48
66.44 63.99 55.13 49.55 39.87 35.84 39.17 44.43 45.27 47.49 50.57 52.12 52.99 51.07 50.33 50.23 57.71 59.48 59.99 64.41 69.37 70.66 71.63 72.12 74.33 73.88 73.18 73.18 71.35 70.23 69.06 68.17 67.03 66.28 66.08 66.34 66.35 66.99 66.67 65.67 66.12 65.41 65.05 64.67 64.47 64.09 64.52 65.21 65.22
64.59 62.01 49.74 45.05 40.90 37.10 39.13 45.48 45.79 49.56 51.42 52.20 51.44 52.71 51.57 53.15 58.63 59.47 61.57 64.75 68.92 69.12 70.14 71.71 74.39 73.81 73.18 72.70 71.24 70.31 69.44 68.16 67.24 66.57 66.24 67.19 67.17 67.78 66.38 66.00 65.99 65.10 64.90 64.23 64.02 63.69 63.33 63.32 63.50
57.63 53.39 49.33 41.70 40.61 45.11 44.63 44.78 48.07 48.78 51.47 53.10 52.01 50.46 55.27 57.74 58.22 61.85 63.62 64.29 64.38 67.28 69.20 72.68 73.97 73.98 73.91 72.48 71.06 70.55 69.83 68.70 67.98 67.10 66.49 66.43 67.22 68.17 67.96 67.48 66.08 65.53 65.07 64.55 64.13 63.89 63.94 64.16 64.25
54.88 49.78 42.04 40.03 42.28 46.08 47.28 47.20 48.10 46.64 48.94 51.26 51.71 49.54 52.83 57.90 60.98 62.39 62.92 64.11 66.15 68.33 70.92 72.04 73.83 73.69 73.57 72.03 71.27 70.54 69.96 69.34 68.69 67.20 66.72 66.83 67.96 68.94 69.14 67.64 66.48 65.86 65.30 64.74 63.75 63.58 63.94 64.58 65.58
50.05 48.25 39.48 37.77 41.73 47.05 48.38 48.94 48.34 47.22 47.36 50.73 49.79 49.54 52.29 58.18 60.52 61.10 62.99 62.54 68.56 68.56 70.53 71.63 72.60 73.10 73.20 72.59 71.55 70.66 69.93 68.71 68.25 67.17 66.86 66.92 66.81 67.79 69.58 68.13 67.06 66.27 65.87 65.65 65.59 65.00 64.98 66.14 66.44
48.48 44.56 40.45 40.85 42.35 45.30 48.96 48.44 46.76 46.85 47.25 49.48 51.24 48.60 51.42 56.18 60.55 63.03 61.24 63.14 65.54 67.63 69.30 69.66 70.42 71.20 71.98 72.20 71.62 71.18 70.12 69.40 68.75 67.67 66.72 67.60 66.56 66.64 67.77 69.24 67.93 66.76 66.62 66.29 66.32 66.22 65.68 65.56 66.18
51.31 46.93 42.70 41.87 43.05 44.24 50.04 50.46 49.83 48.43 47.55 53.26 52.81 48.32 48.82 55.63 61.36 62.89 62.56 63.28 63.82 65.33 66.56 67.50 68.13 69.75 70.26 69.87 70.87 70.47 70.34 69.54 69.18 68.46 67.47 66.45 65.99 66.41 67.88 68.90 68.54 67.35 66.59 66.39 65.87 65.41 65.85 66.09 66.10
55.09 43.98 42.40 43.84 44.21 46.72 50.82 48.92 52.12 53.42 51.10 51.55 52.67 51.34 55.54 58.90 60.85 60.25 59.94 60.62 61.85 64.01 63.91 65.01 66.24 67.35 69.41 68.96 69.54 69.62 69.54 68.84 68.14 67.35 66.58 65.34 62.39 61.45 63.73 65.58 65.87 67.62 66.28 65.66 65.83 65.94 66.25 67.05 66.66
49.96 44.58 45.33 48.62 48.76 47.45 50.83 49.46 50.31 50.35 50.37 49.99 51.62 55.02 55.36 57.62 58.09 58.48 58.29 59.17 59.86 61.93 63.19 64.06 65.52 66.04 68.12 69.03 67.60 67.20 67.43 66.74 65.67 65.02 63.69 63.67 62.05 59.86 62.44 63.30 65.46 66.39 66.46 66.61 66.18 66.53 67.38 66.35 62.91
50.55 46.84 49.32 50.34 51.79 51.64 49.77 49.65 51.53 48.80 47.61 50.64 51.32 51.89 54.45 55.39 54.82 53.99 54.54 58.75 60.45 61.97 62.68 64.02 63.70 65.64 66.63 67.01 66.83 66.19 65.29 64.55 64.23 63.47 63.02 62.69 62.17 59.23 59.49 59.36 60.47 59.99 61.75 61.23 62.05 61.33 62.47 61.84 61.31
47.52 51.71 52.08 52.46 53.66 52.24 49.39 51.26 49.15 50.07 50.05 53.16 53.56 54.42 54.07 54.73 54.80 55.09 53.55 53.61 57.00 59.80 62.48 63.55 64.23 63.71 64.41 66.36 66.24 65.57 65.19 64.28 63.07 63.29 62.27 60.29 59.11 58.36 58.04 57.91 58.43 58.96 59.06 59.04 59.14 58.83 59.55 60.63 61.62
47.56 49.95 52.47 53.52 53.32 52.68 52.40 49.83 49.33 49.72 52.58 54.08 54.31 54.70 53.89 54.18 54.74 55.10 53.95 54.79 55.26 58.94 60.88 62.28 63.18 63.62 63.89 64.00 64.31 63.65 64.36 63.26 62.65 62.33 62.08 61.18 60.08 59.35 59.58 59.86 59.94 59.76 60.12 61.11 61.50 61.80 61.94 61.96 62.15
48.92 49.32 50.53 52.61 52.91 52.65 50.25 49.39 49.34 50.40 52.55 52.30 53.15 53.05 53.45 53.91 54.26 52.83 52.26 52.25 54.34 57.21 59.72 61.34 62.04 63.43 64.04 63.57 63.50 63.32 63.66 64.13 63.41 63.70 62.43 62.48 61.57 60.84 60.83 60.79 62.39 61.59 62.55 62.45 61.93 60.24 59.35 56.90 56.25
48.46 45.72 47.14 48.28 51.13 51.35 52.17 47.43 47.52 51.26 51.97 51.49 52.63 51.40 53.46 51.82 52.97 52.28 53.73 54.28 53.45 54.93 55.31 58.59 60.43 61.91 63.28 63.76 63.60 63.79 64.74 64.99 64.22 63.54 64.13 63.07 62.02 61.19 60.74 60.00 58.91 59.82 57.82 54.74 52.61 51.01 51.02 50.49 51.08
43.73 45.25 39.94 46.02 48.88 51.86 50.77 43.08 49.01 51.05 49.86 49.74 51.05 49.90 49.53 52.12 52.72 52.42 53.83 54.04 54.25 54.41 56.20 57.01 58.65 56.98 61.62 63.02 63.32 64.58 64.43 63.81 62.94 61.90 58.07 55.84 56.55 59.85 55.89 53.45 52.22 52.95 50.50 49.53 48.50 47.77 47.58 47.03 47.12
41.83 35.96 38.19 42.12 48.58 48.73 48.05 44.17 49.32 51.00 50.29 50.44 48.47 48.45 48.61 49.86 50.66 51.56 53.57 53.53 53.86 55.29 56.83 57.32 56.90 55.32 60.19 61.70 60.67 58.66 57.09 55.84 55.34 54.91 54.01 52.87 51.50 51.71 51.32 49.35 48.08 48.47 48.24 46.98 46.49 45.70 44.93 44.08 44.33
34.40 35.50 37.82 38.76 44.25 46.79 45.48 45.98 48.39 49.41 49.53 49.16 47.91 47.49 47.50 49.18 49.91 51.34 53.39 53.20 55.69 56.77 57.10 57.59 57.61 59.24 60.76 57.26 55.27 54.39 53.72 52.24 51.28 50.25 49.33 49.16 48.93 48.11 47.78 46.76 45.74 46.12 45.84 43.99 43.13 42.35 42.21 42.05 41.62
37.90 36.87 36.67 41.20 46.37 45.19 44.59 45.39 47.86 49.99 49.96 46.86 45.85 45.87 46.54 48.11 49.62 51.77 52.49 54.10 55.68 56.61 57.36 58.00 59.02 59.20 59.61 55.98 53.20 51.36 49.27 49.36 48.79 48.03 46.92 45.84 45.78 45.55 44.19 44.46 43.58 43.23 42.81 41.07 41.40 41.25 40.41 40.44 40.59
38.60 36.15 36.16 40.71 44.91 44.52 44.39 44.13 47.82 49.34 48.76 48.79 48.04 47.28 46.44 47.09 48.39 50.11 51.19 52.59 54.45 54.31 54.71 55.48 55.40 55.62 56.49 55.28 52.96 51.25 49.37 47.86 47.67 46.73 45.01 43.84 43.01 43.17 42.87 41.40 41.03 40.50 40.79 39.24 38.62 38.53 38.28 39.13 39.25
37.62 35.74 35.85 36.64 42.54 45.10 42.82 41.72 44.23 47.50 49.79 49.69 49.06 49.20 49.18 48.69 48.27 47.67 48.74 50.17 50.58 50.72 52.03 52.95 53.09 53.39 53.31 52.80 52.09 50.88 49.40 47.44 45.52 44.24 42.96 41.72 41.48 41.40 40.89 39.99 39.40 39.01 38.95 37.53 36.82 36.86 36.59 35.99 37.44
32.49 39.55 39.39 38.28 38.68 35.60 43.09 35.01 40.30 44.89 44.85 45.59 46.10 45.48 48.09 47.75 48.67 48.83 48.28 48.29 49.05 49.22 50.54 51.66 52.38 52.36 51.93 51.47 50.44 48.15 45.66 43.86 43.73 43.57 41.96 40.80 40.04 39.60 40.01 39.33 38.34 37.79 37.81 36.23 36.44 38.13 36.15 35.83 34.60
34.81 40.51 38.67 38.61 37.02 37.19 39.11 37.67 37.42 42.25 43.79 46.31 47.40 43.88 47.07 48.17 48.77 48.15 48.73 49.44 49.25 48.13 47.10 46.98 47.69 48.09 48.17 47.79 46.93 45.82 43.42 42.92 42.46 40.86 39.62 39.02 38.14 38.54 38.86 38.04 36.99 36.53 36.75 35.58 35.38 34.83 34.44 35.09 34.33
40.26 37.51 37.02 38.48 37.94 31.57 36.23 37.99 35.43 39.03 43.62 45.85 46.65 45.68 46.80 47.38 47.74 48.64 49.24 49.21 47.56 46.58 45.64 45.26 45.87 44.75 44.95 45.07 44.23 43.26 41.32 39.63 38.57 37.63 37.13 37.16 37.16 36.98 36.84 37.51 35.75 35.32 35.28 34.90 34.81 34.38 33.76 33.30 33.42
37.73 33.10 25.16 26.89 27.85 28.12 38.83 37.08 38.88 41.26 43.81 46.81 44.19 45.83 46.60 47.31 47.79 47.95 47.66 47.22 46.14 44.91 44.40 44.48 44.05 42.55 42.38 41.84 40.88 39.69 38.02 37.19 36.58 36.15 35.34 35.10 34.94 34.61 34.38 34.91 33.97 33.76 34.10 34.68 34.24 33.25 32.61 32.62 31.49
34.92 32.64 27.31 19.61 26.24 31.04 39.63 34.85 37.70 46.96 44.45 47.17 47.08 47.03 46.82 46.84 47.61 47.54 47.45 46.65 45.33 44.83 43.49 42.59 41.94 40.72 40.24 39.36 38.57 38.04 37.72 36.82 36.09 35.60 34.69 34.07 33.87 33.71 33.84 33.69 33.44 33.36 33.73 33.58 32.93 32.48 32.07 32.34 30.95
34.07 30.15 36.62 33.45 34.93 32.72 34.95 36.69 39.43 41.26 42.63 45.03 45.21 45.82 45.57 46.04 46.76 46.93 47.25 46.77 44.99 43.26 42.31 41.77 40.85 39.74 39.09 37.96 36.82 35.83 35.89 35.65 34.69 34.15 34.10 33.66 33.39 36.05 33.40 33.02 32.70 32.65 32.81 32.63 31.81 30.94 30.75 30.58 30.29
38.61 40.75 31.10 32.18 28.01 27.20 31.81 31.94 33.57 37.47 39.80 43.60 44.21 44.39 45.10 46.06 46.48 46.88 47.20 46.41 44.78 43.59 41.92 40.92 40.31 39.18 38.05 36.84 35.68 35.34 34.63 34.62 33.96 33.41 32.56 32.74 32.79 33.05 32.95 32.46 31.83 31.90 31.88 31.71 30.80 30.32 30.94 30.10 29.96
36.40 34.49 37.30 36.87 33.56 30.27 27.73 31.66 38.87 40.33 42.12 42.96 44.35 45.13 45.27 45.74 46.19 46.73 46.94 46.46 44.56 42.98 41.49 39.78 38.87 37.91 36.86 36.12 34.86 34.29 34.18 33.86 33.17 32.53 32.24 32.26 32.43 32.18 31.94 31.85 31.60 31.36 31.11 30.95 29.94 29.66 30.54 29.53 28.58
40.53 37.23 37.43 31.33 33.32 35.59 31.24 30.82 40.17 41.14 42.01 44.12 44.44 45.73 46.03 46.66 46.58 46.69 46.43 44.64 43.68 41.99 40.16 39.04 37.97 37.22 36.26 35.47 34.64 34.12 33.76 33.03 32.02 31.76 32.01 32.27 31.63 31.65 31.31 31.53 31.38 31.12 31.35 30.63 29.52 28.81 29.13 27.99 27.90

GFSSGP_sfc_wetblb_024.txt.gz
Wetbulb
68.50 64.10 58.77 52.74 43.47 42.02 38.29 42.10 42.64 45.94 48.50 49.66 51.24 50.09 48.62 48.97 49.22 46.46 59.29 65.59 68.71 70.96 72.85 73.56 74.68 74.64 73.23 72.91 71.15 70.11 68.96 67.54 66.92 66.56 66.96 67.80 67.70 67.65 67.00 66.52 66.13 65.75 65.32 64.69 64.89 65.39 66.17 66.68 65.82
67.69 63.72 53.73 47.48 38.97 34.94 38.00 42.55 44.14 46.16 49.08 51.12 51.06 50.36 49.08 50.62 56.58 58.02 59.94 67.45 69.81 71.37 72.36 72.66 74.57 74.00 73.24 72.85 71.15 70.13 69.16 67.99 66.93 66.70 66.34 66.84 67.26 67.32 66.74 66.67 65.84 65.04 64.68 64.41 64.11 63.63 64.46 65.12 64.98
62.17 60.69 48.90 43.52 38.63 36.12 37.53 44.03 45.62 49.13 49.86 51.03 49.38 51.98 51.57 52.46 58.10 58.66 60.56 68.10 69.66 70.34 71.77 72.32 74.42 74.19 73.44 72.54 71.14 69.96 69.14 68.50 67.10 66.91 66.84 67.20 67.10 67.89 67.34 66.67 65.67 65.21 64.54 64.01 63.80 63.56 63.12 63.16 63.45
57.29 52.62 47.77 40.86 38.74 42.55 42.58 45.84 46.50 47.96 49.77 51.56 50.45 50.40 54.18 56.64 58.13 61.21 63.26 67.86 68.17 68.69 69.27 72.68 74.09 74.17 73.89 72.78 70.93 70.18 69.32 68.55 67.22 67.01 66.98 67.31 67.99 68.56 67.39 67.50 66.40 65.80 65.03 64.25 63.94 63.72 63.87 64.18 64.52
53.52 47.86 41.39 38.55 40.54 43.39 44.65 48.19 46.40 46.39 47.78 49.45 50.42 48.52 51.89 57.30 59.89 61.62 61.93 66.31 65.80 66.06 68.30 72.01 74.19 74.00 73.59 71.83 71.03 70.56 69.68 68.91 68.18 66.98 67.17 67.06 67.79 68.78 69.52 67.97 66.76 66.08 65.30 64.56 63.99 63.46 63.93 64.41 65.31
49.84 46.53 38.24 36.74 39.77 44.68 46.09 48.16 46.41 46.87 47.03 49.46 48.60 49.16 51.64 57.23 59.91 60.79 61.92 64.19 67.74 68.19 70.15 71.75 72.75 73.57 72.90 71.89 71.37 70.57 70.04 69.40 68.77 67.16 67.20 67.88 66.77 67.74 69.59 67.96 67.06 66.48 65.72 65.67 65.56 65.58 65.15 65.47 66.26
48.33 43.28 39.46 39.12 40.59 43.20 46.89 49.83 43.65 46.38 47.33 48.52 50.47 47.46 50.85 55.60 60.22 61.72 60.73 65.27 67.73 69.46 69.83 69.87 70.83 71.98 71.94 72.13 71.57 71.21 70.12 69.10 68.87 67.58 67.66 67.92 67.29 66.88 68.99 68.80 67.91 66.85 66.47 66.75 66.29 66.36 65.96 65.73 65.67
50.32 46.16 41.02 40.82 41.50 42.77 48.57 49.57 47.69 46.95 46.13 51.93 52.04 48.24 49.49 54.62 60.07 61.34 61.06 64.49 65.62 67.77 68.91 68.85 68.91 69.83 70.24 70.48 70.91 70.71 70.22 69.63 69.31 68.72 67.62 67.32 66.63 66.31 67.96 69.80 69.20 67.70 67.22 66.85 66.63 65.74 65.57 66.04 66.27
53.78 43.81 40.96 42.88 42.95 45.42 49.21 47.96 51.19 51.87 49.60 50.61 51.08 50.86 53.42 57.35 59.93 59.18 58.86 59.93 62.02 65.26 66.61 68.26 68.39 68.52 69.36 69.12 69.19 69.88 69.63 68.79 68.30 67.48 66.42 65.01 61.63 60.82 63.05 66.12 66.47 68.17 67.49 66.76 66.00 66.08 66.37 67.19 66.75
49.77 45.04 44.87 47.67 48.20 46.96 48.77 48.43 49.42 48.71 48.69 48.50 50.35 53.48 56.02 57.97 57.71 58.78 58.01 58.54 59.77 61.43 63.13 65.78 66.68 67.37 68.43 69.52 68.05 67.04 67.47 66.51 65.29 64.61 63.44 63.33 61.72 60.11 60.58 62.74 65.57 67.20 67.44 67.03 66.54 66.81 67.59 66.62 62.99
49.90 46.50 48.44 49.24 50.82 50.36 48.69 47.94 50.58 47.94 46.47 49.46 49.95 50.59 52.65 54.04 56.12 57.89 57.84 58.31 59.26 62.09 62.58 64.16 64.45 65.40 66.86 67.54 66.74 66.37 65.52 65.11 64.59 63.76 62.96 62.17 62.42 60.45 60.06 59.71 61.22 60.95 61.13 60.25 61.44 60.23 59.92 60.67 60.90
44.88 49.93 51.22 51.91 52.66 51.44 48.78 49.90 48.43 48.34 49.08 51.84 52.49 52.80 52.59 53.24 53.76 53.74 52.86 54.22 57.31 59.54 62.34 63.36 64.45 64.71 66.16 66.49 66.09 65.86 64.86 63.74 62.84 63.05 62.67 61.42 59.73 56.87 56.96 57.17 57.77 58.54 58.78 58.46 58.46 58.39 59.26 60.98 61.56
43.94 47.40 50.56 52.27 52.54 52.36 52.76 49.66 48.41 48.85 51.76 52.62 53.07 53.18 52.38 52.34 52.76 53.87 54.27 53.27 52.87 58.18 61.62 61.96 62.98 64.27 64.81 65.59 65.68 64.42 64.39 63.64 63.06 62.44 61.74 60.01 58.41 58.14 58.77 58.99 59.21 59.26 60.36 61.05 61.05 60.08 57.79 55.39 54.14
45.30 46.41 47.78 49.84 50.16 51.32 50.02 49.98 48.09 49.56 51.63 51.03 52.18 52.22 51.84 52.22 52.98 52.16 52.90 52.72 54.61 57.41 59.33 61.59 62.46 62.70 64.19 64.93 63.20 63.10 63.64 64.57 62.85 62.83 62.18 61.30 60.64 60.16 60.03 59.38 58.94 59.18 57.56 54.95 53.23 52.84 51.02 48.88 48.85
46.13 42.97 45.38 46.13 46.95 48.08 50.89 47.40 48.39 50.84 50.62 50.22 50.33 51.14 51.23 52.23 52.17 52.69 52.40 52.88 54.25 55.60 58.20 60.09 61.33 62.75 62.81 63.10 63.07 63.41 64.27 64.40 63.63 62.97 62.69 62.27 61.18 59.84 54.80 52.13 53.49 53.33 52.42 51.30 48.98 47.51 46.63 45.78 46.69
41.86 40.59 36.67 43.29 46.51 47.89 49.34 42.45 49.31 50.70 47.95 48.50 49.05 49.28 48.87 50.61 51.96 51.52 52.93 53.27 53.72 54.24 55.44 56.95 60.16 61.66 62.20 62.39 62.22 63.69 63.51 62.41 58.29 55.42 54.86 54.80 54.67 54.04 52.33 51.23 50.63 48.90 46.89 46.08 45.18 44.18 43.51 43.20 42.59
38.25 32.58 35.08 40.19 46.52 46.55 46.56 43.44 48.62 50.88 48.34 47.93 48.38 48.09 48.32 48.27 49.49 50.36 52.41 53.12 53.52 54.18 55.94 56.24 55.43 58.39 61.12 58.57 56.75 56.31 55.54 54.68 53.64 52.85 51.79 51.05 50.85 50.15 47.77 46.15 45.61 45.48 43.76 42.70 43.13 41.84 41.14 40.71 39.99
34.61 32.13 34.62 35.56 42.26 44.51 43.86 43.75 47.39 49.31 47.42 48.16 49.74 50.78 46.15 47.75 49.39 50.27 52.36 52.38 54.68 55.16 55.59 55.89 54.33 58.66 55.33 54.18 53.33 52.96 51.88 50.71 50.30 49.21 48.01 46.67 45.96 45.74 44.69 42.90 42.82 43.42 41.57 40.40 40.13 39.46 39.34 39.78 38.41
36.36 34.26 33.86 37.32 42.56 41.21 42.21 42.90 45.54 48.55 48.47 46.78 46.16 45.61 44.91 46.83 48.03 49.74 51.50 53.11 54.94 55.63 56.48 56.80 57.88 55.18 54.54 52.89 50.77 48.39 46.63 48.15 46.54 46.24 44.50 43.73 43.15 42.67 41.96 41.29 40.82 41.22 39.33 37.99 38.72 38.20 37.79 37.86 37.90
37.47 34.80 34.11 37.62 40.99 41.21 41.41 41.21 45.02 47.51 48.26 49.23 49.60 47.56 44.88 46.00 47.22 49.27 51.48 52.99 54.88 54.80 55.46 55.90 56.93 54.80 54.00 52.44 49.98 48.57 46.83 46.91 44.83 42.80 41.59 41.38 41.14 41.16 41.01 39.49 38.86 38.74 37.99 36.65 36.26 36.10 35.88 36.64 36.96
36.53 35.30 34.63 35.05 38.66 40.03 38.69 36.91 41.36 46.06 47.90 49.14 50.19 49.77 46.45 47.93 47.49 47.94 50.17 50.91 51.35 51.91 52.71 53.19 52.97 52.43 51.84 50.81 49.49 47.87 46.88 44.83 42.49 40.77 39.45 39.23 39.77 39.88 39.17 38.31 37.68 37.22 36.73 35.50 35.02 34.89 34.42 33.69 35.22
32.01 38.76 38.45 37.13 34.91 28.96 39.41 30.14 37.54 41.89 44.90 46.67 48.76 46.74 46.61 48.04 47.76 47.84 49.01 48.56 49.61 49.46 50.65 51.06 51.60 50.96 50.71 50.52 48.51 47.00 44.83 42.59 41.85 40.43 38.49 37.76 38.28 38.21 38.28 37.73 36.74 36.02 35.79 34.35 34.65 36.15 33.96 33.27 32.08
34.00 39.29 36.69 36.68 34.67 34.00 33.48 31.94 34.93 41.50 41.37 44.88 47.43 47.93 46.92 47.79 48.21 48.52 49.13 49.29 48.59 48.46 48.25 48.60 49.43 49.40 48.69 48.10 47.15 45.51 42.57 41.81 40.71 38.79 36.85 36.11 36.25 37.05 37.20 36.40 35.32 34.80 34.83 33.66 33.22 32.91 32.11 32.73 32.03
39.54 36.45 36.03 33.97 32.80 27.43 30.73 32.80 32.61 38.24 41.79 44.75 47.38 44.96 46.15 47.23 47.48 47.68 48.02 47.77 45.64 44.95 44.97 45.42 46.70 45.35 45.72 45.51 43.63 42.67 40.80 38.57 37.66 36.17 35.64 35.38 35.24 35.41 35.27 35.72 34.06 33.41 33.29 32.94 32.81 32.17 31.63 31.18 30.93
37.00 32.90 24.69 23.88 23.15 21.89 32.16 30.70 33.50 40.29 43.63 45.52 46.72 43.96 45.28 47.14 46.54 46.87 46.49 45.69 44.46 43.72 43.03 43.68 44.04 41.53 42.04 41.58 40.51 39.05 37.59 36.62 35.55 34.88 34.38 33.94 33.61 33.39 33.10 33.36 32.46 32.15 32.28 32.74 32.22 31.32 30.64 30.47 29.38
34.12 32.78 24.31 15.96 18.88 22.02 35.47 29.85 35.07 43.50 45.66 46.85 46.44 46.32 45.99 45.86 47.03 47.03 46.36 45.20 43.88 43.23 41.76 41.70 41.45 39.45 39.62 38.95 37.00 36.21 36.10 35.69 34.94 34.32 33.69 33.14 32.83 32.67 32.49 32.22 31.89 31.57 31.92 31.71 30.97 30.64 30.29 30.44 29.04
33.45 30.48 34.28 26.43 29.72 27.40 31.39 35.06 41.00 44.21 41.09 42.49 43.41 44.33 44.53 45.86 46.42 46.03 45.58 44.70 43.59 42.08 41.03 40.63 39.68 38.02 37.79 36.97 36.09 34.72 34.69 34.57 33.69 33.07 32.99 32.47 32.46 34.81 31.92 31.44 31.06 30.98 31.16 30.97 30.16 29.35 29.08 28.82 28.57
36.19 37.06 28.18 29.37 19.25 19.80 30.58 30.89 34.68 39.53 40.24 40.54 42.01 43.02 44.53 45.86 45.91 45.67 45.37 44.11 42.88 41.58 39.70 38.88 38.93 37.59 36.05 35.15 34.84 34.34 33.45 33.21 32.62 32.31 31.63 31.69 31.58 31.76 31.36 31.00 30.62 30.52 30.50 30.31 29.44 28.95 29.42 28.52 28.23
33.99 31.72 33.42 31.39 29.86 23.62 24.16 31.39 41.75 41.72 42.79 40.83 42.65 43.81 44.47 45.08 45.47 45.60 45.02 44.01 42.04 40.67 39.53 38.01 37.38 36.13 34.85 34.38 33.45 32.89 32.60 32.40 31.86 31.43 31.13 31.22 31.03 30.87 30.76 30.66 30.33 30.16 29.90 29.79 28.71 28.32 28.87 28.16 27.34
36.71 33.84 34.12 27.54 26.30 32.66 31.00 31.18 40.38 40.60 43.10 44.07 43.66 44.17 44.94 45.70 45.80 45.62 44.80 42.65 40.91 39.67 38.34 37.38 36.03 35.34 34.30 33.80 33.11 32.54 32.20 31.62 30.88 30.69 30.87 31.06 30.20 30.51 30.21 30.26 30.16 29.83 29.96 29.46 28.39 27.81 27.90 26.99 26.65

GFSSGP_sfc_wetblb_027.txt.gz
Wetbulb
68.46 65.95 55.21 50.61 42.73 40.95 37.53 41.63 42.05 44.82 46.75 47.68 48.70 47.91 48.92 48.53 48.27 45.38 58.96 64.95 68.01 69.39 72.39 72.95 74.76 74.63 73.40 72.36 71.00 69.84 68.59 67.66 67.18 67.10 68.53 68.70 67.50 67.32 67.09 66.76 65.90 65.46 64.57 64.32 65.14 66.06 66.68 66.59 66.08
64.86 61.82 52.47 45.70 38.61 32.75 36.69 42.15 44.34 45.85 48.17 49.65 48.75 48.21 48.18 50.07 55.68 56.60 60.37 66.60 69.56 71.32 72.32 72.25 74.69 74.19 73.16 72.39 71.05 69.88 68.60 67.63 66.76 66.56 67.22 67.94 67.73 67.28 66.80 66.25 65.46 64.65 64.19 63.93 63.84 63.75 64.62 65.27 65.36
61.15 57.05 47.93 42.22 36.38 34.86 35.93 42.37 44.44 48.11 49.29 49.89 48.60 51.59 50.28 52.16 57.20 58.01 59.66 67.93 70.43 70.42 71.73 72.01 74.60 74.24 73.55 72.48 71.14 70.12 68.93 67.74 66.98 66.50 66.75 66.86 67.39 67.37 67.08 66.86 65.24 65.04 64.29 63.80 63.62 63.40 62.92 62.94 63.32
55.72 51.78 46.54 40.05 37.86 41.00 40.08 42.38 46.48 46.87 49.05 50.99 49.63 48.88 53.19 55.92 56.93 60.04 65.78 68.26 68.62 68.97 70.10 72.36 74.30 74.14 73.90 72.74 71.28 70.06 69.20 68.43 67.25 67.03 67.15 67.52 66.89 68.12 67.63 67.15 66.31 65.90 64.95 64.22 63.81 63.55 63.68 63.89 64.48
51.96 47.05 40.47 37.39 39.38 41.43 42.88 46.26 45.89 45.22 46.92 48.52 48.77 48.31 51.30 57.17 59.20 61.58 66.05 67.92 67.24 67.56 68.74 71.70 74.19 74.05 73.68 72.23 71.12 70.23 69.39 68.77 67.40 67.07 67.18 67.44 68.01 69.10 68.45 67.94 66.77 66.28 65.37 64.65 63.90 63.50 63.84 64.22 64.88
49.15 45.43 37.60 36.19 38.95 42.36 44.18 46.79 45.24 44.10 46.33 48.43 48.02 49.91 51.57 56.97 58.61 59.88 65.10 65.10 66.87 67.33 68.38 71.39 72.95 73.42 73.64 72.32 71.33 70.69 69.86 68.99 68.38 66.96 67.43 67.62 67.29 67.82 69.72 68.33 67.06 66.56 65.66 65.37 65.33 65.44 65.46 65.19 65.76
47.35 42.01 38.63 37.26 38.72 41.37 44.99 47.81 45.43 45.47 44.50 47.73 50.38 48.45 51.03 53.98 59.45 60.09 61.53 64.84 66.20 67.39 68.52 70.24 71.08 72.07 71.95 71.69 71.56 71.32 70.43 69.73 69.29 67.43 67.85 68.38 67.78 67.01 69.35 68.46 67.66 67.15 66.62 66.57 66.63 66.35 66.02 65.80 65.91
49.65 45.52 39.11 39.51 40.00 41.28 46.74 48.34 47.71 45.07 45.34 50.15 51.03 48.13 48.45 53.87 58.62 59.74 60.02 65.27 66.03 67.90 68.85 69.11 69.41 70.82 69.72 69.93 70.91 70.72 70.41 69.59 69.47 68.54 68.10 67.57 66.68 66.30 67.63 69.49 68.77 67.98 67.26 67.10 66.86 66.56 65.70 65.87 66.35
51.45 42.99 40.29 41.54 41.45 43.53 47.11 46.30 49.88 50.83 47.21 49.04 49.39 50.60 52.38 56.03 59.58 58.53 59.37 61.93 63.33 66.53 67.01 68.27 68.39 69.00 69.10 69.09 69.23 70.11 69.70 68.85 68.42 67.57 66.33 65.02 61.87 61.24 62.57 66.01 67.61 68.90 67.77 67.31 66.77 66.32 66.64 67.41 66.77
49.11 44.41 43.47 46.16 45.99 44.81 47.52 47.43 47.89 48.26 48.10 47.34 48.72 52.07 56.04 57.78 58.50 57.92 57.89 59.96 60.92 63.30 64.73 67.10 67.33 67.51 67.94 69.73 67.89 67.33 67.72 66.36 65.31 64.49 63.14 62.47 60.75 59.86 60.06 62.11 65.68 66.69 67.19 67.60 66.53 66.81 67.25 65.81 62.34
48.27 45.39 48.13 48.43 49.63 49.81 47.38 47.17 49.41 46.74 45.45 48.52 48.57 49.79 53.23 54.93 56.10 57.65 57.74 57.97 60.22 62.23 62.74 65.44 65.99 66.66 67.22 67.72 66.58 65.83 65.39 64.91 63.99 63.08 62.20 61.61 61.88 60.08 59.27 58.43 59.12 60.52 61.17 59.30 60.24 59.26 58.93 58.59 59.24
42.90 47.57 49.83 50.90 51.84 50.62 48.32 49.00 47.45 47.28 47.95 50.72 51.00 51.92 51.09 52.27 54.51 56.13 57.10 57.68 57.09 59.03 61.93 63.70 64.43 64.54 65.78 66.79 66.42 65.97 64.97 63.89 63.25 63.25 62.47 60.91 60.20 57.91 56.97 57.34 57.18 57.74 58.10 57.70 57.77 59.22 60.28 56.68 54.69
42.90 45.40 48.46 50.15 51.26 51.00 51.74 49.75 48.06 48.64 51.07 52.08 51.81 51.45 51.24 51.23 51.85 52.33 53.33 53.68 54.21 57.15 60.66 62.41 63.37 63.60 65.14 64.86 64.80 64.35 64.37 63.68 62.92 62.66 62.45 61.32 59.11 56.24 56.90 57.83 58.77 58.94 60.41 58.78 54.61 53.73 52.76 50.79 49.24
43.83 44.56 45.30 47.21 48.00 49.08 48.47 48.78 48.27 48.35 50.12 49.98 50.21 50.81 51.25 51.25 51.19 50.97 51.87 52.39 52.09 52.20 58.36 61.93 62.93 63.86 64.56 65.71 64.05 64.17 63.73 63.64 62.80 63.01 61.76 60.57 60.49 59.84 58.25 54.96 52.85 52.91 52.99 52.13 51.33 50.25 47.66 45.17 45.13
44.80 41.18 43.29 44.64 45.55 45.41 48.32 45.04 46.21 50.74 51.48 49.41 49.31 49.46 50.73 51.38 51.27 51.09 52.34 52.18 52.21 53.82 56.29 60.29 62.21 62.81 63.75 65.03 64.18 63.23 63.56 63.57 62.77 62.39 62.46 62.11 60.66 53.26 51.21 50.90 51.30 49.45 49.58 48.68 45.10 43.99 43.28 42.19 42.40
40.16 38.34 34.55 40.88 45.02 46.16 46.76 39.12 46.51 50.66 50.64 48.29 47.83 47.55 48.68 49.87 51.04 50.83 51.37 51.78 52.31 53.63 55.67 58.42 62.70 62.10 62.82 63.11 62.13 63.43 63.39 60.34 56.23 55.62 55.00 54.94 53.78 52.67 51.40 50.10 46.92 45.18 43.83 43.28 41.92 40.68 40.67 39.55 38.89
38.43 31.49 33.07 37.81 44.73 44.75 44.48 40.52 46.15 49.75 48.75 47.56 47.37 47.35 48.32 48.76 49.28 49.76 50.84 51.51 52.33 53.28 54.22 55.98 59.39 61.44 61.25 58.58 56.83 56.90 55.39 54.12 52.97 52.33 51.77 51.12 50.01 49.00 47.94 45.28 43.69 42.08 40.76 40.05 40.40 39.46 39.11 37.51 37.86
32.05 31.70 31.46 33.68 40.28 41.70 40.77 40.96 44.96 47.26 47.45 45.66 46.08 46.66 47.99 47.62 48.68 49.62 50.34 50.58 52.41 53.34 54.45 53.82 56.42 58.49 55.52 53.42 52.21 51.59 50.84 49.87 49.78 48.82 47.77 47.04 45.05 43.97 42.70 41.54 40.75 40.12 39.09 38.22 37.49 37.26 37.07 37.69 36.15
35.69 33.15 31.64 36.05 40.66 38.06 37.71 39.09 42.31 45.35 45.68 47.16 45.84 46.69 48.49 46.19 47.37 49.08 49.82 50.40 52.79 53.52 54.36 53.11 55.99 53.53 54.14 52.16 50.26 48.70 48.03 46.67 45.82 45.55 45.11 44.14 42.18 41.42 39.99 39.66 39.21 38.40 37.18 36.05 36.53 36.17 35.58 35.90 35.90
35.72 33.95 33.59 36.15 39.49 37.53 36.70 36.49 40.10 42.07 43.19 46.40 46.96 47.86 49.10 45.17 46.30 48.34 49.35 51.35 53.78 54.11 54.86 55.41 53.29 52.44 52.99 51.75 48.28 46.95 45.31 43.98 44.03 43.32 42.20 40.39 39.90 39.76 39.52 38.09 37.37 36.86 36.25 35.26 34.49 34.23 33.97 34.28 35.03
33.97 32.82 33.57 33.85 36.92 37.89 35.86 33.98 36.46 40.93 44.16 46.50 48.36 49.30 49.52 47.37 46.20 46.90 48.65 51.49 52.34 53.04 53.69 54.19 52.48 51.36 50.38 48.73 47.61 45.76 45.30 43.86 42.38 40.88 38.08 37.97 38.47 38.42 37.81 37.03 36.45 35.69 35.27 34.00 33.33 33.08 32.45 31.55 32.86
30.56 36.63 36.73 35.73 33.89 27.63 34.76 25.04 32.99 36.61 39.91 43.66 46.16 48.02 48.35 45.11 46.90 48.19 49.26 50.16 51.21 51.89 52.11 51.39 51.00 49.56 48.87 49.03 47.25 46.66 44.36 41.51 41.11 37.83 36.06 36.18 36.97 36.75 37.09 36.41 35.52 34.77 34.26 32.84 33.06 33.96 31.84 31.49 30.43
33.94 38.58 36.66 35.90 32.07 29.80 31.02 27.44 29.39 36.90 37.17 41.12 43.23 46.69 46.75 45.79 47.08 47.35 50.14 51.11 50.61 49.78 49.68 49.14 48.96 48.55 47.54 46.81 46.62 44.94 42.31 41.06 37.95 36.09 34.70 34.62 35.02 35.76 35.76 35.11 34.00 33.46 33.35 32.04 31.63 31.01 30.38 31.03 29.91
39.24 36.52 35.99 34.91 31.61 24.34 28.41 28.09 28.09 31.92 36.22 40.69 43.48 45.03 45.97 46.53 47.13 47.96 48.33 48.29 46.69 46.60 47.20 47.85 48.06 46.18 45.81 45.24 43.90 43.59 40.89 38.32 36.56 34.61 34.13 33.81 33.92 34.18 34.02 34.17 32.82 32.19 32.05 31.41 31.07 30.48 30.08 29.56 29.12
37.00 33.07 24.81 23.24 23.54 20.54 29.00 27.23 30.25 35.31 38.64 41.57 43.29 44.73 45.13 44.82 46.14 46.89 47.02 46.37 45.16 45.35 45.10 45.99 46.65 43.39 42.96 42.22 41.10 40.49 38.76 37.92 35.78 34.54 33.69 33.00 32.68 32.40 32.02 32.08 31.30 31.11 31.17 31.35 30.85 30.07 29.27 29.05 27.78
33.14 32.60 25.78 17.75 17.71 19.00 30.61 25.28 30.84 38.40 41.72 42.96 43.98 45.19 43.84 44.71 46.39 47.74 47.71 46.45 45.15 44.33 44.17 44.20 43.64 40.83 40.21 39.20 37.08 36.15 36.06 35.71 34.43 33.82 33.07 32.36 32.00 31.83 31.49 31.17 30.89 30.64 30.88 30.53 29.81 29.49 28.97 29.03 27.65
33.67 30.02 34.57 27.64 26.95 24.47 27.42 30.55 36.64 39.14 41.33 41.51 42.26 42.88 42.46 44.10 46.23 47.28 45.78 44.46 43.65 42.38 41.64 41.88 40.42 38.48 37.68 36.24 35.64 34.10 34.10 33.98 33.10 32.15 32.05 31.67 31.59 33.34 30.94 30.52 30.24 30.05 30.19 29.94 29.10 28.19 27.90 27.47 27.31
35.47 36.17 28.46 29.47 18.67 15.39 21.15 25.34 31.40 34.25 37.82 40.56 39.52 41.79 42.51 44.48 46.06 45.74 44.61 42.99 41.98 40.33 38.80 38.71 39.25 37.55 35.67 34.74 34.62 33.54 32.53 32.38 31.90 31.61 30.93 30.87 30.74 30.88 30.49 30.18 29.73 29.64 29.50 29.23 28.34 27.84 28.34 27.37 27.30
33.26 31.35 31.82 30.64 26.09 16.43 18.52 22.97 34.38 38.44 41.37 40.48 40.02 41.23 43.05 44.46 44.82 44.10 43.39 42.16 40.40 38.93 38.06 36.52 36.22 35.40 34.29 34.10 33.00 32.32 31.54 31.33 30.96 30.55 30.33 30.34 30.23 30.13 30.01 29.85 29.40 29.10 28.83 28.59 27.66 27.34 28.02 27.15 26.61
36.05 32.74 32.94 25.85 22.41 25.70 25.41 26.65 38.73 37.98 39.63 41.44 41.25 43.62 44.62 45.42 44.42 43.69 41.99 40.28 39.53 37.91 36.56 35.39 34.67 34.30 33.38 32.95 32.33 31.37 31.04 30.62 30.07 29.86 29.91 30.17 29.46 29.68 29.44 29.28 28.94 28.67 28.75 28.18 27.11 26.58 26.99 26.37 25.81

GFSSGP_sfc_wetblb_030.txt.gz
Wetbulb
66.55 62.41 52.77 49.41 42.32 39.03 34.72 38.82 42.21 43.71 44.86 46.82 47.45 47.98 47.32 47.78 48.46 45.64 57.46 64.07 66.09 67.15 70.85 72.76 74.71 74.45 73.19 71.98 70.91 69.77 68.73 68.47 67.80 67.40 68.36 70.25 68.97 66.96 66.55 66.52 65.80 65.22 64.42 64.57 65.61 67.08 67.44 67.05 66.64
63.13 59.97 51.11 44.77 38.23 32.86 35.05 39.46 41.74 44.41 47.83 48.48 48.36 48.49 47.04 49.11 54.85 56.20 59.77 64.36 68.20 69.31 71.38 71.31 74.40 74.62 73.16 72.09 71.01 69.71 68.46 67.56 66.71 66.98 68.68 67.90 67.43 66.82 66.23 65.73 65.13 64.68 64.38 64.05 64.00 64.23 64.95 65.32 65.27
59.72 54.06 47.17 41.48 35.65 34.18 35.67 39.73 42.68 46.64 47.86 48.47 47.98 50.84 50.16 51.38 56.51 57.06 60.13 66.71 69.69 70.23 71.25 71.85 74.59 74.50 73.62 72.32 71.11 69.91 68.72 67.70 66.73 66.25 66.91 67.80 67.27 67.05 66.85 65.94 65.31 65.28 64.31 63.89 63.63 63.42 62.97 62.97 63.35
54.66 51.00 45.68 39.40 37.02 39.68 39.11 39.49 44.68 45.99 47.98 49.26 50.06 49.65 52.52 55.37 56.10 58.70 64.33 68.76 68.92 69.12 70.03 72.59 74.41 74.47 73.95 72.64 71.15 70.31 69.06 67.78 67.12 66.65 66.96 66.81 67.43 67.56 67.28 67.08 65.71 65.72 64.63 64.05 63.70 63.37 63.58 63.70 64.18
50.91 46.58 39.52 36.41 38.12 40.11 41.64 44.54 45.63 44.50 44.49 45.95 48.22 48.25 51.42 56.29 58.63 63.16 66.00 68.11 67.42 68.00 69.24 71.59 74.40 74.07 73.71 72.24 71.42 70.25 69.38 68.53 67.37 67.04 67.29 67.83 67.21 68.13 68.29 67.72 66.72 66.30 65.16 64.53 63.92 63.63 63.67 63.96 64.55
48.32 44.80 36.78 34.92 37.84 40.93 43.06 45.20 45.22 43.35 43.85 46.37 46.65 49.77 51.37 56.13 58.65 63.12 66.12 65.85 67.62 67.71 69.01 71.00 73.03 73.56 73.62 72.58 71.65 70.35 69.58 68.89 67.73 67.12 67.39 67.70 67.83 67.78 69.63 68.44 67.34 66.68 65.60 65.11 65.00 65.33 65.53 65.52 65.28
46.21 41.55 37.57 35.77 37.06 39.96 43.21 46.54 43.49 45.15 43.76 45.47 47.63 46.92 51.65 53.14 58.84 62.20 64.45 64.55 65.89 67.34 68.10 69.82 71.12 71.88 72.57 72.13 71.52 71.25 70.24 69.55 69.04 67.51 67.74 68.20 68.25 67.12 69.53 68.77 67.58 67.23 66.31 65.99 66.45 66.47 66.31 65.62 65.84
48.50 44.20 37.81 38.69 39.34 39.91 45.45 47.26 47.57 43.65 44.18 48.82 49.96 47.07 48.42 52.08 58.78 59.67 61.70 64.27 64.29 66.19 67.45 68.48 69.48 70.37 69.88 69.63 70.88 70.82 70.60 70.05 69.86 68.61 68.17 67.55 67.04 66.18 66.67 68.72 68.53 67.89 67.04 66.83 67.01 66.73 66.30 66.14 66.28
49.78 42.34 38.99 39.96 40.23 42.11 45.84 44.80 48.88 49.87 46.15 48.43 48.42 49.09 51.42 55.51 58.24 58.89 60.04 62.99 63.97 66.25 66.68 67.62 68.19 68.88 68.37 68.49 69.12 70.04 69.82 68.89 68.64 67.45 66.36 65.36 62.88 61.53 61.98 65.29 67.58 68.59 67.87 67.23 67.00 66.61 66.98 67.64 66.14
48.24 42.91 41.85 45.22 44.53 43.34 46.00 46.05 46.51 47.60 47.27 46.76 48.63 51.64 54.97 57.13 56.67 57.28 58.14 60.36 62.23 63.96 65.57 66.68 66.86 67.58 67.51 69.31 67.75 67.37 67.50 66.29 65.01 64.44 62.60 61.50 59.67 59.07 60.02 61.13 64.55 66.42 66.49 66.66 65.79 65.34 64.30 61.37 59.45
46.49 44.09 46.22 47.37 48.78 48.88 46.87 46.33 48.18 45.70 44.84 47.69 46.58 49.32 51.77 55.13 56.19 56.56 56.82 58.99 61.00 61.17 64.38 66.33 66.22 66.23 67.04 67.91 66.40 65.80 65.53 64.85 63.76 62.56 61.75 61.24 61.15 59.42 58.86 58.12 57.80 58.98 60.79 58.53 59.27 58.57 58.46 57.70 56.51
40.90 46.29 48.39 49.74 51.22 50.05 47.49 48.99 47.43 46.51 47.23 49.49 49.78 50.82 50.08 50.60 55.09 56.68 56.75 56.99 57.57 59.69 62.73 64.54 66.08 65.93 66.08 66.55 66.46 65.68 64.91 63.95 62.99 62.57 61.86 60.33 59.75 58.46 56.55 56.95 56.51 57.11 57.66 57.20 57.69 57.88 53.41 52.48 51.03
42.12 44.47 47.10 47.65 47.91 49.03 50.42 48.69 48.38 48.43 51.01 52.56 52.07 50.97 50.39 50.47 50.65 52.13 54.40 54.02 55.20 57.10 59.30 62.17 64.61 65.32 65.82 65.94 65.67 65.08 64.71 63.95 63.23 62.70 62.42 61.14 59.87 56.58 56.47 57.36 57.93 57.45 56.88 53.52 52.60 51.36 49.86 47.62 45.29
42.66 43.39 43.88 45.54 45.93 46.28 46.20 46.84 47.33 48.54 50.88 49.83 49.83 50.30 50.17 49.71 50.89 49.71 50.70 51.49 51.17 52.03 53.64 60.44 63.22 64.40 65.02 65.82 64.74 64.94 64.41 63.62 62.92 63.67 63.45 62.34 60.25 59.97 58.97 53.45 51.07 51.70 51.37 49.97 47.26 44.46 43.29 41.46 41.20
43.65 40.19 41.91 42.90 44.28 43.75 46.05 43.01 43.85 49.05 50.28 50.09 50.65 50.07 50.89 50.68 50.29 50.41 51.63 51.40 51.38 51.74 52.00 57.44 61.73 63.39 63.88 64.86 64.57 63.93 63.71 64.54 63.08 62.43 61.73 61.58 60.96 55.20 52.67 51.50 49.04 46.81 45.58 44.01 42.03 41.16 40.90 38.81 39.53
42.05 40.19 33.44 39.62 42.86 44.41 45.19 37.34 44.26 47.96 48.16 48.34 48.97 48.14 48.63 50.22 51.24 50.31 50.80 50.68 51.33 50.45 52.70 56.01 61.92 62.45 63.21 64.32 63.94 63.19 63.25 62.20 58.88 59.09 60.30 56.58 54.17 53.02 51.21 48.42 44.65 42.39 41.58 40.96 39.46 38.60 39.07 37.01 36.48
39.98 33.46 32.74 36.79 42.30 42.76 42.72 38.26 44.32 46.24 45.68 45.87 46.09 46.10 47.01 48.04 49.25 49.71 49.97 49.84 50.76 51.23 52.55 55.12 59.45 60.96 62.39 61.73 60.89 57.77 56.81 55.29 53.77 53.30 52.43 51.28 50.37 49.60 47.90 45.37 41.66 39.98 38.68 37.83 38.55 37.09 37.55 35.49 36.07
29.95 33.59 35.34 34.65 38.41 39.19 37.95 38.16 42.20 44.38 45.08 45.09 45.17 46.07 46.02 47.14 49.24 50.34 49.75 49.88 50.72 51.41 52.70 54.33 58.85 59.80 57.22 54.72 52.27 50.99 50.35 50.43 50.52 48.72 48.03 46.91 45.84 44.92 43.24 40.85 38.63 38.20 37.24 36.18 35.97 35.81 35.49 36.13 34.34
36.16 34.06 34.40 36.25 39.30 36.60 36.14 36.85 39.40 41.93 42.76 43.26 44.85 46.35 45.75 47.08 49.99 48.21 48.79 49.20 50.26 51.66 52.09 54.24 56.39 54.19 54.26 52.45 50.82 50.07 46.97 46.24 45.78 45.43 45.11 44.37 43.42 41.42 39.84 38.39 37.19 36.60 35.73 34.54 35.25 34.61 33.50 34.14 34.28
35.63 34.17 33.32 35.65 38.03 36.77 35.58 35.12 38.68 40.39 41.16 43.23 44.43 45.81 46.54 47.35 45.87 47.15 47.98 48.78 51.85 52.34 52.48 53.82 53.08 53.20 53.81 53.16 47.82 46.95 45.73 43.67 43.82 43.08 42.36 42.28 41.35 39.32 38.49 36.74 35.86 35.57 35.04 33.99 33.24 32.60 32.34 32.22 33.11
32.21 30.81 30.92 30.99 34.80 36.48 34.29 32.27 34.87 39.00 41.01 42.39 43.51 44.85 47.01 47.43 47.52 45.90 46.60 49.08 51.42 52.05 52.88 53.11 51.45 50.83 49.86 48.03 46.33 43.62 42.96 42.81 41.48 40.74 40.17 39.60 38.41 37.53 36.61 35.86 35.17 34.51 34.22 32.97 32.12 31.78 31.35 30.20 31.27
30.00 35.24 34.87 33.46 31.56 25.75 32.89 23.77 29.81 34.31 36.72 38.25 40.46 42.70 45.81 47.60 45.89 46.58 46.57 49.07 50.96 51.83 52.58 51.58 50.48 48.78 47.92 48.04 46.80 45.77 44.70 42.10 41.54 39.78 38.62 37.58 35.96 35.75 35.89 35.33 34.46 33.67 33.22 31.94 32.51 32.38 30.61 30.25 29.00
32.19 36.85 34.65 34.44 31.84 29.71 29.72 27.77 27.09 32.58 32.63 35.37 38.27 40.98 44.11 47.28 46.86 46.25 47.07 50.21 50.91 51.17 50.61 49.29 47.98 47.45 46.24 46.73 47.23 45.19 42.20 40.83 39.19 37.77 36.22 33.59 33.77 34.55 34.60 33.96 33.15 32.62 32.44 31.09 30.66 29.82 29.18 29.73 28.44
38.59 35.87 35.32 35.37 32.47 25.28 29.07 26.71 26.95 29.91 32.85 34.66 39.04 40.42 44.67 46.33 44.42 46.44 47.76 49.85 49.30 48.95 48.17 47.60 47.35 45.17 44.92 45.05 44.73 44.68 40.96 38.69 36.86 35.71 33.48 32.58 32.75 32.94 32.83 33.10 31.91 31.56 31.33 30.65 30.09 29.48 29.01 28.47 27.79
36.73 33.58 25.03 23.52 23.73 20.79 27.95 26.32 29.44 33.24 35.42 37.42 38.46 40.61 42.85 44.19 43.83 45.18 47.03 48.65 47.40 47.60 47.07 47.11 46.74 43.73 44.20 45.71 44.23 42.52 40.30 39.08 35.58 34.05 33.04 32.11 31.68 31.21 30.92 31.06 30.71 30.40 30.60 30.54 30.12 29.15 28.31 28.00 26.96
33.10 32.52 25.75 18.50 18.28 17.74 27.77 22.67 28.60 35.64 39.06 40.46 41.17 41.86 41.68 42.51 43.09 45.84 47.82 48.99 48.19 47.80 46.94 47.15 45.58 42.34 43.23 42.36 39.17 37.72 37.62 36.55 34.97 33.67 32.58 31.66 31.15 30.74 30.36 30.23 30.16 30.07 30.33 29.81 28.96 28.65 28.18 27.81 26.68
33.70 29.83 34.22 28.56 28.54 24.43 24.78 28.07 34.12 37.43 36.23 39.32 38.69 39.69 40.03 40.96 43.50 45.72 47.78 48.31 47.09 46.52 46.02 45.35 42.84 40.14 39.13 37.38 36.77 35.27 35.15 34.48 32.91 31.48 31.41 31.00 30.70 32.02 29.81 29.81 29.67 29.62 29.65 29.17 28.26 27.34 27.09 26.52 26.35
35.69 36.53 28.06 28.93 19.96 18.43 20.59 21.58 25.10 30.97 34.28 37.13 37.28 38.41 39.95 41.62 43.74 45.72 46.90 45.63 45.09 43.85 41.70 41.50 41.04 38.75 36.45 35.41 35.35 34.09 32.52 32.26 31.44 31.32 30.20 29.94 29.88 29.95 29.74 29.49 29.33 29.16 28.89 28.39 27.42 26.93 27.34 26.43 26.39
33.50 31.57 32.70 30.32 27.39 16.16 16.81 21.20 29.63 31.90 34.50 36.47 40.21 40.12 39.10 41.94 44.52 45.26 44.14 42.64 40.40 39.82 40.17 37.89 36.85 36.09 34.66 34.04 32.96 32.35 31.38 30.83 30.32 30.07 29.44 29.33 29.31 29.41 29.38 29.25 28.92 28.51 27.99 27.53 26.61 26.16 27.05 26.19 25.97
35.76 32.42 32.03 24.72 22.08 24.79 20.55 23.92 36.08 35.04 37.58 40.22 41.10 40.72 40.29 43.03 43.96 42.77 40.36 39.37 39.26 37.46 37.20 36.16 35.54 34.60 33.47 32.84 32.03 30.98 30.58 30.01 29.49 28.90 28.85 29.26 28.57 28.92 28.77 28.68 28.29 27.78 27.72 26.82 25.75 25.56 26.15 25.65 25.34

GFSSGP_sfc_wetblb_033.txt.gz
Wetbulb
66.22 63.19 56.33 54.88 48.68 45.40 41.20 43.23 47.21 47.74 49.02 52.24 51.74 52.16 52.30 53.14 53.44 51.83 63.64 66.59 67.11 69.96 73.35 73.87 75.04 74.63 73.04 71.89 70.82 69.82 69.26 68.81 67.63 67.85 68.60 70.67 68.91 67.53 67.54 67.03 66.04 65.39 64.81 65.34 66.58 68.22 68.32 67.70 67.31
64.01 60.71 55.57 50.30 44.48 40.37 41.92 44.73 45.84 48.98 51.48 51.67 51.58 53.16 52.82 54.18 58.91 60.40 64.11 66.43 68.56 71.36 73.28 72.90 74.73 74.51 73.30 71.83 70.92 69.73 68.82 68.39 67.34 67.37 68.20 69.92 67.52 67.12 66.69 65.90 65.25 65.18 64.81 64.37 64.30 65.15 65.69 65.59 65.27
60.72 55.45 52.64 47.23 42.05 40.15 41.94 44.80 48.08 49.81 50.69 50.29 52.20 54.70 54.78 56.18 60.22 61.34 64.81 67.25 69.43 71.22 72.69 72.29 74.64 74.56 73.47 71.94 71.04 69.75 68.67 67.45 67.00 66.96 68.70 68.41 67.50 66.95 66.34 65.69 65.62 65.66 64.51 64.07 63.84 63.61 63.38 63.58 63.91
57.46 55.07 50.15 44.77 41.70 43.54 44.07 45.77 48.44 49.19 51.51 51.72 52.95 53.34 56.88 59.92 61.05 62.76 66.55 69.57 70.03 71.42 72.80 73.34 74.37 74.34 73.59 72.81 71.07 70.03 68.87 67.90 66.82 66.60 66.75 67.59 67.09 67.40 67.27 66.73 66.03 65.84 64.64 64.09 63.86 63.68 63.88 63.89 64.33
54.34 51.03 44.48 41.87 42.01 44.37 46.37 48.00 49.09 48.85 48.79 49.52 51.29 52.07 55.35 60.00 62.18 64.61 67.88 69.84 69.53 70.66 72.41 73.03 74.57 74.13 73.84 72.31 71.24 70.46 69.25 68.14 67.49 67.11 67.21 67.03 67.59 67.89 67.87 67.62 66.58 66.21 64.89 64.41 64.13 64.10 64.34 64.24 64.73
51.20 49.03 41.66 39.82 41.62 44.75 47.26 49.18 49.42 48.45 49.16 49.73 50.98 52.86 55.74 60.19 62.61 66.28 68.64 69.30 70.29 70.41 71.93 72.79 73.22 73.55 73.59 72.64 71.84 70.61 69.80 68.95 67.89 67.49 67.71 67.60 67.76 67.83 68.51 68.87 67.53 66.81 65.49 65.07 65.25 65.92 66.26 65.96 65.75
49.30 45.71 41.88 40.84 40.68 43.47 46.33 50.14 48.63 48.77 49.23 49.47 53.02 51.74 55.62 58.07 62.78 66.85 67.83 68.59 69.57 70.64 71.34 72.12 72.91 72.70 72.53 72.22 71.80 71.17 70.21 70.08 68.79 68.17 67.94 68.30 67.91 66.74 69.65 69.72 68.06 67.26 66.20 65.97 66.57 66.54 66.43 65.84 65.99
50.40 47.97 41.70 42.25 42.10 43.09 48.76 49.50 51.63 48.87 49.02 52.14 54.42 51.67 53.20 57.56 62.25 65.86 66.36 66.66 67.58 69.16 70.27 71.25 72.41 72.53 72.49 71.92 70.92 70.80 70.50 69.91 69.73 68.58 67.93 67.62 66.80 65.94 67.39 68.74 68.43 67.67 66.87 66.58 67.07 66.79 66.51 66.78 66.93
51.91 45.86 42.12 42.50 42.07 44.91 49.46 48.29 51.84 52.87 50.75 52.30 53.34 53.48 55.34 58.60 60.76 63.20 64.37 65.35 66.22 67.22 68.92 70.68 71.43 71.91 71.79 71.32 70.23 70.34 69.94 69.31 68.96 67.70 66.51 66.36 67.15 65.52 64.53 65.64 67.76 68.23 67.61 67.11 67.07 66.78 66.87 65.24 63.66
50.29 45.08 44.24 47.19 46.62 46.78 48.66 48.94 49.94 50.80 50.31 51.28 52.62 54.63 57.07 59.21 59.50 60.55 61.66 63.13 64.80 65.84 67.40 69.15 70.58 70.97 70.98 70.20 70.35 70.29 69.76 69.30 68.27 67.57 66.59 66.20 65.14 64.13 63.15 62.49 63.51 65.55 65.18 64.74 64.29 64.04 63.10 63.16 63.41
49.40 45.26 47.52 48.67 50.29 51.11 49.58 49.28 51.13 49.34 48.54 51.19 51.63 53.23 54.30 58.27 59.51 59.31 60.57 61.76 63.98 65.67 67.04 68.22 69.56 70.14 70.35 70.09 69.69 69.60 69.34 68.43 67.46 66.78 65.90 65.39 64.57 64.42 63.78 63.30 63.12 63.94 62.45 63.92 63.26 63.55 60.47 56.96 56.42
44.56 47.59 49.10 50.10 51.44 50.79 49.68 51.29 50.62 49.91 51.21 52.70 53.22 54.07 53.65 54.60 55.48 59.59 59.86 60.72 62.42 64.00 66.14 67.94 68.71 69.23 69.87 70.19 69.39 69.23 68.39 67.81 66.60 65.95 65.43 64.85 64.49 63.93 62.80 62.82 62.57 63.24 63.44 63.09 61.29 56.28 53.52 51.53 50.81
44.97 45.91 47.85 48.66 47.26 47.85 50.13 48.92 49.74 50.46 53.59 54.70 55.14 54.36 54.66 54.34 54.45 55.10 58.42 60.19 60.97 61.05 63.70 66.40 68.23 68.50 68.77 69.02 69.21 68.81 68.14 67.38 67.01 65.97 65.45 64.80 64.19 62.83 61.63 62.57 62.18 60.88 57.41 55.15 53.39 53.07 51.43 49.37 48.47
44.66 44.81 44.98 46.10 46.37 47.25 46.53 47.20 48.39 49.89 53.26 53.27 53.13 53.78 54.06 53.47 54.75 54.77 54.52 55.18 56.01 57.79 58.99 63.46 66.08 68.07 68.38 68.31 68.49 68.31 68.09 67.38 66.82 66.11 64.86 63.52 62.73 60.41 60.14 54.40 53.79 52.18 52.32 50.95 50.99 49.42 47.71 46.12 46.05
45.35 42.02 43.25 44.11 45.22 44.90 46.97 43.11 43.59 49.84 51.43 51.23 52.28 53.02 54.07 54.74 55.92 54.44 55.76 55.46 56.26 56.61 57.16 58.12 62.99 66.45 67.30 67.86 67.82 67.77 67.59 67.01 65.89 65.25 64.77 63.59 61.79 58.30 54.25 52.11 49.74 48.81 49.94 48.22 47.55 47.36 46.16 45.25 44.55
42.28 41.87 36.53 41.70 43.87 44.93 45.43 37.16 45.39 48.94 48.46 48.69 50.32 51.77 53.03 54.43 55.56 56.59 55.48 55.20 56.38 55.69 55.39 56.39 60.13 64.31 66.01 67.06 67.15 66.99 67.16 66.76 64.67 63.50 62.96 61.83 57.44 55.20 52.35 49.31 46.89 47.37 47.21 46.97 45.21 45.49 45.32 43.56 43.16
39.52 32.55 35.03 37.56 43.41 43.46 43.39 39.83 45.72 47.62 46.62 46.84 48.34 49.63 50.92 52.16 54.25 55.16 54.91 54.02 55.05 55.26 55.16 55.81 60.47 63.23 64.58 66.20 66.30 66.29 65.83 64.22 59.48 58.23 55.94 54.64 53.39 51.62 49.70 47.16 45.34 45.14 44.54 44.36 44.28 43.21 44.29 41.95 42.51
31.51 33.15 34.68 35.34 39.92 40.13 38.66 38.61 42.56 44.93 45.24 45.76 46.28 47.44 48.79 49.79 51.53 54.12 54.81 54.23 54.33 54.60 55.35 56.48 59.49 62.91 64.23 64.45 60.58 57.96 57.18 55.86 54.07 52.23 50.42 49.67 48.60 47.50 45.10 44.88 44.10 43.66 43.09 42.23 42.64 41.54 42.04 41.14 40.69
35.94 34.85 33.96 37.90 40.91 37.98 37.66 37.75 40.25 43.24 43.64 43.20 44.31 45.50 46.98 48.46 51.82 53.35 53.52 53.94 53.39 54.06 55.53 56.72 60.18 61.87 60.28 58.15 56.61 54.77 52.45 52.51 49.07 47.84 46.59 45.56 45.08 43.42 42.63 43.16 42.23 42.12 41.27 40.52 40.87 41.35 40.09 39.73 40.37
36.86 34.61 33.81 36.91 39.25 37.50 36.23 35.23 39.19 41.00 41.79 43.35 43.91 44.79 46.26 48.32 50.05 51.56 51.85 52.39 52.98 54.81 55.40 56.96 59.81 58.57 59.01 59.21 56.20 53.88 52.04 48.99 47.57 45.50 44.04 43.68 42.57 41.73 41.50 42.01 41.13 41.14 40.44 40.04 39.64 39.90 39.59 38.75 39.14
33.38 32.36 32.47 32.16 35.57 36.86 34.71 32.43 36.06 39.82 41.42 42.66 43.99 45.23 46.20 47.33 48.61 50.91 50.95 51.54 53.13 54.12 55.04 56.33 56.85 56.59 55.91 51.55 49.58 47.19 46.82 46.08 44.85 42.63 41.50 41.10 40.86 40.32 41.30 40.84 40.36 40.14 40.42 38.77 38.58 38.86 38.54 37.05 37.89
30.08 35.26 34.74 33.27 31.64 26.67 34.60 24.58 33.50 37.22 38.53 40.29 41.57 42.72 44.12 45.63 47.51 49.94 50.86 50.80 52.21 54.68 55.70 55.83 54.79 53.55 51.99 51.64 50.67 49.93 50.15 47.58 45.46 40.85 39.79 39.29 39.76 39.39 40.01 39.81 39.70 39.31 39.06 38.48 37.98 37.83 37.65 37.83 35.63
32.80 36.85 34.67 34.23 31.99 30.68 30.66 27.37 31.92 34.92 34.17 37.23 39.93 41.10 42.48 45.51 47.18 48.82 50.43 51.42 52.86 54.47 55.38 54.42 53.20 52.03 50.89 51.65 51.74 51.72 49.90 44.89 40.39 39.26 37.56 37.26 37.42 39.06 38.81 39.01 38.65 38.12 37.83 37.29 37.20 36.58 36.46 36.55 35.82
38.20 35.17 35.30 35.06 32.47 25.90 30.16 28.78 29.59 33.59 35.26 36.75 40.41 41.62 42.59 45.11 46.89 49.32 50.21 51.19 52.24 53.99 53.78 52.32 51.43 49.61 49.61 50.39 49.88 48.38 45.50 39.56 37.71 37.38 36.14 37.36 36.98 37.65 37.64 37.49 37.56 37.46 37.13 36.79 36.44 36.01 35.72 35.25 34.80
36.28 33.81 25.28 23.94 24.49 22.71 29.81 28.31 30.70 36.04 39.08 38.95 38.82 40.58 42.22 44.25 45.92 47.06 48.00 49.88 51.11 52.36 51.70 50.58 49.96 47.49 47.94 48.21 47.65 45.50 42.99 40.63 38.52 37.56 36.22 35.56 36.23 36.21 36.12 36.65 36.46 36.40 36.36 36.07 36.25 35.71 35.23 34.88 34.70
33.37 32.37 25.86 18.79 19.54 21.70 27.81 24.76 30.62 37.24 40.50 41.32 41.62 41.62 43.22 43.69 46.05 46.31 48.05 50.15 51.22 51.90 50.57 50.44 48.70 46.42 47.22 46.78 44.83 43.48 41.20 39.97 38.29 37.43 36.89 37.26 36.56 35.84 35.83 35.62 35.87 35.61 35.57 35.36 35.41 35.49 35.22 34.69 34.49
33.58 30.28 34.33 28.18 28.65 25.48 27.25 29.48 34.30 36.93 36.89 38.55 39.57 41.09 41.54 42.84 44.01 46.25 48.11 50.05 50.85 51.07 50.33 49.44 47.43 46.01 45.53 43.41 41.43 39.79 39.03 38.20 37.26 37.28 37.17 36.43 35.66 35.06 35.11 35.54 35.13 35.09 34.99 34.74 34.47 34.57 34.12 33.89 33.74
35.58 36.44 28.40 29.06 20.04 18.70 23.96 24.57 27.05 31.55 35.54 37.98 37.75 40.96 42.34 42.83 42.91 45.57 48.00 49.59 50.46 50.71 48.82 47.75 46.18 44.07 42.69 40.78 39.66 38.01 37.33 37.60 36.61 36.39 35.32 35.28 35.06 34.91 34.85 34.71 34.77 34.41 34.20 33.93 33.64 33.53 33.33 33.06 33.48
33.22 31.11 32.97 31.40 29.04 21.90 19.86 24.87 32.60 33.85 35.38 36.03 40.06 41.56 42.63 43.27 42.99 45.45 47.94 48.08 47.17 45.81 45.56 43.62 41.82 40.42 39.12 38.06 36.56 36.77 35.85 35.52 35.61 34.79 34.56 34.45 34.49 34.58 34.39 34.23 33.85 33.63 33.27 33.01 32.92 32.33 32.45 31.81 32.07
35.23 33.16 32.69 26.83 24.67 27.27 25.02 25.46 36.85 35.62 37.54 39.70 38.82 42.60 43.57 43.83 44.17 45.69 43.98 42.35 43.21 42.43 41.80 41.39 40.61 38.56 36.80 36.43 36.33 35.09 34.49 34.37 33.99 33.61 33.64 34.19 33.70 34.04 33.66 33.41 32.97 32.61 32.30 32.16 31.59 31.21 31.68 31.42 31.25

GFSSGP_sfc_wetblb_036.txt.gz
Wetbulb
68.02 66.40 64.12 60.53 51.62 50.72 47.10 46.37 52.35 51.04 51.96 56.11 55.68 55.26 55.83 57.10 57.33 54.95 67.22 70.05 70.43 71.92 74.31 74.83 75.08 74.42 73.02 71.97 70.61 69.89 69.44 68.86 68.49 68.52 69.39 70.89 69.85 68.67 68.29 66.99 65.78 65.15 65.13 66.11 67.57 68.84 68.46 68.08 67.48
66.58 62.93 62.30 57.87 48.34 45.18 46.74 50.07 48.94 52.58 54.61 55.89 55.64 55.97 55.92 56.35 61.40 64.08 66.33 69.55 70.83 72.81 74.69 74.54 74.71 74.42 72.85 71.71 70.61 70.02 69.62 68.70 67.78 68.17 69.14 70.14 68.03 67.98 67.25 65.97 65.87 65.80 65.10 64.85 65.31 66.02 66.10 65.80 65.37
64.51 60.58 56.72 52.53 48.79 45.37 46.71 50.40 51.58 53.49 54.64 54.18 55.50 58.15 57.88 58.57 62.95 64.99 68.47 70.01 71.27 72.91 73.98 73.84 74.65 74.29 73.02 71.71 70.67 69.83 69.09 67.89 67.55 68.56 70.27 69.07 67.98 67.04 66.22 66.07 66.48 65.62 64.86 64.54 64.48 64.22 64.07 64.55 64.81
62.41 59.81 56.79 48.63 46.45 49.39 49.65 50.79 52.82 53.03 54.66 55.27 55.87 55.74 60.23 63.50 64.18 66.30 68.55 70.54 71.08 72.50 73.60 73.74 74.36 74.34 73.41 72.36 70.75 69.76 68.81 67.67 67.28 68.57 68.71 68.25 67.65 67.30 67.25 66.46 66.68 65.49 64.96 64.84 64.65 64.72 64.41 64.32 64.70
61.83 57.76 49.17 47.01 47.55 50.41 52.09 53.00 53.33 52.37 53.27 53.74 54.27 54.87 57.71 63.50 65.72 66.84 69.52 70.63 70.59 71.80 72.93 73.52 74.50 74.31 73.53 72.08 70.90 70.07 68.98 68.08 67.31 67.45 67.55 67.66 67.74 67.81 67.71 67.42 66.92 65.97 65.16 64.80 64.92 65.22 65.40 65.05 64.89
55.03 55.38 46.20 44.32 47.12 50.22 52.30 53.98 53.45 53.14 53.75 54.30 53.32 54.52 57.64 64.38 65.90 68.14 70.17 70.68 71.26 71.56 72.45 73.30 73.00 73.52 73.45 72.46 71.55 70.49 69.36 68.39 67.77 67.76 67.86 67.37 67.09 67.46 68.25 68.23 67.31 66.91 65.69 65.23 65.59 66.08 66.15 65.69 65.53
52.59 50.19 45.95 46.69 46.95 48.45 51.05 54.18 52.60 52.91 53.10 53.72 55.94 53.71 58.46 62.14 66.75 69.49 70.28 70.92 71.33 71.61 72.19 72.45 72.66 72.80 72.23 72.16 71.92 71.32 70.18 69.80 69.24 68.55 68.40 68.10 67.76 66.38 69.66 69.78 68.14 67.51 66.24 66.01 66.52 66.54 66.42 65.94 66.18
55.27 51.82 46.56 47.46 46.04 46.65 51.65 52.68 54.17 53.51 52.79 55.39 57.09 53.25 55.47 60.79 67.02 69.26 69.73 70.15 70.63 71.06 71.38 71.64 72.31 72.61 72.36 72.57 71.13 70.76 70.53 70.08 69.42 68.78 68.32 67.79 66.48 66.37 69.02 69.34 68.48 67.82 66.81 66.59 66.97 66.63 66.72 67.04 66.81
57.14 47.83 44.87 46.31 46.82 48.27 52.51 51.04 54.66 55.98 54.60 55.92 56.43 56.45 59.01 61.12 65.86 67.47 67.64 68.28 69.10 69.49 70.53 71.39 71.60 72.04 71.69 71.62 70.86 70.29 69.79 69.20 68.88 67.55 66.93 66.66 67.92 66.94 67.18 67.26 67.98 67.82 67.44 66.81 66.77 66.38 65.63 63.59 64.02
52.60 47.50 46.93 50.76 51.46 49.69 51.54 51.98 53.03 53.08 53.54 54.23 55.94 57.81 59.57 61.54 63.90 65.08 65.58 66.03 67.17 68.14 69.34 71.01 71.51 71.63 71.53 70.70 71.57 70.80 70.01 69.83 68.64 66.91 66.43 67.26 67.38 67.19 65.97 64.40 64.70 66.04 64.70 64.50 64.17 64.02 63.08 64.20 66.02
51.86 47.68 50.52 51.20 52.42 53.06 52.34 52.50 54.59 52.75 51.50 54.59 54.85 56.69 58.09 59.24 61.71 62.89 64.43 65.50 66.87 68.34 69.40 70.22 71.40 71.73 71.55 70.81 71.12 70.54 70.06 69.64 68.66 67.13 65.99 65.58 65.53 65.12 65.01 65.95 65.29 66.35 63.35 66.65 65.89 65.99 63.72 60.99 61.10
47.16 50.45 51.49 51.77 53.59 52.58 51.82 54.09 52.79 53.48 53.69 56.52 57.10 57.68 58.56 58.90 59.34 61.27 63.05 64.41 65.52 67.33 68.75 69.82 70.49 70.87 71.44 71.19 70.52 70.51 69.92 69.74 68.53 67.18 66.57 66.13 65.25 65.09 65.52 65.85 66.10 66.16 66.73 66.54 64.71 62.28 59.86 58.25 57.58
47.36 48.57 49.90 51.30 51.28 50.94 51.62 50.20 51.11 52.15 56.05 58.02 58.39 58.39 58.45 59.17 60.00 60.78 61.37 64.85 65.42 65.64 67.50 69.32 70.45 70.48 71.29 70.83 70.16 70.11 69.77 69.49 68.98 67.38 67.17 67.04 66.49 66.01 65.45 65.69 66.27 66.30 64.26 61.86 60.75 60.26 58.54 56.35 54.19
48.06 48.22 48.65 49.59 49.71 50.22 48.22 49.12 50.29 51.56 54.45 54.18 54.91 55.75 57.36 58.44 59.65 60.43 60.52 60.07 61.23 64.27 65.75 67.71 69.49 70.82 71.25 70.86 70.37 69.92 69.89 69.82 69.26 67.85 67.47 67.38 67.04 64.34 65.03 63.36 60.47 57.25 58.59 59.34 58.46 56.79 55.18 52.93 51.12
48.49 44.95 47.43 47.99 48.55 47.85 49.40 45.30 46.47 51.84 53.07 52.21 53.29 54.64 55.71 56.78 58.75 59.47 60.84 61.01 61.35 61.68 62.22 62.35 66.04 69.43 70.33 70.61 70.50 70.13 69.93 69.71 69.09 68.45 68.10 66.35 64.65 63.10 59.82 55.43 54.08 53.34 54.05 54.95 54.86 53.32 51.89 51.38 49.82
43.95 44.45 40.50 45.73 46.37 47.60 47.15 40.95 47.77 51.71 51.70 51.33 52.68 53.61 54.36 55.77 57.02 59.02 60.86 61.45 61.98 61.92 61.24 61.54 61.05 64.99 68.04 69.37 70.24 70.11 69.88 69.75 69.41 68.69 67.24 65.83 63.86 59.17 56.36 55.94 55.85 54.95 53.69 52.57 51.12 51.14 50.82 49.37 48.87
42.84 38.48 39.30 41.79 46.41 45.75 45.57 43.36 48.30 50.90 50.50 50.23 51.75 53.09 54.02 55.13 56.44 57.52 58.80 60.14 61.11 61.55 61.72 61.40 61.45 61.85 64.66 67.67 69.47 69.85 69.60 69.64 69.37 68.29 65.76 64.27 59.63 55.80 53.99 53.25 53.09 52.37 50.80 50.08 48.93 49.00 48.30 47.13 46.94
37.11 37.75 39.52 39.08 43.12 43.96 42.54 42.92 47.05 49.25 49.15 49.49 51.06 52.13 52.71 53.45 54.87 57.39 58.83 59.92 60.27 60.54 61.11 61.23 61.50 62.62 64.93 66.72 68.54 69.14 68.88 69.37 67.83 65.06 60.39 57.28 54.66 54.52 50.62 50.96 49.62 49.94 48.98 48.22 47.69 46.69 46.30 45.28 44.80
39.66 38.55 38.05 41.41 43.86 41.64 40.91 41.42 43.88 46.68 47.28 47.03 48.16 49.46 50.55 52.07 54.72 56.31 57.71 59.15 60.03 60.22 60.47 60.81 61.13 62.55 64.89 65.63 66.16 66.77 65.41 62.45 61.45 59.51 57.17 52.87 50.93 48.17 49.55 47.02 48.78 48.80 47.52 46.16 46.19 45.50 44.88 44.10 44.42
39.09 37.28 37.40 40.69 42.56 41.02 39.87 38.92 42.40 43.72 44.43 45.96 46.60 47.52 48.45 49.69 51.73 53.71 55.75 57.67 58.87 59.22 60.21 60.76 61.45 63.25 64.79 65.50 64.89 64.34 62.19 57.25 54.91 53.10 51.68 51.87 48.80 45.16 47.84 47.45 47.10 47.09 45.75 45.07 44.79 44.94 44.44 43.56 43.58
37.81 36.44 36.90 36.53 39.70 40.48 38.38 36.88 41.39 44.13 45.42 46.07 46.69 47.46 48.27 48.67 49.29 50.84 53.23 55.89 58.09 58.54 59.75 60.29 61.84 63.58 64.34 64.20 63.49 59.10 54.24 49.86 48.30 47.23 47.30 47.39 45.98 43.56 46.11 46.03 46.34 45.91 45.63 44.07 43.79 43.81 43.12 42.29 42.72
33.92 39.31 37.66 35.95 34.57 31.31 37.97 30.13 38.99 42.61 43.41 44.56 45.97 47.17 47.94 49.03 50.06 50.61 51.68 53.73 56.34 58.31 60.43 60.69 61.94 62.68 63.26 61.70 58.25 56.51 56.61 52.10 51.29 49.16 46.71 43.57 43.07 42.08 43.23 44.39 45.43 44.80 44.39 43.45 42.49 42.71 42.66 43.23 41.22
35.48 39.27 37.43 36.96 34.94 33.26 34.31 28.78 36.63 40.95 40.09 42.43 45.44 47.28 48.35 49.24 49.75 50.16 51.43 52.60 55.19 58.21 59.86 60.32 61.20 61.50 60.23 59.23 59.74 59.31 57.82 54.54 50.33 47.10 43.30 40.48 41.21 42.42 44.52 44.30 44.05 43.29 43.03 42.61 42.02 41.87 41.57 41.78 41.35
40.18 37.26 36.46 36.43 33.77 27.07 33.49 31.51 33.96 38.95 41.29 43.20 44.79 46.01 47.43 48.24 49.42 50.57 52.04 53.25 54.02 57.46 59.41 59.87 59.43 59.05 58.66 59.50 59.30 60.12 55.98 49.79 46.01 42.65 39.09 38.62 40.59 43.03 43.38 43.23 43.27 42.93 42.39 41.81 41.45 41.19 40.46 40.85 40.35
38.11 33.74 28.09 26.10 25.39 26.18 35.42 32.93 35.05 40.86 42.57 43.56 44.42 45.96 47.38 48.22 48.86 49.91 51.69 52.63 54.06 55.63 58.10 58.58 58.24 57.13 57.58 58.03 58.68 57.77 52.36 49.52 47.22 42.91 38.77 40.77 39.69 41.90 41.98 42.37 42.04 41.92 41.67 41.19 41.14 40.73 40.42 40.15 39.75
34.57 33.90 29.16 22.13 25.80 28.98 33.25 28.39 35.30 42.82 44.45 45.33 45.98 46.20 46.71 48.11 49.71 49.56 51.89 53.51 54.45 55.41 57.47 57.72 57.21 55.77 56.34 56.78 56.28 53.37 49.06 46.56 41.80 40.85 39.33 41.08 40.63 40.70 42.12 41.75 41.45 40.84 40.52 40.41 40.43 40.60 40.55 39.88 39.40
34.52 31.01 37.12 29.88 31.29 26.91 30.67 35.38 40.29 42.34 42.35 43.14 43.86 45.15 45.97 47.58 48.65 49.91 50.58 52.79 54.73 55.80 57.10 57.17 56.54 55.17 55.11 55.02 52.14 46.98 44.84 41.72 42.61 38.88 40.47 39.88 41.31 40.66 41.05 40.95 40.39 40.16 39.95 39.57 39.44 39.99 39.11 38.49 38.45
37.58 38.99 29.46 30.77 21.77 21.56 29.42 31.39 32.82 38.00 39.39 41.98 42.61 43.73 45.86 47.28 48.85 50.54 50.36 51.94 54.43 56.17 57.05 57.27 56.12 54.12 53.74 52.20 50.21 45.27 41.61 40.16 38.99 39.94 38.63 39.85 40.57 40.36 40.25 40.07 39.74 39.40 39.05 38.65 38.70 38.52 38.01 37.26 38.10
33.66 32.04 33.58 33.30 31.21 24.87 24.80 31.13 38.98 38.95 40.51 41.27 42.01 44.09 45.76 47.40 48.96 50.25 50.64 52.40 54.49 55.82 55.95 54.77 53.51 51.88 50.27 49.10 46.52 42.85 39.52 38.75 40.24 39.99 40.67 40.97 40.36 40.05 39.58 39.30 38.88 38.53 37.97 37.70 37.89 37.19 36.76 35.86 36.30
38.50 35.41 34.47 28.36 26.74 29.35 28.53 28.96 40.69 41.81 42.27 42.44 42.69 44.08 46.63 48.34 49.03 49.90 50.39 52.22 53.09 53.14 52.96 52.06 50.42 48.97 47.29 45.19 43.11 40.09 38.50 38.98 40.22 40.49 40.34 40.16 39.41 39.52 38.92 38.51 38.08 37.38 36.71 36.91 36.38 35.78 36.06 35.61 35.40

GFSSGP_sfc_wetblb_039.txt.gz
Wetbulb
68.82 66.34 64.91 61.25 51.69 51.39 48.04 49.58 52.14 51.94 51.98 56.22 57.54 56.27 56.82 58.34 57.20 55.13 68.41 70.34 71.07 72.83 73.47 74.32 74.98 74.14 73.04 72.28 70.96 69.92 69.49 69.35 69.48 69.95 71.57 70.79 70.16 69.19 68.32 66.94 66.15 65.65 66.13 67.51 68.88 69.15 68.99 68.32 67.65
66.62 63.89 62.56 57.42 48.57 45.93 47.85 52.27 49.42 52.56 55.24 57.14 57.23 57.21 56.63 56.82 62.15 65.32 67.00 70.00 71.20 72.93 73.76 73.78 74.58 74.17 72.94 71.52 70.32 70.05 69.48 68.56 68.16 68.29 70.33 69.69 68.78 68.40 67.06 66.73 66.92 66.03 65.49 65.49 66.38 66.56 66.29 65.96 65.55
65.44 62.95 56.67 52.74 49.13 45.71 47.83 52.12 51.80 54.28 56.16 56.26 56.02 59.16 59.28 59.32 63.57 66.09 69.74 70.35 71.68 72.77 74.17 74.46 74.53 74.02 72.86 71.26 70.49 69.99 69.48 68.07 67.99 68.48 70.01 68.71 67.88 66.65 66.99 67.38 66.81 65.42 65.08 65.04 64.89 64.91 64.88 65.39 65.44
62.45 59.79 56.71 49.31 47.33 50.61 51.20 52.64 53.32 53.68 55.43 56.70 57.41 55.99 60.81 64.78 64.88 67.60 70.13 70.35 71.74 72.64 74.05 73.77 74.20 73.90 73.20 71.79 70.52 69.61 68.34 67.71 68.26 69.81 69.70 68.64 67.83 67.43 67.10 67.24 66.40 65.41 65.33 65.07 65.32 65.16 64.91 64.91 65.10
62.11 57.44 49.85 47.53 47.58 50.75 53.28 54.20 54.34 52.93 53.96 55.16 56.20 55.86 58.67 64.60 67.18 69.17 69.79 70.02 71.10 72.01 73.63 73.90 74.24 73.94 73.26 71.68 70.67 69.79 68.54 67.65 67.80 69.00 68.91 68.02 67.65 67.88 67.74 67.25 66.97 65.70 65.52 65.36 65.91 66.10 65.91 65.57 65.27
55.09 55.08 46.93 44.96 47.96 51.23 53.38 54.84 54.40 53.90 54.73 55.20 54.80 56.07 58.87 66.25 66.75 68.77 70.13 69.98 71.14 71.33 72.53 73.08 73.36 73.42 73.17 72.12 71.06 70.06 69.05 68.04 67.84 68.06 67.93 67.78 68.26 68.23 68.32 68.08 67.53 66.47 66.03 65.64 65.92 66.40 66.20 65.75 65.68
53.30 51.02 46.74 47.67 47.79 49.41 51.87 55.22 53.18 53.46 53.89 54.29 56.83 54.17 59.39 63.01 68.07 69.54 69.92 70.34 70.79 71.60 71.78 72.79 72.98 72.72 72.21 72.07 71.69 71.13 69.79 69.59 68.94 69.05 68.59 68.34 67.87 66.30 68.01 68.98 68.12 67.44 66.53 66.15 66.72 66.57 66.42 66.23 66.41
55.60 52.36 47.71 48.12 46.50 47.66 52.96 53.85 54.96 53.81 53.35 57.35 57.68 53.16 55.51 63.72 68.29 69.40 69.52 69.97 70.29 70.76 71.13 71.76 72.24 72.80 72.16 71.74 71.24 70.92 70.60 69.81 69.55 69.23 68.92 68.17 66.63 67.40 70.65 69.77 68.64 67.80 66.96 66.70 67.02 66.80 67.27 66.97 66.13
58.45 49.30 45.54 47.35 47.56 49.28 53.28 51.77 55.25 56.45 54.68 55.88 57.12 57.34 60.50 62.26 67.65 67.81 67.74 68.41 69.11 69.49 70.39 71.09 71.22 71.66 72.22 71.73 70.88 70.23 69.93 69.32 68.62 67.64 67.24 66.64 67.38 66.98 67.77 67.52 68.59 68.15 67.67 66.97 66.68 65.78 64.86 64.11 64.78
52.89 47.37 47.14 50.84 51.57 50.98 52.72 52.75 53.59 53.13 53.42 53.76 56.07 58.66 60.28 62.06 64.58 65.41 65.63 66.00 67.32 68.10 69.07 70.37 70.92 71.02 71.01 71.08 70.58 70.33 69.22 68.79 67.73 65.94 65.90 66.74 67.06 66.76 66.30 66.41 67.52 67.37 66.10 65.72 64.73 64.32 64.41 64.43 65.11
52.19 47.52 50.97 51.46 53.73 54.01 52.61 52.33 54.58 52.95 51.82 53.92 53.84 57.00 59.04 60.34 62.12 64.00 65.31 65.94 66.84 68.37 69.28 70.13 70.84 71.17 70.63 70.09 70.87 69.85 69.02 68.98 68.51 66.94 65.50 65.94 66.28 65.90 64.73 65.34 65.06 65.91 63.72 65.55 64.77 64.92 64.22 62.64 61.92
48.37 51.48 52.23 52.93 53.83 53.51 52.17 54.17 52.64 53.49 53.78 56.62 57.43 59.09 58.89 59.08 59.88 61.76 62.96 64.72 65.77 67.32 68.78 69.80 70.94 71.12 70.96 70.73 69.91 69.97 69.79 69.18 68.58 67.24 65.66 64.85 64.14 63.81 64.16 64.63 65.51 65.43 65.37 65.19 65.24 63.25 61.44 60.07 58.99
48.30 49.89 51.15 52.33 52.77 52.58 53.21 51.24 51.81 53.03 56.30 57.61 57.86 58.01 58.39 58.95 59.73 61.33 61.98 64.31 65.17 65.67 67.76 69.22 70.26 70.97 71.13 70.69 69.95 69.89 69.40 69.09 68.68 67.45 66.38 65.85 64.81 64.50 65.30 65.13 65.15 65.61 65.33 63.45 62.38 61.59 59.72 58.12 56.53
50.56 50.22 50.44 51.39 50.93 51.50 49.53 49.88 50.77 51.74 54.49 54.38 55.30 56.00 57.26 58.32 59.34 60.45 61.48 61.45 64.15 65.18 66.43 68.30 69.36 70.41 71.13 70.65 70.37 69.68 69.68 69.32 68.19 67.65 66.91 66.80 66.59 66.17 65.36 65.28 64.21 61.70 62.54 61.66 60.41 58.51 56.77 55.13 52.39
49.94 46.22 48.78 49.41 50.05 49.07 50.60 46.36 47.23 52.27 53.61 52.83 53.72 54.54 55.16 56.03 57.84 58.84 60.78 61.55 62.26 63.21 65.20 66.04 67.95 69.73 70.12 70.51 70.64 70.06 69.82 69.53 68.15 68.04 67.37 67.14 67.41 66.10 65.51 63.55 60.53 58.17 58.11 57.94 57.17 55.14 52.99 52.32 51.48
45.60 46.37 41.86 48.04 48.56 49.26 48.38 41.86 49.28 52.56 52.28 51.64 52.75 53.56 54.25 55.27 56.19 57.80 59.54 61.40 62.71 62.89 62.54 63.30 63.61 66.84 68.95 69.56 70.38 69.92 69.86 69.58 67.98 67.92 67.79 67.41 66.74 65.49 61.33 60.22 59.20 57.74 57.61 55.97 53.73 52.03 51.55 50.61 49.70
44.77 40.00 42.32 44.72 49.11 47.54 46.81 44.26 50.03 52.40 51.83 51.01 52.39 53.34 54.12 54.88 56.03 57.13 58.63 60.08 62.07 62.78 62.76 62.60 62.79 62.60 65.41 68.14 69.29 69.90 69.70 69.06 67.93 67.89 68.05 67.29 65.93 62.15 59.52 60.13 58.41 57.35 55.16 53.32 50.99 50.30 49.11 48.19 48.28
40.51 40.83 42.31 41.80 45.86 45.69 44.05 44.00 47.79 50.09 50.50 50.47 51.43 52.68 53.37 53.87 55.22 57.51 58.22 58.92 59.84 61.78 62.57 62.76 62.98 62.45 62.88 65.14 67.38 69.07 69.27 68.29 67.85 67.67 67.39 66.71 62.68 59.51 58.80 56.18 55.10 54.74 52.32 50.56 50.00 48.67 47.86 46.63 45.95
42.91 40.44 40.16 43.78 46.30 43.86 42.99 43.17 45.49 48.18 48.66 48.46 49.50 50.53 51.38 52.60 55.56 56.76 57.91 59.02 59.46 60.18 60.91 61.63 61.76 62.65 63.02 64.36 65.43 67.20 67.55 67.11 66.59 66.58 66.43 63.01 59.81 56.11 54.27 52.89 52.28 52.40 50.96 49.83 48.78 47.50 46.85 45.49 45.60
41.08 39.39 39.34 42.67 44.59 42.75 41.65 40.90 44.45 45.96 46.53 47.65 47.71 48.35 49.44 50.66 52.27 54.14 55.98 57.17 57.99 59.00 60.54 60.99 61.65 62.32 63.12 65.21 66.50 67.59 64.44 61.72 61.54 62.18 61.53 58.74 56.28 53.39 50.41 50.13 50.42 50.02 48.49 47.48 47.24 47.35 45.76 44.77 44.83
39.47 37.94 38.41 38.36 41.73 42.55 40.41 38.83 43.03 46.50 47.47 48.10 48.36 48.66 48.89 49.40 50.00 51.56 52.89 55.14 57.87 58.15 59.84 61.00 61.63 62.80 64.04 65.55 66.69 66.36 58.58 54.42 51.66 53.11 53.17 53.43 51.84 49.97 48.45 49.01 48.25 48.20 48.61 47.11 46.69 46.19 45.75 44.09 44.08
35.57 41.54 39.77 38.02 36.39 33.09 40.11 31.75 40.11 43.72 45.12 46.87 47.36 48.15 48.71 49.35 50.20 51.01 51.80 53.06 54.81 57.72 60.71 61.41 62.16 62.88 64.61 66.07 64.94 63.36 57.48 53.52 51.24 50.06 50.82 49.94 48.95 47.99 47.50 47.53 46.60 47.10 47.01 45.98 45.16 44.79 44.38 44.50 42.19
37.25 40.74 38.60 38.14 35.70 34.20 35.73 32.11 37.79 43.16 41.78 43.95 46.59 47.88 49.31 50.48 50.74 50.79 51.82 53.22 54.59 56.62 59.87 61.93 62.09 63.02 64.51 64.78 64.37 61.28 57.53 57.23 51.49 47.49 46.85 45.29 45.03 45.38 45.91 45.39 46.83 46.03 46.04 44.50 43.85 43.62 42.86 42.62 41.50
41.35 38.30 36.86 36.23 33.65 27.58 34.36 34.60 35.45 39.78 41.79 44.01 46.58 47.72 48.10 48.98 49.91 50.61 51.98 52.88 54.02 56.19 59.28 61.75 61.53 62.35 63.69 63.89 61.28 59.77 60.26 53.67 47.71 44.94 43.50 43.24 45.28 45.40 44.63 45.77 45.87 45.24 44.43 43.71 43.38 43.02 42.58 41.48 40.64
38.89 34.10 29.75 27.56 26.05 26.39 37.29 34.74 36.51 42.15 44.16 44.51 45.09 46.79 48.21 48.62 49.06 49.33 50.07 51.56 53.00 54.86 56.43 60.17 60.53 60.93 61.95 60.85 61.01 60.50 60.01 53.03 48.85 45.41 43.34 42.56 42.05 43.34 43.84 43.96 44.14 43.95 43.87 43.17 42.90 42.25 41.64 40.84 40.06
35.70 34.81 29.92 23.94 27.50 31.13 37.53 30.59 36.78 44.21 45.31 45.70 46.35 47.08 47.73 48.05 48.68 49.94 51.01 52.23 54.07 54.92 56.14 58.70 59.61 59.87 59.89 60.11 60.34 61.80 56.19 53.31 50.07 46.91 45.85 43.73 42.87 41.71 43.52 44.18 43.67 42.63 42.16 42.00 41.99 41.53 41.08 40.38 39.89
35.28 30.99 37.72 30.42 31.90 27.58 31.82 36.87 41.76 43.90 44.00 44.83 45.25 45.92 46.06 47.32 48.67 49.50 50.98 52.28 52.48 54.95 56.07 58.24 59.15 59.27 58.82 59.45 60.59 57.49 54.07 51.73 48.99 47.24 44.61 42.68 43.65 42.24 43.22 42.92 41.91 41.67 41.37 41.28 40.96 40.27 39.56 39.08 39.17
38.29 40.32 29.69 31.42 22.80 23.65 31.58 34.08 35.54 40.10 41.80 43.40 44.02 44.65 46.11 47.93 48.40 49.83 51.13 52.66 52.54 55.10 56.85 58.67 58.87 57.89 58.13 58.93 57.33 54.29 50.01 45.34 42.48 42.63 40.72 41.13 40.50 41.56 41.24 41.70 41.27 40.76 40.46 40.13 39.83 39.22 38.89 37.87 38.45
35.04 32.99 34.25 34.88 32.03 26.62 26.32 32.59 40.02 38.90 40.93 41.78 43.16 44.88 45.82 46.78 48.58 49.91 51.26 53.14 53.18 55.16 57.18 57.86 58.10 56.72 56.82 55.17 50.82 48.01 44.82 42.62 41.09 39.81 39.76 39.59 40.77 40.11 41.12 40.87 40.39 39.87 39.41 39.10 38.56 37.98 37.53 36.82 37.24
39.48 35.24 34.45 28.04 28.59 30.95 30.01 30.36 42.08 41.84 42.39 42.78 43.15 45.43 46.09 47.08 48.09 50.42 51.00 52.64 53.42 55.37 56.98 57.01 56.32 55.45 54.55 51.29 47.12 43.66 41.98 40.85 40.61 39.76 39.94 41.83 39.79 41.55 40.47 40.00 39.59 39.00 38.47 37.99 37.16 36.57 36.97 36.51 36.20

GFSSGP_sfc_wetblb_042.txt.gz
Wetbulb
68.12 66.35 63.17 58.89 48.08 47.47 43.60 47.10 47.88 49.24 49.01 51.50 53.91 52.73 51.36 53.53 55.34 52.28 65.86 67.56 71.76 71.32 72.91 73.95 74.78 74.29 73.08 72.32 71.39 70.74 70.47 70.64 71.03 71.70 71.53 70.71 70.20 69.25 67.82 66.72 66.36 67.19 68.14 69.36 69.72 69.92 69.33 68.49 67.82
66.02 64.38 60.09 54.63 45.02 40.89 43.79 49.71 47.78 48.87 52.46 54.04 54.11 52.72 52.01 53.09 62.47 62.36 64.44 67.94 71.74 71.60 72.19 72.83 74.42 74.15 72.88 71.55 70.31 69.90 69.52 69.22 69.12 69.97 71.63 70.66 69.69 68.42 67.46 67.83 66.68 66.18 66.24 67.14 67.45 67.34 66.97 66.46 66.12
64.77 63.59 53.30 49.85 45.01 41.73 43.22 49.59 49.48 51.80 53.08 52.00 51.92 54.42 54.27 56.57 62.04 63.47 66.54 68.40 71.17 71.15 72.26 73.12 74.15 73.89 72.53 70.86 70.62 70.18 69.11 68.36 68.68 69.61 69.98 69.27 68.75 67.45 68.25 67.15 65.86 65.52 65.61 65.42 65.79 65.75 65.82 65.73 65.69
60.81 57.60 53.78 45.09 43.71 47.45 47.97 49.98 51.36 51.55 51.78 53.02 53.65 51.62 57.48 62.18 61.13 65.71 67.17 68.62 69.33 71.24 72.60 73.19 73.83 73.63 72.63 71.94 70.62 70.10 68.73 68.30 69.15 70.00 69.84 68.26 67.52 68.01 68.15 66.97 65.84 65.81 65.48 65.66 65.61 65.63 65.60 65.75 65.84
59.24 55.16 46.08 43.47 44.43 48.28 50.49 51.76 51.30 49.79 50.49 51.67 53.01 51.42 56.00 61.68 65.39 66.62 66.30 68.60 68.70 71.66 72.20 72.75 73.78 73.55 72.78 71.15 70.45 69.55 68.54 68.57 70.03 70.35 69.21 68.59 68.16 68.04 67.99 67.45 66.06 65.88 66.03 66.39 66.61 66.79 66.41 65.93 65.62
52.24 51.83 42.92 41.66 44.95 48.63 50.24 51.54 50.95 49.83 51.44 51.90 50.01 51.26 56.00 62.85 64.16 65.73 66.76 66.86 69.48 71.29 72.11 72.13 72.77 72.95 72.72 71.71 70.83 69.84 68.76 68.36 69.56 69.70 69.09 68.32 68.41 68.60 68.42 67.95 66.83 66.44 66.26 66.45 66.73 66.59 66.44 65.94 66.07
50.25 47.78 43.22 43.99 44.74 46.51 49.41 52.08 49.66 49.91 49.90 50.57 52.46 48.31 56.50 60.77 65.13 66.92 66.11 66.58 68.46 71.09 71.38 71.13 71.67 71.84 71.78 71.48 71.19 70.65 69.96 69.26 69.52 69.65 69.54 69.66 69.19 68.34 68.71 68.67 67.96 67.01 66.73 66.79 67.12 66.79 66.56 66.51 66.71
52.26 49.69 45.30 45.19 43.88 44.91 50.39 51.12 52.59 50.64 49.81 53.69 53.75 48.04 50.77 61.28 65.38 66.64 66.09 66.29 66.81 68.43 70.60 70.45 70.74 70.96 70.41 69.96 70.79 70.28 69.87 69.40 69.08 69.40 69.08 67.74 66.38 66.70 69.88 69.44 68.86 67.51 67.06 67.36 67.25 67.12 67.33 66.95 66.12
55.69 45.88 42.55 44.61 45.52 47.09 50.84 49.23 52.31 53.48 51.12 52.41 52.52 52.09 57.87 62.32 65.45 64.57 63.89 65.09 65.44 67.44 67.56 70.05 70.58 70.86 70.20 69.49 69.75 69.93 69.54 68.73 68.36 67.78 67.05 66.03 64.36 64.63 67.12 67.47 68.16 68.42 67.82 67.29 66.96 66.37 66.02 66.04 65.65
50.08 45.37 46.00 49.87 49.59 48.42 50.55 49.75 50.53 49.94 50.10 50.14 52.03 55.95 59.31 59.62 62.06 62.73 62.56 62.83 64.11 64.80 66.23 67.23 69.49 70.14 70.17 70.69 68.93 67.89 68.00 66.55 65.34 64.34 64.39 64.52 64.28 64.29 66.87 66.34 67.64 68.50 67.84 67.37 66.11 65.61 66.00 64.99 62.29
49.24 45.00 48.79 49.60 50.50 52.74 51.34 50.72 51.58 49.24 47.92 50.55 50.25 52.84 56.11 58.49 58.78 61.52 62.27 62.97 63.63 65.13 65.48 66.80 67.14 69.29 69.35 69.94 68.67 68.63 67.36 66.57 65.55 63.21 63.24 63.21 63.10 62.09 63.69 63.58 64.72 63.83 63.68 63.01 64.17 63.79 61.67 57.42 57.17
45.80 49.75 50.28 50.91 52.38 52.05 50.15 52.31 50.42 50.12 50.18 53.96 53.74 54.89 55.75 55.31 56.60 58.70 60.18 61.89 63.39 64.44 65.57 66.81 67.34 67.19 66.99 69.57 68.82 68.60 67.71 67.19 66.76 64.38 62.66 61.85 61.42 61.08 60.11 61.96 61.88 62.54 61.51 62.81 62.42 58.96 57.28 56.23 54.28
46.66 48.39 50.66 51.32 51.15 50.55 52.30 49.70 49.35 50.19 52.87 54.60 54.89 55.01 53.92 54.71 55.75 56.63 59.21 60.65 60.90 63.12 65.32 66.15 67.03 67.40 67.41 67.12 68.62 67.65 66.95 67.02 67.01 63.92 62.11 61.34 59.62 59.04 59.95 60.61 61.20 61.03 62.08 59.08 58.23 56.41 54.68 51.95 50.72
48.99 48.91 48.92 49.69 49.26 49.65 48.05 47.89 48.66 48.88 51.40 51.80 52.95 52.84 53.30 54.39 55.69 56.23 56.88 57.58 58.33 60.98 64.39 66.32 66.74 67.75 67.93 67.19 66.22 66.87 68.11 66.48 65.51 64.49 62.62 62.33 61.21 60.70 61.01 60.84 58.60 57.53 58.56 57.50 54.93 52.39 50.66 48.06 46.50
49.11 44.31 46.73 47.47 48.17 47.41 48.59 44.38 45.14 50.16 51.25 50.18 50.23 51.04 52.36 53.10 54.24 55.00 56.60 56.76 58.12 59.17 62.78 64.82 66.39 67.00 67.71 67.49 67.18 66.57 66.47 67.41 65.20 65.30 63.48 63.14 63.14 61.91 61.81 59.24 57.27 54.54 54.67 53.66 52.03 49.60 47.50 46.43 46.80
44.49 44.38 38.89 45.96 47.77 48.27 46.79 38.49 46.62 49.76 49.14 48.57 49.54 50.25 50.87 52.22 53.38 54.43 55.59 57.08 57.67 58.53 59.14 62.68 66.80 67.02 67.11 68.18 67.94 67.27 66.60 67.37 66.45 65.92 64.12 63.64 63.95 62.62 57.50 56.41 54.61 53.01 52.84 50.89 48.37 47.13 45.72 44.26 43.30
42.64 35.55 38.31 41.85 47.27 46.07 43.92 39.62 47.08 49.51 47.59 47.12 47.87 48.97 50.34 51.04 52.04 52.90 53.96 55.64 56.89 58.18 58.54 58.48 61.27 64.67 66.70 67.18 68.20 67.57 66.35 66.95 66.98 66.53 65.49 64.82 63.52 60.05 57.29 56.92 54.84 53.45 50.50 47.91 47.09 43.85 43.14 41.66 41.66
36.77 37.09 38.91 39.02 43.52 43.50 41.50 41.24 45.23 47.33 47.21 46.31 47.30 48.00 48.50 49.86 51.14 52.85 53.87 54.53 55.71 57.07 58.96 58.50 58.59 58.29 59.49 63.81 65.53 67.11 65.49 66.61 66.84 66.41 65.41 64.69 61.68 57.93 56.36 53.39 52.51 50.34 47.70 45.69 44.87 42.45 41.82 40.53 39.87
42.33 38.64 37.11 40.20 44.42 41.03 39.88 40.81 43.02 45.52 45.55 45.48 46.36 46.82 48.20 49.92 52.02 52.89 53.49 54.05 54.14 54.32 55.43 59.01 57.85 58.25 59.09 57.48 61.15 63.77 64.41 64.92 65.76 65.73 65.36 63.55 58.50 56.53 52.15 50.17 49.52 48.37 46.25 44.73 43.38 42.27 41.45 39.49 39.86
39.57 36.61 36.19 40.19 43.16 40.34 38.63 38.26 41.77 43.63 44.07 45.07 45.59 46.06 47.07 48.16 49.59 51.23 51.96 52.47 54.03 54.28 54.56 55.11 56.94 57.79 59.06 59.28 59.53 61.53 61.85 61.07 62.70 63.46 62.44 59.19 56.18 53.04 50.14 48.42 47.46 45.50 43.74 42.67 41.87 42.04 40.35 39.43 39.17
37.32 35.25 35.61 35.62 39.34 39.69 37.40 35.07 38.28 42.85 44.07 44.88 45.96 46.58 46.87 46.66 47.30 49.03 49.93 50.73 51.88 54.15 54.43 55.25 56.29 56.75 58.26 58.99 61.18 57.45 55.32 53.49 52.01 53.85 53.88 53.58 51.16 50.65 47.75 47.59 46.36 45.24 44.15 42.47 41.30 41.00 41.20 38.45 38.01
33.76 40.05 39.07 37.40 33.71 27.77 36.89 25.81 34.65 39.11 40.36 42.50 42.30 43.27 44.41 45.50 46.94 47.97 48.42 48.03 49.16 52.34 54.63 55.37 55.95 56.77 57.93 60.02 61.00 58.59 58.57 55.95 50.62 51.65 51.49 50.42 50.36 49.65 46.82 46.96 47.12 44.71 44.38 42.86 40.69 41.48 39.27 38.63 36.75
36.13 40.52 37.78 37.01 33.06 30.91 31.53 26.85 31.23 37.78 37.67 39.98 41.85 42.62 44.27 45.19 45.76 46.17 46.92 48.55 48.99 49.07 50.42 54.70 56.05 56.42 57.55 60.88 62.10 58.89 55.30 50.77 50.30 47.51 46.36 46.81 47.57 47.50 46.29 45.39 43.31 43.55 43.33 41.23 39.73 38.47 37.84 37.00 36.10
41.36 37.48 36.02 34.42 31.28 23.79 29.98 29.76 28.62 33.89 36.53 39.02 41.27 41.65 45.32 44.29 43.64 44.82 45.64 47.21 47.86 48.87 49.61 52.66 55.06 55.88 58.90 60.49 60.74 57.35 53.92 48.55 46.46 45.45 44.27 43.82 44.70 45.80 45.65 45.17 43.62 42.13 40.90 40.19 39.10 38.15 37.14 35.96 35.46
38.88 34.01 21.79 23.00 23.49 19.98 33.56 29.93 32.39 38.72 40.68 41.43 40.71 40.10 42.36 43.36 42.60 43.68 44.10 45.41 47.01 47.42 49.16 50.40 55.19 55.05 58.92 59.54 58.46 56.15 54.44 48.52 45.28 44.44 43.25 43.09 43.06 43.49 44.00 43.87 42.76 40.74 40.17 40.04 39.03 37.72 36.54 35.99 34.72
35.12 34.02 22.64 18.87 20.21 23.43 33.09 26.21 31.24 40.47 42.74 41.84 42.26 41.97 43.21 42.89 42.97 43.02 43.82 46.19 47.17 48.34 48.99 49.70 54.85 55.38 58.32 58.74 56.46 56.22 49.96 47.11 45.30 44.66 43.72 43.45 42.74 42.89 44.14 43.63 41.19 39.80 39.18 38.67 38.13 37.10 36.35 35.50 34.55
33.91 29.30 34.30 28.23 27.03 19.39 25.93 30.44 36.66 40.87 40.76 41.47 40.57 41.92 41.48 42.36 42.93 42.57 44.59 46.58 47.71 47.82 49.66 49.90 54.35 55.44 57.12 56.79 56.70 52.73 50.08 46.86 44.78 43.16 44.12 43.26 43.08 43.00 42.74 41.55 39.30 38.52 38.37 37.82 37.10 35.68 34.86 34.32 34.00
37.06 38.19 28.73 26.50 12.46 17.15 25.11 27.72 30.42 34.35 36.77 40.02 39.66 39.35 41.41 42.68 43.28 44.25 46.04 47.26 49.18 50.70 49.76 50.89 54.20 54.89 55.41 56.26 54.41 51.34 48.75 46.11 45.07 43.74 41.85 42.14 41.92 41.61 40.50 38.83 39.09 38.01 37.39 36.84 36.20 35.02 34.66 33.81 33.20
33.51 32.05 33.43 31.83 29.38 19.23 20.46 25.92 35.14 36.88 37.44 39.29 41.23 42.19 42.04 41.81 42.91 44.05 46.57 47.82 49.27 50.25 49.93 51.49 54.14 55.27 54.89 54.17 51.71 43.33 40.86 41.61 42.28 41.46 41.32 40.65 40.94 40.66 39.96 39.47 38.71 36.98 36.47 36.36 35.33 34.33 34.13 33.18 32.59
37.47 34.05 32.35 25.49 22.77 26.88 24.30 27.15 41.13 38.61 39.03 39.97 39.72 41.88 42.18 42.03 42.58 43.69 46.24 46.66 47.78 48.55 50.78 51.93 54.77 55.16 49.95 47.56 43.04 40.80 39.46 39.42 39.69 39.63 40.07 40.30 40.29 41.08 39.59 37.55 38.13 37.19 35.95 34.87 34.06 33.62 33.56 32.61 32.05

GFSSGP_sfc_wetblb_045.txt.gz
Wetbulb
67.04 64.66 60.20 54.08 44.36 42.21 38.56 43.61 45.50 46.68 46.30 48.09 50.86 50.75 48.77 51.12 53.14 50.25 62.90 68.78 70.43 71.61 72.90 73.41 74.67 74.37 73.82 72.83 72.52 72.31 72.32 72.46 72.51 72.09 71.33 70.70 69.96 68.50 67.23 66.65 68.19 69.30 69.97 70.39 70.65 70.20 69.62 68.93 68.12
64.16 63.66 55.46 49.46 41.13 36.12 38.49 45.31 45.65 46.70 49.75 50.45 51.84 50.59 49.64 54.65 60.09 61.78 63.32 70.23 71.16 72.08 72.70 72.74 74.23 74.05 72.84 71.85 70.99 70.58 70.56 70.73 71.74 71.92 71.29 70.86 69.42 68.06 67.95 66.93 66.80 67.77 68.65 68.73 68.59 68.15 67.48 67.13 66.74
64.06 62.41 49.57 45.43 39.72 37.34 39.03 44.92 46.26 49.27 50.74 50.20 49.68 50.93 50.75 55.21 60.66 62.24 64.66 70.81 71.53 71.58 72.53 72.86 74.03 73.80 72.47 71.30 70.55 70.14 69.74 69.48 69.95 72.08 70.98 70.19 68.78 68.57 67.07 66.23 66.03 66.11 66.44 67.09 67.15 66.98 66.57 66.22 66.11
57.82 53.12 49.27 40.88 39.45 43.02 44.81 46.41 48.80 48.74 49.89 52.02 50.69 48.98 56.26 60.40 61.59 64.36 67.17 70.50 70.05 70.68 71.83 73.06 73.63 73.16 72.18 71.89 70.99 69.75 69.00 69.20 69.70 70.88 70.21 68.88 68.30 68.53 66.74 66.14 65.76 65.61 65.71 65.86 65.95 65.89 65.97 65.93 66.28
54.54 49.82 41.42 38.54 40.02 43.82 46.07 48.27 48.76 47.57 48.35 49.48 50.29 48.53 54.53 61.03 63.96 64.81 66.13 70.27 69.26 70.60 71.65 72.29 73.45 72.83 72.43 71.85 71.03 69.73 68.85 69.39 70.33 69.82 68.86 68.16 68.64 68.79 67.60 66.34 66.42 66.49 66.62 66.79 66.85 66.69 66.34 66.22 66.19
48.39 47.20 38.13 38.80 40.28 44.57 46.94 48.52 48.15 47.64 47.96 48.68 48.17 47.72 54.52 61.56 62.55 63.84 65.61 69.10 71.23 70.70 71.31 71.88 72.25 72.33 72.22 71.67 70.76 70.15 69.80 70.71 71.55 70.92 69.64 68.74 68.79 68.78 68.35 66.97 66.46 66.44 66.67 67.05 67.22 67.03 66.57 66.48 66.66
45.61 42.11 38.42 38.27 40.08 42.91 47.07 49.36 47.24 48.34 47.11 47.70 49.17 45.78 54.77 59.22 62.44 64.49 64.47 70.70 71.22 71.20 70.92 71.15 71.11 71.09 71.12 71.03 70.69 70.09 69.85 70.70 70.68 70.44 69.86 69.45 69.73 69.54 68.84 67.99 67.12 66.91 66.96 67.36 66.95 67.08 66.92 67.02 67.02
47.93 45.13 40.78 40.02 40.84 41.27 47.34 48.11 49.97 48.40 47.50 51.04 51.29 46.20 53.60 60.28 64.02 64.62 63.42 69.74 70.42 70.37 70.39 70.26 70.34 70.45 69.74 69.30 70.13 69.53 69.15 69.45 69.85 69.74 69.09 68.01 67.50 68.31 69.77 68.96 68.36 67.32 67.20 67.78 67.29 67.41 67.57 67.24 66.61
50.77 41.22 38.79 41.90 43.08 44.26 49.45 46.42 50.64 51.74 48.99 49.76 50.38 51.98 57.69 63.45 63.97 62.33 61.90 63.78 68.00 69.43 69.49 69.87 69.85 69.54 69.23 68.50 68.72 69.23 68.93 68.32 68.41 68.07 66.89 65.65 63.13 63.94 66.97 67.18 68.09 68.31 67.74 67.65 67.29 67.37 67.01 66.82 65.93
45.71 41.68 42.69 46.95 47.21 45.27 48.98 48.55 48.73 48.16 47.89 46.59 49.25 55.56 57.93 62.52 61.97 61.73 61.46 61.71 63.59 66.50 68.23 69.15 69.38 69.09 68.94 69.60 68.20 67.01 66.89 65.84 65.07 65.02 64.63 63.67 62.86 64.45 67.11 65.86 67.21 68.54 68.36 68.00 67.03 66.46 66.23 64.63 61.54
45.81 42.29 47.37 49.39 49.74 50.05 49.26 48.96 50.66 46.91 45.34 47.76 48.01 50.56 55.04 57.54 60.38 61.21 61.44 62.07 62.40 63.82 66.66 69.16 69.15 69.44 68.89 68.80 67.93 67.21 66.43 64.78 64.00 62.93 63.29 62.89 62.47 64.31 64.80 64.64 65.27 64.61 64.48 63.80 64.80 63.37 61.82 59.31 57.88
42.31 47.05 48.62 49.61 50.57 49.81 48.21 50.50 48.70 47.82 47.46 51.09 51.34 52.02 53.35 54.55 56.59 59.51 60.39 61.33 62.08 63.47 64.79 66.28 69.30 69.29 68.84 68.73 67.48 66.90 66.09 65.25 64.01 62.80 62.41 60.65 60.04 62.23 62.25 62.72 62.56 61.96 61.24 60.48 60.41 60.00 55.48 53.86 51.37
43.29 45.60 48.67 49.21 48.86 48.44 49.56 47.46 47.14 47.93 50.59 51.74 51.54 52.08 51.32 53.36 53.76 54.90 57.73 59.79 61.38 63.63 64.51 65.30 67.76 67.80 68.03 68.05 67.58 67.16 66.14 65.74 65.00 63.15 62.01 60.22 60.92 59.71 59.79 60.06 60.64 60.92 60.09 59.40 57.12 54.25 51.96 49.21 47.14
45.91 46.27 46.42 47.94 47.53 47.61 46.75 46.08 46.03 46.97 49.78 49.16 49.49 49.79 49.79 51.42 53.51 54.02 54.44 55.46 57.00 62.18 64.49 65.77 66.11 66.70 68.40 67.89 67.47 66.87 66.19 65.86 65.35 63.73 62.03 60.32 60.38 58.80 58.60 58.76 58.99 58.75 57.63 56.58 53.51 50.84 48.61 45.75 44.84
47.26 42.39 44.53 45.49 46.34 45.44 47.58 42.73 43.39 47.99 48.83 48.35 48.72 48.33 49.82 50.12 51.71 52.83 54.83 54.57 55.66 56.26 64.40 65.48 66.11 66.96 66.33 66.33 67.24 66.86 66.27 66.56 63.95 63.22 61.62 60.62 59.93 58.47 59.26 57.71 55.92 54.27 53.75 50.96 48.87 46.70 45.71 45.08 44.38
42.46 41.61 36.68 43.93 46.30 46.97 45.61 37.77 44.94 47.75 46.12 46.77 48.52 49.31 48.19 50.13 50.63 51.69 52.80 53.54 54.49 55.81 60.22 65.28 67.23 67.05 66.94 66.86 66.14 66.08 66.21 66.68 64.53 63.40 62.43 61.57 61.33 60.52 58.85 56.38 53.79 52.07 51.19 49.23 46.94 45.71 44.13 42.07 41.45
39.51 32.87 35.98 39.90 45.34 45.23 43.42 38.14 45.73 47.45 46.74 44.34 46.04 47.79 48.84 50.17 50.50 50.06 51.66 53.80 54.81 54.26 55.84 62.11 65.56 65.85 67.02 67.31 67.43 65.88 64.86 65.84 65.34 63.35 62.61 61.79 61.73 58.45 57.33 54.79 52.40 51.64 48.49 46.18 45.83 42.49 42.15 39.78 39.70
34.16 34.35 34.96 36.21 41.83 42.50 40.04 38.75 42.78 45.49 44.59 43.80 43.39 44.59 45.32 47.53 49.53 52.11 52.20 51.05 53.08 54.78 55.09 55.77 61.38 65.42 66.74 67.38 67.56 66.93 64.19 65.97 65.66 64.73 63.68 62.84 60.94 57.30 56.43 53.89 52.24 49.36 45.82 44.34 42.82 41.01 39.57 38.89 38.41
39.41 37.23 34.05 37.72 42.32 38.35 38.27 38.63 40.35 43.36 42.99 44.16 45.04 43.12 45.53 47.94 50.09 50.06 50.43 50.65 50.08 50.71 51.87 55.09 55.67 62.40 65.27 64.46 65.35 65.57 64.12 64.39 65.20 65.41 64.47 63.03 59.65 57.26 54.47 51.80 49.20 46.79 45.21 43.42 42.17 40.52 39.18 37.93 37.58
38.66 34.43 33.33 37.73 40.76 37.79 36.70 36.68 40.15 41.68 42.57 43.64 44.48 43.06 44.86 47.17 46.09 47.89 49.02 49.13 50.26 51.63 51.44 51.39 54.63 57.71 61.55 62.92 64.37 63.96 62.61 61.23 63.09 64.71 64.02 61.45 57.27 55.05 52.13 49.35 47.17 45.55 43.89 41.98 41.45 40.83 38.92 37.86 37.07
34.42 32.03 32.74 33.53 36.80 36.16 34.64 33.13 35.73 39.56 41.53 43.40 44.84 45.36 45.42 45.46 45.81 46.48 46.42 47.36 47.47 49.04 50.48 52.27 52.89 55.09 56.05 56.79 58.25 56.08 56.32 56.16 56.56 58.80 58.15 55.15 53.50 52.31 51.31 47.18 45.93 43.35 42.72 41.58 40.59 40.33 40.02 37.44 36.94
31.92 37.62 37.01 35.44 31.45 25.30 33.68 23.64 30.29 36.53 37.99 39.72 39.81 41.26 43.81 44.28 44.08 44.66 45.41 45.21 46.03 46.99 49.80 51.61 52.95 53.94 55.45 56.65 58.29 58.62 58.97 59.35 55.65 54.19 50.45 50.73 50.44 50.25 50.21 47.41 46.66 43.81 42.93 41.01 40.28 40.61 39.40 39.44 36.71
35.15 39.47 36.40 35.07 30.22 27.72 28.12 24.74 28.40 33.93 35.21 37.84 38.50 39.31 40.63 43.14 44.58 45.18 45.47 46.73 47.07 46.12 46.52 49.45 51.36 52.83 54.54 56.96 59.21 59.57 58.89 52.91 51.34 50.99 48.27 49.39 48.95 49.16 49.05 48.22 48.13 44.76 43.51 40.56 39.20 38.93 38.07 38.71 37.48
40.10 36.39 34.44 32.32 29.01 21.07 27.13 26.71 25.59 31.59 35.41 36.10 37.50 40.25 42.05 42.49 43.10 43.88 44.15 45.07 45.27 45.64 45.67 47.50 50.39 51.57 52.56 56.45 58.95 59.24 53.26 50.37 48.74 47.37 46.28 46.26 47.37 46.54 46.95 46.72 45.89 45.55 44.29 42.09 40.96 37.25 36.97 36.36 36.05
38.50 30.89 17.66 24.89 23.95 19.02 29.93 27.35 28.47 35.79 39.15 39.60 39.28 40.38 41.46 42.40 41.17 42.14 42.08 43.97 44.00 44.32 45.34 46.76 48.11 50.84 52.95 55.86 58.56 56.34 53.41 51.80 49.98 47.29 46.74 44.13 43.96 44.23 44.42 44.11 43.82 43.41 42.20 41.77 39.99 37.04 36.26 35.41 34.93
33.28 31.24 20.34 17.84 19.38 21.45 29.66 24.60 29.86 37.91 41.34 40.34 40.62 40.27 40.80 41.39 40.56 42.47 41.86 43.38 44.51 45.85 46.18 46.34 47.12 50.22 54.22 57.36 56.55 53.94 50.92 50.28 48.98 47.74 46.17 45.30 44.51 44.39 44.91 43.53 43.25 42.14 42.31 42.11 38.03 36.85 36.19 35.06 34.37
32.34 28.75 33.36 27.57 22.87 14.74 22.99 27.17 33.63 37.22 37.71 38.07 38.59 38.96 38.78 40.41 40.55 40.27 43.83 44.88 45.60 46.48 47.31 47.32 46.97 52.00 55.76 56.35 54.05 49.46 48.76 48.04 46.62 45.42 44.68 45.50 44.56 43.85 42.94 42.46 41.50 41.48 41.02 40.12 37.81 37.04 34.05 34.33 34.29
34.07 35.55 24.62 21.65 9.05 14.73 21.47 23.14 27.94 32.19 35.36 37.99 38.14 38.43 39.79 41.29 40.22 43.14 44.76 45.68 46.50 46.83 47.34 47.78 47.50 52.41 55.12 54.45 50.15 48.05 46.84 45.95 44.42 43.74 42.38 40.93 42.02 42.97 41.47 41.44 40.84 40.83 39.82 37.86 36.90 34.15 33.79 34.19 33.60
32.97 32.79 32.95 29.67 25.37 17.06 18.77 23.31 32.72 34.04 35.10 35.95 37.11 39.50 41.22 42.61 41.97 41.26 44.21 45.36 46.04 46.54 47.20 47.24 48.25 52.87 53.27 51.12 48.12 46.11 44.75 43.39 42.98 42.29 41.61 42.55 41.89 41.16 40.31 39.67 39.28 37.97 37.30 36.07 34.97 34.01 34.47 33.09 32.59
35.02 31.68 30.41 19.37 19.67 23.96 20.13 25.11 38.48 37.86 37.21 40.23 41.24 43.03 41.86 40.82 41.53 43.63 44.63 45.14 45.34 45.62 47.17 48.27 50.86 50.90 48.91 45.25 43.41 42.57 41.40 41.16 40.48 40.96 41.47 40.89 40.09 40.30 39.61 39.19 38.26 37.51 36.64 35.76 35.05 34.06 32.87 31.97 32.04

GFSSGP_sfc_wetblb_048.txt.gz
Wetbulb
65.86 63.23 59.02 52.77 43.39 41.04 37.43 42.03 43.49 46.28 45.95 48.13 49.55 50.28 48.76 50.64 51.77 47.76 62.42 67.90 70.91 71.52 72.69 72.95 74.35 74.47 74.78 74.13 73.76 73.52 73.32 73.34 72.58 71.87 71.01 70.31 69.21 68.00 67.37 68.87 69.94 71.21 71.14 70.69 70.47 70.54 70.15 69.63 68.59
63.54 62.24 53.61 47.56 39.98 34.71 37.01 41.93 44.94 46.63 48.52 49.66 49.89 49.17 49.13 53.18 58.88 62.75 64.79 69.52 71.24 71.59 72.22 72.24 74.14 74.26 73.79 73.34 72.99 72.77 72.90 72.86 72.33 71.57 70.72 70.22 68.91 67.85 66.81 67.99 69.13 69.40 69.84 70.20 69.57 68.99 68.13 67.53 66.79
62.70 61.02 49.24 44.36 38.69 36.14 37.45 43.05 44.62 48.02 49.04 49.25 47.68 50.00 52.47 54.70 59.61 63.04 66.87 70.05 71.14 71.25 72.11 72.47 73.95 73.82 72.81 72.18 71.73 71.39 71.42 72.06 72.02 71.80 71.17 69.92 68.92 68.29 67.17 66.80 67.84 68.42 68.43 68.40 68.11 67.55 67.01 66.64 66.57
56.30 52.30 48.02 40.48 39.14 41.52 42.42 43.76 46.09 47.78 49.70 49.76 49.32 48.41 55.42 59.00 61.37 63.97 69.64 70.54 70.50 70.87 71.47 72.93 73.64 73.44 72.51 71.75 71.26 70.31 70.10 70.24 71.58 71.86 70.70 69.39 68.83 67.04 66.29 66.07 66.14 66.21 66.71 66.84 66.64 66.30 66.13 66.08 66.30
53.43 47.81 40.65 37.87 39.63 41.92 44.13 46.69 47.62 46.88 47.54 48.06 49.15 47.53 53.94 60.53 62.31 68.92 69.55 70.40 69.81 70.47 71.38 72.21 73.53 72.71 71.93 71.40 70.67 70.19 69.81 69.54 71.80 70.72 70.16 68.67 68.60 67.02 66.35 65.95 65.80 65.87 65.96 66.06 66.01 66.02 66.15 66.14 66.25
47.60 46.25 37.80 36.81 38.79 42.93 44.74 46.76 45.40 46.19 47.69 47.84 47.50 50.59 54.23 60.03 62.75 67.86 69.53 69.00 70.57 70.38 71.21 71.69 71.98 72.01 72.09 71.60 70.76 70.34 70.42 71.35 71.23 70.62 69.14 68.76 68.96 67.95 66.67 66.55 66.61 66.91 67.03 67.15 67.09 66.77 66.59 66.47 66.47
45.18 41.04 38.35 37.81 39.09 41.86 45.78 47.66 44.96 46.90 46.85 47.47 49.33 47.23 53.69 58.06 61.91 64.07 68.06 69.08 70.31 70.71 70.53 70.87 70.34 70.63 71.12 71.05 70.53 70.20 70.61 71.04 71.18 70.67 69.95 69.45 69.51 68.75 67.70 66.84 66.75 66.89 67.34 67.39 66.88 66.92 66.83 67.06 66.92
46.25 43.70 38.40 38.51 39.03 40.23 45.54 46.87 48.01 46.37 47.36 49.70 49.96 51.44 52.71 59.05 62.74 64.77 69.27 69.50 69.71 69.89 69.85 70.07 69.65 69.70 69.14 68.83 69.70 69.50 70.46 70.68 70.35 69.99 69.15 68.59 68.44 68.78 68.81 68.13 67.73 66.98 67.39 67.52 67.12 67.16 67.17 67.04 66.45
48.69 40.06 37.90 40.05 40.25 42.28 47.23 46.03 49.40 50.43 47.09 48.37 48.75 53.76 58.82 62.41 62.79 62.30 67.34 68.25 68.84 69.15 69.23 69.61 69.16 68.71 68.08 67.62 67.89 68.66 68.88 69.17 68.91 68.32 67.20 66.37 64.89 66.28 67.33 66.91 67.49 67.97 67.71 67.69 67.43 67.56 67.27 67.12 65.83
43.97 39.45 40.80 45.44 45.76 44.38 46.90 47.22 48.49 47.32 46.33 45.61 50.52 55.48 60.70 61.78 60.88 60.88 64.80 66.12 67.14 67.55 68.70 69.23 68.95 68.59 68.04 68.58 66.90 65.77 65.89 65.51 65.53 65.40 64.61 63.46 62.08 62.38 65.97 65.58 67.05 68.29 68.15 68.13 67.44 67.15 66.77 64.52 60.52
44.17 40.95 45.73 47.59 49.09 48.72 48.18 47.67 49.59 46.23 44.64 45.93 46.65 52.45 55.28 58.74 59.89 60.58 62.47 65.16 66.62 67.55 68.30 68.77 68.71 68.69 67.98 67.77 66.98 65.95 64.65 63.75 63.84 63.71 63.53 62.60 62.45 63.52 65.48 64.84 65.12 64.56 64.99 64.17 64.91 63.44 61.21 59.86 59.02
41.58 46.00 47.51 48.92 49.94 47.98 46.50 49.13 46.88 47.38 47.43 50.18 49.77 50.38 51.38 54.95 56.23 59.67 61.24 62.08 62.36 66.27 67.47 68.32 68.71 68.24 68.02 68.03 67.02 66.15 65.15 64.04 63.08 63.00 63.01 61.54 60.21 62.59 62.90 64.19 63.33 62.51 62.51 60.60 60.52 59.56 55.04 51.87 50.12
41.93 44.01 47.05 48.35 48.24 46.76 48.09 46.49 46.65 47.23 50.29 51.05 49.21 50.91 50.55 50.87 53.44 55.57 59.07 61.29 62.41 63.33 66.26 67.92 68.56 68.21 68.13 67.59 67.04 66.29 65.48 64.53 63.77 62.52 61.87 61.54 59.94 62.58 63.00 62.29 61.86 60.92 60.22 59.48 59.12 56.45 50.99 47.59 45.24
44.89 45.72 45.65 46.62 46.43 46.35 45.67 45.07 45.43 45.81 49.22 48.84 49.04 48.60 48.74 50.00 51.06 51.33 53.20 54.85 57.43 62.28 63.83 66.93 68.49 68.64 68.39 67.68 66.76 66.16 65.78 65.21 64.13 63.07 61.66 60.71 61.05 61.89 60.99 59.72 60.05 59.66 59.54 58.14 55.96 51.07 47.51 44.65 44.18
45.82 42.20 43.27 44.42 44.90 44.61 46.21 43.31 42.38 47.48 48.13 47.02 47.63 47.42 48.77 48.70 50.06 50.27 52.09 53.50 53.89 56.65 64.01 64.07 67.91 68.60 67.96 67.73 66.98 66.63 66.17 65.79 64.42 63.73 61.86 60.49 60.89 60.50 59.49 58.61 57.80 57.97 56.32 53.84 49.09 45.79 44.56 43.96 43.42
42.09 40.78 36.09 42.55 44.59 45.45 44.84 38.17 43.39 46.77 44.67 45.14 45.78 47.34 47.62 49.23 49.74 50.18 51.17 51.65 52.86 53.56 56.54 64.10 66.30 67.00 67.16 67.67 67.37 66.96 65.92 65.72 64.57 63.87 62.52 60.34 60.10 59.97 57.73 56.93 55.47 53.52 50.33 48.59 45.95 44.62 42.82 41.60 40.83
38.06 32.38 35.42 38.84 44.73 43.96 41.83 37.20 44.51 48.15 45.49 43.34 44.43 44.21 46.23 47.55 48.42 48.75 50.33 51.33 52.17 51.73 53.73 61.10 64.65 65.50 66.39 67.34 67.26 66.61 65.76 65.55 64.41 63.05 61.92 60.73 59.78 58.76 58.06 56.31 52.78 50.85 48.63 46.43 45.66 42.54 41.86 39.81 38.90
34.10 33.51 33.60 35.38 40.05 40.95 39.21 38.90 42.81 43.80 43.70 43.32 43.23 43.88 44.46 46.03 48.34 50.14 50.16 50.66 52.86 52.33 51.19 57.65 63.18 64.50 65.58 65.91 65.69 65.23 64.23 64.91 64.38 62.63 61.78 60.50 60.39 58.54 56.83 54.26 51.75 48.92 46.12 43.97 42.65 41.01 39.26 38.44 37.79
39.60 36.29 33.60 36.64 40.87 37.04 36.14 35.92 38.94 41.90 41.26 42.00 44.16 43.87 43.79 45.38 48.77 48.19 48.46 48.54 48.48 48.97 49.18 51.15 57.96 63.46 64.91 65.24 64.61 63.83 63.20 63.09 63.44 63.19 62.52 61.23 59.59 57.54 56.33 54.21 50.47 46.98 46.13 43.66 41.69 39.70 38.71 36.99 36.82
38.31 36.72 33.29 36.66 39.42 36.59 35.39 35.31 39.14 40.94 41.43 42.55 43.49 44.66 45.33 45.24 45.68 46.20 48.00 48.37 48.81 49.64 48.77 48.99 52.27 59.24 63.79 65.71 65.84 65.07 64.06 62.20 63.48 63.27 62.61 62.22 59.30 57.77 56.38 53.24 49.73 46.36 43.92 41.93 40.91 40.69 38.23 36.92 35.89
34.69 31.59 32.10 33.12 35.93 34.68 33.60 33.27 34.75 38.31 39.92 41.51 43.89 44.88 45.21 45.06 45.73 46.72 45.03 46.11 46.75 46.94 48.54 50.15 50.60 53.56 61.53 64.83 62.21 57.73 58.41 57.87 58.25 59.76 60.31 61.58 58.86 57.43 55.55 51.68 48.94 45.75 45.41 42.20 40.47 39.86 39.37 36.77 35.97
31.16 36.45 36.53 34.59 31.28 25.39 33.05 23.14 29.71 34.97 36.72 38.32 38.04 38.67 41.31 42.85 43.33 45.22 45.25 44.96 45.76 46.56 47.16 48.94 50.41 51.56 54.32 55.79 59.49 61.90 61.06 59.79 59.02 62.02 57.62 54.64 54.23 56.40 53.04 49.65 47.50 47.19 44.67 41.54 40.46 40.67 39.14 38.08 35.66
34.48 38.46 35.62 33.81 28.97 26.19 27.51 24.81 27.95 32.52 34.09 36.62 37.80 38.83 39.44 40.27 41.48 42.30 43.05 45.02 45.63 44.86 44.62 45.82 48.21 50.04 52.03 53.99 58.36 59.83 60.87 60.95 55.71 53.40 52.54 52.17 52.60 53.14 51.57 49.84 48.29 45.74 44.02 43.21 44.15 43.57 41.05 38.92 37.30
39.48 34.78 32.82 30.94 26.83 17.18 25.09 25.42 25.73 30.08 33.57 34.24 36.91 38.31 41.07 41.61 40.17 41.81 42.88 43.28 43.63 43.52 43.83 43.51 45.39 47.70 49.77 51.98 55.30 58.60 57.85 53.00 52.99 50.75 50.13 49.47 49.37 50.20 50.20 48.88 46.60 45.96 44.55 44.99 44.04 41.23 40.90 39.09 38.09
35.51 27.48 16.05 16.21 15.04 18.03 27.80 25.27 27.38 33.83 37.59 37.05 37.95 37.84 38.31 39.50 40.07 41.16 41.24 42.16 42.87 43.29 45.01 45.46 45.74 46.74 48.22 49.69 53.99 55.76 56.36 54.31 53.71 51.40 50.68 47.66 47.04 46.37 48.26 48.75 46.14 44.94 45.30 43.82 41.29 39.35 39.03 38.17 37.12
31.52 28.43 18.41 15.11 18.91 20.13 27.58 23.17 28.99 34.87 37.36 37.00 37.98 37.51 39.40 39.78 39.11 39.67 40.97 42.40 44.47 45.57 45.75 46.19 46.70 46.59 47.03 48.98 54.12 56.31 55.83 54.60 53.20 52.00 49.60 49.17 47.87 46.06 46.08 44.93 45.08 43.35 42.42 41.40 40.49 39.31 38.50 37.64 36.29
31.01 22.98 31.13 22.48 20.80 14.88 22.35 25.74 31.56 35.15 36.28 37.41 37.74 39.05 39.10 40.46 41.07 39.78 42.67 43.79 44.67 44.92 45.69 46.19 47.23 47.06 47.35 50.31 54.19 51.20 52.10 51.18 49.94 47.62 47.52 46.15 46.37 45.65 44.55 44.63 43.27 42.43 41.60 40.82 40.27 38.86 37.61 36.14 35.51
33.35 35.03 22.97 17.69 7.65 14.23 20.37 22.03 26.02 30.96 33.80 34.97 36.48 37.56 39.22 41.18 43.17 42.18 42.97 44.36 45.05 45.27 45.56 46.10 46.81 46.78 47.37 52.62 49.56 49.07 49.04 48.70 47.42 47.05 47.03 45.71 46.26 44.39 43.58 42.33 41.24 40.53 40.17 39.51 38.60 37.09 35.84 35.41 34.50
32.13 29.81 29.08 26.49 22.89 15.54 17.98 23.02 31.07 31.85 34.09 34.39 36.39 38.82 43.08 43.51 43.46 42.82 40.14 43.67 44.92 44.97 45.28 46.58 47.00 46.67 50.79 48.46 46.48 45.91 45.17 45.70 46.37 46.11 45.17 44.72 44.23 42.39 42.25 40.96 40.08 39.25 38.23 38.25 37.04 36.02 35.05 34.29 33.85
34.32 31.49 29.81 19.26 18.27 20.99 18.87 23.54 35.93 34.04 35.22 38.16 40.99 42.92 43.07 43.86 42.51 42.41 42.61 44.96 44.59 44.25 45.53 48.75 48.32 49.91 48.66 46.90 45.10 43.96 43.59 44.09 44.02 42.92 43.15 41.96 40.52 42.23 41.22 39.52 38.50 37.82 37.21 36.01 35.57 35.07 34.44 33.83 32.83

GFSSGP_sfc_wetblb_051.txt.gz
Wetbulb
64.68 62.27 56.99 51.72 42.75 40.32 36.40 40.28 43.08 44.00 44.67 46.31 47.97 48.70 48.92 49.30 50.26 46.51 61.76 67.85 70.33 71.41 72.64 73.34 74.83 74.93 74.88 74.64 74.28 74.41 73.98 73.54 72.94 71.45 70.84 69.83 68.94 68.58 68.64 69.76 69.93 71.22 69.92 69.53 70.81 70.92 70.83 69.62 68.72
62.89 60.57 52.67 46.51 38.71 33.54 35.51 40.60 42.57 45.15 47.15 48.62 47.40 47.58 50.71 52.04 58.25 62.03 64.32 68.91 71.27 71.62 72.11 71.92 74.36 74.63 74.77 74.16 73.73 73.32 72.84 72.49 72.13 71.57 70.75 69.46 68.34 67.32 68.27 69.49 70.03 71.25 70.62 70.24 70.13 69.20 68.43 67.68 66.79
60.79 57.96 48.69 43.70 37.93 34.46 35.46 41.42 43.55 46.29 47.64 46.63 46.38 49.01 51.18 53.03 58.72 63.11 64.82 70.30 71.06 70.97 71.45 71.68 73.87 74.54 74.13 73.68 73.30 73.12 73.02 72.63 71.99 71.40 70.51 69.27 68.55 67.29 67.12 68.64 69.13 69.15 69.22 69.16 68.39 67.81 67.27 66.86 66.26
55.53 52.30 47.43 40.41 38.32 40.77 41.14 43.03 44.40 46.62 48.85 47.94 47.95 49.80 55.10 58.27 61.25 63.43 69.00 70.25 69.90 70.33 70.86 72.50 73.53 73.90 73.68 73.18 72.58 72.37 72.53 72.57 71.91 71.38 70.55 69.38 68.74 67.24 66.54 67.21 67.97 68.18 68.11 67.96 67.57 67.04 66.53 66.21 66.47
52.29 47.08 40.41 37.15 39.31 42.17 41.67 45.86 45.54 45.51 45.35 46.77 48.84 48.40 53.56 59.29 63.14 67.95 68.97 69.92 69.52 69.89 70.90 71.95 73.47 73.11 72.30 71.62 71.19 71.20 70.92 71.53 71.87 71.75 70.37 69.33 67.72 66.50 66.11 66.19 66.19 66.36 66.65 66.61 66.38 66.13 65.80 66.01 66.43
47.46 45.36 36.77 36.19 39.17 42.05 43.13 44.85 44.18 43.86 45.02 46.93 46.11 51.71 53.41 58.84 66.04 67.61 69.38 69.03 70.30 70.00 71.01 71.50 72.18 72.25 71.73 71.22 70.77 70.57 70.81 71.15 72.54 71.35 69.97 68.97 67.75 66.70 66.30 65.96 65.90 65.92 66.00 66.05 66.19 66.19 66.11 66.12 66.23
45.75 41.69 38.64 37.28 39.75 39.97 43.73 46.10 43.83 45.61 44.77 46.13 47.50 50.45 53.08 56.76 64.42 68.24 68.28 68.40 69.82 70.33 70.35 70.47 70.15 70.22 70.97 71.07 70.58 70.46 70.59 70.98 71.44 70.94 69.99 69.73 68.84 67.33 66.76 66.69 66.87 67.00 67.04 67.10 66.84 66.55 66.42 66.70 66.66
45.79 43.07 38.04 38.03 38.43 39.99 44.67 46.33 46.67 45.19 46.73 48.42 52.74 49.73 51.69 57.92 62.89 66.74 67.38 68.30 68.70 69.44 69.89 69.22 68.41 69.08 68.67 68.66 69.83 69.66 69.94 70.68 70.42 69.72 69.12 68.62 68.23 68.15 67.52 67.40 67.45 67.07 67.34 67.03 66.76 66.92 66.88 66.79 66.42
47.20 39.59 36.93 38.73 39.67 41.64 45.34 44.62 48.40 49.08 46.32 47.30 48.03 53.49 56.33 60.70 66.13 66.69 67.11 68.01 68.62 69.10 69.01 69.35 67.98 67.77 67.37 67.09 67.46 68.85 69.72 69.79 69.51 68.66 67.26 66.63 65.66 66.60 66.35 66.09 67.03 67.84 67.61 67.51 67.23 67.14 67.14 67.00 65.19
43.46 38.35 40.02 44.63 44.29 42.83 46.02 46.01 46.91 47.31 45.65 45.16 50.05 56.06 59.86 60.71 65.21 65.40 65.55 65.84 66.61 67.52 68.83 69.40 68.11 67.61 67.13 68.07 65.90 65.13 66.57 66.54 66.08 65.55 64.76 64.23 63.89 64.55 66.61 65.13 66.56 67.96 68.00 68.14 67.49 67.51 67.17 63.49 59.17
43.49 39.22 44.05 46.54 48.13 48.04 45.82 46.15 48.35 45.49 44.39 44.67 45.54 50.20 53.93 58.21 58.69 64.64 65.47 66.24 66.91 67.46 68.36 68.42 68.33 67.84 67.30 67.03 65.76 64.56 63.72 63.88 64.18 63.83 63.39 62.70 62.31 61.22 63.65 64.00 64.57 64.08 64.65 64.01 65.06 63.61 61.04 59.42 58.41
41.24 45.25 46.38 47.68 48.96 47.10 44.64 47.72 46.16 46.76 47.30 49.23 49.12 49.95 50.57 53.45 57.08 59.00 63.60 65.68 66.86 67.10 67.27 68.12 68.36 67.95 67.16 66.98 66.17 65.06 63.84 62.99 62.92 63.21 62.93 61.41 60.44 60.98 62.47 63.94 63.09 62.43 62.85 60.91 60.50 59.58 56.16 52.58 49.27
41.79 43.44 46.39 47.77 47.70 45.97 46.62 45.00 45.52 46.25 49.89 49.71 50.01 49.62 49.04 49.33 50.05 55.72 59.58 62.17 64.73 66.34 66.93 67.93 68.29 67.78 67.38 66.52 66.31 65.27 64.39 63.58 63.33 62.87 62.67 61.92 60.11 60.74 61.97 62.26 61.96 61.48 60.92 59.52 58.72 57.20 51.30 47.02 44.30
44.50 45.30 45.52 46.08 45.65 45.47 44.70 44.25 44.14 44.57 48.17 48.34 47.62 48.34 48.09 48.44 49.22 49.32 53.15 58.19 60.25 64.18 66.68 67.80 67.97 67.81 67.63 66.80 66.40 65.52 65.04 64.15 63.11 62.62 62.42 61.96 60.92 60.96 62.17 61.31 60.84 60.16 59.75 59.16 58.48 54.29 47.63 43.96 43.08
44.87 40.84 42.10 43.81 44.47 44.13 44.94 42.03 40.98 46.04 47.63 46.37 47.56 46.27 47.41 47.80 49.22 49.01 50.25 52.23 55.01 59.00 62.71 66.82 67.74 67.80 67.35 67.12 66.84 65.99 65.54 65.08 63.50 62.86 61.34 61.39 60.82 60.66 61.43 61.06 59.25 59.06 59.21 57.62 53.39 47.01 43.80 42.87 42.34
41.46 39.97 35.68 41.98 44.41 44.86 44.06 37.64 42.78 46.06 44.49 44.24 44.82 46.22 45.83 47.12 48.23 49.16 50.03 50.29 51.72 53.02 56.04 62.90 68.23 67.91 67.63 67.30 66.75 66.06 65.99 65.39 64.24 63.60 62.23 60.51 60.45 60.65 59.67 59.54 57.89 57.57 55.66 52.27 47.12 44.24 42.38 41.21 40.76
36.94 32.05 34.91 38.85 44.11 42.99 41.48 36.60 43.05 45.93 43.99 43.15 43.63 44.71 44.08 45.56 46.72 47.50 50.01 49.60 50.23 51.32 52.89 56.93 63.40 67.13 67.44 67.29 67.21 66.47 65.58 65.46 64.47 64.11 62.94 60.39 59.77 59.62 59.16 58.31 56.40 54.24 50.11 47.53 45.71 42.47 41.84 40.05 39.18
33.42 32.98 32.74 34.87 38.97 40.11 38.49 37.52 42.63 44.06 42.50 42.12 42.57 43.46 43.23 44.52 46.97 48.16 48.21 48.87 50.49 49.55 50.13 52.46 60.30 64.19 66.56 66.87 67.01 66.36 65.71 65.19 64.10 64.02 63.26 61.14 59.67 58.45 58.37 56.21 52.95 50.74 47.51 44.93 43.35 41.25 38.95 39.08 38.42
37.72 35.31 33.83 36.26 39.65 36.43 35.42 34.78 38.25 40.82 39.32 39.59 41.38 43.45 44.70 45.39 47.94 46.78 47.64 48.24 48.08 47.93 47.44 49.38 54.70 61.65 64.25 65.17 64.82 64.28 64.03 63.88 63.31 63.55 62.95 60.87 59.94 58.42 58.03 55.39 51.06 49.24 48.29 46.31 42.99 39.91 39.07 37.39 36.95
39.92 36.85 35.59 36.31 38.20 35.55 34.49 33.86 38.43 40.67 40.88 41.51 42.70 43.45 44.31 45.35 44.30 45.17 46.39 46.72 47.42 48.44 47.94 46.88 50.04 57.85 63.53 64.53 64.90 64.26 64.15 64.18 64.31 63.29 62.25 60.80 60.06 58.24 57.47 55.20 52.07 49.55 45.56 42.43 40.99 40.51 38.02 36.77 36.24
36.98 32.45 31.95 32.50 35.19 33.71 32.29 31.40 33.94 37.39 38.41 39.72 41.22 42.66 43.42 43.84 45.01 46.12 44.23 45.38 45.96 46.25 47.78 49.07 48.49 50.81 59.61 64.48 64.09 59.05 59.32 58.57 58.77 59.07 60.05 59.87 60.01 58.90 58.03 56.15 53.29 48.81 47.88 45.19 42.52 41.47 40.12 36.75 34.99
30.94 36.02 35.94 33.64 30.91 25.81 32.01 22.84 29.54 33.96 34.92 37.18 37.76 37.29 39.10 40.69 42.74 43.37 43.80 43.62 43.96 45.61 46.61 47.54 48.80 49.41 51.84 58.61 61.17 62.41 61.33 60.21 61.06 62.28 62.38 58.89 58.01 58.29 57.87 55.78 51.82 50.83 48.51 47.13 46.95 46.01 43.14 39.15 35.99
34.08 37.68 34.42 32.95 28.37 25.01 27.02 24.44 28.30 31.28 33.51 35.06 36.19 37.22 38.12 39.04 40.00 41.46 42.35 43.56 44.57 44.59 43.91 44.47 45.75 47.01 49.28 52.36 60.48 61.85 61.65 60.00 59.29 60.47 60.62 53.23 54.44 56.99 54.86 52.87 51.14 49.94 49.52 48.37 46.61 45.67 44.95 41.85 38.83
38.18 34.03 31.93 29.95 26.45 17.37 24.35 24.93 25.94 29.22 31.25 33.72 35.28 36.32 37.99 38.79 39.44 40.79 40.80 41.97 42.02 41.94 42.75 43.10 43.74 44.97 46.94 49.31 53.44 58.85 60.93 55.28 54.95 54.25 56.71 53.19 52.46 53.41 52.72 52.22 51.21 50.43 48.07 45.77 46.20 46.66 44.62 41.72 41.36
34.23 27.86 16.51 16.27 15.83 18.43 26.81 24.69 27.75 33.48 36.36 36.46 35.31 36.85 37.62 38.95 40.66 41.81 39.76 40.11 42.06 43.42 43.12 43.81 44.10 44.86 45.42 46.45 49.38 53.86 56.76 55.79 56.19 55.72 55.85 53.29 51.15 49.85 49.22 49.09 47.76 47.95 47.98 46.90 44.86 43.07 40.83 40.56 39.37
30.15 28.48 18.58 15.33 17.82 19.96 26.70 23.24 28.94 33.31 34.65 36.27 37.65 37.41 39.00 41.26 40.49 40.74 41.27 41.67 42.36 43.63 44.81 45.01 45.32 45.90 46.43 45.58 46.66 50.84 54.23 56.62 56.90 55.13 54.80 53.93 53.50 53.57 49.76 48.07 47.08 47.13 46.31 43.96 42.18 40.04 39.04 38.43 37.37
30.46 23.63 30.16 21.62 19.71 16.41 22.17 25.50 30.10 34.29 34.25 34.85 36.76 38.20 38.43 40.18 41.55 41.58 41.22 43.44 44.16 44.00 44.22 44.26 45.02 45.85 46.50 46.41 47.05 50.44 53.13 53.35 53.94 52.88 51.02 50.21 48.41 47.88 47.47 46.59 45.60 43.11 41.67 40.99 39.91 38.78 37.51 37.31 37.03
32.71 34.30 23.84 18.57 8.55 13.57 18.31 20.91 23.25 28.60 31.34 35.14 35.65 36.55 38.63 41.80 42.34 42.44 41.51 41.16 42.39 43.76 44.18 44.42 45.25 45.89 46.45 46.26 48.32 50.30 50.39 50.59 49.20 47.33 46.09 46.02 46.07 46.50 46.02 44.53 44.41 42.12 40.64 39.88 38.61 37.18 37.04 36.18 35.92
31.36 27.50 27.87 25.46 22.01 14.11 16.22 21.66 29.69 29.81 32.26 33.75 35.56 37.83 40.19 43.67 43.03 42.76 43.14 42.43 42.49 43.76 43.90 44.25 46.41 47.18 47.25 48.78 47.05 45.78 44.82 44.66 45.03 45.43 45.15 45.45 44.39 44.91 44.49 43.49 41.75 40.17 38.84 38.59 37.32 36.50 36.20 34.97 34.43
33.68 30.47 28.32 19.81 18.01 19.16 17.78 22.43 32.95 32.15 34.30 35.78 39.03 39.51 45.14 43.62 42.18 42.09 42.25 41.22 41.95 43.51 43.76 46.44 47.03 47.57 47.55 45.24 43.52 42.55 42.93 43.41 43.07 43.09 43.46 45.11 43.42 43.29 41.94 41.44 39.43 38.66 37.86 37.09 35.96 35.57 35.13 34.25 33.46

GFSSGP_sfc_wetblb_054.txt.gz
Wetbulb
63.93 60.77 55.24 50.76 42.08 39.53 35.38 38.47 41.03 42.26 42.81 44.55 46.55 46.78 47.53 48.59 49.75 46.65 61.00 67.56 69.31 70.49 72.52 73.44 75.27 75.37 75.40 75.47 74.75 74.60 73.78 73.08 71.93 71.36 70.67 70.00 69.67 68.87 69.38 69.84 69.84 70.45 69.61 70.31 71.25 71.23 70.67 69.53 68.18
61.85 58.99 52.00 45.90 37.85 32.45 34.53 39.50 41.52 43.46 46.10 47.14 47.15 48.33 50.23 51.52 58.36 60.73 64.01 67.79 70.39 71.51 72.11 72.62 74.92 75.11 75.14 74.67 74.28 73.82 73.22 72.68 72.35 71.36 70.63 69.30 68.40 68.53 69.27 70.41 71.30 70.71 69.78 71.12 70.68 69.90 69.09 67.81 66.16
59.70 55.65 48.15 43.07 36.72 33.37 34.57 39.77 42.27 45.02 46.71 45.28 45.61 47.71 49.41 52.34 58.33 62.48 63.30 69.48 70.88 70.88 71.40 71.93 74.68 74.96 74.95 74.56 74.05 73.36 72.92 72.30 72.05 71.26 70.38 69.03 68.07 67.91 68.83 69.71 70.68 70.62 70.16 69.46 68.92 68.26 67.72 67.11 66.12
55.63 51.86 46.80 39.58 36.87 39.36 39.50 40.44 43.18 45.13 47.04 46.98 46.82 48.15 54.58 58.47 60.00 63.59 68.39 70.40 69.73 69.31 69.75 72.04 73.95 74.75 74.73 74.26 73.89 73.29 72.97 72.66 71.76 71.01 70.11 69.23 68.48 67.25 68.13 68.88 69.44 69.24 68.86 68.52 68.00 67.39 67.05 66.60 66.28
50.93 46.89 40.03 36.77 38.80 40.78 41.32 43.88 44.00 43.56 44.37 45.03 45.78 46.61 52.47 58.60 63.14 67.42 68.92 69.87 69.33 68.93 69.62 71.20 73.75 74.28 73.76 73.35 73.04 73.07 73.05 72.75 71.80 71.18 70.23 69.60 67.84 66.90 66.93 67.92 68.06 68.06 67.85 67.48 67.02 66.69 66.40 66.27 67.05
46.76 44.37 36.11 36.67 38.73 40.98 42.26 44.43 43.01 42.59 43.24 45.43 43.93 48.32 52.98 58.68 63.61 66.98 68.90 68.42 69.73 69.85 70.43 70.80 71.99 72.83 72.90 72.45 72.15 72.01 72.04 72.41 72.23 71.73 70.24 69.27 67.10 66.52 66.37 66.38 66.50 66.51 66.47 66.34 66.15 66.04 65.82 66.33 66.61
45.10 41.52 37.72 36.78 39.97 39.31 42.00 44.70 42.73 43.06 42.67 44.57 47.30 48.42 52.34 55.30 64.28 67.59 67.61 68.45 69.85 70.16 69.87 69.78 69.95 70.69 71.24 71.26 71.17 71.13 71.18 71.32 72.02 71.79 70.65 69.53 68.02 66.86 66.24 66.07 66.05 66.18 66.41 66.51 66.49 66.44 66.39 66.72 66.96
45.80 43.18 37.89 38.46 37.98 39.23 43.47 45.18 45.57 44.19 45.73 46.87 49.40 47.60 50.15 55.81 66.18 66.57 67.43 68.27 68.98 69.28 69.48 68.50 67.93 68.37 68.22 68.49 69.98 69.97 70.14 70.51 71.23 70.52 69.36 68.49 67.45 67.33 67.29 67.56 67.72 67.17 67.20 66.96 66.73 66.81 67.02 67.15 66.51
46.17 39.01 36.07 38.67 39.92 41.67 45.56 43.20 47.19 48.29 45.22 45.88 46.91 50.70 55.15 61.46 66.19 66.00 67.24 67.55 67.64 68.88 69.18 67.62 66.93 67.09 67.06 67.06 67.55 68.94 69.24 69.71 69.19 68.24 67.28 66.58 64.94 65.20 64.96 65.35 66.77 67.89 67.46 66.92 66.90 67.03 67.14 66.30 65.02
42.68 38.01 39.32 43.72 43.63 42.87 45.53 44.91 45.57 46.25 45.82 44.35 47.99 53.74 59.03 64.36 65.30 64.66 64.85 64.54 65.73 66.33 68.28 69.06 66.54 66.58 66.41 67.81 65.59 65.22 66.73 66.93 66.61 65.97 64.88 64.33 64.03 64.50 65.44 64.28 66.14 67.76 67.84 67.93 67.26 67.44 67.01 62.02 57.25
42.88 38.59 43.41 45.82 46.76 47.82 45.25 44.91 47.05 44.18 43.60 44.72 44.67 47.79 52.62 58.22 62.81 64.44 64.91 65.58 65.87 66.76 67.56 68.14 68.21 66.59 66.35 66.39 64.49 63.66 64.34 64.72 64.81 64.48 63.62 63.01 63.24 62.82 64.16 63.37 63.48 63.22 64.30 63.68 64.42 63.29 60.55 58.47 54.79
40.61 44.47 44.94 46.94 48.08 46.82 43.91 45.75 44.08 45.56 46.53 49.06 48.73 49.36 48.99 49.92 56.71 61.39 64.37 65.22 66.18 67.16 67.89 68.01 68.25 67.74 66.36 66.05 64.74 63.39 62.99 63.07 63.06 63.24 62.85 61.53 60.67 60.32 61.20 62.76 62.58 62.15 62.22 61.23 60.60 59.49 56.56 54.72 48.44
41.72 43.03 45.92 47.51 47.19 45.44 46.02 43.83 44.12 45.13 48.28 49.05 49.80 49.18 48.65 48.03 48.90 50.35 58.94 64.36 66.61 66.48 67.17 67.70 68.14 67.40 67.11 65.29 65.29 63.79 62.76 62.91 63.39 62.63 62.41 61.56 60.31 59.62 61.04 62.60 62.12 61.69 61.12 59.96 58.78 57.62 50.76 46.83 44.07
44.51 44.99 45.16 45.84 45.46 44.95 43.76 43.15 43.47 44.39 45.60 46.58 47.22 48.27 47.86 47.88 48.61 48.28 50.15 57.26 63.61 66.95 67.04 67.76 67.83 67.65 67.34 66.16 65.32 64.69 63.92 62.93 62.34 62.51 62.85 61.82 60.86 59.93 61.15 61.40 61.43 60.89 60.62 59.45 58.41 55.21 47.63 43.50 42.44
44.08 40.74 41.67 43.24 44.11 43.51 44.31 40.80 40.54 45.39 46.73 45.89 45.49 45.72 47.29 47.94 48.15 48.61 49.37 50.77 57.76 63.39 66.99 67.31 67.71 67.87 66.96 66.51 65.88 64.94 64.78 64.10 62.65 62.40 62.20 62.33 61.22 60.15 61.10 61.27 60.28 60.26 59.59 58.65 56.45 49.23 43.89 42.39 42.01
40.65 39.49 35.33 41.29 43.72 44.26 43.73 35.24 41.95 45.07 44.05 44.01 43.98 43.47 44.58 46.77 48.10 48.36 49.06 49.26 50.04 53.16 60.63 66.40 67.87 67.80 67.27 67.21 67.00 66.60 65.41 64.70 63.46 62.80 61.97 61.67 61.67 60.53 60.02 60.66 59.88 59.24 58.32 56.56 52.88 45.92 42.70 41.21 40.54
36.68 31.07 34.08 38.53 43.30 42.50 40.95 35.95 42.05 43.90 41.48 42.01 42.77 42.59 42.63 43.68 45.41 46.67 48.29 48.36 48.89 49.71 51.28 57.67 65.20 67.17 67.16 66.70 67.10 66.41 65.99 64.80 64.42 63.48 62.54 60.66 60.87 60.71 60.52 59.93 59.30 58.04 55.85 52.43 48.76 42.80 42.20 40.13 38.94
34.00 32.49 32.28 35.05 38.09 39.20 37.54 36.23 40.31 42.47 42.24 41.77 41.82 42.26 42.70 43.34 45.40 47.09 47.15 47.73 48.99 48.36 49.01 50.55 57.76 65.09 66.90 67.19 67.29 66.84 66.21 65.26 64.89 63.75 63.55 60.89 60.27 59.79 59.99 58.66 57.40 56.30 52.28 48.28 44.18 41.87 39.21 39.62 38.86
37.21 34.47 33.05 35.69 38.66 35.54 34.99 33.93 37.64 40.94 38.91 38.74 39.56 40.56 42.37 44.57 47.26 46.40 46.68 46.99 47.14 47.19 46.85 47.92 49.86 59.21 65.25 66.20 65.78 65.54 64.55 65.07 64.96 63.72 63.90 61.98 60.26 58.85 58.87 58.21 56.17 53.97 52.07 49.35 45.28 40.35 39.30 37.35 37.73
38.38 34.88 33.00 36.05 37.55 34.74 34.06 32.79 37.66 40.94 39.66 40.43 41.70 42.16 42.02 42.43 43.99 44.52 45.05 44.90 45.68 47.54 46.55 45.94 47.98 52.34 60.70 64.87 65.44 65.30 65.50 65.29 65.11 63.88 63.63 62.95 60.19 58.54 58.48 57.57 55.15 52.48 50.33 45.72 43.59 41.08 38.20 37.20 37.48
38.20 35.14 32.50 32.43 34.42 32.92 31.74 31.23 33.18 36.74 37.62 38.64 39.56 39.36 39.74 39.95 41.18 43.27 42.57 43.49 43.58 44.28 46.22 47.09 46.75 48.62 56.89 62.90 64.00 59.24 59.62 59.38 62.86 60.79 61.71 61.69 60.03 59.10 58.75 57.24 55.46 51.96 49.91 47.28 45.35 43.27 42.66 38.29 37.61
34.42 37.97 35.85 33.39 30.64 26.53 31.36 24.27 29.96 32.76 34.45 36.17 34.82 35.51 36.51 36.71 38.34 39.80 40.78 41.48 42.28 43.36 44.08 45.83 47.30 47.67 49.79 59.04 62.08 62.00 61.94 60.87 61.49 62.54 62.33 61.16 59.96 58.96 58.69 57.06 54.81 51.89 49.79 48.04 46.48 47.28 47.60 46.02 40.71
34.68 37.44 34.26 32.54 28.22 24.92 26.88 24.72 28.59 30.15 31.84 32.20 34.90 35.68 37.34 38.23 38.78 40.34 39.37 40.78 41.95 42.12 42.23 43.42 45.10 46.71 48.42 50.16 59.23 61.48 61.27 61.71 58.59 59.72 60.02 59.97 58.39 59.32 58.63 56.69 54.20 51.65 50.23 49.23 47.72 46.33 45.22 45.88 42.66
37.34 33.32 30.99 28.82 26.63 18.11 23.87 24.19 25.64 28.53 29.54 32.27 34.71 36.51 37.95 39.20 40.76 43.05 42.97 41.96 41.31 41.71 41.78 41.54 42.17 43.84 45.17 46.66 51.63 59.34 61.04 59.18 55.94 55.85 57.62 54.27 55.30 56.61 57.04 55.71 53.39 51.21 49.99 48.39 48.24 46.61 46.21 44.18 42.80
35.24 30.93 18.82 15.52 15.36 17.32 26.00 24.27 27.26 31.64 34.25 33.75 34.07 36.81 37.92 39.55 41.06 41.27 41.93 41.94 43.11 43.11 43.69 44.65 43.90 43.61 43.84 43.79 45.81 51.36 57.11 57.31 57.14 57.77 58.71 57.13 55.00 55.77 54.92 54.68 53.35 50.80 49.58 48.75 47.95 46.55 46.20 44.37 41.11
29.68 28.36 19.41 14.72 17.12 19.18 26.18 22.77 27.88 32.98 34.17 35.55 36.01 36.64 37.99 40.22 41.31 41.87 41.74 41.15 41.79 42.28 42.98 43.34 43.65 43.99 44.50 44.51 44.48 45.82 49.63 54.45 56.79 56.10 57.23 56.73 55.25 55.43 54.98 54.33 51.92 49.74 48.32 47.51 46.94 46.05 42.71 40.51 38.66
29.54 22.31 28.80 19.78 17.01 15.34 21.59 25.10 29.62 33.72 32.79 34.91 36.19 37.08 37.33 39.47 41.96 41.98 41.91 41.54 41.29 41.82 42.53 42.89 43.48 44.11 44.88 45.23 44.95 44.95 46.87 50.02 53.31 53.29 53.85 54.45 51.76 51.25 50.84 49.68 49.38 49.25 48.05 46.70 44.58 40.71 38.51 38.42 37.46
32.73 33.24 23.86 16.75 8.85 13.85 18.79 20.47 23.16 27.69 30.55 33.59 34.81 36.13 36.89 39.06 41.69 42.61 42.07 42.22 41.73 41.86 42.55 43.66 43.82 44.87 46.33 46.72 45.83 46.51 47.28 49.24 50.60 49.14 48.22 47.07 45.99 47.12 47.28 47.65 46.86 46.20 44.59 42.52 41.28 38.80 37.93 37.01 36.39
30.57 26.43 27.07 25.28 21.93 15.53 16.62 21.55 28.68 29.18 32.42 33.05 35.08 37.14 38.26 41.50 42.17 41.62 41.84 42.69 42.16 42.38 42.95 43.23 45.26 45.23 46.60 47.08 46.03 45.03 44.50 44.77 44.83 44.68 43.87 44.08 44.50 45.31 44.88 45.06 44.55 43.39 42.23 41.27 38.92 37.33 36.77 35.85 35.26
32.76 29.87 27.45 18.69 17.24 18.73 18.70 21.42 32.74 32.56 32.62 34.07 35.72 38.31 40.73 42.75 42.41 42.65 43.91 42.85 42.91 42.42 42.11 42.92 40.01 40.50 41.56 43.20 42.67 42.44 45.09 45.20 43.92 43.53 43.11 43.91 44.87 45.02 44.49 43.36 41.89 40.35 39.23 38.49 36.80 36.14 35.47 34.58 33.72

GFSSGP_sfc_wetblb_057.txt.gz
Wetbulb
65.10 60.73 58.29 55.55 48.03 45.46 41.17 43.06 46.03 46.68 47.94 50.51 51.32 51.14 51.97 53.67 54.83 53.05 66.30 69.59 69.66 71.27 73.66 73.47 75.32 75.50 75.82 75.97 75.58 74.81 74.32 72.97 72.30 71.76 71.41 71.32 70.30 69.58 70.08 70.53 70.15 70.14 70.14 71.01 71.46 71.02 70.38 69.09 67.00
62.99 59.56 56.14 51.00 43.94 39.10 40.72 44.69 44.83 47.97 50.46 50.27 49.73 53.62 53.89 55.15 61.36 63.48 66.37 69.61 70.59 72.48 73.09 73.47 75.19 75.66 75.93 75.57 74.80 74.30 73.75 72.78 72.36 71.65 70.46 69.75 69.18 69.02 70.29 71.12 70.88 70.15 71.20 71.64 71.31 70.19 68.94 67.11 66.47
60.59 56.93 53.29 48.49 41.78 39.20 40.50 44.03 46.57 48.93 50.08 49.60 50.88 53.20 53.55 56.28 61.80 65.00 67.53 70.39 71.66 72.43 73.10 74.01 75.15 75.53 75.34 75.14 74.68 74.24 73.62 73.03 72.52 71.95 70.68 68.88 68.49 68.91 70.56 71.74 71.33 71.22 70.85 70.15 69.44 68.77 67.86 66.69 67.37
57.65 55.35 50.69 44.43 41.06 43.09 44.09 46.19 47.30 48.20 50.27 50.79 50.66 50.79 57.89 61.65 62.53 66.38 69.38 71.36 71.63 72.13 72.92 74.01 74.67 75.24 75.07 74.81 74.47 73.97 73.26 72.45 72.00 71.35 69.77 68.98 68.00 68.44 69.92 70.04 70.88 70.79 69.40 68.97 68.55 68.09 67.54 66.69 67.53
53.75 51.28 44.28 41.86 42.28 44.38 46.06 46.95 48.28 47.98 48.68 49.67 49.67 50.23 55.36 61.91 66.65 68.79 70.27 71.20 70.85 71.44 72.07 72.82 74.31 74.76 74.84 74.58 74.20 73.88 73.46 73.05 71.91 71.35 70.21 69.34 68.15 67.69 69.04 68.91 69.35 69.20 68.72 68.18 67.72 67.41 66.98 67.19 67.54
49.77 48.64 41.15 39.79 41.42 44.71 46.96 48.78 48.25 48.00 48.48 49.71 49.40 51.41 56.51 64.12 66.63 67.93 69.78 70.24 71.40 70.98 71.48 72.13 72.57 73.80 73.86 73.95 73.92 73.77 73.70 73.42 72.26 71.45 70.49 69.50 67.71 67.10 67.76 68.23 68.32 68.18 67.80 67.19 66.66 66.53 66.48 67.08 67.12
48.15 45.15 41.57 40.70 42.38 43.09 45.69 48.65 47.65 48.21 48.52 49.55 51.75 51.73 56.75 61.20 67.02 67.88 68.74 70.76 70.66 71.16 71.20 71.61 72.08 72.24 72.06 72.38 72.35 72.47 72.63 72.67 72.28 72.10 71.04 69.55 68.20 67.16 66.78 66.66 66.75 66.66 66.53 66.50 66.51 66.50 66.67 67.02 67.11
49.17 46.68 40.89 41.37 41.02 42.20 46.80 47.70 49.47 48.70 48.73 51.79 53.18 50.96 52.87 60.58 66.96 67.65 69.03 69.04 68.88 70.53 71.03 71.05 71.18 71.32 71.39 71.19 70.62 70.63 70.77 70.83 71.39 71.14 69.77 67.83 67.07 67.25 67.13 67.32 67.36 66.99 67.19 67.19 66.94 67.04 67.39 67.33 66.56
48.95 43.30 38.80 41.34 41.33 43.94 47.71 46.14 50.46 51.30 49.95 50.20 51.54 54.26 58.06 63.34 66.72 66.10 66.55 66.88 67.23 68.49 70.23 70.62 70.23 70.44 70.25 70.05 69.43 69.59 69.48 69.40 70.24 69.22 67.48 66.66 66.76 66.57 66.41 65.94 67.26 68.21 67.64 66.98 67.13 67.34 67.67 65.94 64.50
46.14 41.74 41.35 45.12 45.77 44.83 47.57 48.41 49.29 49.69 48.80 49.58 53.24 53.97 62.70 64.57 65.02 64.36 64.31 64.82 65.72 66.55 68.57 69.49 69.92 69.47 69.36 68.95 69.17 68.94 68.78 68.84 70.40 68.84 68.54 68.10 67.29 66.83 66.05 64.90 66.29 68.06 67.98 67.82 67.51 67.69 66.11 63.26 61.49
44.77 41.44 44.95 46.62 47.28 49.30 47.83 48.22 50.25 48.49 47.32 49.40 49.39 51.73 59.51 63.10 64.15 63.89 64.35 65.27 65.53 66.93 68.32 68.96 69.48 69.35 68.78 68.60 68.52 67.78 68.23 69.21 69.22 68.35 67.89 67.79 67.17 67.24 67.11 66.43 66.24 67.16 65.68 67.23 67.38 67.17 65.18 63.06 60.41
42.71 45.21 45.98 47.78 49.45 48.48 47.20 49.03 47.84 48.89 49.57 51.56 52.26 52.46 52.59 61.33 61.46 63.47 63.84 64.74 65.94 66.57 67.41 68.49 68.56 69.08 68.71 68.64 67.89 67.28 66.82 67.96 68.31 68.21 67.31 66.89 66.51 66.52 67.07 66.91 66.50 66.53 66.73 66.59 66.50 65.73 63.91 62.69 57.55
43.49 44.86 46.88 48.67 48.02 48.00 48.23 46.72 47.34 47.65 50.48 51.61 51.70 51.73 52.12 52.25 53.44 59.37 64.66 65.94 66.28 66.04 67.52 68.36 68.59 68.41 68.37 68.16 67.85 66.98 66.11 66.98 67.98 67.84 67.24 66.60 65.92 65.61 66.13 66.81 67.04 66.42 66.00 65.66 65.02 63.85 60.74 57.98 53.64
45.72 46.12 46.16 47.15 46.99 47.28 45.57 45.59 46.08 47.66 49.23 49.14 49.51 50.80 51.05 51.72 52.84 52.98 54.19 61.62 66.32 67.27 67.54 68.27 68.34 68.56 68.16 67.04 67.77 67.13 66.44 66.08 67.04 67.43 66.97 66.07 65.88 65.46 65.07 65.22 65.55 66.33 65.90 65.21 64.28 62.78 58.00 54.42 51.56
45.36 42.48 44.08 45.10 45.50 45.49 46.26 42.81 42.28 48.23 48.88 48.48 49.21 49.05 49.71 50.64 51.95 52.29 53.89 53.90 60.40 66.44 68.41 68.66 68.25 68.65 67.94 67.22 67.35 67.52 67.14 66.10 65.26 66.35 66.85 66.05 65.48 64.92 64.75 64.77 64.39 65.55 65.93 64.58 63.00 59.35 53.71 50.99 49.34
42.46 42.46 37.36 43.24 44.55 45.33 45.49 37.66 44.74 46.90 46.24 46.72 47.03 47.14 47.74 49.61 50.64 51.55 52.48 53.04 54.06 56.71 64.31 68.35 68.90 68.40 68.08 67.52 66.96 67.33 67.16 66.79 65.83 65.11 65.47 65.86 65.49 64.98 64.43 64.21 64.46 65.37 65.12 63.99 61.79 57.17 52.32 50.66 49.47
39.50 34.09 36.05 39.35 44.39 43.63 43.49 38.60 44.24 46.21 45.72 45.24 45.87 45.96 46.00 47.30 48.85 49.99 50.94 51.78 52.95 53.31 54.29 61.69 67.93 68.35 67.94 67.68 67.52 66.87 66.82 66.66 66.80 65.70 64.90 64.54 64.90 64.66 64.35 63.94 64.29 64.69 64.24 62.89 60.45 54.83 52.89 49.64 48.14
34.67 34.27 36.05 36.54 40.30 41.44 39.74 39.09 42.85 44.00 43.25 43.84 44.71 45.82 46.32 46.40 48.30 51.02 51.20 51.72 52.27 52.63 52.84 54.01 60.53 67.60 68.70 67.99 67.11 67.31 66.64 65.96 66.54 66.35 65.69 64.47 64.07 63.91 63.90 63.42 63.56 63.53 63.04 61.59 57.81 55.06 49.56 49.89 48.59
38.00 36.14 35.50 38.01 39.96 38.81 37.51 37.00 39.53 42.22 42.00 42.01 43.31 44.50 45.59 45.76 47.93 49.66 50.17 50.65 50.83 51.58 51.20 51.78 52.96 58.93 66.77 66.61 65.85 65.26 64.90 65.59 65.05 65.73 66.11 65.09 63.84 62.85 63.08 63.29 62.77 62.20 61.64 60.66 57.66 52.85 48.80 46.06 46.17
38.10 35.81 35.28 37.99 38.82 37.97 35.62 35.08 39.45 41.78 41.50 42.32 42.77 43.12 43.51 43.50 43.65 44.59 46.63 48.04 48.53 49.70 50.45 50.59 50.86 53.04 59.21 65.93 66.60 66.68 65.97 66.58 65.93 65.37 65.14 65.78 63.89 62.97 62.67 62.51 61.67 60.95 60.30 58.80 54.59 51.08 47.03 46.12 45.55
38.11 35.68 34.35 35.22 36.42 35.70 33.69 33.99 35.62 38.61 39.25 38.95 38.48 39.99 40.82 41.20 41.92 43.42 42.89 44.86 46.40 46.70 48.37 49.66 50.60 51.31 54.01 62.13 66.20 64.79 64.89 63.99 65.24 64.59 64.28 64.25 64.09 62.81 62.45 62.10 61.48 59.96 59.63 56.99 53.82 51.09 49.95 46.27 44.05
36.37 39.50 36.70 34.84 33.62 30.07 33.83 28.50 33.84 34.95 35.95 37.11 38.31 39.83 41.24 42.26 43.44 44.35 44.32 44.67 44.85 45.91 46.74 47.70 48.90 50.41 51.42 56.60 62.98 63.76 62.93 62.44 63.45 64.37 64.83 64.09 64.00 62.68 61.71 61.48 60.77 59.54 58.55 56.96 53.62 50.44 51.24 49.30 45.42
36.83 38.33 35.21 33.48 30.21 29.64 29.94 28.61 32.16 34.05 33.41 35.45 38.15 39.63 41.13 42.85 43.44 44.57 45.02 44.88 45.67 46.55 46.43 45.93 46.58 47.94 50.22 51.94 59.95 63.04 62.93 63.59 64.35 64.27 64.26 64.04 62.72 62.75 61.57 61.64 60.49 58.95 57.08 56.85 54.04 51.26 51.08 51.02 48.77
38.23 34.01 32.14 30.04 28.68 24.08 26.92 27.38 29.03 31.95 34.10 35.91 38.32 39.78 40.79 42.27 44.15 45.29 46.01 45.95 46.46 47.03 47.89 48.61 47.75 46.94 47.40 49.05 51.61 60.03 62.45 62.81 62.12 61.72 62.17 62.57 61.72 61.40 61.34 60.75 60.35 59.09 56.93 54.90 53.38 52.71 51.24 50.35 49.73
36.58 33.78 23.88 21.39 21.52 22.47 27.98 26.02 30.04 34.24 36.17 37.17 38.63 39.26 40.36 41.94 44.33 45.24 45.10 45.00 46.19 46.58 46.67 47.48 47.38 47.63 48.24 48.22 47.82 50.15 55.36 60.54 60.87 61.49 61.39 61.47 58.63 58.38 59.62 60.03 58.75 57.71 56.26 55.03 53.83 52.09 51.01 49.68 47.58
31.84 33.68 23.99 18.52 19.90 22.19 27.41 24.70 30.67 35.75 37.49 38.59 39.19 39.34 39.62 41.59 44.13 44.92 44.87 44.96 45.67 45.98 46.25 46.47 46.83 47.47 48.33 49.03 48.98 48.64 49.52 52.67 57.60 60.16 60.74 61.10 60.52 59.76 60.00 58.63 58.78 57.17 55.24 52.82 51.31 50.42 50.09 49.53 46.40
31.84 27.24 30.17 21.71 20.74 20.22 24.21 27.38 32.09 35.78 35.11 37.48 37.78 39.87 40.57 41.20 43.53 44.75 44.95 45.30 46.06 45.84 46.00 45.98 46.71 47.66 49.33 49.61 50.12 49.95 49.69 49.94 51.93 55.28 58.27 59.91 59.64 57.64 57.78 57.10 55.29 54.18 52.94 51.82 50.84 50.22 48.13 46.92 42.57
34.04 33.46 25.85 21.87 15.02 17.30 21.35 22.54 26.33 31.57 34.44 36.60 37.65 38.15 40.24 42.54 44.67 45.01 45.14 45.69 46.19 46.20 46.21 46.49 47.07 47.20 47.25 48.37 49.15 49.35 49.67 50.58 51.44 52.79 54.13 55.07 53.97 53.81 53.26 52.80 51.08 50.62 50.00 49.20 48.42 45.23 43.40 39.68 38.26
31.59 28.82 27.79 26.56 23.62 19.39 19.01 24.68 30.85 32.23 34.81 36.17 37.24 38.89 40.42 43.81 44.10 44.15 44.70 45.82 44.97 44.63 44.31 44.39 43.38 43.61 44.20 45.70 46.49 46.78 46.99 47.79 49.03 49.88 50.09 50.58 49.94 49.96 49.72 49.08 48.07 46.40 44.63 43.44 41.29 39.79 39.20 38.55 36.96
33.80 30.86 28.38 23.23 21.16 20.73 21.11 24.92 34.74 34.21 35.90 36.55 37.81 38.98 43.38 43.70 42.51 41.24 41.68 42.15 40.26 39.70 40.51 40.82 41.38 42.34 43.01 44.09 44.80 45.67 46.30 47.11 47.63 47.35 46.74 47.37 47.85 48.07 47.45 46.47 44.62 42.50 41.11 40.00 38.43 38.00 37.35 36.59 34.95

GFSSGP_sfc_wetblb_060.txt.gz
Wetbulb
67.54 65.25 65.20 61.51 51.48 50.27 46.29 46.96 51.04 50.92 51.52 54.36 54.77 54.44 54.53 56.59 56.65 55.38 68.80 71.45 71.60 73.22 74.49 74.64 75.64 75.77 76.25 76.12 75.78 75.12 74.35 73.51 72.91 72.62 72.32 71.62 70.97 70.64 70.59 69.89 70.56 70.16 70.32 71.44 71.32 70.82 69.61 68.01 67.68
66.64 62.20 62.29 58.18 47.99 44.26 45.64 50.19 48.65 51.66 53.59 55.25 54.66 54.89 56.56 56.77 63.91 66.37 68.61 71.29 72.57 73.95 74.26 73.85 75.28 75.74 76.13 75.69 75.29 74.65 73.67 73.21 72.42 71.63 71.05 70.36 69.45 69.75 70.02 70.52 70.27 70.21 70.98 71.59 70.97 69.83 67.95 67.15 67.51
64.03 62.22 56.77 52.42 48.52 44.69 45.60 49.74 50.90 52.29 54.06 54.01 54.12 56.74 56.82 58.75 64.77 67.67 70.59 71.71 73.26 73.70 73.95 74.20 75.39 75.91 75.98 75.32 74.88 74.47 73.90 72.99 72.24 71.17 70.20 69.29 69.16 70.69 71.69 71.22 71.31 71.56 71.08 70.52 69.65 68.28 67.07 67.48 67.89
60.43 59.12 57.41 49.12 46.25 49.22 49.59 50.77 51.74 52.43 53.44 54.63 54.28 53.97 60.67 65.37 65.45 69.16 71.96 71.85 72.75 73.37 74.17 74.16 75.25 75.66 75.43 75.07 74.60 74.13 73.35 72.68 72.51 71.85 69.87 68.68 68.87 70.43 71.23 71.17 70.74 70.13 69.77 69.32 68.95 68.15 67.11 67.63 68.11
60.33 57.51 49.99 47.48 47.76 50.43 51.94 51.90 52.77 51.51 52.34 52.90 53.80 53.63 56.82 65.83 69.07 70.73 72.02 72.27 72.43 72.95 73.82 74.18 75.10 75.45 75.20 74.92 74.57 74.13 73.55 72.89 72.68 71.50 69.83 68.97 68.07 69.15 69.78 69.91 70.03 69.52 69.05 68.53 68.19 67.65 67.10 67.36 68.07
54.03 55.53 47.28 44.99 47.57 50.96 52.54 53.40 52.71 52.11 52.71 52.73 52.87 53.87 58.14 67.39 68.93 70.57 72.31 72.32 72.98 72.57 72.90 73.42 73.14 74.48 74.63 74.56 74.31 73.98 73.83 73.39 72.61 71.73 70.42 69.47 67.86 68.08 69.14 68.82 69.07 68.82 68.16 67.65 67.53 67.12 67.26 67.40 67.61
52.49 50.49 47.11 47.52 47.63 48.71 50.98 54.53 52.38 52.25 52.35 52.02 54.88 52.99 59.68 65.46 69.52 69.46 71.12 72.74 73.05 72.97 72.08 72.73 72.48 72.49 72.87 73.40 73.52 73.75 73.73 73.04 72.39 71.69 71.17 69.72 68.68 67.98 67.97 68.37 68.22 67.99 67.39 66.75 66.44 66.40 66.90 67.12 67.29
53.98 52.00 47.29 48.14 46.49 47.23 52.69 52.32 53.26 52.36 51.58 55.56 55.83 53.31 56.11 63.49 69.08 69.07 69.98 72.09 72.39 72.34 71.58 72.04 72.74 72.65 72.37 72.98 71.53 71.69 71.92 72.04 71.91 71.12 69.84 67.80 67.11 67.57 67.47 67.71 67.48 66.82 66.78 66.82 66.86 66.85 67.25 67.33 66.75
54.88 47.16 44.46 46.04 46.58 48.33 51.98 50.66 53.03 54.43 52.95 53.83 55.19 56.73 61.59 64.66 67.86 67.78 67.46 67.89 69.26 70.66 71.17 71.78 71.58 71.96 72.26 72.01 71.37 70.27 70.02 70.10 70.43 69.76 67.16 66.42 66.86 66.58 66.13 66.47 67.46 68.32 67.64 67.29 67.24 67.54 67.64 65.85 65.04
49.37 45.54 45.25 49.44 49.95 48.77 50.71 51.00 52.52 52.07 52.33 52.93 55.10 58.57 64.92 65.92 66.04 65.48 65.13 65.43 66.52 67.95 70.19 71.20 71.32 71.00 70.77 69.88 70.27 69.70 69.18 69.04 68.60 70.88 68.36 69.36 67.59 66.83 65.94 65.48 67.07 68.03 67.99 67.87 67.62 68.07 66.01 64.19 65.22
49.17 44.92 48.44 48.66 49.61 50.63 50.83 51.53 53.81 51.99 50.71 52.95 53.14 56.44 63.14 64.26 65.21 65.22 65.79 66.12 66.78 68.07 69.58 69.89 71.25 71.08 70.29 69.09 68.95 69.28 69.20 68.42 68.95 70.75 70.05 69.88 68.10 67.13 66.59 66.15 66.58 67.29 66.00 66.86 67.46 67.51 66.52 65.52 64.04
45.76 48.39 48.98 49.98 51.41 50.55 50.01 52.68 51.25 52.39 52.19 55.17 56.55 56.30 58.14 63.83 63.72 64.39 65.49 66.35 67.61 67.57 68.21 68.91 69.72 71.03 70.73 70.04 69.27 69.32 68.62 68.55 67.98 69.26 69.41 69.01 68.10 67.09 67.23 67.28 66.70 66.51 66.59 66.66 66.97 66.99 66.36 65.31 63.22
46.53 47.83 49.48 50.67 50.86 50.66 51.22 50.41 50.79 51.53 54.59 55.53 55.86 55.56 56.16 56.70 63.42 66.33 66.81 67.11 67.10 67.31 67.91 68.79 69.72 69.52 70.34 70.47 70.12 69.73 69.12 68.22 68.30 68.53 68.91 68.65 68.11 67.16 67.07 67.92 67.35 67.14 66.40 66.43 66.27 66.22 65.58 64.77 62.40
49.01 48.31 48.71 50.05 49.98 49.67 48.38 49.29 50.07 51.50 54.07 53.96 54.29 54.70 55.74 56.18 57.28 58.79 63.33 66.88 68.47 69.13 68.95 69.05 68.87 69.59 69.37 68.91 70.36 70.10 69.92 69.09 68.44 68.54 68.79 68.78 68.41 67.72 66.75 67.22 67.80 67.04 67.47 66.43 66.06 65.50 64.64 63.49 61.38
48.50 45.08 47.27 47.96 48.80 47.99 49.60 45.72 46.28 51.95 53.23 51.79 52.60 53.66 54.52 55.56 56.83 57.08 58.94 59.26 61.82 65.89 69.11 70.22 70.26 69.63 69.63 69.37 69.07 70.01 70.50 69.59 68.70 68.64 68.99 68.83 68.66 68.18 67.04 66.50 67.08 67.60 67.37 67.11 65.83 65.17 64.22 61.57 58.87
44.95 45.03 40.37 45.98 47.77 48.46 47.90 41.10 47.04 50.73 51.23 50.65 51.66 52.51 53.22 53.99 54.99 56.47 57.78 58.06 58.89 59.31 61.90 66.61 69.80 70.57 70.37 69.32 69.38 68.82 69.35 70.12 69.44 68.89 68.84 68.74 68.39 68.26 67.43 66.15 66.29 67.23 67.51 66.63 65.88 64.23 61.93 60.42 57.76
43.40 37.75 39.35 41.72 47.74 46.66 46.08 42.02 47.49 49.97 49.58 49.72 50.67 51.57 52.05 52.97 54.29 55.48 56.58 57.26 57.78 58.60 58.97 59.79 64.95 68.57 70.03 69.97 68.74 68.95 68.22 69.23 70.19 69.55 68.75 68.40 68.27 67.90 67.20 66.33 66.27 66.71 66.88 66.06 65.60 64.16 62.07 59.62 57.35
37.40 37.89 40.10 39.42 44.15 45.59 43.75 43.31 46.96 49.53 48.69 49.05 50.29 50.81 51.25 51.62 52.94 55.24 56.15 56.91 57.51 57.88 58.32 58.66 59.34 63.16 67.47 69.77 68.50 68.38 67.81 67.74 69.03 69.82 69.29 68.78 67.97 67.69 67.22 66.53 66.19 66.11 65.90 65.39 65.08 63.60 61.24 60.46 58.76
42.03 39.99 38.15 41.39 42.84 42.72 43.11 43.57 45.72 48.42 48.55 48.46 49.64 50.38 50.90 51.41 52.68 52.52 52.97 53.97 54.94 56.11 57.15 57.81 57.95 59.02 62.42 66.53 66.66 66.47 66.00 66.59 66.60 67.04 68.71 69.16 68.35 67.71 66.96 66.37 66.01 65.74 64.88 65.15 65.04 63.73 59.80 56.97 58.03
41.63 39.02 38.73 40.53 42.28 42.74 41.64 41.26 45.16 47.00 47.34 47.28 47.27 48.46 48.97 48.51 48.84 49.18 49.64 50.79 51.99 53.01 54.68 56.11 57.03 57.91 58.91 62.18 66.67 67.47 67.64 67.09 67.27 67.16 67.26 67.27 68.29 67.77 67.10 66.44 65.97 65.56 64.55 64.27 64.40 63.09 58.75 58.25 55.23
40.85 38.92 38.83 38.53 39.92 40.42 39.34 39.91 40.98 41.58 42.43 43.31 44.52 46.49 47.79 48.00 48.55 49.92 50.35 50.84 51.60 51.47 52.30 53.22 54.73 56.05 57.29 58.62 62.15 65.80 67.13 67.50 66.89 67.35 67.32 66.93 66.37 67.39 67.36 66.52 66.62 65.91 65.41 64.08 64.17 62.67 58.75 55.79 53.40
37.40 42.10 41.16 38.93 38.52 35.55 38.79 35.35 38.12 39.78 40.64 43.67 45.80 47.47 48.54 49.11 50.23 50.65 50.94 51.52 51.89 52.67 52.72 51.84 52.63 53.44 54.79 56.27 57.79 61.57 63.13 62.64 64.64 65.79 66.81 66.99 66.46 65.52 65.65 65.71 66.51 66.27 65.03 63.55 63.31 61.94 60.20 59.01 52.82
38.83 42.78 40.05 38.18 37.49 36.00 35.07 35.15 36.36 39.88 38.65 41.04 44.37 46.25 48.16 49.93 50.32 50.59 51.01 51.28 52.42 53.08 53.61 54.10 53.06 52.00 53.48 54.80 56.41 59.15 61.79 62.84 64.04 65.24 65.58 66.06 66.59 65.56 64.18 64.49 64.51 64.13 64.44 63.55 62.33 60.23 58.95 59.42 57.25
40.34 38.92 37.84 37.48 35.81 31.21 34.16 33.43 33.99 36.36 39.26 41.03 43.26 45.67 47.06 49.32 50.95 51.99 52.14 52.45 53.10 54.33 53.95 54.06 53.79 53.24 53.20 52.35 54.49 56.19 58.88 61.43 62.36 63.53 64.36 65.08 65.68 64.07 63.35 63.51 63.32 63.82 62.83 62.17 62.27 60.62 58.69 58.09 58.74
37.96 37.25 31.19 29.81 30.00 30.00 31.94 31.04 36.33 39.00 40.44 42.89 43.38 45.26 46.90 49.26 50.58 51.07 50.92 51.20 52.34 52.84 53.34 52.94 53.07 53.15 53.98 54.07 53.22 53.05 54.65 57.70 61.17 62.54 62.96 63.26 63.87 62.99 62.13 62.63 62.17 62.16 62.06 61.45 61.06 59.71 58.02 57.44 56.01
36.48 37.94 33.31 24.64 26.67 29.46 31.04 29.63 35.70 40.66 42.02 44.00 43.09 44.72 46.82 48.76 50.26 50.60 50.69 51.29 52.09 52.23 52.77 52.92 52.58 52.59 53.94 54.26 54.63 54.92 54.11 54.22 55.29 57.55 60.14 61.32 61.98 63.28 63.42 61.76 61.55 60.95 60.70 59.84 58.76 58.01 57.17 56.87 55.54
35.39 34.42 35.43 30.12 28.23 29.27 32.62 33.95 37.31 39.00 39.46 42.18 42.98 44.83 45.99 47.92 49.44 49.59 50.33 50.79 51.18 51.37 51.34 51.49 51.51 52.40 52.36 53.00 54.11 54.74 55.52 55.39 55.14 55.66 56.75 58.56 60.43 61.71 62.57 61.62 59.95 59.69 58.03 56.85 55.55 54.69 54.10 53.54 52.65
38.18 38.40 31.46 32.71 25.37 25.11 28.82 29.96 33.92 36.26 38.68 41.49 42.53 43.86 45.78 48.12 48.36 48.09 48.34 49.07 49.20 48.67 49.26 50.26 50.20 49.95 50.83 51.68 52.66 52.72 53.26 53.57 54.35 55.50 56.00 56.61 57.77 58.74 58.29 58.34 57.82 55.78 54.62 53.36 52.18 52.07 51.34 50.22 45.83
34.77 34.51 32.72 33.35 30.59 27.87 27.96 31.38 40.32 40.28 41.45 40.68 42.30 43.96 46.27 46.99 46.41 46.65 47.42 47.12 46.56 47.13 47.35 47.58 47.91 48.50 49.06 50.03 51.04 51.55 51.37 51.16 51.24 51.15 51.86 52.80 53.27 53.74 54.26 54.42 53.01 51.96 50.89 50.54 48.23 45.64 44.27 41.42 40.04
37.58 35.46 34.45 31.23 26.95 28.72 29.02 32.18 40.03 42.50 42.85 41.34 42.83 43.99 46.41 45.44 44.47 45.60 45.02 44.76 45.18 45.42 45.71 45.75 45.93 46.23 46.94 48.56 50.02 50.48 51.13 51.35 51.32 50.91 50.81 50.85 50.79 50.79 51.13 50.57 49.15 47.77 46.04 43.83 41.53 40.13 38.69 36.98 35.98

GFSSGP_sfc_wetblb_063.txt.gz
Wetbulb
66.94 67.39 64.99 61.34 51.63 50.61 47.60 49.34 52.24 51.33 51.77 55.54 56.29 55.13 54.49 56.92 56.21 55.86 69.77 71.53 72.41 73.27 74.60 74.50 75.79 76.17 76.36 76.03 75.86 75.24 74.73 74.01 73.56 73.24 72.64 71.89 71.24 70.77 70.21 70.14 69.64 70.17 71.29 71.27 71.12 70.36 68.84 68.33 67.75
66.90 64.93 62.28 57.99 48.44 45.51 46.67 51.82 49.90 51.98 54.66 56.16 56.21 55.94 55.03 55.63 64.43 67.43 68.97 71.53 72.80 73.46 74.34 74.08 75.65 76.23 76.41 76.07 75.08 74.61 73.87 73.48 72.98 72.36 71.50 70.28 69.39 69.59 70.42 70.10 70.27 70.57 71.44 71.38 70.67 69.01 67.90 67.79 67.67
65.92 64.17 57.10 52.63 49.11 45.03 47.08 51.22 51.78 53.71 55.15 55.28 55.41 58.50 57.93 59.75 65.88 68.34 71.88 71.82 73.30 73.63 74.00 74.43 75.54 76.11 76.11 75.54 75.00 74.26 73.65 73.01 72.18 71.32 70.37 69.44 69.33 71.25 71.26 70.82 71.83 71.73 71.45 70.62 69.09 67.68 67.77 67.95 68.16
62.56 59.57 57.93 50.16 47.31 50.42 50.94 51.66 52.62 53.04 54.64 55.94 55.73 55.27 60.75 66.52 66.64 70.27 72.14 72.44 72.98 73.30 73.63 73.68 75.45 75.98 75.52 75.10 74.73 74.06 73.35 72.75 71.70 70.68 69.52 69.11 69.86 71.72 71.82 71.53 70.85 70.36 69.97 69.44 68.51 67.63 67.77 68.03 68.24
61.09 57.77 50.15 48.11 48.69 51.68 53.31 53.78 53.32 52.50 53.49 54.46 54.89 54.99 59.15 67.55 70.28 71.71 71.26 72.17 72.28 72.72 74.48 73.86 75.48 75.76 75.24 74.73 74.47 74.10 73.54 72.60 71.70 70.45 69.63 68.69 69.31 70.80 70.99 70.49 70.09 69.75 69.26 68.86 68.34 67.40 67.22 67.89 68.05
53.84 56.25 47.64 45.98 48.62 52.09 53.82 54.74 53.67 53.30 54.01 54.08 54.11 54.85 61.09 69.19 70.05 71.55 71.96 72.32 72.88 72.52 73.89 73.21 73.93 74.36 74.61 74.49 74.41 74.06 73.57 73.09 72.29 71.28 69.98 68.86 68.15 70.05 69.76 69.99 69.59 69.13 68.50 68.12 67.86 67.49 67.18 67.93 67.69
52.59 51.47 48.17 48.83 48.76 50.58 52.69 55.61 52.84 53.20 53.73 53.47 55.55 53.87 61.68 67.73 70.40 71.54 72.22 72.60 72.64 72.62 72.42 72.80 72.78 73.40 73.30 73.69 73.77 73.79 73.70 72.78 71.85 71.61 70.76 69.49 68.51 68.58 69.15 68.84 68.76 68.45 67.75 66.99 66.88 66.86 67.02 67.27 67.42
54.58 52.67 48.15 49.19 47.91 48.75 54.15 54.52 55.12 53.88 53.08 56.79 56.17 53.43 57.20 65.97 70.09 70.38 71.83 72.18 72.33 72.24 71.60 72.01 72.14 72.31 72.21 72.75 72.29 72.60 72.77 72.04 71.54 70.87 69.67 67.87 67.19 67.92 68.29 68.22 68.22 67.44 66.82 66.60 66.42 66.49 67.06 67.17 66.72
55.74 48.21 45.86 47.61 48.30 49.94 54.56 52.83 55.15 55.80 53.87 54.47 55.63 57.57 62.87 67.88 69.40 68.94 69.43 70.57 71.11 71.18 71.08 71.56 71.65 72.28 71.84 72.14 71.37 71.02 70.99 71.10 70.71 69.43 66.79 66.03 66.11 65.68 65.86 66.20 67.09 67.85 67.28 67.11 67.06 67.23 67.67 66.64 65.66
50.15 47.02 47.13 51.53 51.76 50.45 53.07 52.65 53.64 52.32 52.40 52.58 54.28 59.50 64.66 66.77 67.30 66.25 65.84 65.84 68.13 69.64 70.22 71.12 71.17 70.95 71.27 70.65 71.81 71.36 70.98 70.64 70.56 70.14 68.54 68.17 67.13 65.62 64.75 65.49 67.28 68.25 68.15 68.01 67.59 68.08 67.24 65.41 64.96
49.35 44.97 49.44 50.32 51.01 50.95 51.45 51.70 53.52 52.08 50.29 52.76 53.13 56.43 63.28 64.77 65.87 66.10 66.61 67.28 66.92 69.62 70.46 70.63 71.00 70.94 70.27 69.51 69.31 68.81 68.66 68.30 67.72 68.33 69.01 69.11 67.97 66.28 65.68 66.25 66.25 66.75 65.96 66.11 67.05 67.19 65.91 64.80 64.51
46.38 48.72 49.55 51.15 50.87 50.27 49.52 52.78 52.05 53.05 53.21 55.87 57.44 58.09 60.83 63.74 64.56 65.77 66.77 67.76 68.69 68.99 69.50 70.51 71.09 71.09 70.54 69.71 68.23 68.61 68.57 68.40 67.38 69.39 69.92 68.81 68.05 66.44 65.12 65.07 65.07 65.73 65.94 65.93 65.92 66.16 65.95 65.45 64.27
46.98 49.08 50.17 51.52 51.41 51.08 51.18 50.40 51.54 52.11 55.31 56.83 57.14 56.82 57.23 58.74 63.99 66.40 67.32 68.33 68.80 68.72 69.52 69.13 69.88 70.54 70.99 70.26 69.76 69.56 69.38 68.44 68.28 68.28 69.05 68.77 68.01 67.05 66.26 66.82 66.45 65.98 65.91 66.05 65.80 66.10 65.83 64.95 63.45
49.36 49.74 49.54 50.64 50.85 50.85 49.30 50.06 51.74 52.80 55.44 55.00 55.01 55.24 56.42 57.25 58.76 62.03 66.70 67.16 67.73 68.69 69.43 70.08 69.06 69.88 70.19 70.78 70.71 70.47 70.48 69.93 68.87 68.39 68.24 68.24 68.03 67.59 66.99 66.37 67.22 66.79 66.55 65.65 65.76 65.49 65.10 64.45 63.49
49.12 45.97 47.72 48.74 49.53 48.86 50.40 46.70 48.19 53.32 54.23 53.28 53.57 54.19 54.73 55.77 57.48 58.70 60.93 63.08 66.63 68.82 69.66 69.84 70.22 69.85 69.38 69.33 70.09 70.92 70.98 70.52 69.53 68.77 68.74 68.41 68.15 67.78 67.18 66.49 66.86 67.63 66.60 66.91 65.64 65.18 64.90 63.78 62.57
45.49 45.91 40.56 46.74 48.17 49.14 48.23 41.88 48.93 52.64 52.18 51.75 52.49 52.89 53.31 54.04 54.93 56.97 59.35 60.82 61.92 61.86 62.93 67.59 70.21 70.64 70.47 70.07 69.64 69.46 70.79 70.85 70.30 69.75 69.34 68.93 68.51 68.09 67.76 66.81 66.34 67.06 67.61 65.88 66.22 64.89 63.72 62.68 60.66
43.55 37.77 39.96 42.53 47.84 47.58 46.20 43.00 48.36 51.19 50.65 50.61 51.47 52.06 52.55 53.23 54.36 55.33 56.84 58.64 59.59 60.37 60.89 61.07 63.64 67.92 70.37 70.71 70.10 68.95 69.11 69.52 70.77 70.55 69.69 69.25 68.98 68.49 67.97 67.40 66.69 66.36 66.55 66.46 64.78 65.37 63.71 61.52 60.65
37.88 38.16 40.68 40.41 45.10 45.82 44.48 43.97 47.50 49.63 49.50 49.78 50.78 51.54 51.87 52.16 53.00 55.03 56.09 57.43 58.17 58.92 59.57 60.11 60.49 61.13 64.54 68.68 70.27 69.47 68.69 68.33 69.02 70.54 70.29 69.67 69.12 68.96 68.46 67.90 66.83 66.45 66.07 65.99 64.50 64.71 64.34 62.28 60.72
42.74 40.52 39.77 42.60 46.00 44.24 43.00 44.04 45.99 48.54 49.10 49.10 49.98 50.29 50.84 51.50 53.82 54.96 54.87 55.42 56.01 57.18 57.77 58.38 58.47 59.41 60.16 63.06 65.58 67.73 66.71 66.83 66.83 68.78 70.28 70.17 69.68 68.73 68.60 68.00 67.27 66.79 65.72 65.45 65.22 63.78 63.62 61.27 61.38
42.29 40.56 39.37 42.40 44.45 43.48 43.06 42.91 46.37 47.86 48.18 48.98 49.42 49.99 50.70 51.46 51.75 51.94 51.79 52.37 53.11 54.36 55.88 56.83 57.93 58.77 59.48 60.33 62.86 68.08 67.39 66.71 67.06 67.75 67.74 68.69 69.47 69.51 68.52 67.81 67.18 66.97 65.78 65.39 65.06 63.10 62.01 61.25 60.45
41.24 39.91 39.72 38.92 41.83 43.63 42.21 40.24 42.53 45.84 45.25 45.72 46.42 48.38 49.14 49.42 49.64 50.76 51.61 52.26 53.01 53.31 53.86 54.17 55.54 57.23 58.85 60.13 60.71 62.69 67.33 67.69 67.57 67.86 67.21 67.28 67.18 68.51 68.89 68.12 67.40 67.22 66.34 65.07 64.77 64.38 62.37 59.75 58.41
37.80 43.51 42.05 40.04 37.92 33.91 42.28 34.44 41.02 42.41 42.34 44.51 46.64 48.43 49.33 49.97 50.89 51.20 51.72 52.27 52.87 53.95 55.53 54.20 53.90 54.64 55.93 57.63 57.64 58.17 60.56 62.80 65.33 65.91 67.22 67.60 68.10 66.98 65.96 67.23 66.95 66.77 65.98 65.33 64.86 64.55 63.33 60.93 56.89
39.77 44.77 42.59 41.40 39.20 37.82 37.49 35.58 38.70 41.46 39.75 42.89 46.04 47.87 49.49 51.05 51.52 51.53 52.06 52.83 54.15 54.88 55.05 55.53 55.43 54.03 54.57 55.28 55.93 56.73 57.68 61.12 64.04 64.61 64.30 65.22 66.81 67.66 66.11 64.38 65.01 64.80 65.09 64.56 65.04 63.52 63.57 60.98 58.76
44.76 42.17 41.18 40.60 38.22 32.16 37.98 36.52 35.70 38.39 40.81 42.72 45.17 47.16 48.85 50.49 51.88 52.75 53.19 53.74 54.23 55.52 55.58 55.37 54.77 54.82 55.38 54.69 54.64 55.30 56.66 58.48 60.97 62.11 62.60 63.88 65.10 66.10 66.48 64.19 63.86 64.24 63.92 63.56 63.13 63.74 62.19 60.86 60.11
40.74 39.10 31.86 30.18 30.21 30.90 35.91 33.79 38.33 41.58 43.86 44.04 44.93 46.66 48.55 50.51 51.40 51.97 52.18 52.72 53.69 54.09 54.70 54.76 54.75 54.09 55.23 55.75 55.48 54.53 54.64 56.08 57.77 60.18 62.01 62.56 63.11 63.99 64.64 63.53 62.89 62.83 62.67 62.77 62.20 61.60 60.81 59.84 58.97
38.69 38.65 34.30 27.13 29.12 31.82 33.91 30.59 37.23 42.36 44.42 45.81 45.96 47.07 48.85 50.10 51.28 51.47 51.93 52.72 53.21 53.39 53.68 53.79 53.64 53.62 54.54 54.53 55.07 55.90 56.09 55.00 54.86 55.76 57.32 59.18 60.92 61.75 63.19 64.13 62.06 61.99 62.21 61.78 61.02 60.35 59.71 58.47 58.33
35.60 34.36 38.54 32.44 32.60 32.10 33.52 36.45 39.10 40.95 42.11 43.51 44.50 46.21 47.38 49.26 50.14 50.36 50.96 51.33 51.79 51.40 51.22 51.89 52.22 52.35 52.74 53.10 54.18 54.58 55.27 55.46 55.70 56.36 56.73 56.60 57.53 58.74 60.34 62.05 61.77 60.14 60.57 60.37 59.68 58.15 57.10 56.40 56.39
39.87 41.25 33.38 34.72 26.55 26.39 31.26 33.51 35.30 36.44 39.03 42.10 43.65 45.29 47.21 49.24 49.53 49.50 49.62 49.96 49.51 49.51 49.81 50.58 50.73 50.67 51.43 52.09 52.86 53.22 53.37 53.42 53.68 54.15 54.58 55.17 56.09 57.12 57.63 58.22 57.91 58.45 58.14 57.32 56.17 55.05 54.15 53.01 50.47
36.62 35.90 35.59 35.12 32.94 29.55 28.99 32.10 41.38 39.63 40.84 42.28 43.77 45.44 47.47 48.37 47.74 48.13 48.66 48.19 48.43 48.91 48.77 48.87 48.92 49.16 49.52 50.85 52.08 52.47 52.56 52.82 53.13 52.58 52.53 52.54 52.85 53.75 53.76 54.31 54.29 54.78 53.97 52.98 51.74 49.20 49.32 44.33 41.44
40.20 38.23 38.00 32.20 30.62 32.05 31.22 31.77 43.06 43.49 43.46 43.73 44.20 45.47 47.90 47.20 46.48 46.96 46.54 46.31 46.75 46.80 47.03 47.00 46.89 46.89 47.30 48.72 49.63 49.53 49.35 49.76 49.02 48.21 48.37 48.67 49.08 49.85 49.95 50.83 50.73 49.73 48.20 46.80 44.27 43.53 41.12 39.45 39.70

GFSSGP_sfc_wetblb_066.txt.gz
Wetbulb
65.65 64.48 64.21 59.34 47.96 46.99 43.61 46.64 48.18 48.93 48.52 51.28 53.39 50.83 49.71 51.82 57.56 54.18 66.52 68.85 71.47 70.79 73.66 74.13 75.94 76.33 76.32 76.02 75.80 75.41 75.00 74.64 74.25 73.61 72.98 72.39 71.57 71.04 70.39 70.40 70.15 71.19 71.66 71.47 70.86 69.64 69.22 68.49 68.08
64.00 64.34 61.06 54.65 44.66 40.62 42.52 48.59 48.12 49.25 52.17 53.16 52.69 51.97 50.61 56.47 64.81 64.57 66.12 69.66 72.18 72.45 72.65 73.11 75.85 76.31 76.24 75.91 75.43 75.04 74.72 74.19 73.55 72.71 71.57 70.24 69.97 70.35 70.59 70.57 70.58 71.70 71.87 71.25 69.60 68.82 68.42 68.10 68.30
65.20 64.60 54.36 49.22 45.83 41.51 43.35 48.75 49.48 51.76 52.27 51.90 51.24 53.32 51.90 58.57 64.59 65.88 68.95 69.86 72.15 71.96 72.34 73.70 75.90 76.28 76.10 75.58 75.12 74.81 74.21 73.20 72.49 71.55 70.53 69.46 70.86 71.17 70.95 71.91 71.68 71.93 71.46 69.86 68.56 68.49 68.33 68.31 68.26
59.90 59.26 55.04 46.98 44.02 47.73 47.90 48.22 50.30 51.27 51.87 52.86 52.20 51.34 60.13 64.99 64.96 68.15 69.43 70.37 71.39 71.32 72.33 74.44 75.64 76.05 75.57 75.11 74.85 74.59 73.81 72.68 71.78 70.57 69.84 69.52 71.81 72.11 72.17 71.74 71.13 71.45 70.77 69.00 68.45 68.49 68.37 68.47 68.34
58.66 55.63 47.05 44.67 46.16 49.38 51.02 51.14 49.96 49.42 50.78 52.15 50.66 51.47 59.15 64.70 68.38 68.56 68.82 70.84 70.41 71.22 72.29 73.97 75.54 75.67 75.23 74.91 74.55 74.16 73.69 72.36 71.07 70.06 69.53 69.44 71.67 71.99 71.28 70.78 70.38 69.98 69.64 68.98 68.23 68.07 68.24 68.40 68.18
52.68 53.24 44.40 41.67 45.92 50.04 51.61 51.74 50.52 49.23 51.08 50.75 49.41 52.69 59.57 66.38 67.62 67.73 69.12 69.26 70.76 71.31 71.98 72.75 74.16 74.50 74.55 74.54 74.36 73.95 73.40 72.83 71.81 70.67 69.71 68.89 70.86 70.76 70.63 70.13 69.81 69.48 69.04 68.64 68.10 67.56 68.00 68.08 67.94
50.88 48.38 45.02 45.62 46.01 48.78 50.84 52.31 49.61 49.25 48.79 50.11 51.09 49.38 61.62 65.41 68.01 68.58 68.66 69.50 69.79 71.70 71.24 71.69 72.88 73.12 73.05 73.47 73.61 73.61 73.35 72.23 71.75 71.44 70.89 69.51 69.69 70.39 69.87 69.72 69.28 68.73 68.15 67.86 67.52 67.63 67.46 67.76 67.64
52.33 49.99 45.51 47.01 46.25 47.08 52.68 52.60 52.54 50.29 49.95 53.42 52.27 50.99 57.33 64.70 67.69 69.07 68.65 68.92 68.76 68.97 70.58 70.26 70.96 71.63 72.06 72.11 72.28 72.39 72.49 71.52 70.97 70.71 69.43 67.72 67.25 68.31 69.41 69.04 69.11 68.19 67.44 67.02 66.89 67.06 67.26 67.53 67.00
53.91 45.66 42.78 45.71 46.91 48.86 53.15 51.21 53.14 53.51 50.52 50.71 51.51 58.37 63.32 66.80 67.75 66.76 66.80 67.42 67.92 68.38 68.30 69.24 69.09 70.64 71.39 71.47 71.12 71.42 71.55 70.39 69.88 68.81 66.71 65.44 63.40 64.53 65.52 66.20 67.28 67.95 67.73 67.13 66.95 67.26 67.78 67.40 66.17
47.69 43.18 44.77 50.86 51.02 49.27 52.04 51.92 51.43 49.70 48.97 48.36 51.03 60.14 64.30 66.15 65.77 64.52 65.03 64.76 65.67 66.37 66.91 69.00 69.46 69.81 69.70 71.14 69.63 69.16 69.93 69.38 68.51 67.57 64.24 64.51 62.94 61.75 63.67 64.50 66.61 67.99 67.92 67.81 67.69 68.00 67.80 65.76 61.97
47.71 42.91 48.59 50.29 50.44 50.27 50.41 49.87 51.68 48.86 46.94 49.41 49.12 55.17 61.26 63.26 64.08 64.11 64.31 63.76 64.71 66.24 66.66 67.51 67.81 69.09 67.94 69.26 69.21 68.39 68.75 67.81 67.81 67.58 66.09 65.51 64.26 61.96 63.52 63.74 64.35 64.55 64.98 64.59 66.08 66.38 64.33 61.94 61.11
44.48 47.85 48.53 50.20 50.63 49.34 48.07 50.81 49.62 48.87 49.00 53.13 54.21 56.68 61.02 60.89 62.42 63.63 64.29 65.23 65.50 65.98 66.73 67.29 67.67 67.16 66.37 65.95 64.46 64.61 64.28 64.84 63.33 64.33 66.86 65.57 64.21 61.59 60.86 62.99 62.28 62.72 63.42 62.01 63.16 64.24 62.86 61.99 60.68
46.38 47.38 48.84 50.35 50.18 49.46 50.12 48.06 47.74 48.59 52.48 54.49 54.92 54.98 53.24 56.53 61.29 63.09 64.46 65.53 66.22 65.97 66.77 66.93 67.44 67.88 67.10 65.80 64.52 64.24 64.59 64.45 64.07 64.61 67.31 66.94 64.20 62.11 61.32 61.08 61.88 61.98 62.86 62.20 62.75 62.61 63.23 61.10 60.17
48.34 48.53 48.53 49.35 49.65 49.22 47.13 47.32 48.17 49.58 51.29 51.99 52.45 51.31 51.69 53.23 54.35 60.46 63.63 63.84 64.49 64.89 66.96 67.55 67.82 67.54 68.03 66.69 66.23 65.88 66.05 65.44 65.00 64.05 64.92 65.31 64.50 63.58 62.41 62.04 62.31 61.81 61.84 61.35 61.78 61.40 61.20 60.49 59.51
49.22 44.37 46.78 47.27 48.64 47.76 49.05 44.95 45.38 49.76 50.81 50.13 50.24 50.18 51.48 51.80 53.14 53.26 56.81 63.06 64.19 65.16 66.90 67.66 67.49 68.53 67.99 67.11 67.49 68.05 67.30 67.39 65.48 65.14 64.86 64.83 64.62 63.97 63.41 62.22 62.43 63.07 63.31 62.95 60.84 60.91 60.69 59.70 59.50
44.57 44.19 39.49 45.57 47.58 48.32 47.10 39.51 47.10 50.44 48.96 48.41 48.75 47.61 49.08 50.99 52.23 52.64 55.02 56.13 56.79 57.18 58.97 67.28 69.39 68.35 67.57 68.17 68.15 67.47 67.64 67.37 66.72 65.99 65.35 65.15 65.11 64.65 63.64 62.76 62.08 63.50 63.44 62.91 62.39 60.38 59.19 58.54 57.04
42.35 35.73 38.22 41.58 46.97 46.40 44.81 40.37 47.00 50.13 48.98 47.42 47.46 48.15 48.34 48.37 49.25 49.90 51.35 52.31 55.14 56.38 56.67 57.43 59.41 66.06 68.10 68.13 67.97 68.42 68.19 67.26 67.45 67.81 66.15 65.83 65.61 65.18 64.02 63.49 62.68 62.67 62.78 63.04 62.42 61.84 59.17 57.68 55.58
36.02 35.90 37.86 38.64 44.05 45.04 42.81 41.84 45.38 47.19 45.53 45.67 46.42 46.97 46.78 47.94 49.31 50.00 51.05 51.77 52.80 53.63 54.80 55.90 57.25 57.73 58.48 67.23 68.08 67.18 66.85 67.31 68.33 67.45 67.28 66.41 65.78 65.58 64.51 63.90 63.23 62.35 61.48 61.74 62.19 61.35 60.67 57.78 56.22
41.35 38.52 36.96 40.80 45.05 42.92 41.65 42.57 44.18 45.92 46.15 45.13 45.63 46.06 46.40 47.93 50.30 49.98 50.88 50.79 50.59 51.46 52.16 52.98 53.93 55.07 55.79 55.93 59.06 65.92 65.84 65.85 66.17 67.27 67.40 67.74 65.14 65.50 64.40 64.37 63.49 62.52 61.60 61.89 62.63 61.49 60.58 58.60 56.68
41.23 38.26 37.08 41.15 44.59 42.59 41.25 40.53 44.21 45.06 45.66 46.38 45.66 45.32 46.01 47.00 47.02 48.46 48.59 46.77 48.39 48.89 49.87 51.32 52.63 54.02 54.77 55.03 55.75 61.90 65.91 65.81 65.37 65.61 66.75 66.96 66.48 65.91 64.70 64.37 64.10 62.74 61.74 60.98 61.28 61.71 60.08 60.37 58.05
39.62 37.19 37.16 36.95 40.52 41.33 38.92 37.07 40.36 44.00 44.71 44.17 43.71 43.80 45.26 45.56 45.98 47.21 47.99 48.85 49.32 49.79 50.24 50.31 50.40 51.13 52.31 54.01 54.65 55.11 63.60 63.94 63.38 63.69 64.78 65.96 66.42 65.72 64.58 65.20 64.33 63.23 63.20 62.33 60.22 61.29 59.93 58.95 57.94
36.55 41.74 41.63 39.27 36.02 30.34 38.73 26.84 37.91 41.67 39.90 41.74 41.27 42.06 43.83 45.02 46.44 48.19 48.55 48.40 49.17 50.27 51.72 52.03 50.72 50.48 51.40 51.57 52.00 51.50 51.55 56.01 61.71 63.60 65.51 65.66 65.39 65.11 64.94 63.87 65.27 64.76 64.76 63.26 62.56 62.53 61.26 58.71 57.43
38.41 43.36 40.68 39.14 35.77 33.98 34.49 29.28 33.61 39.19 36.85 39.00 41.71 43.92 45.34 45.83 47.28 48.09 48.66 50.29 51.33 51.67 51.26 51.56 51.72 51.16 50.71 50.19 50.61 50.39 50.61 52.05 54.19 59.00 60.56 61.01 61.59 64.54 64.34 63.16 62.24 61.70 62.96 63.91 63.43 62.45 61.84 61.40 59.96
44.87 40.76 39.46 36.97 35.58 27.36 34.24 32.14 30.36 34.41 37.88 40.44 42.63 44.14 46.11 47.07 48.11 49.01 49.84 50.60 50.87 51.50 51.56 51.30 51.30 51.30 51.68 51.11 49.96 49.29 49.37 49.98 50.84 54.45 56.92 58.20 59.77 61.26 62.66 62.99 63.29 63.27 63.17 63.06 62.40 63.06 61.46 61.07 61.09
42.19 35.54 28.52 25.95 26.96 24.85 34.20 32.15 33.14 39.03 41.49 41.54 41.62 43.14 45.13 46.94 47.40 47.95 48.23 48.97 49.92 49.79 50.26 50.96 50.52 50.23 50.97 50.69 51.00 50.95 49.60 48.66 48.65 50.32 53.13 55.86 57.99 59.44 60.84 61.16 60.70 61.58 62.21 62.40 62.12 62.08 61.69 60.63 59.56
36.61 35.66 27.49 21.29 23.15 24.71 31.73 26.54 32.01 39.82 43.20 43.49 44.30 44.53 45.96 46.37 47.06 47.47 47.41 47.76 48.16 48.57 48.01 48.38 48.91 48.95 49.45 49.42 49.94 50.16 50.75 51.15 50.90 51.11 50.96 51.15 51.96 53.94 56.55 59.40 59.85 60.62 61.29 61.15 61.39 61.09 60.71 60.25 59.30
36.02 33.53 35.75 28.30 27.73 24.00 27.22 30.91 35.02 37.86 39.69 40.90 42.10 43.94 44.38 46.00 46.48 45.89 46.15 46.87 46.25 45.61 46.11 46.61 46.92 47.64 48.31 48.66 48.90 49.23 49.63 49.71 49.78 50.42 51.34 51.99 52.39 54.01 53.68 54.47 55.37 58.19 59.22 59.50 59.39 59.43 59.06 57.95 57.70
39.02 40.44 30.50 28.57 19.02 21.01 25.00 27.62 29.20 33.43 36.50 39.38 40.72 42.03 44.83 46.74 46.13 45.68 45.74 45.08 45.08 45.27 45.51 45.82 46.26 46.28 46.97 47.83 48.37 49.30 49.03 49.57 49.59 49.50 49.08 49.31 49.80 51.06 51.10 51.22 51.87 52.90 53.44 55.82 56.41 55.84 54.94 54.18 49.66
34.91 34.01 35.01 31.75 28.32 21.50 20.54 24.05 35.24 35.87 38.39 38.39 40.98 43.51 45.16 45.81 44.48 44.50 44.34 44.31 44.89 44.64 44.30 43.91 43.87 43.98 44.17 45.50 46.49 45.93 45.36 46.35 45.69 44.27 44.47 44.66 46.29 47.30 48.16 49.95 51.11 50.55 50.30 50.71 50.68 49.64 49.40 45.72 42.97
37.83 36.35 35.74 26.31 26.98 25.11 23.74 24.95 38.82 37.90 39.27 41.12 41.59 44.14 45.85 45.31 44.15 43.95 43.46 43.19 42.90 42.79 42.63 42.10 41.98 41.79 42.36 43.48 43.14 42.36 42.09 41.92 41.09 40.44 40.15 40.18 39.10 39.95 39.97 41.02 41.37 42.20 42.41 43.09 43.17 42.17 41.67 42.08 39.98

GFSSGP_sfc_wetblb_069.txt.gz
Wetbulb
63.75 62.39 59.50 56.08 44.34 42.10 38.69 43.24 44.73 45.86 45.90 47.67 49.72 49.86 47.97 52.05 56.79 51.87 64.31 69.76 71.16 72.54 74.31 75.34 76.29 76.52 76.57 76.22 75.78 75.42 75.11 74.78 74.49 73.83 73.36 72.48 71.50 70.61 70.43 70.29 71.53 72.16 72.00 70.68 70.07 69.64 68.88 68.32 67.74
64.55 63.48 57.18 50.40 40.78 35.80 38.34 43.35 45.50 46.64 49.49 49.64 51.13 49.84 52.10 57.04 62.37 63.24 65.15 70.21 71.60 72.66 73.04 73.98 75.95 76.29 76.17 75.89 75.58 75.14 75.03 74.67 73.99 72.71 71.49 70.64 70.57 70.69 70.72 70.81 71.53 72.17 71.57 69.96 69.35 68.67 68.30 68.14 67.10
64.02 62.79 52.23 45.35 40.93 37.32 39.04 44.65 45.86 48.54 50.48 49.88 48.44 50.55 53.95 57.39 63.37 64.05 67.85 70.36 72.21 71.59 72.72 74.59 75.90 76.20 75.93 75.54 75.20 74.98 74.68 74.00 72.86 71.86 70.43 70.43 71.13 71.29 71.48 71.58 72.06 71.91 70.35 69.24 69.01 68.53 68.28 67.98 66.98
58.70 56.39 51.40 43.01 40.61 44.89 44.56 46.15 47.51 48.60 50.04 51.55 49.74 53.66 59.89 63.86 64.25 66.97 69.23 71.69 70.92 70.67 72.30 74.82 75.65 75.80 75.39 75.08 74.86 74.59 74.01 73.15 71.56 70.79 70.04 71.55 72.45 72.31 72.28 72.28 71.83 71.37 70.37 69.01 68.89 68.59 68.39 68.25 67.50
57.75 53.92 43.82 40.76 42.59 46.18 46.31 49.14 47.98 47.71 49.11 49.34 48.98 52.17 58.28 63.63 66.72 67.24 68.49 70.99 70.02 71.15 73.07 74.60 75.53 75.54 75.14 74.95 74.60 73.95 73.57 72.15 70.80 70.24 70.02 72.32 72.53 71.73 71.72 71.13 70.71 70.62 69.39 68.87 68.76 68.49 68.35 68.25 67.89
51.89 52.79 43.35 39.51 42.16 47.25 46.82 49.18 48.56 47.05 48.54 48.26 51.29 56.26 58.68 63.70 64.92 66.29 68.82 70.47 71.26 71.30 73.00 74.05 74.09 74.58 74.58 74.56 74.23 73.60 73.01 72.20 71.01 70.31 69.81 71.67 71.59 71.06 70.87 70.54 70.12 69.84 69.34 68.68 68.20 68.33 68.21 68.12 67.71
51.03 47.36 43.14 43.61 43.36 46.16 48.65 50.18 46.43 47.64 46.01 47.11 50.15 55.19 58.85 63.70 65.93 66.23 68.42 70.82 70.82 71.56 72.03 73.03 73.32 73.33 72.96 73.34 73.31 73.15 72.84 72.09 71.58 71.09 70.14 71.07 71.09 71.00 70.35 69.88 69.56 69.25 68.92 68.31 68.05 68.04 67.98 68.08 67.37
52.63 50.27 44.25 45.33 44.97 45.73 51.89 51.06 50.07 48.87 47.07 50.73 51.90 54.46 57.55 63.21 66.88 67.55 68.55 69.82 70.18 70.35 71.38 71.52 71.63 72.10 71.72 71.64 71.98 71.98 71.80 71.18 71.00 70.41 68.96 67.77 68.75 69.42 70.23 69.52 69.45 68.70 68.06 67.78 67.87 67.65 67.76 67.93 67.08
54.03 45.42 41.45 44.01 45.98 48.28 53.00 50.27 50.13 51.33 49.55 50.96 55.24 59.12 64.08 66.47 66.93 66.13 64.66 66.39 68.16 69.14 69.50 70.52 70.10 70.14 70.64 70.76 70.79 70.97 70.82 69.85 69.49 68.55 66.75 65.63 64.07 66.09 67.04 66.64 68.03 68.51 68.03 67.25 67.30 67.45 67.91 67.85 66.61
47.17 44.29 42.77 46.53 48.83 48.65 49.95 51.11 52.31 48.25 47.63 48.39 56.79 64.01 65.59 65.82 64.69 64.01 63.36 63.28 64.35 65.56 67.74 68.98 69.54 69.70 69.87 70.86 69.45 69.08 69.81 68.41 67.56 66.15 64.36 62.65 62.14 62.72 65.01 64.53 66.50 68.10 67.95 67.85 67.66 67.86 68.19 65.84 61.76
46.88 42.36 47.76 49.29 50.93 51.28 50.13 51.00 52.46 47.03 44.96 47.41 52.79 60.29 63.33 63.83 62.87 62.70 63.35 63.71 62.68 64.58 66.79 67.58 68.72 68.84 68.60 68.94 68.15 67.56 68.04 67.80 67.13 65.61 63.74 63.21 62.73 60.78 61.81 62.73 64.17 64.06 64.57 64.40 66.07 66.31 64.72 62.06 60.39
43.09 47.33 47.91 49.67 50.63 50.63 48.83 49.70 48.43 47.08 47.98 51.72 51.31 59.75 61.53 62.31 62.48 62.81 63.10 63.47 63.31 64.45 65.73 67.53 68.28 67.25 66.51 68.45 68.04 67.30 67.38 67.06 66.76 66.78 64.97 64.09 60.92 60.39 61.80 62.14 62.46 62.53 63.15 61.93 62.58 63.37 62.78 61.57 60.34
45.19 46.66 48.55 49.55 49.28 48.57 49.25 46.75 46.34 45.75 50.49 52.76 53.29 54.48 58.98 61.00 61.67 63.38 64.18 64.79 64.53 64.70 65.59 65.92 66.44 65.49 65.07 66.68 65.84 63.75 65.41 65.76 64.56 64.79 66.31 65.09 62.58 59.94 61.55 61.48 61.76 61.97 62.11 61.53 61.45 62.22 62.24 61.03 60.08
47.59 47.88 48.16 48.90 48.43 47.91 46.54 46.91 47.65 47.65 50.47 50.71 51.97 50.24 50.00 54.51 60.27 60.98 62.45 62.95 64.10 64.66 65.69 66.78 66.63 66.63 67.02 64.52 62.83 62.44 62.94 64.18 62.93 63.82 66.24 65.42 63.65 61.71 60.37 60.37 60.67 60.75 61.78 61.68 61.62 61.36 61.53 60.60 59.25
48.00 44.19 45.77 45.20 46.91 46.24 47.71 44.22 44.95 47.92 48.28 47.33 46.66 48.24 49.73 49.66 51.70 58.87 62.32 62.46 63.07 64.57 65.99 66.37 66.76 67.02 66.66 66.51 66.19 66.19 65.06 64.74 63.44 63.22 64.47 65.09 63.62 62.35 61.54 60.37 60.34 60.77 60.98 61.03 59.48 60.90 59.72 59.19 58.81
44.64 42.32 37.65 43.56 46.32 47.18 45.73 38.99 45.77 48.16 45.85 46.90 45.90 45.06 46.89 49.41 50.42 51.10 54.22 57.34 60.41 62.57 64.95 66.57 68.27 67.05 66.60 66.22 66.17 66.35 66.81 66.70 64.88 63.90 63.66 63.53 63.66 63.28 62.11 61.25 60.61 62.18 61.91 61.64 61.20 59.14 58.21 57.91 57.28
40.56 36.05 36.20 40.37 46.02 45.86 43.64 39.42 46.01 48.35 46.37 46.36 45.15 45.16 46.13 46.39 47.05 48.19 50.03 49.20 51.93 54.40 55.51 62.24 66.69 66.15 66.44 65.89 66.27 66.63 66.75 66.37 66.63 66.76 64.20 63.62 63.82 63.64 62.68 62.10 61.49 61.69 62.25 61.27 61.12 60.78 58.38 56.82 55.61
36.20 34.16 35.47 36.82 42.21 43.71 42.15 41.21 44.90 45.97 45.83 46.09 45.47 45.06 45.22 46.31 47.47 49.27 49.29 48.94 50.20 50.35 50.98 52.79 57.22 64.52 66.54 66.58 66.01 65.59 64.49 65.60 66.31 66.41 66.52 66.39 64.00 63.95 63.24 62.91 62.37 61.46 60.80 61.56 60.84 59.97 59.54 57.35 56.08
38.83 37.25 35.22 39.32 43.44 41.85 41.28 41.56 43.94 45.41 43.64 43.52 44.53 44.74 44.71 46.01 47.27 47.13 46.71 46.49 47.48 47.97 47.84 48.90 51.07 52.00 53.72 56.40 63.73 63.85 64.69 63.05 63.74 65.56 65.96 65.92 66.17 64.47 63.11 63.53 62.49 61.76 61.12 60.69 61.78 60.95 59.29 58.19 55.73
38.88 35.14 34.91 37.96 42.17 41.95 40.71 40.60 43.88 44.53 43.60 44.43 45.34 44.89 44.51 44.37 44.95 46.06 47.03 46.93 47.42 47.94 48.32 48.18 48.42 49.24 50.78 52.16 53.00 63.61 64.90 64.55 65.66 65.46 65.22 65.33 64.89 65.24 64.70 62.60 62.88 61.99 60.27 59.48 60.77 60.20 58.18 58.78 56.34
38.86 34.73 34.10 34.87 38.13 39.27 37.15 36.85 40.44 42.95 43.04 44.14 43.94 44.47 44.17 44.90 44.70 45.26 46.96 48.20 48.69 48.79 49.17 49.78 48.38 48.60 49.31 50.16 51.61 51.95 61.57 62.54 62.50 62.66 62.78 64.33 64.71 64.62 64.34 63.63 62.32 61.51 61.18 59.75 58.71 60.81 59.92 59.11 56.32
34.26 40.40 39.81 37.53 34.47 29.33 37.14 26.98 35.50 40.34 40.02 40.90 40.44 40.86 42.39 44.60 45.45 46.74 47.35 48.23 49.08 49.18 49.91 50.26 50.43 49.21 49.78 49.42 49.44 49.23 49.56 51.80 58.39 61.96 63.34 63.70 64.11 64.00 63.71 63.35 63.35 62.14 61.73 61.54 62.11 61.91 61.72 59.78 57.91
37.49 43.30 40.59 36.86 33.26 31.34 31.61 28.15 32.59 39.30 35.65 37.66 38.75 39.75 42.60 44.19 45.66 46.61 47.84 49.79 50.60 50.71 49.98 49.69 50.05 49.96 49.86 48.41 48.06 47.86 47.73 48.79 50.40 51.84 55.90 61.14 63.06 63.91 63.65 63.30 62.06 60.72 60.68 60.32 60.09 59.58 60.10 60.83 60.46
43.94 40.66 38.85 35.98 34.01 24.48 31.26 29.34 29.83 33.36 38.84 37.06 38.86 42.16 44.27 45.52 45.90 47.28 48.46 49.70 49.81 50.00 50.06 49.71 49.90 49.88 50.00 49.76 49.44 48.00 46.47 46.83 47.49 48.44 50.48 53.83 56.96 58.92 61.14 62.11 61.61 61.13 62.05 61.43 60.77 61.64 61.00 60.64 60.64
40.59 36.20 27.73 26.08 22.42 21.81 31.65 29.89 33.22 37.75 38.45 39.65 41.12 42.23 43.75 45.32 45.68 46.42 47.22 47.64 48.20 47.66 47.67 49.45 48.68 48.52 48.70 48.85 48.74 49.01 49.16 48.74 47.63 48.20 48.26 49.20 51.11 53.29 54.09 58.31 59.40 59.56 60.19 61.42 61.48 60.94 60.76 60.72 59.91
35.12 34.22 24.31 19.49 20.63 23.25 29.88 26.63 32.09 36.55 41.57 42.76 43.09 43.13 44.40 45.12 45.51 46.37 46.26 46.08 45.46 45.60 45.68 46.16 46.35 46.62 47.58 47.91 48.02 48.41 48.64 49.02 49.28 49.29 49.68 49.90 50.27 51.13 52.23 53.64 55.43 56.95 59.80 60.58 60.37 59.37 60.06 60.22 58.80
36.53 32.83 36.00 27.46 26.01 21.37 25.27 28.43 35.23 37.94 39.48 41.14 41.94 43.36 43.49 44.75 45.30 44.83 45.07 44.25 43.88 44.23 44.63 44.77 45.27 45.74 46.55 47.09 47.36 47.72 48.20 48.32 48.15 47.97 48.19 48.50 48.93 51.25 50.13 50.71 50.96 52.27 52.73 54.13 56.52 57.49 57.92 57.56 57.64
39.00 40.43 30.93 27.57 20.18 20.65 22.41 23.80 26.92 32.78 36.75 39.62 40.71 40.88 43.41 45.05 44.00 43.59 43.34 43.25 43.61 43.84 43.59 43.27 43.77 43.40 44.08 45.19 45.28 44.55 44.47 44.35 43.64 42.98 41.96 42.90 43.85 45.14 46.08 48.22 48.82 48.56 48.82 49.12 49.92 50.20 51.51 53.73 48.90
36.21 34.85 33.92 32.73 27.35 20.14 18.81 23.39 32.98 35.60 38.14 38.33 40.15 41.52 43.68 43.47 42.31 42.53 42.03 42.79 42.97 42.30 41.77 41.17 41.24 41.55 41.91 42.57 41.63 40.78 40.82 40.88 40.26 39.27 38.66 38.38 38.64 39.14 39.82 41.67 42.11 41.74 42.26 43.46 45.12 45.38 45.29 44.81 43.22
38.71 36.09 35.81 25.81 25.87 24.15 21.47 24.69 36.05 35.72 37.91 39.29 40.58 43.56 44.44 43.43 42.85 42.18 41.51 41.44 40.90 40.48 40.40 39.69 39.85 39.96 40.59 41.13 40.25 39.30 38.92 38.53 37.73 37.67 37.90 37.60 36.58 37.29 37.29 37.58 37.47 37.52 37.73 37.74 39.21 40.05 41.47 40.72 39.99

GFSSGP_sfc_wetblb_072.txt.gz
Wetbulb
62.99 61.95 58.83 54.04 43.88 41.33 37.73 41.82 43.35 44.07 44.49 46.68 48.30 53.00 53.98 52.87 55.27 48.59 63.84 69.39 72.74 73.41 74.88 75.26 76.17 76.42 76.21 76.07 75.76 75.48 75.24 74.75 74.29 73.06 72.98 72.06 71.26 70.19 70.60 71.75 72.20 71.70 70.55 70.14 69.72 69.16 68.57 67.89 67.14
63.62 62.46 55.76 48.68 40.60 35.43 37.52 42.14 43.65 45.40 48.95 49.18 49.11 49.22 55.44 56.62 61.36 63.91 65.82 71.15 72.99 73.45 74.42 74.73 76.07 76.39 76.09 75.77 75.36 75.31 74.98 74.57 74.27 72.92 71.64 71.05 70.43 70.63 70.32 71.47 72.27 71.41 70.29 69.61 68.74 68.26 67.76 67.01 66.88
63.25 61.83 51.48 44.88 39.91 36.48 38.08 43.01 44.08 47.63 48.68 48.73 47.97 52.35 55.78 57.61 62.47 63.73 67.95 71.16 72.25 72.14 73.48 74.66 75.87 76.05 75.86 75.58 75.26 75.16 74.62 73.83 72.27 71.67 70.69 70.89 71.18 71.02 70.98 71.94 72.33 70.60 69.71 69.06 68.44 67.98 67.50 66.74 67.23
58.58 55.84 50.36 42.80 40.17 43.38 42.64 44.51 47.76 47.25 48.18 50.13 51.94 54.86 59.57 62.55 63.79 66.29 70.13 71.30 70.57 70.67 72.40 74.71 75.47 75.65 75.40 75.04 74.89 74.58 73.97 72.47 71.44 70.61 70.77 71.83 71.58 71.56 71.67 72.31 71.46 70.70 70.11 69.06 68.53 68.10 67.66 67.20 67.39
57.07 52.73 44.55 39.79 42.22 44.95 46.15 48.59 48.79 46.96 47.07 47.71 49.43 54.02 57.73 63.83 65.83 68.83 70.14 70.58 69.56 71.06 73.16 74.39 75.37 75.37 75.09 74.84 74.68 74.12 73.34 71.80 70.90 70.28 71.80 72.53 72.21 72.32 72.29 71.53 71.30 69.51 69.37 69.05 68.66 68.15 68.03 67.66 67.33
51.14 51.48 41.82 39.45 42.62 45.73 47.10 49.17 46.30 46.66 46.21 48.30 56.60 56.58 57.01 63.55 64.54 69.04 70.16 69.57 70.84 71.43 73.48 74.07 73.89 74.38 74.52 74.54 74.13 73.36 72.69 71.85 70.69 70.46 72.30 72.12 70.87 71.68 71.39 70.76 70.02 69.51 69.17 68.97 68.63 68.23 68.05 67.78 67.09
49.48 46.00 41.11 42.40 43.36 44.88 47.83 50.35 45.56 46.11 45.67 45.60 56.83 54.66 58.51 61.50 65.78 67.53 69.36 70.19 71.03 72.02 72.71 73.26 73.36 73.11 73.01 73.34 73.10 72.72 72.28 71.54 71.06 70.80 71.64 71.68 71.13 70.92 70.72 70.40 70.11 69.70 69.09 68.46 68.31 68.21 68.06 67.85 67.15
53.00 48.71 42.89 44.28 44.10 44.93 50.41 50.89 50.36 48.02 45.82 49.42 57.15 56.24 57.30 62.90 66.26 67.63 69.79 69.71 70.19 71.00 72.13 72.31 72.30 72.65 71.95 71.48 71.66 71.62 71.36 70.98 70.77 70.02 69.86 69.48 69.35 69.80 70.34 69.68 69.70 69.21 68.64 68.06 67.97 68.02 67.87 68.01 67.31
55.23 45.91 42.01 43.82 45.52 47.24 51.60 48.88 51.94 51.91 49.76 53.44 57.28 59.17 63.05 65.80 66.01 66.73 67.61 68.24 68.35 70.03 70.55 70.75 70.33 71.00 71.20 70.49 70.54 70.71 70.31 69.96 69.55 68.18 66.77 66.75 66.26 67.39 67.60 67.07 68.20 68.75 68.33 67.56 67.70 67.51 68.09 68.27 67.03
48.95 44.75 43.83 48.32 49.63 48.09 50.18 50.63 50.16 48.85 49.24 54.04 59.91 63.60 65.04 65.11 63.64 63.27 64.90 65.32 65.93 66.79 68.75 69.98 69.84 69.10 69.53 70.88 69.45 68.82 69.19 67.82 67.08 65.77 64.20 63.15 63.48 64.45 66.41 65.05 67.06 68.41 68.00 67.71 67.47 67.53 68.25 66.46 61.89
47.02 42.38 46.86 48.81 49.61 50.41 49.79 50.00 52.44 48.57 45.42 52.02 58.25 60.55 62.40 63.05 62.37 62.75 62.77 64.11 64.78 66.77 68.01 68.93 69.07 69.10 69.04 69.06 68.13 67.45 67.45 66.53 66.02 64.59 63.36 61.79 61.77 61.55 62.84 62.36 63.91 63.77 64.44 64.11 65.74 65.70 64.63 61.79 59.91
43.97 46.88 49.25 49.84 51.29 50.24 48.91 50.91 48.76 46.81 48.81 51.47 59.32 61.99 61.79 61.79 61.54 62.38 62.84 63.43 63.72 64.32 66.25 67.36 68.39 67.85 67.86 67.85 67.79 67.26 67.34 66.35 65.53 65.01 63.54 61.95 60.57 59.20 60.13 61.27 61.97 62.00 62.59 61.66 62.25 62.67 62.78 61.68 60.60
44.51 46.79 48.65 49.35 50.05 50.22 51.15 48.96 48.92 47.01 50.80 52.48 59.63 60.65 60.93 61.13 60.96 62.43 63.26 63.74 64.05 64.32 64.53 65.30 66.20 66.14 66.95 67.10 67.12 66.11 66.55 66.75 66.50 65.89 64.91 63.68 61.33 59.52 60.59 60.79 61.36 61.56 61.66 60.93 60.53 61.34 61.99 60.61 60.14
47.68 47.85 47.63 47.88 47.43 48.76 48.35 48.02 49.31 48.96 50.04 50.42 51.47 54.67 58.40 60.40 61.47 60.93 62.75 62.90 62.96 64.44 64.91 65.34 65.56 64.92 64.47 66.15 65.49 64.97 65.00 66.01 64.17 65.12 66.09 64.85 63.29 60.31 60.83 60.66 61.06 60.89 61.48 61.44 60.54 60.94 61.57 60.88 59.78
47.35 44.26 45.96 46.36 46.67 46.48 47.34 44.00 44.55 48.60 48.25 47.38 46.85 48.53 49.60 54.06 60.18 61.29 62.58 62.44 63.99 63.60 65.39 65.67 66.03 66.29 65.56 64.53 62.50 61.62 62.28 64.06 62.22 63.09 65.56 65.65 63.83 60.74 60.27 60.54 60.36 60.73 61.02 61.17 60.33 60.06 60.07 59.97 59.66
43.21 42.27 38.29 44.05 45.95 47.23 45.59 38.54 45.69 48.19 46.58 45.58 45.07 45.50 45.96 47.53 51.77 57.81 61.22 61.89 62.11 63.76 64.83 65.69 67.44 66.26 66.02 65.88 65.72 65.88 66.25 64.95 62.44 61.96 64.17 65.18 64.38 62.42 60.43 59.65 60.09 60.46 59.94 60.49 59.20 59.28 58.81 58.22 58.10
40.36 34.50 36.23 39.94 46.04 45.45 43.07 38.41 45.04 47.18 45.89 45.62 44.73 45.02 44.79 45.46 45.56 47.74 49.96 50.22 53.80 59.58 61.93 64.90 65.86 65.82 65.84 65.68 65.55 65.53 66.00 65.94 66.24 65.00 62.61 62.52 63.53 63.11 62.00 61.40 60.79 60.56 60.34 60.29 60.10 59.09 57.43 56.49 56.24
34.28 33.68 34.89 35.86 42.42 44.00 41.25 40.14 44.77 45.57 43.79 44.83 44.98 45.46 45.29 45.26 46.77 46.22 47.86 48.12 48.71 48.52 49.60 51.91 61.78 65.17 65.34 65.50 65.12 64.90 64.32 64.78 65.40 65.80 65.98 65.15 63.05 62.35 62.22 62.10 61.62 60.75 60.55 60.38 59.45 59.35 58.82 57.19 56.36
38.62 36.16 35.60 38.96 42.70 41.46 41.07 40.62 43.64 46.17 43.15 42.78 43.49 44.20 44.76 45.55 44.28 45.81 44.75 44.70 45.97 47.39 47.50 47.58 49.41 49.78 58.43 63.13 62.99 62.62 63.02 63.37 62.77 63.81 65.60 66.14 65.96 64.41 62.63 61.61 61.25 60.63 60.38 61.08 61.08 59.79 58.70 58.41 55.74
38.68 35.62 34.52 37.10 41.20 39.97 39.73 39.95 43.05 44.66 43.75 43.49 44.10 44.43 44.67 43.59 43.86 44.50 44.92 46.12 47.34 47.28 47.62 47.31 47.34 48.01 49.25 51.10 53.21 63.31 63.19 63.24 63.94 63.92 63.93 63.91 64.14 64.29 64.28 62.55 61.93 61.31 60.12 59.25 59.13 59.33 57.41 58.59 56.38
36.99 33.64 33.49 34.22 36.98 38.23 37.34 35.43 38.11 42.37 42.09 43.11 43.64 44.08 43.65 43.96 43.54 44.45 45.85 46.95 47.25 47.27 47.67 48.79 48.49 47.27 48.22 48.96 49.98 50.64 60.36 61.42 61.84 61.43 62.05 63.87 64.25 64.08 63.74 63.63 62.67 61.15 60.25 59.90 59.08 59.53 58.43 58.77 55.75
35.97 39.00 39.12 35.91 33.62 29.27 36.03 26.63 32.35 39.00 41.75 42.23 42.15 40.90 41.87 42.54 43.44 44.91 46.11 47.27 47.85 48.13 48.49 48.74 48.77 47.90 47.89 47.54 47.76 47.88 48.70 51.47 57.10 58.54 60.73 62.35 62.71 63.00 62.84 62.68 62.42 62.18 60.64 60.54 60.16 58.94 59.30 58.27 58.28
37.58 42.08 38.20 35.74 32.95 30.63 30.29 27.45 30.25 34.44 36.04 39.93 38.92 39.37 40.27 42.07 44.12 45.38 46.94 49.18 49.78 49.27 48.43 48.22 49.02 49.18 48.97 48.35 46.57 46.38 46.39 47.56 48.73 49.17 51.09 54.41 58.52 61.67 62.45 62.07 61.13 60.44 59.99 59.43 59.22 58.69 58.23 58.49 59.02
42.40 37.60 36.77 35.21 33.79 25.27 29.54 28.57 28.02 31.66 35.75 39.02 37.94 38.45 41.14 42.25 44.21 45.85 47.84 49.32 48.89 48.34 48.07 48.09 48.37 48.04 48.22 48.28 48.28 47.60 45.31 45.18 46.20 46.69 47.30 48.83 52.69 54.37 54.66 58.06 60.01 59.95 59.20 59.13 59.47 60.84 58.86 57.86 59.09
39.54 32.36 27.35 27.40 27.38 23.79 29.98 28.37 33.75 35.73 38.36 40.06 38.13 39.60 42.09 43.23 43.89 45.28 46.21 46.97 46.81 46.10 46.34 47.74 46.87 46.84 47.53 47.51 48.10 48.20 48.05 48.05 47.75 48.07 48.49 48.91 49.69 50.34 51.23 53.99 56.18 57.30 58.07 58.95 59.42 60.37 59.85 58.82 59.10
34.78 35.10 24.28 20.95 21.41 22.30 28.61 26.22 32.34 36.09 37.78 40.85 43.06 43.39 43.39 43.60 44.52 45.35 45.22 45.27 44.46 44.72 44.64 44.98 45.52 46.05 46.51 46.62 47.33 47.50 47.84 47.97 48.04 47.68 47.84 47.67 48.33 49.28 49.85 50.63 52.02 52.77 53.78 54.60 55.63 56.55 56.01 57.26 55.61
35.51 33.03 35.99 23.94 22.72 18.77 24.82 27.95 34.00 35.67 35.88 39.87 41.77 42.93 43.12 44.08 44.53 43.86 44.40 43.40 43.35 43.58 43.53 43.91 44.40 44.48 45.31 46.24 45.67 44.69 45.20 44.88 43.72 42.96 43.85 44.96 44.46 47.64 47.27 48.54 48.72 49.23 49.47 50.06 51.01 51.29 50.65 51.49 53.74
38.08 40.23 29.93 23.31 16.07 18.15 22.33 22.61 27.39 30.63 34.74 39.81 40.94 42.03 43.74 44.41 43.42 43.50 42.66 42.43 42.74 42.76 41.75 42.01 42.28 42.11 42.88 42.61 42.27 41.69 40.75 40.17 39.47 38.85 38.04 38.46 38.73 39.96 41.82 42.95 42.77 42.84 43.44 45.00 46.09 45.97 48.20 49.44 46.44
35.95 34.40 33.56 30.86 25.73 19.32 18.63 22.87 30.35 33.39 37.24 39.55 41.30 43.09 43.78 42.93 42.32 42.32 41.90 42.27 42.06 41.16 40.32 39.98 40.26 40.91 41.05 40.78 39.66 38.71 38.54 38.34 37.96 37.43 36.86 36.61 36.97 37.38 37.58 38.14 38.11 38.07 38.00 39.21 40.91 41.57 42.22 43.29 42.51
39.13 36.33 33.36 25.52 25.19 22.07 19.90 23.29 33.42 34.04 37.57 40.37 40.59 42.86 44.38 43.54 42.70 41.98 41.46 41.26 40.13 39.60 39.09 38.84 39.14 39.61 39.76 39.36 38.26 37.57 37.65 37.41 36.72 36.43 36.33 36.40 35.77 36.69 36.33 36.74 36.49 36.41 36.69 36.79 37.17 37.59 38.15 39.91 39.51

GFSSGP_sfc_wetblb_075.txt.gz
Wetbulb
63.93 61.31 58.10 52.99 44.04 41.47 37.24 40.87 41.67 43.19 42.93 45.83 47.63 50.27 50.73 54.78 52.37 48.24 62.89 68.77 71.98 73.17 74.56 75.01 76.00 76.12 76.30 75.95 75.18 75.13 75.00 74.38 73.70 72.64 72.42 71.71 70.66 71.09 71.44 72.09 71.32 70.44 70.05 69.86 69.43 68.86 68.12 67.51 68.34
62.53 61.11 55.31 47.44 39.86 35.42 37.13 41.36 42.80 44.47 46.46 47.42 52.07 51.34 55.92 55.01 60.79 63.01 65.20 71.36 72.84 73.43 74.17 74.32 75.82 76.16 75.80 75.39 74.91 74.82 74.40 73.59 73.29 72.69 71.85 70.51 70.02 70.18 71.35 72.33 71.46 70.55 69.67 68.88 68.29 67.78 67.25 67.02 67.32
63.40 60.99 51.51 44.22 38.89 36.37 37.78 42.17 43.85 46.48 47.43 45.86 47.38 54.75 56.11 57.29 62.60 64.36 66.88 72.08 72.82 72.96 73.81 74.39 75.78 75.80 75.66 75.44 75.08 74.75 74.29 73.51 72.23 71.75 70.79 70.66 70.39 70.35 71.30 72.57 71.01 70.08 69.22 68.43 67.60 67.16 66.86 67.37 67.95
57.41 55.62 49.94 43.48 39.10 42.43 41.97 43.09 46.51 47.67 48.33 48.84 52.81 54.53 59.41 62.37 63.07 65.39 70.93 72.01 71.72 71.72 72.82 74.60 75.42 75.48 75.43 75.27 75.08 74.83 73.13 71.91 71.26 70.82 70.84 71.52 70.94 70.89 71.88 72.35 70.93 70.11 69.22 68.42 67.55 67.03 67.00 67.68 68.06
54.84 51.19 43.37 40.52 41.61 44.69 45.25 47.76 47.90 46.12 45.95 46.66 51.86 54.43 56.24 62.23 66.35 69.31 70.15 70.72 70.31 70.97 73.15 74.17 75.23 75.34 75.07 74.88 74.74 73.93 73.23 71.76 70.92 70.42 71.62 71.51 71.64 71.51 72.46 71.22 70.08 69.54 69.17 68.59 67.64 67.42 67.21 67.47 67.60
48.03 48.83 39.62 38.22 42.00 45.49 45.57 47.70 47.05 45.12 45.68 53.27 55.86 55.82 55.60 62.24 66.99 68.77 69.84 69.52 71.23 71.34 73.04 73.76 73.82 74.37 74.49 74.54 74.32 73.44 72.74 71.72 70.79 70.91 72.35 72.20 72.01 72.03 71.55 70.67 69.50 69.45 69.21 68.64 67.92 67.43 67.42 67.43 67.13
46.38 43.00 39.85 40.66 42.87 44.53 46.06 50.36 44.79 45.31 44.76 47.38 57.45 54.58 56.37 59.96 64.92 68.86 68.54 69.29 70.58 72.04 72.48 72.98 72.80 72.87 72.91 73.19 72.95 72.58 72.07 71.40 71.06 71.96 72.55 71.40 71.10 71.49 70.64 70.22 69.74 69.29 68.80 68.45 68.03 67.51 67.43 67.08 66.71
49.77 44.97 41.13 41.61 42.76 44.15 49.54 50.18 50.57 46.84 45.14 51.46 58.23 55.37 56.11 61.86 65.38 67.95 68.90 69.18 69.81 70.92 71.85 71.76 71.53 71.86 71.28 71.17 71.37 71.15 70.86 70.56 70.54 70.80 70.51 69.33 69.21 69.78 70.58 69.88 69.91 69.32 68.47 67.74 67.69 67.60 67.49 67.24 66.69
55.26 44.05 40.41 42.06 44.65 46.51 49.63 48.18 51.68 53.27 47.89 54.75 58.99 58.50 62.30 64.85 67.71 67.31 68.22 68.93 69.22 70.29 70.37 70.76 70.95 70.72 70.27 69.94 69.84 70.16 69.85 69.50 69.03 68.42 67.90 67.29 66.79 67.39 67.33 67.04 68.22 68.99 68.54 67.76 67.64 67.57 67.52 68.18 66.97
49.63 44.00 43.38 47.31 48.43 47.56 49.78 49.46 49.77 49.10 48.57 52.80 57.67 63.09 64.15 65.68 66.23 66.17 66.40 66.72 66.68 67.47 68.56 69.77 69.61 69.22 69.59 70.46 68.84 68.24 68.54 67.69 66.93 65.17 64.80 65.02 64.69 65.10 66.45 65.21 67.02 68.33 68.16 67.93 67.72 67.73 67.91 66.59 61.59
45.89 43.62 47.49 48.67 49.30 50.27 49.12 49.60 51.45 47.16 44.33 48.56 56.71 60.62 62.35 62.32 64.40 65.07 65.35 65.69 65.69 67.25 68.26 69.11 68.79 68.28 68.78 69.17 68.16 67.28 67.04 66.12 65.73 64.23 62.99 62.27 63.09 62.77 63.66 62.72 63.82 63.48 64.24 63.24 65.01 64.25 63.91 61.70 60.26
42.45 47.53 49.15 49.98 51.10 49.86 48.65 50.15 48.04 48.46 46.51 51.74 51.67 61.23 61.37 61.85 62.17 62.84 63.27 64.21 64.34 65.28 66.97 68.22 68.50 67.92 67.63 67.52 67.69 66.69 66.54 65.43 64.78 64.26 63.07 60.80 59.63 59.87 60.56 60.62 61.40 61.46 61.89 61.08 61.48 61.68 62.27 61.54 60.34
41.90 45.67 48.70 50.50 49.81 48.95 49.64 47.05 46.49 47.21 50.70 52.13 56.16 60.70 59.94 60.75 60.98 61.71 63.18 63.68 63.89 64.24 65.11 66.20 67.12 66.75 67.03 66.27 66.54 65.97 66.28 66.01 65.53 64.44 63.44 62.01 60.27 58.40 59.43 59.71 60.57 60.73 60.92 60.42 59.95 60.54 61.23 60.77 59.79
46.53 46.74 48.08 48.83 49.14 49.11 46.89 46.88 48.40 48.93 50.84 49.52 58.51 58.51 58.60 59.71 60.61 60.90 62.37 62.64 62.71 63.84 64.22 64.94 66.35 66.23 66.28 66.56 65.62 66.22 65.82 66.20 65.16 64.80 64.85 63.35 62.24 59.81 59.57 59.65 60.17 60.20 60.68 60.75 59.87 59.66 60.07 60.32 59.46
46.38 44.18 44.99 46.35 46.78 46.57 49.04 45.49 45.03 49.49 50.18 47.94 49.86 56.34 57.62 59.04 60.42 60.76 62.35 62.43 63.11 63.47 64.68 64.43 65.60 65.81 65.23 66.23 65.65 64.93 65.08 65.18 64.11 64.86 65.08 64.66 63.39 60.38 60.15 59.76 59.59 60.43 60.43 60.49 59.94 59.28 59.39 59.43 59.68
41.86 41.56 37.47 44.15 46.13 46.96 47.12 39.34 47.32 50.21 49.33 46.42 47.22 47.12 47.38 50.28 59.06 60.02 61.82 62.52 63.25 63.54 64.07 65.02 66.82 65.76 64.93 65.24 64.59 63.26 62.95 62.84 62.94 62.59 63.42 64.79 64.05 61.67 59.20 59.35 59.71 60.29 59.58 59.80 59.16 58.91 58.16 57.93 58.09
38.53 32.14 36.15 39.81 45.87 45.27 43.59 39.36 46.95 50.47 49.34 46.71 46.39 46.34 47.14 45.01 44.78 49.33 56.92 60.08 60.88 62.73 63.56 64.05 65.24 65.35 65.36 64.97 64.80 64.27 64.65 64.59 63.32 62.08 61.76 62.91 64.00 63.29 61.32 59.89 59.68 59.40 59.00 58.77 59.19 58.24 57.78 56.90 57.07
32.57 30.42 35.39 37.02 42.29 43.90 41.33 40.15 44.37 46.00 44.17 43.62 44.05 45.05 45.29 46.51 46.38 45.45 47.04 46.88 48.14 51.39 52.39 58.74 64.31 64.84 64.52 64.88 64.62 64.29 64.09 64.51 64.92 64.98 63.52 62.09 62.27 62.48 61.91 61.11 60.06 59.35 59.00 58.51 58.07 58.34 57.53 57.50 57.64
37.07 33.32 34.89 38.43 42.70 41.90 40.56 40.36 43.66 46.33 44.34 42.91 41.63 42.91 44.32 45.87 44.98 45.17 44.62 44.65 45.69 46.16 46.74 47.51 51.14 51.17 60.29 63.10 62.69 62.08 62.63 62.81 63.49 64.27 65.39 65.48 64.51 62.29 61.01 60.96 60.48 59.99 59.23 59.95 59.43 58.80 58.37 57.94 55.84
37.58 34.71 32.33 37.65 40.94 40.61 39.70 40.31 43.14 44.74 43.27 43.53 42.71 42.04 43.59 43.48 43.42 43.20 45.17 45.56 46.43 46.18 46.10 46.13 46.80 47.51 48.81 53.10 58.23 63.01 62.80 62.89 63.00 62.90 63.23 63.89 63.89 63.74 63.12 61.82 61.34 60.75 59.92 59.23 58.74 58.52 56.93 57.45 55.92
35.05 32.19 32.40 34.10 37.18 37.87 37.60 36.50 39.65 43.42 42.14 43.03 43.64 42.64 42.74 43.20 42.90 43.67 44.94 45.63 46.28 46.46 46.79 47.51 47.16 46.61 47.09 47.88 49.12 50.60 59.33 61.15 61.96 61.64 61.68 62.68 63.45 63.62 63.53 63.14 62.79 61.77 60.02 59.74 58.49 57.66 57.44 58.23 54.97
33.07 38.05 37.40 35.18 33.55 29.03 36.47 27.35 33.24 39.54 40.98 41.15 42.63 42.22 41.80 41.85 42.10 44.22 45.58 46.40 46.54 47.09 47.61 47.99 47.54 47.19 47.20 46.56 46.81 46.87 48.54 56.84 56.74 55.50 56.47 55.16 60.12 61.74 62.19 62.17 61.83 61.49 60.28 59.42 59.36 58.45 57.92 56.63 57.41
35.74 40.95 37.34 36.19 32.21 30.34 30.40 28.15 31.40 33.00 34.37 39.68 42.70 42.31 40.75 40.97 42.67 44.26 45.72 47.71 48.50 48.32 47.53 47.50 48.21 48.27 48.19 47.94 46.12 45.75 45.89 46.80 47.63 47.95 48.75 50.63 54.26 55.87 57.74 60.12 60.35 59.97 59.55 59.04 58.85 57.80 56.84 57.69 58.10
42.06 37.19 36.39 35.22 31.85 22.87 29.94 29.25 28.24 31.57 34.14 36.17 39.15 39.11 41.37 40.92 42.91 44.41 47.15 48.27 47.31 47.16 47.42 46.97 47.06 46.96 47.79 48.51 48.30 46.70 45.45 45.64 46.94 47.62 47.23 48.02 50.65 51.80 52.14 55.71 57.54 58.44 58.35 58.35 58.23 57.97 57.35 56.88 57.78
38.47 33.90 28.91 25.58 26.02 22.76 29.05 28.48 33.62 34.88 36.42 37.39 38.21 36.89 38.42 41.06 42.38 44.32 46.08 46.34 45.83 45.41 45.24 46.19 46.30 45.93 46.68 47.46 47.42 47.36 47.17 47.06 46.94 47.17 47.44 47.93 48.90 49.03 49.26 51.09 52.69 54.48 56.19 57.06 57.54 57.09 57.17 56.92 57.61
34.32 32.14 25.27 20.02 21.52 22.32 28.19 25.54 30.96 36.63 38.28 38.73 39.86 38.68 39.88 41.06 42.41 44.28 45.41 44.96 44.19 44.22 43.85 44.37 44.85 44.97 45.70 46.64 46.37 46.47 46.87 46.52 45.85 45.28 45.87 45.21 46.20 47.05 47.66 48.79 49.51 49.88 50.82 52.77 53.80 53.30 53.60 52.47 54.23
34.38 33.32 32.57 23.84 21.04 17.87 24.37 27.67 32.82 34.76 36.05 37.07 38.57 40.27 40.43 41.71 43.46 44.28 44.33 43.35 42.92 42.83 42.74 43.30 43.31 43.82 44.90 43.87 42.79 41.11 41.04 40.79 39.98 39.67 40.35 40.33 39.87 44.05 44.12 44.73 44.64 44.86 45.64 47.35 48.73 48.98 49.45 51.12 50.42
37.70 38.10 30.44 24.79 19.18 16.96 21.45 22.82 27.51 30.41 33.97 36.31 38.28 40.21 42.13 43.81 43.35 43.33 42.39 42.22 42.05 41.77 41.07 41.12 41.55 41.73 41.26 40.79 40.74 39.57 38.78 38.56 38.05 37.55 36.83 37.12 37.42 38.23 39.21 39.65 39.47 39.47 40.23 42.46 43.44 43.48 47.10 47.61 45.83
36.05 35.24 35.23 32.89 24.85 19.68 18.82 22.73 29.94 31.17 33.92 36.09 38.79 41.32 43.61 43.95 42.97 41.98 41.25 41.86 41.85 40.47 39.63 39.37 40.14 40.41 39.62 39.03 38.19 37.57 37.33 37.31 36.91 36.26 35.95 35.96 36.32 36.59 36.89 37.24 37.21 37.29 37.51 38.45 39.33 39.68 43.04 43.16 42.24
37.88 35.88 35.62 24.14 23.46 20.42 18.80 23.12 32.27 31.49 33.21 38.09 39.38 42.99 43.92 43.48 42.29 41.51 40.95 40.67 39.92 39.25 38.61 38.38 39.02 39.17 38.71 38.19 37.47 37.13 37.23 36.87 36.11 35.87 35.81 35.83 35.44 36.20 36.07 36.31 36.17 36.07 36.41 36.29 36.50 36.56 38.35 39.49 39.39

GFSSGP_sfc_wetblb_078.txt.gz
Wetbulb
65.06 60.95 57.27 52.80 42.49 40.42 35.54 39.47 41.20 43.27 41.60 45.36 46.31 47.88 48.00 53.34 52.40 47.60 62.32 67.41 71.58 72.55 74.25 74.81 75.89 75.81 76.12 75.84 75.00 74.74 74.59 74.01 72.98 72.25 71.61 71.36 71.73 71.61 72.11 71.20 70.48 70.06 70.01 69.84 69.46 68.63 68.23 69.33 69.40
62.36 60.67 53.27 47.46 38.84 33.21 35.77 40.69 41.86 43.41 44.98 48.80 51.31 52.84 54.15 53.59 60.32 63.10 65.67 70.56 72.33 73.20 74.00 74.14 75.62 76.05 75.86 75.54 74.77 74.47 73.77 73.16 72.83 72.23 71.57 70.48 70.51 71.37 72.26 71.49 70.74 69.92 69.16 68.72 68.42 67.66 67.57 68.39 67.77
62.65 59.51 48.57 43.12 37.14 34.72 36.66 41.75 43.54 46.85 47.69 45.74 48.51 55.83 55.52 55.78 61.86 64.09 65.24 72.08 72.64 72.71 73.50 74.13 75.66 75.93 75.73 75.33 74.90 74.33 73.73 73.46 72.55 71.69 70.52 70.32 69.86 71.04 72.62 71.65 70.60 69.53 68.71 67.83 67.36 67.18 67.45 67.91 68.46
57.01 53.53 49.10 41.22 37.11 41.34 41.54 42.95 46.13 46.76 48.07 46.15 50.73 53.24 58.18 61.58 63.57 65.27 70.68 72.40 71.89 72.55 72.42 74.43 75.34 75.66 75.41 75.20 74.96 74.47 73.52 72.19 71.48 70.96 70.98 70.60 70.48 71.09 72.49 71.22 70.13 69.31 68.65 67.66 67.15 67.00 67.85 68.26 68.21
55.84 48.86 42.83 39.33 40.69 44.06 44.76 46.93 46.47 45.81 45.50 45.22 51.26 52.66 54.90 62.02 65.60 69.81 70.96 71.90 70.84 71.77 72.43 73.95 75.16 75.35 75.16 74.98 74.78 73.75 72.72 71.63 71.05 70.86 71.63 70.87 70.86 71.69 72.54 70.74 69.83 69.32 68.82 67.84 67.38 67.24 67.84 67.94 68.00
49.96 46.97 38.26 37.55 39.88 45.02 46.06 47.42 46.17 44.84 45.10 47.23 54.97 52.92 54.35 61.53 67.21 68.89 70.43 70.24 71.25 71.54 72.75 73.45 73.67 74.35 74.57 74.67 74.10 73.43 72.90 71.90 71.03 71.16 71.97 71.92 71.48 72.03 71.65 70.21 69.58 69.35 68.88 68.15 67.47 67.37 67.64 67.64 67.47
45.87 42.34 38.05 39.34 41.09 44.02 46.57 49.54 45.83 45.13 44.04 43.91 56.46 51.08 55.06 60.57 67.35 68.64 68.47 69.88 70.82 72.00 72.32 72.38 72.26 72.68 72.93 73.42 72.98 72.77 72.27 71.51 71.42 72.54 72.79 71.59 71.88 71.21 70.97 69.68 69.40 69.26 68.93 68.20 67.61 67.13 67.10 66.94 66.84
48.02 43.41 38.72 39.00 41.68 43.35 49.15 49.61 49.12 48.48 45.32 51.14 56.30 52.93 54.63 61.06 67.25 67.23 68.36 68.77 70.59 71.06 71.60 72.06 70.83 71.25 70.77 70.72 71.26 70.91 70.62 70.40 70.95 71.46 70.25 68.93 69.47 70.00 70.57 70.02 70.11 69.36 68.57 68.01 67.78 67.21 66.88 67.27 67.14
52.54 42.70 37.62 39.97 43.53 45.71 49.71 48.18 50.38 52.02 47.40 48.07 59.44 57.37 61.30 64.87 67.15 67.10 67.85 68.49 69.50 70.26 70.06 70.58 70.64 69.89 69.76 69.33 69.20 69.68 69.45 68.99 68.97 69.09 67.74 67.12 66.35 66.89 67.10 67.17 68.42 69.32 68.41 67.51 67.17 67.22 66.96 67.83 66.20
47.32 41.57 40.29 44.88 47.20 47.38 49.53 48.98 48.88 48.28 47.53 48.89 52.77 59.72 63.62 66.13 66.21 65.58 65.71 65.85 66.66 67.22 68.20 69.11 70.38 69.07 68.90 70.15 68.07 67.16 67.42 66.68 65.58 65.43 65.66 65.31 64.93 65.07 66.25 65.08 66.97 68.32 68.21 67.89 67.18 67.44 67.89 66.26 61.26
45.08 42.35 46.51 47.75 49.20 50.94 49.19 49.44 50.28 47.03 44.31 45.83 47.43 50.84 59.67 64.82 65.31 65.02 65.71 65.46 65.89 67.24 67.73 68.70 69.28 68.04 68.43 68.57 67.29 66.52 66.27 65.64 65.16 63.32 63.65 63.76 64.03 63.28 63.72 62.75 63.51 63.07 63.90 62.51 63.75 62.91 62.76 61.21 60.17
41.69 46.08 47.75 49.76 50.41 49.70 48.55 49.18 46.54 46.77 48.10 50.35 50.71 51.76 57.73 62.12 63.80 64.48 64.55 64.86 65.78 66.59 67.25 68.11 68.49 67.59 67.49 67.39 67.25 66.27 65.63 64.90 64.34 63.83 62.53 61.06 60.71 60.93 61.16 61.08 61.05 61.05 61.24 60.47 60.17 60.61 60.69 60.85 60.04
44.01 47.06 49.43 50.33 49.26 48.25 49.01 47.59 45.77 46.45 49.58 50.71 51.13 56.48 59.63 60.12 61.93 64.00 65.10 64.27 63.99 64.61 65.49 66.83 67.28 67.19 67.11 66.43 66.25 65.69 65.43 65.16 64.61 63.91 63.00 61.33 59.64 58.76 59.30 59.54 59.56 60.32 60.38 59.99 59.17 59.43 59.97 59.99 59.74
45.54 46.96 48.23 48.84 48.31 48.48 46.42 47.35 48.26 49.82 50.26 50.31 50.98 50.40 58.38 59.56 60.43 60.59 62.02 62.86 63.27 63.87 64.65 65.64 66.61 66.54 66.39 65.70 65.40 65.47 65.41 65.44 64.63 63.99 63.64 62.30 61.07 59.37 58.65 58.84 59.15 59.45 60.20 60.04 59.50 58.87 59.05 59.22 59.11
47.55 44.23 44.11 45.64 47.25 46.70 48.39 44.29 45.40 49.44 49.71 48.86 49.26 48.64 54.99 58.96 60.86 61.33 62.02 62.20 63.01 63.47 64.63 64.57 66.17 66.19 65.82 65.57 65.17 65.11 65.39 65.73 64.74 64.61 64.29 63.46 62.41 61.01 59.83 59.02 59.01 59.45 59.65 59.84 59.32 58.61 58.26 58.19 58.82
42.92 43.55 38.65 42.87 46.68 47.43 46.28 38.97 46.74 50.00 48.96 48.28 48.58 48.41 47.43 55.27 59.57 60.95 62.43 62.59 63.17 63.38 63.81 64.43 66.68 65.95 65.36 65.45 65.34 64.68 64.24 64.39 64.54 64.09 63.92 64.59 63.96 62.42 60.16 59.59 59.40 59.62 59.34 59.12 58.64 58.27 57.48 57.21 57.32
39.77 35.62 35.99 38.68 46.26 46.29 44.68 39.88 46.91 49.85 48.87 48.18 48.56 48.18 46.97 46.47 48.47 57.08 59.98 61.69 62.23 62.84 63.43 63.79 64.67 64.92 64.82 64.59 64.57 63.76 63.53 63.16 63.13 62.85 62.36 63.17 64.53 63.65 61.53 59.99 59.61 59.29 58.75 58.39 58.38 57.67 57.34 56.60 56.64
35.04 34.54 36.25 34.57 41.30 44.03 42.49 39.87 46.44 48.45 48.39 47.66 48.44 45.52 45.96 46.22 46.75 46.38 48.83 51.15 50.85 55.03 60.59 62.63 63.90 64.25 64.34 64.01 63.77 63.34 63.27 63.70 64.09 63.39 61.73 61.67 62.69 63.20 62.13 60.73 59.24 58.56 58.18 57.69 57.13 57.65 56.66 57.22 57.12
36.34 34.05 33.77 36.77 41.92 40.96 41.17 40.54 43.93 46.26 46.89 46.36 47.63 47.76 44.30 45.58 45.30 44.47 44.39 43.95 46.72 46.37 47.93 50.92 60.67 60.81 63.19 62.70 62.07 61.72 61.79 62.19 62.97 63.89 64.70 64.26 62.07 61.40 61.34 60.98 59.92 58.84 58.31 58.67 57.72 57.33 56.87 56.79 55.75
37.07 33.63 30.95 35.90 40.52 40.01 40.26 39.95 42.99 44.44 44.36 45.60 46.06 46.50 42.38 43.30 41.76 42.23 43.36 42.68 46.24 46.12 45.98 46.36 47.46 48.07 50.74 57.87 60.95 62.10 61.93 62.19 62.52 62.40 62.79 63.34 63.93 63.64 62.08 60.47 60.03 59.64 58.99 58.27 57.98 57.64 56.15 56.74 55.52
33.87 32.18 31.24 32.67 36.53 37.78 37.95 36.49 39.28 43.28 44.51 44.74 45.41 44.44 42.55 42.88 42.68 41.89 43.34 44.26 45.56 46.37 46.63 47.29 46.42 46.31 46.61 47.15 48.71 50.33 57.93 59.92 60.53 61.79 60.93 61.54 62.36 62.79 62.93 63.08 62.39 61.17 59.75 59.39 58.41 57.30 57.34 57.31 54.58
31.51 37.26 36.79 35.53 33.59 30.21 35.57 28.67 33.77 41.01 41.70 42.38 44.72 44.41 43.14 42.42 41.05 42.23 43.67 44.50 45.40 46.41 47.12 47.14 47.25 47.31 47.09 46.21 46.50 46.44 48.28 53.97 55.26 53.44 52.61 52.65 55.63 58.26 60.48 61.43 61.61 61.41 60.23 59.41 59.05 58.01 56.98 56.82 58.02
34.91 39.45 36.48 34.53 31.14 29.92 29.21 27.86 31.89 34.15 34.98 41.12 44.59 43.32 42.46 41.99 41.37 42.82 44.21 45.58 46.50 46.44 46.31 46.97 48.08 48.54 48.59 47.70 46.02 45.36 45.16 45.68 46.34 46.82 47.49 48.71 52.52 53.48 54.09 55.95 59.03 59.70 59.32 58.89 58.73 57.67 56.95 56.51 57.74
41.55 36.78 35.32 33.00 29.90 26.85 28.58 29.04 29.62 32.87 35.20 37.07 39.61 42.60 44.57 41.35 41.07 43.12 45.17 46.83 45.89 45.97 46.00 46.26 46.82 47.19 48.54 48.96 48.31 46.31 45.01 45.85 46.90 47.69 47.80 48.46 49.75 50.34 49.98 52.26 53.74 58.20 59.34 58.51 57.69 57.48 56.88 56.79 58.01
37.93 34.29 23.71 21.10 26.17 23.92 27.73 26.74 33.19 35.41 37.31 38.00 39.22 39.39 40.17 40.88 40.59 43.34 45.45 45.37 44.97 44.97 44.78 45.56 45.88 45.56 46.82 47.18 47.27 47.29 46.70 46.50 46.41 46.84 46.75 46.81 47.42 47.26 47.24 48.84 49.53 52.06 54.83 56.67 58.52 58.47 57.98 57.46 57.57
34.13 33.16 24.06 18.63 20.28 21.32 26.89 24.74 30.70 36.23 38.85 39.57 39.97 39.37 38.78 38.53 40.31 43.68 45.17 44.46 43.80 43.64 43.36 44.12 44.57 44.53 45.74 45.68 45.28 45.13 45.30 44.88 44.04 43.74 43.93 42.63 43.86 44.71 45.41 46.07 46.27 46.40 48.15 51.77 54.01 54.42 53.68 52.22 54.04
34.04 30.44 31.71 26.67 20.18 17.17 23.91 26.88 32.32 34.18 35.21 36.25 37.00 37.57 37.80 39.31 41.31 43.43 43.90 43.08 42.52 42.30 42.67 43.28 43.47 43.84 43.38 42.43 40.87 39.70 39.50 39.25 38.58 38.27 38.66 38.42 38.45 42.07 41.00 41.16 41.55 42.00 43.52 45.59 47.38 49.38 50.64 50.06 49.59
37.11 36.59 29.24 28.43 19.82 17.80 20.74 21.47 26.06 31.26 33.52 34.85 36.64 37.41 38.32 40.62 42.31 42.62 42.03 41.61 41.53 41.32 41.08 41.24 42.36 41.77 40.45 40.06 39.39 38.51 37.77 37.74 37.23 37.10 36.52 36.78 36.87 37.72 38.23 38.43 38.65 39.13 39.98 41.85 42.73 43.34 47.78 47.23 45.84
36.27 34.45 32.81 30.11 25.19 18.37 18.08 22.72 29.28 31.14 33.33 32.74 35.78 38.38 40.08 41.33 42.41 42.03 40.72 40.90 40.66 39.50 39.19 39.40 40.04 39.65 38.72 38.28 37.61 37.12 36.75 36.61 36.19 35.73 35.62 35.78 36.22 36.51 36.49 36.86 37.00 37.18 37.38 38.08 38.99 40.95 44.20 43.18 42.33
38.50 35.72 35.26 28.94 24.08 21.39 17.62 25.44 32.08 32.03 32.66 33.17 36.28 40.56 41.87 42.60 41.89 41.05 40.22 39.97 38.84 38.31 37.95 38.10 38.74 38.50 37.80 37.40 36.85 36.57 36.57 36.23 35.72 35.36 35.58 35.99 35.60 35.95 35.64 35.89 35.65 35.51 35.73 35.45 35.79 37.22 39.84 39.84 39.41

GFSSGP_sfc_wetblb_081.txt.gz
Wetbulb
65.65 63.08 60.31 55.79 47.58 45.31 40.53 43.23 46.82 46.90 46.86 49.76 51.42 51.89 54.00 57.58 56.33 52.95 66.11 69.86 71.88 72.86 74.51 75.13 76.10 76.11 76.03 75.80 74.91 74.67 74.46 73.85 73.20 72.29 72.12 72.30 71.84 72.36 71.35 70.64 70.41 70.46 70.34 69.93 69.56 69.51 70.31 69.82 68.97
64.53 62.04 56.65 51.16 43.36 38.92 40.78 45.17 45.24 47.63 50.07 50.52 55.10 57.39 58.05 57.49 62.93 63.91 66.93 71.00 72.71 73.27 74.43 74.86 75.70 76.07 75.86 75.56 74.87 74.51 73.66 72.98 72.73 72.04 71.40 71.27 71.69 72.72 71.65 71.02 70.14 69.58 69.49 69.06 68.43 68.82 69.33 68.67 68.10
63.69 59.85 51.78 46.93 41.53 38.96 40.47 45.11 47.89 50.07 50.88 50.29 52.92 59.61 59.76 59.50 63.77 65.48 68.71 71.97 72.97 73.48 74.48 74.79 75.30 76.04 75.74 75.44 75.07 74.34 73.96 73.17 72.41 71.46 70.39 70.33 71.41 72.60 71.99 71.07 69.99 68.99 68.11 67.83 67.80 68.16 68.31 69.05 69.17
58.64 56.48 52.13 43.80 40.72 43.91 44.63 46.59 49.17 49.86 51.51 50.21 56.03 57.67 62.11 64.26 65.35 67.60 71.36 72.35 72.65 73.23 74.26 74.72 75.30 75.73 75.51 75.25 74.96 74.24 74.09 72.50 71.55 70.91 71.01 70.32 71.17 72.77 71.93 70.69 69.69 68.89 67.91 67.37 67.65 68.30 68.84 68.86 68.90
57.11 51.56 44.72 42.02 42.59 45.73 47.78 49.32 49.57 48.66 49.16 49.55 55.49 56.27 59.93 64.63 67.22 70.51 71.40 71.46 71.01 72.29 73.90 74.63 75.33 75.47 75.25 75.05 74.87 74.27 73.25 72.07 71.29 71.53 71.06 70.92 71.24 72.39 71.78 70.36 69.73 69.19 68.10 67.52 67.62 68.47 68.53 68.55 68.51
51.67 50.56 42.55 40.04 42.04 46.56 48.51 50.57 49.29 48.59 48.89 48.75 57.10 58.69 60.04 65.84 67.93 69.55 71.18 71.44 71.33 71.69 73.85 74.18 73.87 74.50 74.70 74.71 74.09 73.39 72.93 72.34 71.84 72.61 71.80 71.60 71.52 72.69 71.38 70.22 69.83 69.53 68.76 67.72 67.69 68.11 68.20 68.03 67.98
50.11 46.41 42.14 42.66 42.78 45.06 48.08 51.72 49.35 48.99 47.72 49.47 58.27 57.14 60.73 63.86 67.97 70.09 70.62 70.29 70.59 71.93 73.40 73.83 74.04 73.54 73.20 73.42 73.09 72.99 72.62 71.91 71.79 72.37 72.57 72.38 72.13 72.11 70.89 69.98 69.79 69.57 68.99 68.37 67.72 67.71 67.69 67.57 67.20
50.66 47.47 42.97 42.30 42.58 44.47 49.98 51.07 51.62 50.83 49.42 53.01 59.51 55.85 58.16 63.84 67.99 69.25 70.07 69.73 70.16 71.07 72.38 72.98 73.33 73.21 73.42 72.95 71.58 71.31 70.81 70.79 71.93 71.82 70.26 69.51 69.29 70.06 70.55 69.55 70.02 69.25 68.55 68.15 67.77 67.41 67.68 67.72 67.07
52.79 44.09 41.82 42.91 43.36 46.26 50.60 49.67 51.90 53.23 51.01 52.76 57.84 58.42 62.33 66.30 68.09 68.30 68.89 68.36 68.69 70.34 70.72 72.55 72.25 72.46 72.59 72.07 70.54 69.85 69.34 69.45 69.89 69.09 67.22 68.10 70.77 70.49 69.81 68.00 68.69 69.32 68.25 67.56 67.15 67.21 67.15 67.53 66.18
49.03 43.69 42.31 46.42 48.46 48.45 49.90 49.99 50.27 50.56 48.35 49.32 51.75 54.26 55.67 66.57 66.46 65.85 65.90 66.01 66.83 68.32 68.95 70.26 71.36 71.76 71.56 70.80 70.50 69.77 68.87 68.66 69.72 70.29 69.75 69.43 69.46 69.42 68.79 66.82 67.24 68.50 68.33 67.90 67.00 67.10 67.27 66.75 66.68
48.52 44.35 47.17 48.48 50.34 51.15 49.90 49.40 50.77 49.49 46.82 49.02 49.29 51.03 54.65 61.33 64.33 64.57 65.17 66.02 66.26 67.84 68.36 69.30 70.57 71.38 71.09 70.53 69.90 69.18 68.87 68.37 67.73 68.38 69.12 68.93 68.57 68.81 68.85 68.37 68.12 68.49 65.54 67.12 66.74 66.99 67.33 65.93 65.81
45.64 47.51 49.04 49.97 50.48 50.07 48.51 49.96 48.04 49.19 50.62 51.68 51.76 52.33 55.54 56.49 63.07 64.22 65.64 65.97 66.47 67.05 67.76 68.74 69.63 70.07 70.89 70.47 69.64 69.03 68.42 68.27 67.77 66.65 67.08 67.22 67.10 67.10 67.41 67.24 67.04 66.94 67.17 66.28 65.82 65.73 65.62 65.54 65.25
45.12 47.54 49.80 50.28 48.35 48.04 49.68 47.90 47.71 48.35 50.81 52.17 52.74 53.12 53.36 59.64 61.78 64.23 66.04 66.91 66.99 66.55 67.23 68.04 69.07 69.52 70.44 69.97 69.67 69.06 68.56 68.21 68.10 67.45 66.26 65.73 65.24 64.98 65.34 65.58 65.49 65.59 65.95 65.52 64.93 64.48 64.31 64.38 64.40
47.56 48.32 48.56 48.62 47.99 48.51 46.91 47.60 49.04 49.37 51.24 51.59 51.84 51.98 52.29 56.53 61.99 62.63 64.71 64.74 65.17 67.08 67.15 68.38 68.02 70.23 69.91 69.65 69.46 69.15 69.02 68.73 68.10 67.95 67.43 66.01 65.37 64.57 63.65 63.45 63.38 63.69 64.24 65.11 64.64 63.82 63.44 63.41 63.68
47.76 44.16 45.60 47.08 47.39 46.94 48.15 45.12 45.87 50.42 50.85 50.33 50.64 51.48 51.81 51.40 60.88 62.15 64.27 64.71 65.88 66.26 67.67 67.91 68.99 69.56 69.55 69.30 69.23 69.10 69.06 68.61 68.43 68.05 67.81 67.14 66.10 65.38 64.56 63.75 63.15 63.65 63.82 64.00 63.96 63.60 63.30 62.78 62.77
44.62 43.69 39.31 44.39 46.21 47.45 46.47 40.61 46.31 50.17 49.65 49.19 50.22 51.21 51.47 51.00 53.76 62.23 63.45 64.66 65.07 66.04 66.26 67.28 68.41 68.71 69.19 69.13 68.97 68.57 68.45 68.58 68.54 68.38 68.18 67.63 67.04 66.37 65.61 64.74 64.32 64.54 63.79 63.48 63.21 63.16 62.69 62.31 62.18
41.17 36.17 37.38 40.66 46.13 45.99 44.53 40.82 46.37 49.71 48.85 49.07 49.99 50.61 51.17 51.25 50.72 52.21 62.26 64.12 65.01 65.37 65.87 66.17 67.16 67.72 68.15 68.57 68.69 68.34 67.84 67.67 68.04 67.99 67.66 67.60 67.47 67.15 66.29 65.45 65.28 64.49 63.99 63.26 62.83 62.53 62.29 62.16 62.17
35.17 36.12 37.74 37.47 43.39 44.71 42.59 42.43 46.47 47.94 48.63 49.06 49.31 50.07 50.44 50.66 50.56 50.84 52.38 58.73 62.13 63.34 65.17 65.73 66.20 66.92 67.38 67.38 66.94 66.95 66.83 66.96 67.07 66.80 66.70 66.56 66.48 66.76 66.25 65.64 64.94 64.11 63.30 62.81 62.20 62.10 62.30 61.92 61.89
38.01 37.77 36.67 38.95 43.06 42.92 42.37 42.17 44.15 47.38 47.20 47.25 48.55 49.33 49.88 50.48 50.42 48.79 49.06 50.38 51.60 52.72 58.48 63.44 64.99 65.95 66.29 65.86 65.36 65.24 65.43 66.17 66.36 66.91 66.96 66.07 64.96 64.29 64.98 64.89 64.53 63.46 62.94 63.25 62.85 62.18 61.02 61.05 61.29
37.79 35.56 35.66 38.94 41.70 42.56 40.97 41.24 43.57 46.40 46.56 47.56 48.10 49.07 49.70 48.22 47.84 48.06 47.61 48.29 49.81 50.10 51.93 53.88 61.08 60.70 63.99 65.05 65.22 65.65 65.57 65.80 66.21 66.44 66.45 66.82 66.85 66.25 64.44 63.92 63.69 63.67 63.00 62.33 62.03 61.10 60.95 61.19 61.07
36.02 34.77 34.65 35.46 39.14 40.73 39.77 38.18 40.00 44.01 46.42 47.61 48.69 49.73 50.64 48.72 47.27 47.05 46.93 47.81 48.79 49.32 49.59 50.11 50.63 51.52 52.29 54.87 55.99 56.56 61.50 63.45 64.43 64.82 64.85 64.45 64.44 65.24 65.89 65.84 64.62 63.73 62.82 62.60 62.54 62.03 61.22 61.05 60.48
34.07 38.55 37.60 36.47 35.45 32.75 37.95 30.96 36.11 41.72 42.34 44.38 46.54 48.59 49.36 47.27 46.28 46.19 46.12 47.57 48.29 49.53 50.11 49.41 49.43 49.67 49.60 50.14 50.96 52.16 54.94 57.95 59.16 57.57 55.67 55.79 57.63 58.76 60.45 62.62 64.01 64.54 64.24 63.61 64.19 62.51 61.86 60.70 59.58
35.93 40.05 37.24 35.84 33.43 33.34 32.69 31.80 33.91 38.24 39.83 42.48 44.75 46.69 48.52 47.81 47.44 46.54 46.52 48.00 48.79 49.42 49.55 50.34 50.85 51.05 51.11 49.78 50.02 50.02 49.65 50.20 50.42 50.85 51.06 52.20 54.81 54.38 54.71 57.28 59.00 61.55 62.35 62.74 63.12 62.48 61.10 60.62 60.48
40.71 37.12 35.98 34.06 32.10 27.07 30.73 31.67 31.68 34.76 37.86 39.98 44.58 47.60 48.55 48.43 46.91 46.62 46.95 48.21 48.58 48.86 48.97 49.58 50.07 50.10 51.14 51.51 50.74 49.56 49.20 49.50 50.26 50.85 51.17 51.86 52.89 52.40 51.90 53.26 55.37 57.69 59.39 60.43 60.80 61.77 61.59 60.57 60.01
39.67 33.79 27.33 24.23 25.72 24.18 29.79 28.83 33.97 38.89 39.46 40.12 41.28 42.48 44.78 47.01 45.23 44.92 46.25 47.47 47.36 47.41 47.82 48.49 49.10 48.59 49.63 49.90 49.81 50.03 49.89 50.14 49.96 49.76 49.50 49.69 50.36 49.60 49.35 50.74 51.52 52.69 53.79 55.93 58.77 59.91 59.83 59.67 59.50
35.72 34.69 26.41 19.89 21.78 23.83 28.84 26.82 33.02 38.76 39.98 41.44 41.51 41.30 42.05 41.73 42.84 44.55 46.95 47.73 47.28 46.63 46.88 47.58 47.50 47.51 48.36 48.34 47.69 47.68 47.76 47.60 46.53 46.39 46.34 44.89 45.52 46.29 46.29 46.82 47.43 47.76 49.68 51.72 54.82 55.40 54.81 55.55 54.62
34.91 32.90 33.63 27.32 23.42 21.91 26.59 29.35 34.72 36.23 37.67 38.53 39.09 39.97 40.41 41.20 41.77 44.65 46.67 46.52 46.08 45.80 46.16 46.92 46.84 46.79 46.31 45.36 44.35 43.22 43.27 43.17 42.48 42.04 42.36 42.14 42.08 43.64 43.35 43.45 43.97 44.62 46.24 48.15 50.38 52.47 51.54 52.02 51.52
37.63 36.61 30.14 30.44 20.87 20.00 23.85 24.84 29.80 33.81 35.47 37.51 37.86 38.89 40.71 41.04 42.13 44.65 45.10 44.50 44.48 44.85 45.11 45.69 46.37 45.24 44.18 43.21 42.68 41.65 41.09 40.86 40.61 40.74 40.13 39.96 40.17 40.64 41.18 41.60 41.93 42.50 43.47 45.12 47.06 48.72 49.07 48.76 48.29
36.13 34.26 33.48 31.24 27.15 22.63 20.35 25.83 32.45 33.94 35.99 35.41 36.34 37.13 40.27 41.28 43.07 44.06 43.72 43.65 43.48 43.23 43.33 43.63 43.53 42.80 42.27 41.94 41.09 40.54 39.81 39.44 39.31 39.04 38.80 38.97 39.30 39.45 39.55 39.84 40.20 40.45 40.83 41.94 44.68 46.21 45.97 45.09 44.46
38.70 35.38 35.62 30.00 25.65 23.14 22.38 27.71 35.28 34.43 35.23 35.16 35.48 38.91 42.02 42.75 43.75 43.87 42.97 42.33 41.45 41.36 41.56 42.36 42.15 41.87 41.18 40.58 40.14 39.61 39.28 39.11 38.73 38.36 38.28 38.60 38.27 38.58 38.63 38.77 38.60 38.65 38.78 39.51 41.31 41.85 42.10 41.68 40.89

GFSSGP_sfc_wetblb_084.txt.gz
Wetbulb
68.29 66.21 65.86 60.56 50.14 49.83 45.91 46.84 51.75 50.44 50.30 53.78 55.29 54.55 57.55 61.45 59.03 56.61 69.87 72.45 72.93 73.64 75.03 75.25 75.58 75.71 75.60 75.49 74.63 74.66 74.31 73.81 73.27 72.66 72.37 72.33 72.27 71.45 70.70 70.69 70.85 70.61 70.32 70.23 70.94 70.77 69.94 69.21 68.91
68.13 63.97 61.86 57.36 47.34 43.64 45.31 49.63 48.73 51.79 53.96 55.76 58.54 59.08 58.20 58.55 65.23 66.53 68.83 72.36 73.23 73.96 74.94 75.01 75.58 75.78 75.50 75.19 74.39 74.01 73.32 72.79 72.83 71.83 72.00 72.15 72.87 71.83 70.96 70.17 69.91 70.05 69.65 69.20 70.05 69.75 68.88 68.52 68.04
66.30 62.93 55.86 51.04 47.38 44.31 45.44 49.65 51.84 53.55 54.78 56.54 56.88 62.12 61.99 62.08 66.11 68.07 71.31 72.88 73.21 73.95 74.66 75.09 75.59 75.67 75.37 74.94 74.75 73.95 73.24 72.76 72.07 71.43 70.98 71.74 72.93 72.19 71.09 70.10 68.99 68.43 68.51 68.42 68.82 68.93 69.39 69.40 69.46
62.59 60.14 56.89 47.90 45.21 48.30 48.27 51.50 52.78 53.25 54.13 55.22 57.56 59.70 65.06 67.42 67.25 69.64 72.43 73.24 72.98 73.95 74.94 74.59 75.53 75.61 75.22 74.88 74.71 74.21 73.47 72.37 71.30 70.72 70.46 71.23 72.57 72.27 70.92 69.87 68.78 67.99 67.89 68.21 68.78 69.25 69.19 69.17 69.87
61.90 58.34 48.90 46.50 46.56 49.34 51.59 52.80 53.15 52.75 53.33 54.42 58.34 59.32 62.27 67.42 69.59 71.44 71.91 72.09 72.50 73.44 74.27 74.61 75.42 75.52 75.25 75.08 74.65 74.54 73.34 71.94 71.35 71.14 70.71 71.18 72.46 72.24 70.80 69.98 69.18 68.12 67.69 68.04 68.81 68.98 68.94 68.83 69.75
55.08 55.66 46.59 44.25 46.30 49.96 52.28 53.93 53.14 53.31 53.21 55.49 58.33 60.56 62.99 68.05 69.08 70.20 70.99 71.73 72.04 72.77 73.32 74.66 74.13 74.63 74.83 74.76 74.70 73.62 73.17 72.18 71.87 71.96 71.69 71.43 72.68 71.93 70.81 70.15 69.75 68.67 67.99 68.07 68.57 68.65 68.48 68.31 68.85
53.49 50.73 46.82 47.44 46.78 48.13 50.78 54.78 53.07 51.99 52.19 54.69 60.53 58.71 64.08 65.57 68.95 70.74 70.86 71.97 72.01 73.21 73.09 73.99 74.53 74.04 73.41 73.46 73.21 73.06 72.82 72.33 72.65 72.81 72.63 72.34 72.50 71.62 70.75 70.23 69.93 69.51 68.33 67.90 68.10 68.18 68.07 67.71 67.29
55.58 52.70 47.61 48.43 46.86 46.89 52.69 53.78 54.91 53.96 52.97 58.84 63.74 58.80 61.32 65.24 69.21 70.60 70.31 70.30 70.72 72.17 73.02 73.45 73.86 73.75 73.47 73.33 71.78 71.71 71.36 71.18 71.55 71.74 71.00 70.02 70.21 70.53 70.65 70.11 70.00 69.36 68.73 68.16 67.64 67.78 67.73 67.49 66.64
55.21 47.14 45.50 47.45 48.23 49.95 53.87 52.06 54.62 55.90 55.68 56.78 57.67 58.34 59.57 66.57 68.90 68.82 68.54 68.84 69.24 70.79 72.55 73.10 73.34 73.20 72.65 72.67 71.56 70.21 69.77 70.59 69.95 69.23 68.05 68.91 71.43 71.17 69.84 68.42 69.20 69.14 68.31 67.76 67.59 67.33 67.93 67.23 66.24
50.66 46.23 47.86 52.03 52.21 51.33 53.23 53.32 54.06 53.19 54.06 53.93 55.51 58.64 58.64 66.90 67.36 66.84 67.25 66.49 67.42 68.94 70.30 71.76 72.84 72.62 72.69 71.81 71.92 71.48 70.11 70.75 71.24 71.07 70.56 70.38 70.59 70.39 69.96 67.90 67.87 68.44 67.97 67.30 67.03 67.20 67.29 66.51 67.44
51.46 45.34 50.03 51.48 53.10 54.09 53.21 52.95 54.24 52.87 51.16 53.38 52.98 55.73 58.74 61.25 65.69 66.71 67.63 67.45 67.52 69.10 69.83 70.66 72.09 72.80 72.39 71.74 71.81 71.48 70.75 69.69 69.80 70.48 70.54 70.02 69.80 69.67 69.27 69.22 68.44 68.85 66.16 68.03 66.87 67.27 66.80 65.47 65.98
47.84 50.83 51.22 52.52 53.71 53.20 52.41 53.92 52.38 53.10 53.65 55.37 55.67 57.14 60.18 57.23 63.58 64.44 66.40 67.37 67.66 68.44 69.35 70.04 71.31 72.46 72.41 72.11 71.63 71.34 70.57 70.26 69.59 68.94 68.80 68.85 68.70 68.50 68.45 68.06 67.73 67.66 67.64 67.13 66.92 66.10 65.65 65.39 65.16
48.24 50.23 51.56 51.61 52.12 52.34 53.18 51.96 52.35 52.37 54.60 55.26 56.19 57.03 57.06 58.65 61.43 64.70 67.69 68.77 68.84 67.53 68.13 69.42 70.24 71.16 72.12 71.96 71.42 71.32 70.87 70.45 70.36 69.55 69.23 69.52 69.18 68.72 68.69 68.37 67.12 66.78 67.32 67.13 66.76 65.95 64.60 64.39 64.47
49.76 50.98 51.22 51.54 50.45 51.15 50.49 51.01 52.01 53.64 55.08 54.75 54.93 55.79 56.94 56.44 59.69 63.97 66.59 67.80 67.56 68.12 68.09 69.00 69.28 69.98 71.91 71.55 71.46 71.40 71.53 71.28 70.74 70.33 69.98 69.43 69.40 69.03 68.42 68.09 67.05 66.60 67.17 67.56 67.58 66.80 65.92 64.88 64.58
50.40 47.03 49.51 49.75 50.94 49.95 51.03 48.29 48.98 54.29 54.93 54.19 54.81 55.49 56.45 56.77 56.93 62.49 66.08 66.66 68.19 67.65 69.01 69.33 69.01 69.44 71.34 71.21 71.66 71.63 71.71 71.31 70.68 70.58 70.55 70.22 69.75 69.30 68.46 68.23 67.68 67.57 67.76 66.83 67.12 66.94 66.67 66.01 65.69
46.27 46.73 42.21 48.37 49.70 49.93 49.43 44.62 51.23 54.01 53.59 53.42 54.62 55.47 55.97 56.28 56.64 56.87 64.81 66.88 68.26 69.08 69.78 70.80 70.32 70.72 70.85 71.29 71.78 71.73 71.72 71.36 71.09 71.11 70.90 70.33 70.10 69.86 69.28 68.39 67.99 68.34 68.00 67.55 67.20 66.74 65.94 65.91 65.94
44.19 39.17 41.01 43.61 49.66 48.67 47.95 45.53 50.20 52.56 52.15 52.24 53.93 55.06 55.58 55.98 56.45 57.33 57.16 66.33 68.13 68.83 69.25 69.20 69.53 69.78 70.94 71.63 71.76 71.68 71.39 71.01 71.12 71.28 71.13 70.84 70.28 69.99 69.55 69.17 69.01 68.90 67.93 67.43 66.90 66.32 66.00 65.61 66.01
36.92 39.48 40.90 41.15 46.04 47.15 45.76 45.65 49.23 50.94 50.73 51.97 53.43 55.08 55.29 55.53 55.88 57.04 55.85 61.19 67.28 68.72 69.23 69.00 68.65 69.60 70.20 70.97 71.12 71.20 70.96 70.70 70.96 70.93 70.93 70.82 70.47 69.93 69.63 69.21 69.13 68.96 67.78 67.09 66.67 65.93 66.64 66.10 66.21
42.91 41.31 40.49 43.15 46.57 45.19 44.77 45.43 47.72 50.33 50.47 50.59 52.05 53.96 54.67 55.51 57.28 56.50 54.68 55.40 60.92 64.21 66.80 67.11 67.82 68.86 69.57 69.22 68.82 68.97 68.55 69.38 70.07 70.62 70.86 70.46 70.05 69.38 68.58 68.65 68.51 68.29 66.97 66.67 66.85 66.57 65.73 65.39 65.69
42.11 40.17 39.26 42.22 45.14 45.41 44.78 44.27 47.61 49.15 49.63 50.67 51.30 52.73 54.49 55.21 56.07 55.39 53.71 53.74 56.57 61.12 61.97 64.80 66.40 67.92 68.10 68.50 69.23 69.39 69.31 69.59 69.72 70.05 69.82 69.83 69.72 69.36 68.70 68.55 68.01 67.15 66.65 66.28 66.33 65.84 64.63 64.67 65.16
40.79 39.45 39.78 39.52 42.89 45.66 43.14 41.71 44.48 48.25 49.85 51.06 51.73 53.02 55.10 55.08 54.96 55.08 54.04 52.92 54.04 56.02 57.60 59.44 62.76 66.16 66.87 67.26 66.84 66.36 67.48 67.88 68.04 68.19 68.11 68.28 67.89 68.46 68.43 67.94 67.64 67.46 67.13 66.35 66.47 65.89 64.52 63.22 65.12
37.41 42.49 41.86 40.55 39.83 35.24 43.26 35.08 41.94 45.83 46.36 48.62 50.32 51.61 52.68 54.45 55.18 54.76 52.92 51.55 52.19 54.01 54.95 55.11 55.32 56.89 57.52 58.33 62.54 64.60 65.96 65.55 66.69 66.13 64.51 62.78 61.45 62.38 62.83 63.01 64.36 65.06 65.70 64.91 65.50 65.94 65.04 64.38 63.11
39.13 43.04 41.94 40.62 39.81 38.51 37.97 35.00 40.77 43.91 43.46 46.31 49.19 50.78 51.28 53.11 54.78 51.71 52.20 52.50 53.09 54.28 54.53 54.71 54.47 54.50 54.16 54.69 56.01 56.64 56.39 57.19 56.87 56.64 56.17 57.16 58.63 57.85 57.66 59.11 60.67 62.01 62.99 63.52 64.06 64.27 64.06 63.45 62.26
43.62 41.21 40.77 40.09 38.62 31.30 36.93 36.36 37.65 40.78 42.95 45.45 48.90 50.90 50.61 51.27 54.07 53.21 54.58 53.88 52.80 53.64 53.27 53.60 53.80 54.20 55.11 54.71 54.16 54.32 54.38 53.88 54.03 54.52 54.76 55.47 56.36 56.37 55.58 56.28 58.38 59.77 60.19 60.75 61.86 62.63 63.00 62.45 62.18
42.40 38.91 30.91 29.85 29.98 28.69 35.67 34.92 37.91 43.58 45.63 46.23 46.59 48.67 51.32 51.47 52.75 53.34 52.14 51.72 52.52 52.40 52.66 52.91 53.45 53.21 54.49 54.81 54.73 55.00 54.91 54.83 54.34 53.99 54.44 54.26 54.88 54.51 54.07 54.25 55.59 56.85 57.03 57.92 59.67 61.26 61.09 61.21 60.18
39.12 38.30 31.50 23.19 25.75 30.30 33.71 31.42 38.21 44.80 46.43 47.36 48.02 48.07 46.79 48.01 49.55 50.99 52.20 52.11 52.24 52.26 52.54 52.64 53.10 52.53 53.33 53.62 53.27 53.83 53.96 54.05 53.41 52.98 52.91 52.07 52.34 52.24 50.91 51.46 52.22 52.16 53.28 55.55 57.10 57.99 57.63 58.20 58.05
38.56 34.88 38.77 32.19 30.37 30.16 34.14 36.79 42.07 44.91 44.58 45.33 45.23 45.88 46.70 48.03 47.23 46.52 48.88 50.79 52.35 52.14 52.11 52.51 52.42 52.13 52.15 51.58 51.06 50.38 50.38 50.05 49.39 48.71 49.63 49.24 48.49 47.83 48.36 48.50 49.01 49.54 50.47 51.82 54.09 56.95 55.51 54.27 53.44
40.30 41.81 32.80 34.42 25.87 24.30 30.53 32.22 35.77 39.74 41.70 43.53 44.17 44.34 44.95 46.70 47.08 46.88 48.26 49.55 50.83 51.13 51.65 52.18 52.45 51.64 50.69 50.06 49.79 48.84 47.86 47.56 47.28 47.83 47.18 46.50 46.54 46.25 46.60 46.84 47.03 47.48 48.15 49.42 51.52 53.03 52.09 51.91 50.19
36.31 35.63 36.72 36.17 34.19 28.70 27.40 32.16 41.17 40.33 41.95 42.12 44.13 43.77 44.67 46.01 46.44 47.05 48.68 49.12 49.19 49.90 50.32 50.97 50.70 49.55 49.21 49.11 48.20 47.50 46.48 45.91 46.03 45.82 45.46 45.15 45.09 44.71 44.87 44.85 45.15 45.42 45.95 47.42 49.93 50.04 49.47 48.78 48.41
40.71 37.76 38.02 31.86 29.28 32.54 31.11 32.82 41.05 41.43 41.75 42.46 44.24 45.17 46.34 46.39 46.91 48.02 48.45 48.33 47.82 47.88 48.17 49.25 49.31 48.88 48.59 47.98 47.24 46.43 45.56 45.32 45.14 44.41 43.90 43.88 43.84 43.64 43.39 43.64 43.72 43.87 44.10 45.41 47.04 46.39 46.42 45.91 45.28

GFSSGP_sfc_wetblb_087.txt.gz
Wetbulb
68.07 67.81 65.27 61.31 49.90 49.95 46.35 48.91 52.90 51.52 52.18 56.19 56.29 56.08 57.87 62.43 59.58 57.68 70.18 71.50 73.51 73.56 73.57 74.60 75.65 75.77 75.15 75.09 74.18 74.07 73.73 73.35 73.31 72.32 72.63 72.04 71.24 70.83 70.99 71.04 70.75 70.56 70.98 71.67 70.69 69.98 69.40 69.15 69.04
67.74 65.25 62.48 56.82 47.45 43.47 45.83 51.19 49.43 53.10 54.91 56.41 57.25 57.81 57.70 61.21 66.89 67.11 69.06 72.05 73.39 73.55 73.55 73.79 75.25 75.55 75.41 74.75 74.13 73.54 73.07 72.62 72.53 72.47 72.46 72.56 71.73 70.89 70.27 70.22 70.46 70.14 70.23 70.52 69.93 69.08 68.62 68.36 68.21
67.87 64.36 55.93 51.46 47.28 44.63 45.51 50.63 51.11 54.22 56.04 55.78 56.46 60.88 60.91 62.99 67.20 68.44 71.60 72.52 73.28 73.61 73.74 74.04 75.15 75.50 75.36 74.75 74.07 73.38 72.85 72.12 71.68 71.62 71.96 73.09 72.08 71.00 70.07 69.00 68.89 68.99 69.21 69.15 69.44 69.56 69.64 69.70 69.44
63.77 60.04 57.60 48.53 46.08 49.31 49.72 51.82 54.12 53.72 54.82 57.11 57.31 57.12 65.29 68.71 68.16 70.58 72.29 72.46 72.91 73.27 74.08 74.17 75.15 75.33 75.06 74.76 74.34 73.49 72.67 71.97 70.92 70.52 71.24 72.61 72.33 70.95 69.89 68.54 68.23 68.39 69.45 69.15 69.49 69.47 69.48 70.06 69.49
63.18 57.57 48.74 47.29 47.92 50.50 52.21 54.11 54.34 53.12 54.35 55.41 58.16 59.72 63.05 68.25 70.34 71.67 71.89 71.94 72.32 72.78 74.90 74.70 75.04 74.97 74.84 74.78 74.43 74.27 72.71 71.56 70.99 70.61 70.73 72.40 72.44 70.98 70.08 68.88 68.19 68.03 68.67 69.10 69.17 69.22 69.18 69.91 69.59
55.52 55.88 45.99 45.02 47.75 51.14 52.91 54.77 54.05 53.75 54.66 56.56 57.94 60.55 63.72 69.23 69.66 71.13 72.07 71.79 72.81 73.01 73.08 74.50 73.99 74.37 74.57 74.41 74.22 73.76 72.92 71.88 71.53 71.57 71.42 72.03 72.16 70.98 70.38 69.72 68.49 68.16 68.28 68.83 68.92 68.86 68.61 69.21 69.10
54.27 50.99 47.61 48.35 47.31 49.23 51.74 55.48 53.26 52.85 54.06 56.70 61.74 58.54 64.56 66.26 69.60 70.60 71.04 72.17 72.59 73.38 71.91 73.32 74.20 73.73 73.42 73.72 73.19 73.08 72.63 72.28 72.54 72.36 72.37 72.50 71.96 71.27 70.51 70.19 69.58 68.35 68.15 68.36 68.57 68.30 68.06 67.74 67.93
55.96 52.35 48.35 48.91 46.69 48.03 53.30 54.26 55.72 54.51 53.44 61.51 64.18 59.35 61.29 65.78 69.88 70.69 70.71 70.69 71.96 72.58 71.80 72.72 73.32 73.23 72.93 72.99 71.80 71.78 71.66 71.57 72.31 72.01 71.14 70.36 70.14 70.43 70.57 70.33 70.05 69.12 68.27 67.76 67.94 67.89 67.89 67.22 66.57
56.94 49.13 46.09 48.04 48.29 49.68 54.43 52.58 55.69 57.25 56.65 57.50 59.37 60.20 62.01 66.47 69.40 68.91 68.73 68.99 70.47 70.84 71.18 71.88 72.54 71.71 71.62 72.20 70.91 70.20 70.01 70.39 70.28 69.60 68.72 68.90 71.28 70.61 68.81 68.33 69.25 69.04 68.25 67.90 67.48 67.42 67.76 66.91 66.30
51.17 47.76 48.23 52.40 52.63 51.28 54.14 53.40 53.90 54.43 54.81 55.18 56.68 61.28 65.13 67.17 67.60 66.80 66.93 66.94 67.73 69.35 70.39 72.02 71.47 71.21 71.37 71.31 71.18 70.81 69.97 70.33 70.94 70.53 70.40 70.95 70.28 70.05 69.65 68.07 68.41 68.65 68.06 67.63 67.37 67.40 67.45 66.58 66.74
51.72 47.30 51.72 51.80 52.71 54.56 53.86 53.92 55.67 53.15 52.50 54.99 54.21 58.04 62.76 65.96 66.53 66.83 66.88 67.58 67.49 69.61 70.94 71.06 70.45 71.10 71.03 70.79 70.61 70.88 70.20 70.21 70.45 70.35 69.86 69.47 69.16 69.26 68.44 68.96 67.81 68.03 66.03 67.25 66.45 66.68 66.16 65.95 65.22
48.09 51.55 50.94 52.59 53.03 53.68 52.86 55.24 53.40 54.12 55.11 57.05 57.26 59.13 62.37 62.38 64.87 64.92 67.19 67.50 67.83 68.12 69.85 70.17 71.83 71.35 71.27 70.73 70.51 70.67 70.04 69.49 69.09 69.60 69.50 68.51 67.80 67.86 67.68 67.29 67.09 66.97 66.91 66.26 66.25 65.21 64.96 64.99 64.76
48.53 48.90 52.02 53.28 53.92 53.97 54.62 53.02 53.05 54.15 56.35 57.22 57.46 58.54 59.93 62.32 63.57 64.89 66.37 67.96 68.38 68.13 69.53 70.15 71.77 71.27 71.57 70.38 70.89 70.70 70.18 70.00 69.86 69.21 68.39 68.80 68.65 68.08 68.04 67.79 66.72 66.05 66.45 66.58 66.17 65.57 64.07 63.72 63.85
51.05 50.39 51.18 52.11 52.17 53.29 52.09 52.46 53.20 54.57 57.06 56.15 56.02 56.63 58.49 58.84 63.02 63.63 64.70 66.92 67.96 68.00 68.13 69.30 69.95 70.68 71.57 70.78 70.03 70.29 70.48 70.49 70.60 70.14 69.51 69.20 69.10 68.67 68.09 67.78 67.01 66.57 67.12 67.41 67.38 66.45 65.66 64.84 64.38
50.44 46.87 49.00 50.20 51.33 50.80 52.92 49.31 49.99 55.06 56.30 55.33 55.79 56.32 57.17 58.45 59.47 64.43 66.31 66.65 67.96 68.35 68.64 68.52 68.95 69.97 70.20 70.70 70.24 69.77 70.25 70.03 70.30 70.04 70.18 69.78 69.39 68.92 68.29 68.16 67.90 67.67 67.73 67.06 67.23 67.20 66.89 66.25 66.14
46.73 47.27 42.50 48.15 50.52 51.36 50.72 43.93 51.35 54.90 54.75 54.13 55.21 56.30 56.72 57.78 58.45 58.98 63.01 66.73 68.21 69.27 69.27 69.93 69.29 69.09 70.00 70.53 69.90 70.06 69.75 70.62 70.30 70.43 70.06 69.78 69.65 69.74 69.09 68.36 68.07 68.45 68.21 67.95 67.39 66.95 66.42 66.31 66.13
44.87 39.45 41.58 44.39 50.51 49.64 48.81 45.21 50.91 54.60 54.04 53.53 54.45 55.43 56.17 57.04 58.23 58.87 59.02 63.76 67.54 68.71 69.42 69.59 69.81 69.78 69.96 70.25 71.07 70.95 69.53 69.48 70.16 70.63 70.35 70.09 69.90 69.94 69.56 69.17 69.12 69.08 68.38 67.80 67.37 66.96 66.67 65.91 66.11
38.23 39.70 41.92 42.10 47.27 48.60 46.86 46.21 50.42 52.33 52.36 52.60 53.65 54.70 55.56 56.22 57.61 58.22 57.36 58.28 66.92 68.50 69.24 69.47 69.84 69.78 69.82 70.59 70.76 71.11 70.61 70.09 69.65 69.77 70.11 70.69 70.55 70.07 69.62 69.34 69.20 69.35 68.48 67.84 67.65 66.93 67.10 66.42 66.28
42.56 41.69 41.13 43.94 47.36 46.22 45.46 46.12 48.49 51.24 51.65 51.42 52.78 53.82 54.57 55.77 58.42 58.13 56.89 55.75 62.19 67.50 68.48 69.21 69.07 69.48 69.50 69.22 68.62 68.70 68.52 69.71 70.15 70.41 70.76 70.65 70.49 70.30 69.80 69.39 69.09 69.20 68.35 67.95 67.70 67.25 66.17 66.13 66.85
43.15 41.16 40.98 43.27 46.40 45.23 44.80 44.43 47.73 49.89 50.63 51.72 52.12 52.93 54.07 55.81 57.30 57.25 55.85 54.83 55.70 62.72 66.02 68.10 68.68 68.91 69.13 69.40 69.64 69.75 69.96 70.04 70.50 70.74 70.65 70.82 70.52 70.46 69.40 68.63 68.51 68.70 68.11 67.49 67.05 66.85 65.58 65.56 66.14
41.84 40.52 40.51 40.62 43.89 45.73 44.21 42.13 44.88 48.79 50.63 51.61 52.50 53.28 54.10 55.03 56.08 57.41 56.01 55.59 55.20 58.41 62.19 64.40 66.89 68.30 68.87 69.33 68.83 67.34 67.56 68.41 68.35 68.65 68.88 69.23 69.24 69.37 69.07 68.14 67.52 67.30 67.07 66.20 66.40 66.10 64.76 62.99 65.09
37.94 44.05 42.68 41.26 39.98 36.06 44.09 34.33 42.28 45.82 47.26 49.33 50.93 52.25 52.92 54.80 56.92 57.60 56.56 55.63 54.25 56.57 60.12 59.50 63.00 65.89 66.76 64.34 65.70 64.99 65.04 65.39 66.89 67.16 67.85 66.39 63.84 64.54 64.38 64.21 64.37 64.95 65.67 65.32 65.13 65.40 64.79 63.74 62.14
40.02 44.68 42.55 41.74 39.36 39.24 39.56 35.80 40.74 45.69 44.62 47.21 49.86 51.50 52.66 54.36 56.37 57.08 56.64 55.52 55.14 56.57 56.98 57.16 57.49 58.82 59.10 59.88 61.93 63.48 63.61 63.41 61.11 59.70 59.71 59.73 60.02 59.40 58.95 59.80 60.88 62.24 62.94 63.74 63.80 63.91 64.17 64.65 63.20
45.23 42.37 42.09 41.38 38.90 31.75 37.83 36.81 37.82 42.02 44.45 46.62 49.39 51.09 52.36 53.33 54.73 56.95 56.41 55.72 54.58 56.02 55.95 56.49 55.41 55.51 55.52 55.63 56.13 57.17 57.40 56.21 55.32 55.77 55.51 56.14 57.02 57.27 56.61 56.81 57.98 59.49 60.14 60.67 60.93 61.83 62.64 62.99 62.69
42.74 38.95 31.52 28.83 29.30 29.15 38.52 36.22 39.03 44.36 46.40 47.05 47.48 49.46 52.00 53.44 53.92 54.59 54.90 54.82 55.03 54.63 54.50 54.52 54.56 53.96 55.56 55.75 55.51 55.41 55.71 55.62 55.79 55.46 55.19 54.85 55.13 55.31 55.04 54.80 55.64 56.43 57.66 58.40 59.28 59.96 59.72 61.50 61.49
38.99 38.81 32.46 24.65 27.52 31.11 37.00 31.68 37.75 45.25 47.42 48.37 49.18 49.68 49.43 50.59 53.59 54.02 55.01 55.68 54.27 54.20 53.53 53.38 54.07 54.05 54.76 55.16 54.94 55.60 55.80 55.48 54.95 54.55 53.96 53.32 53.43 53.25 52.21 52.35 52.89 53.16 53.58 54.92 57.18 58.61 58.73 58.50 58.50
38.61 36.31 41.41 33.88 34.49 30.84 34.61 37.88 42.41 44.77 45.49 46.69 47.21 48.20 48.93 49.80 50.17 51.42 52.05 51.64 53.93 53.64 53.49 53.53 53.93 53.72 54.04 54.15 53.67 53.44 53.29 52.99 52.07 51.45 51.45 51.01 50.15 49.30 49.37 50.07 50.22 50.80 51.17 52.05 53.59 56.36 56.05 54.75 53.91
40.72 42.67 33.40 35.02 25.76 24.22 31.74 33.83 35.61 40.48 42.69 44.89 45.28 45.93 47.37 47.93 49.46 50.34 49.71 50.25 52.74 53.69 53.73 53.97 53.82 52.95 53.15 52.74 52.53 51.51 50.65 50.38 49.87 49.71 48.97 48.49 48.19 47.76 47.88 48.01 48.18 48.48 48.90 49.73 51.21 53.54 53.40 53.00 52.00
37.58 36.11 37.48 36.93 34.37 28.18 28.06 32.74 42.05 42.18 43.83 43.54 45.28 46.51 47.24 47.88 48.52 49.49 49.89 50.74 51.98 52.69 52.80 52.58 52.75 52.29 51.49 51.34 50.41 49.72 48.82 48.43 48.42 47.75 46.99 46.57 46.62 46.38 46.35 46.36 46.54 46.66 46.85 47.78 49.44 50.75 50.74 50.73 50.19
40.76 37.40 37.50 32.00 30.02 33.47 32.35 32.76 43.20 43.65 43.55 44.52 46.24 47.52 48.60 48.47 48.71 49.17 50.26 50.54 50.22 50.19 50.76 51.53 51.58 50.71 50.76 50.48 49.79 49.18 48.13 47.77 47.29 46.46 45.82 45.76 45.35 45.24 44.66 45.02 45.06 45.09 45.17 46.07 47.41 47.76 47.41 47.48 46.87

GFSSGP_sfc_wetblb_090.txt.gz
Wetbulb
67.12 66.63 65.71 59.65 48.98 45.99 42.12 45.17 50.72 51.66 51.28 52.31 54.25 53.99 57.86 61.56 58.35 54.54 67.64 70.59 71.37 71.30 73.28 74.43 75.57 75.47 75.25 74.90 74.28 73.93 73.94 73.72 73.29 73.20 71.82 71.04 71.22 71.46 71.23 71.13 71.27 72.34 71.66 70.77 70.16 69.65 69.61 69.34 68.75
66.04 65.43 60.49 55.24 44.44 39.01 41.64 48.21 47.57 50.19 52.64 54.66 56.50 56.52 57.74 59.31 64.75 64.13 65.37 71.49 71.67 71.93 72.36 73.47 75.34 75.21 75.30 74.84 73.82 73.90 73.65 73.18 73.39 73.42 72.39 71.35 70.67 70.35 70.70 70.39 70.67 71.18 70.14 69.92 69.26 68.82 68.76 68.89 69.22
66.06 65.84 53.96 49.56 43.88 40.87 41.92 48.43 49.28 52.22 53.92 52.73 54.19 58.21 59.68 61.46 65.82 65.54 69.49 71.62 71.53 71.26 72.18 73.53 75.17 75.52 75.28 74.72 74.12 73.68 73.24 72.21 72.46 73.02 73.24 71.72 70.80 69.60 69.27 69.80 69.70 69.98 69.44 69.70 69.64 69.85 69.98 69.67 69.62
62.04 59.07 55.36 44.64 42.99 46.08 47.46 48.89 50.91 51.78 52.41 53.87 54.99 58.81 63.91 67.21 65.71 68.10 70.45 71.40 71.00 70.61 71.93 73.49 75.01 75.35 74.82 74.43 74.08 73.64 72.34 71.93 71.52 72.19 73.36 72.57 70.85 69.48 68.53 68.80 68.99 69.58 70.14 69.55 69.57 69.92 70.38 69.43 69.82
61.32 55.72 46.59 44.00 44.39 47.82 49.97 52.85 52.09 51.03 51.55 52.85 53.98 58.59 61.45 66.72 68.75 69.17 69.45 71.01 70.15 70.79 72.22 73.74 74.92 74.94 74.78 74.46 74.08 73.37 72.07 70.96 71.05 71.62 72.66 72.12 71.11 70.02 68.43 68.30 68.71 69.21 69.39 69.36 69.46 69.79 70.18 69.77 69.94
54.29 54.26 42.81 41.60 44.80 49.17 51.00 52.45 51.26 51.56 51.79 53.91 54.36 60.44 61.92 67.80 67.83 68.22 68.99 69.68 71.66 71.86 72.31 73.33 73.50 74.03 74.43 74.32 74.18 73.20 72.51 72.01 71.81 72.15 72.93 72.12 71.24 70.52 69.39 68.33 68.34 68.96 69.30 69.33 69.26 69.05 69.62 69.45 69.04
51.90 48.96 44.38 44.50 45.16 47.72 50.06 52.74 49.99 50.39 51.03 54.89 60.21 58.26 62.90 65.65 68.54 69.28 68.79 69.62 72.01 71.99 71.97 72.52 72.86 73.08 73.11 73.45 73.05 72.82 72.43 72.08 72.07 72.39 72.84 72.16 71.43 70.85 70.33 69.09 68.45 68.61 68.99 69.03 68.79 68.53 68.15 68.36 68.18
54.36 50.63 45.46 46.07 45.31 46.43 51.19 52.37 54.28 52.60 51.40 59.86 60.64 57.61 60.05 65.54 69.60 69.48 69.14 69.74 70.42 70.51 71.42 71.72 71.89 72.01 71.37 71.09 71.54 71.46 71.51 71.89 71.98 71.69 71.19 69.87 69.66 70.07 70.69 69.96 69.56 68.43 68.33 68.41 68.42 68.22 67.84 67.18 66.64
56.31 46.73 43.13 45.84 46.83 47.68 52.54 51.22 54.33 55.88 54.90 56.00 57.63 58.50 62.83 68.24 69.47 68.01 67.15 67.83 69.02 69.73 70.88 71.37 71.21 70.74 70.70 70.09 69.85 69.96 70.05 70.25 70.09 69.84 68.67 67.94 68.60 68.57 68.10 68.00 68.67 69.20 68.59 67.87 67.78 67.88 67.83 67.17 66.23
50.31 45.30 46.24 50.70 50.13 49.41 51.91 51.77 52.14 53.09 53.16 53.35 56.79 63.19 65.81 67.03 67.42 66.18 65.38 65.34 66.55 67.73 69.44 71.45 70.94 70.06 70.47 70.17 68.26 66.97 68.00 68.08 68.26 68.88 68.17 68.78 67.87 66.94 68.15 66.81 67.92 68.78 68.29 68.05 67.97 67.69 67.90 66.37 63.02
49.87 45.18 50.55 51.34 52.76 52.94 51.85 51.80 53.29 51.92 50.95 53.28 52.80 60.50 64.34 65.94 66.16 65.95 66.53 66.33 65.56 68.46 69.25 70.18 69.89 70.18 70.16 69.77 68.16 67.93 67.04 67.47 67.92 67.64 67.57 67.37 67.02 66.23 66.82 65.83 65.89 65.07 65.12 64.53 66.13 65.77 64.53 62.22 61.15
45.81 49.92 50.46 52.27 53.24 52.52 52.06 53.72 51.21 51.38 52.18 55.56 56.59 61.86 63.80 65.10 65.41 65.98 66.29 66.62 66.29 67.21 68.65 69.64 70.12 69.77 69.93 69.90 67.68 68.35 66.53 66.03 66.61 66.91 66.75 64.54 63.98 63.94 63.04 65.82 64.54 64.35 63.15 62.89 62.38 63.13 62.34 61.08 60.86
45.25 46.55 51.28 52.10 52.83 52.53 53.71 52.18 51.40 51.48 54.14 55.67 56.85 60.71 61.76 63.18 65.11 65.28 66.55 67.36 66.84 66.10 67.92 69.01 69.86 69.73 69.48 68.91 67.70 68.44 66.01 65.58 65.52 65.37 65.46 64.38 63.74 63.43 63.42 63.23 62.16 61.73 61.72 61.50 61.29 60.89 59.61 59.34 59.32
47.26 46.63 48.93 51.24 52.14 51.95 50.55 51.70 52.20 52.44 54.13 53.81 55.35 55.92 58.56 61.75 63.71 64.14 64.74 66.26 66.22 67.21 67.55 68.39 68.83 69.31 69.52 68.68 68.53 68.18 66.72 66.61 66.53 65.64 65.27 65.29 65.20 64.53 63.94 63.47 62.45 61.77 62.54 62.93 62.83 61.63 60.95 60.05 59.31
48.21 43.51 47.55 49.39 50.42 50.45 52.30 47.81 48.57 52.04 53.81 52.60 53.11 53.64 55.98 57.02 61.41 62.57 63.90 65.05 66.75 66.70 67.34 66.92 68.41 68.93 68.39 69.08 68.27 68.18 66.83 68.13 67.84 66.78 66.51 65.96 65.71 65.02 64.47 63.80 63.30 62.96 62.79 62.94 62.88 62.96 62.71 62.02 62.52
45.12 45.43 39.61 45.88 49.00 50.43 49.81 40.95 49.52 52.82 51.60 50.86 51.53 52.26 53.77 55.94 57.27 57.97 64.52 65.79 67.32 66.51 67.14 67.15 68.72 68.46 68.74 68.69 69.11 68.26 68.22 68.19 68.12 66.74 66.74 66.89 66.48 66.11 64.90 64.49 64.24 64.57 64.11 63.72 63.08 62.58 62.11 61.98 61.91
41.97 36.84 38.48 41.88 48.56 48.34 47.00 41.53 48.37 52.99 50.82 49.95 50.24 50.54 52.61 53.85 55.75 56.26 58.26 63.18 66.36 67.86 67.53 67.77 67.78 68.01 68.15 68.07 68.91 67.95 68.28 68.07 68.02 67.89 67.16 66.57 66.79 67.06 66.14 65.56 65.33 65.06 64.25 63.60 63.68 63.05 62.57 61.70 61.82
35.58 36.58 39.67 39.59 45.14 46.43 45.05 43.58 47.23 50.15 50.53 48.69 48.42 49.95 50.60 52.56 54.31 55.77 55.94 57.11 63.74 65.09 67.79 67.29 67.92 67.70 67.82 68.38 68.34 67.97 68.47 67.69 67.79 67.36 67.79 67.46 67.19 66.98 66.41 66.04 65.80 66.31 65.49 64.17 63.83 63.13 63.24 62.53 62.30
41.34 38.97 38.34 42.12 46.97 44.72 43.49 44.36 45.56 48.39 48.91 47.54 47.91 48.91 49.85 51.29 54.63 54.78 53.78 53.73 59.26 64.88 65.82 66.07 66.19 66.99 66.67 66.37 65.69 65.53 64.99 66.02 67.00 67.79 68.12 67.97 68.11 68.03 67.31 66.41 66.51 65.80 65.03 65.28 64.38 64.86 63.51 62.65 62.92
39.70 37.23 37.04 41.83 45.52 44.31 42.70 41.94 45.19 46.89 47.62 48.44 48.41 48.10 49.18 50.42 52.16 52.80 51.46 51.70 57.56 62.39 64.34 65.88 66.08 66.45 66.31 67.05 67.13 66.03 66.33 65.80 66.23 67.05 67.39 67.63 67.37 67.97 66.88 66.13 65.75 66.61 66.05 64.66 64.02 63.54 62.69 62.67 62.63
39.89 37.58 37.66 38.50 42.17 41.65 39.02 37.65 41.05 45.37 46.75 47.89 49.20 49.19 49.74 49.67 49.38 51.90 50.05 50.02 51.67 57.44 61.58 63.65 65.22 65.77 66.17 66.87 65.77 64.40 64.93 65.92 65.89 65.67 65.95 66.44 67.03 67.59 66.41 66.08 66.04 65.76 65.51 64.88 64.69 64.52 63.47 62.10 62.75
36.14 43.00 41.43 40.12 37.06 30.91 40.24 27.92 37.09 42.52 43.72 45.79 46.11 46.81 48.16 49.10 50.87 52.28 51.78 50.06 49.83 52.07 59.23 60.83 63.08 64.98 65.45 65.00 63.85 63.34 63.15 62.60 63.41 64.52 65.51 62.49 61.82 61.80 61.94 63.12 63.67 63.96 64.31 64.18 64.24 64.38 63.62 62.91 61.37
39.06 43.31 41.45 40.60 36.52 34.23 36.18 30.81 34.35 39.76 40.91 43.68 45.72 46.46 47.93 49.05 50.20 51.59 52.24 50.89 51.01 53.27 53.89 54.94 57.26 60.98 61.33 60.50 62.59 62.93 62.35 61.11 59.38 59.51 59.28 58.95 57.96 57.25 56.96 57.11 57.55 58.98 60.86 62.23 62.62 62.50 62.72 63.05 62.25
44.95 40.78 39.82 37.98 35.26 26.56 33.63 32.56 31.46 35.73 39.03 41.63 44.69 47.28 48.43 48.83 49.97 52.01 52.43 51.51 50.49 52.12 52.66 53.29 54.24 55.22 54.54 56.48 56.36 58.32 59.35 53.48 52.96 53.53 53.24 53.34 55.08 54.42 53.99 54.79 55.16 56.32 57.11 57.10 57.47 57.87 59.28 60.46 60.44
41.02 36.11 28.05 25.44 26.58 23.09 34.77 32.26 34.41 39.68 41.67 42.00 43.14 42.90 45.29 48.15 49.17 50.57 50.73 49.63 49.71 50.62 51.04 51.59 51.80 51.83 52.54 51.79 51.46 52.30 52.01 51.31 51.53 51.62 51.48 51.21 51.83 52.43 51.62 52.29 52.33 52.78 53.32 54.79 55.79 56.23 57.28 58.07 58.82
36.77 35.58 29.22 22.11 21.90 24.67 34.60 27.15 32.59 41.08 42.58 43.87 45.50 44.53 44.95 45.03 46.24 49.62 50.52 50.02 49.90 50.90 51.47 50.41 50.88 51.38 52.08 51.81 51.62 52.36 52.53 52.01 51.93 51.60 51.05 49.82 49.87 49.30 49.21 49.20 49.67 49.93 50.43 51.01 52.11 55.41 56.71 55.40 56.18
35.67 30.81 38.18 31.80 30.95 23.64 29.57 33.05 38.26 40.82 41.15 41.35 41.80 43.36 43.22 43.02 44.46 48.10 48.65 49.72 50.04 50.90 51.59 51.20 51.73 51.16 51.76 51.62 51.40 50.95 50.19 50.29 48.64 48.24 48.54 47.78 46.66 46.85 46.39 47.15 47.15 47.61 47.96 48.69 49.64 50.74 54.83 53.95 53.17
39.44 40.34 30.81 29.05 18.30 19.78 24.66 27.52 30.61 35.35 38.62 41.71 40.09 40.59 42.14 43.02 42.68 44.83 46.14 47.76 48.56 50.52 52.10 51.56 50.80 51.17 51.01 50.54 49.48 49.20 48.42 47.83 47.32 47.32 45.65 44.90 44.83 44.77 44.86 44.95 45.03 45.05 45.60 46.28 47.04 48.90 52.43 52.21 51.15
36.68 35.96 36.55 34.14 29.60 20.17 20.54 26.41 35.11 37.06 39.01 39.45 40.82 42.60 43.27 43.63 43.27 44.08 44.57 46.42 48.20 49.06 50.56 51.14 51.27 50.43 49.37 49.18 47.83 46.70 46.26 46.12 45.92 44.40 44.11 44.06 43.92 43.81 43.53 43.46 43.48 43.35 43.41 43.97 44.55 46.86 47.32 48.09 49.39
39.84 36.97 36.80 30.75 27.82 28.36 24.77 27.33 38.19 39.11 39.80 41.24 42.72 44.68 44.57 44.38 44.64 44.56 45.07 46.26 46.95 47.39 48.34 50.06 50.33 49.01 48.82 48.26 47.71 46.38 45.84 45.36 44.00 43.35 42.98 43.11 42.28 42.07 41.51 41.81 42.00 42.13 42.33 42.53 42.93 43.95 44.46 44.41 44.20

GFSSGP_sfc_wetblb_093.txt.gz
Wetbulb
66.52 65.76 63.65 57.19 45.79 42.26 37.70 42.54 48.23 49.52 49.69 50.23 54.97 58.00 59.52 60.19 57.76 51.60 67.73 70.78 72.17 72.36 73.60 74.17 75.29 75.17 75.07 74.71 73.78 73.48 73.29 73.30 72.76 72.05 71.55 71.83 71.88 71.90 72.03 72.67 72.34 71.20 70.78 70.22 69.95 69.74 69.19 68.54 68.15
64.53 64.30 58.07 52.79 43.60 33.85 36.85 45.30 45.60 49.62 50.81 53.60 56.34 60.00 59.53 58.41 62.71 64.28 66.67 71.10 72.09 72.58 73.28 73.85 75.02 75.24 74.94 74.44 73.98 73.73 73.63 73.22 73.26 72.40 70.80 70.60 70.97 70.44 70.82 71.17 70.72 70.50 69.76 69.32 69.14 69.27 69.61 69.50 69.25
65.50 64.67 51.04 46.39 41.05 36.15 37.87 45.95 46.91 50.10 52.21 52.84 54.36 59.73 60.20 60.10 64.78 64.19 69.31 70.98 71.80 71.57 73.19 73.81 74.87 75.09 74.89 74.36 73.99 73.53 73.56 73.07 73.47 72.75 71.60 69.85 69.75 70.32 70.42 70.81 69.66 69.63 69.51 69.44 69.78 70.00 69.83 70.31 70.43
60.50 57.88 52.75 40.42 39.56 42.57 44.73 47.04 50.06 50.00 51.34 53.42 59.58 59.39 62.88 65.94 64.88 68.74 70.25 71.21 70.40 70.75 72.45 73.90 74.82 74.90 74.42 74.15 73.65 73.02 72.38 72.58 73.12 72.92 71.90 69.85 68.76 69.38 69.76 69.68 69.48 70.00 70.10 69.65 70.44 70.11 69.85 70.35 70.61
58.63 53.19 44.30 40.28 40.33 44.83 47.42 51.11 48.77 48.14 50.34 52.24 58.62 59.28 60.46 66.56 68.96 69.82 69.89 70.37 69.44 70.54 72.55 73.82 74.71 74.74 74.39 74.06 73.48 72.90 72.10 72.11 72.84 73.05 71.53 70.35 68.78 68.72 69.25 69.30 69.44 69.39 69.48 69.68 70.09 70.01 69.90 70.15 69.69
52.30 51.99 40.18 37.83 40.75 46.36 49.20 50.32 48.67 48.35 49.83 53.24 59.08 60.18 61.28 66.67 67.04 67.99 70.02 69.25 70.58 70.81 72.57 73.33 73.32 73.85 74.04 73.84 73.15 72.36 71.88 72.24 72.87 73.38 71.90 70.92 69.55 68.44 68.59 69.15 69.26 69.35 69.48 69.38 69.62 69.98 69.60 69.32 68.46
49.57 46.41 40.50 39.34 41.46 45.68 48.36 50.64 48.56 49.36 51.67 55.31 58.33 58.30 62.17 65.11 67.62 69.00 70.24 70.70 71.17 71.92 71.97 72.31 72.47 72.63 72.70 72.90 72.55 72.22 72.06 71.81 72.37 73.19 72.41 71.46 70.67 69.59 68.59 68.69 69.15 69.27 69.29 69.10 68.88 68.84 69.02 68.58 67.85
52.26 48.34 42.58 41.35 40.99 45.52 48.61 51.41 52.56 52.17 52.00 57.69 59.18 58.12 57.99 63.91 68.42 69.05 70.81 70.40 70.75 71.09 71.49 71.20 71.47 71.94 71.39 71.11 71.18 71.14 71.19 71.14 71.72 71.80 70.60 69.48 69.18 69.64 69.87 68.92 69.06 68.97 68.89 68.69 68.58 68.21 67.73 67.21 66.59
54.98 44.41 41.77 43.03 44.61 46.03 49.66 49.62 52.74 55.40 54.23 56.75 55.95 58.67 64.98 68.18 68.17 67.70 67.64 68.09 69.29 70.40 70.53 70.94 70.52 70.34 69.83 69.45 69.31 69.78 70.31 70.09 69.82 69.48 67.97 67.61 68.09 68.32 67.78 67.41 68.10 68.74 68.63 68.26 68.14 68.10 67.57 66.98 65.92
49.95 43.97 44.33 48.64 49.15 47.18 50.15 50.16 51.27 52.02 52.18 56.00 61.05 63.47 66.34 66.93 66.39 65.69 65.56 65.44 66.82 68.36 69.66 70.32 69.87 69.35 69.01 69.39 67.31 66.84 68.28 68.01 67.99 68.41 67.49 67.54 66.95 66.44 67.69 66.17 67.36 68.77 68.41 68.14 67.95 68.03 67.84 65.85 62.18
49.83 44.56 48.75 50.18 52.46 53.19 50.54 49.54 52.04 51.21 49.59 52.40 58.75 62.08 64.67 65.32 65.45 64.27 65.71 65.61 66.87 68.16 69.55 69.59 69.25 69.41 68.43 67.42 66.54 65.09 65.42 66.47 66.85 67.41 67.49 67.16 66.51 65.51 65.82 65.01 65.58 64.62 64.61 64.58 66.26 65.56 64.33 61.79 60.67
46.30 49.14 49.98 51.20 52.79 52.21 51.16 53.37 48.73 50.20 50.93 55.09 61.75 63.78 64.91 64.92 65.04 64.41 64.56 65.75 66.51 66.94 68.57 68.58 69.03 68.99 69.03 67.57 66.88 65.76 65.42 65.92 65.75 66.61 66.77 65.30 64.14 65.31 64.46 64.02 63.77 63.17 63.26 61.96 62.58 61.87 61.88 61.42 60.56
45.71 46.75 50.35 51.51 52.41 52.04 53.58 51.46 50.67 49.25 52.60 55.82 62.15 63.29 64.17 64.91 65.34 65.93 65.50 65.64 66.36 66.37 67.52 68.52 68.90 69.22 69.09 68.47 66.74 65.93 64.93 65.98 66.34 66.18 65.21 63.65 63.33 62.28 61.90 63.64 62.97 62.79 62.23 61.14 61.35 60.38 59.62 59.11 58.59
46.94 47.25 46.63 49.60 50.54 51.69 50.40 51.27 51.39 50.02 51.90 52.64 59.41 60.26 61.66 64.00 64.81 64.87 65.30 65.27 64.86 66.03 66.81 68.39 68.31 69.06 68.57 68.16 66.01 66.98 65.67 64.43 64.46 64.04 63.48 63.48 63.08 62.28 62.14 61.57 60.56 59.81 60.27 60.78 60.70 59.81 59.26 57.66 57.25
47.74 43.43 45.27 46.37 49.53 49.52 51.30 48.10 47.92 50.58 51.54 51.26 52.27 55.97 60.21 61.68 63.85 64.35 65.56 65.96 66.24 66.06 66.77 67.32 67.81 68.89 67.41 67.31 67.75 67.69 66.96 66.52 64.69 64.30 64.60 64.48 64.61 63.58 63.01 62.45 61.45 60.87 61.29 61.79 61.46 61.37 60.59 60.55 60.93
44.65 43.86 38.37 45.47 48.31 49.22 49.23 42.12 49.72 52.77 49.17 48.78 49.55 51.19 53.61 56.31 62.23 62.78 64.55 65.36 66.14 67.17 67.17 67.75 69.20 67.62 68.30 67.18 68.35 67.38 67.75 67.21 67.29 66.75 65.19 65.22 65.17 64.79 63.49 63.14 62.98 62.57 61.98 61.51 61.46 61.08 60.91 60.58 60.55
41.51 36.80 37.35 40.87 47.40 47.43 46.67 42.33 48.46 51.91 49.42 48.46 47.82 48.69 51.80 53.20 54.80 57.01 63.01 64.03 66.58 66.68 66.83 67.05 67.73 67.66 68.23 67.52 68.38 68.31 67.87 67.39 66.85 67.13 66.60 65.34 65.57 65.57 64.50 63.94 64.00 63.78 62.89 62.53 62.62 62.09 61.28 60.50 60.63
34.95 36.47 38.22 37.42 43.46 45.71 44.87 43.11 46.60 47.75 48.64 47.58 47.64 47.02 48.40 51.99 53.30 54.53 58.19 61.57 65.95 66.47 66.62 66.81 67.19 67.47 68.02 68.27 67.31 67.20 67.93 67.27 66.92 66.55 67.00 66.75 65.57 65.69 65.41 65.14 64.83 65.49 64.36 62.81 62.60 61.93 62.13 61.53 61.34
39.44 38.24 37.31 41.05 45.42 42.88 42.75 43.75 45.79 47.18 46.11 45.86 46.12 47.71 48.17 49.10 53.18 54.00 54.75 56.20 61.28 63.71 65.96 66.63 66.43 66.26 66.67 66.20 66.20 65.38 66.45 66.74 66.74 67.19 67.34 67.00 66.90 66.47 65.96 65.17 65.09 64.97 64.81 64.54 64.79 63.80 63.41 62.94 63.02
38.39 36.08 36.49 40.67 45.80 43.74 42.51 41.66 45.75 47.04 46.01 46.50 46.89 46.75 47.23 47.56 50.02 51.22 51.41 51.97 57.19 62.61 64.91 65.95 66.57 66.73 66.78 66.75 66.36 65.61 66.15 64.83 64.80 65.73 66.43 66.78 66.62 66.71 66.86 66.26 65.79 65.93 65.62 65.07 64.37 63.79 63.03 62.95 63.15
36.70 35.22 36.31 37.59 42.44 43.22 40.92 36.61 40.21 45.42 44.48 47.00 48.05 48.30 48.42 48.34 48.01 49.21 48.02 49.26 54.66 61.63 62.63 64.28 65.16 66.04 66.23 66.32 65.08 63.96 63.56 64.02 64.20 65.06 65.13 65.29 65.92 65.34 65.30 65.20 65.53 65.21 65.28 64.66 64.53 64.29 63.52 61.91 62.43
34.16 41.46 40.92 39.38 36.84 30.93 38.54 26.05 33.52 41.17 40.83 43.78 44.53 46.08 47.49 47.81 48.02 50.62 47.63 47.07 48.27 59.17 60.82 62.96 64.27 65.31 65.23 65.00 64.24 62.78 62.31 62.21 62.93 64.02 64.68 63.77 63.58 61.86 61.53 61.68 62.42 63.44 63.86 63.63 63.86 64.19 63.41 62.61 61.21
37.85 42.53 40.21 39.70 35.74 32.17 33.54 29.11 32.35 35.97 37.03 41.44 41.77 42.98 45.34 47.66 48.35 50.57 49.61 49.28 48.27 50.30 56.57 58.58 60.69 62.70 62.50 63.82 64.63 62.98 61.87 62.01 60.66 61.55 61.21 59.03 58.23 58.07 57.89 57.68 57.67 58.53 58.92 59.99 60.63 61.29 61.46 62.22 61.58
42.74 40.25 38.32 37.77 34.08 23.64 30.80 31.12 29.45 32.91 37.04 39.60 42.05 44.73 45.78 46.80 48.18 48.47 51.27 49.50 48.25 51.03 52.06 52.52 55.29 56.87 58.26 59.01 60.43 61.90 61.22 57.81 57.02 56.46 55.85 55.38 54.92 54.56 54.53 55.13 54.82 55.39 55.68 55.79 56.10 56.35 56.23 56.80 58.26
39.31 35.07 26.91 21.00 20.74 20.90 31.88 29.61 33.09 37.68 39.69 40.45 41.92 42.38 43.51 45.18 46.68 47.83 47.31 47.25 48.38 49.57 49.87 50.54 51.95 51.95 52.60 55.08 56.08 55.97 56.87 54.00 53.83 53.11 52.55 52.01 52.80 51.96 51.10 52.07 51.67 51.93 52.05 53.19 54.32 54.31 54.60 55.21 55.09
35.95 34.14 25.56 20.50 20.61 22.21 31.87 25.64 30.98 38.89 40.56 40.99 42.96 42.92 43.04 42.83 44.14 47.45 48.70 48.05 48.32 48.84 49.09 49.57 49.25 49.32 49.88 49.99 50.21 53.18 52.86 52.30 51.95 52.63 51.50 50.65 50.14 49.14 49.03 49.09 49.70 49.80 50.11 49.98 50.39 52.05 54.35 54.93 54.09
34.14 29.75 35.91 28.61 27.92 20.50 26.09 30.31 36.12 38.79 40.03 39.68 41.75 42.26 41.90 42.54 43.87 45.80 47.04 46.67 47.68 48.48 48.93 48.67 49.02 49.29 49.73 49.91 50.35 49.68 50.04 50.33 49.80 47.51 46.95 47.18 45.70 46.48 47.04 47.15 46.84 46.66 46.85 47.54 48.11 48.88 51.62 52.50 52.21
38.13 39.23 29.76 30.35 23.69 19.76 22.59 25.43 28.92 32.27 36.86 39.61 38.13 38.36 40.34 41.41 42.77 44.63 45.80 46.46 47.43 48.48 48.82 49.08 49.58 49.65 49.67 49.34 49.66 48.87 47.03 46.81 46.62 45.72 44.89 44.66 44.38 45.06 45.37 44.82 44.64 44.45 44.80 45.30 45.57 46.59 49.91 50.42 49.91
35.79 34.25 34.72 32.30 28.30 20.25 20.01 24.34 33.64 34.06 37.29 38.19 39.70 41.11 41.25 42.13 41.86 42.26 43.36 45.68 46.91 47.67 48.14 47.95 49.36 50.59 49.12 48.75 47.45 46.31 46.23 45.48 44.46 44.04 44.32 43.98 43.98 44.08 43.63 42.96 43.00 42.75 42.73 42.91 42.97 44.55 46.31 47.17 48.25
39.12 36.17 35.85 25.14 25.61 25.67 23.07 25.98 36.93 36.64 38.21 40.47 41.18 42.81 42.27 43.18 43.36 42.39 42.84 44.48 45.33 46.38 47.02 47.33 48.48 49.87 49.09 48.11 47.16 45.96 45.61 43.92 43.75 43.55 43.35 43.58 42.53 42.05 41.78 41.46 41.43 41.62 41.58 41.06 41.13 42.16 43.10 43.48 43.40

GFSSGP_sfc_wetblb_096.txt.gz
Wetbulb
67.18 65.61 62.78 56.35 45.96 40.90 37.86 42.28 47.73 49.87 48.91 48.51 54.55 57.16 58.90 58.63 56.41 50.11 67.48 70.02 71.57 71.94 73.17 73.44 74.66 74.67 74.62 74.14 73.19 72.88 72.46 72.25 72.74 72.96 72.84 73.12 73.14 73.71 73.51 72.01 71.24 70.69 70.17 69.55 69.23 68.97 68.87 68.96 69.21
64.36 63.80 58.49 50.79 40.32 33.29 37.03 44.01 45.71 51.60 51.18 56.50 59.48 58.42 58.23 57.19 62.46 66.32 68.12 71.03 72.04 72.19 72.59 72.95 74.43 74.68 74.46 73.80 73.46 73.25 72.85 72.21 72.08 72.40 71.88 71.64 71.91 72.10 71.53 70.93 70.68 70.00 69.73 69.69 69.70 69.50 69.43 69.58 69.80
64.47 63.37 51.02 45.77 39.31 35.91 36.14 44.56 45.74 52.59 54.14 51.18 54.88 60.33 60.09 59.78 66.00 65.48 69.96 71.57 71.95 71.74 72.68 73.28 74.38 74.61 74.40 73.96 73.46 73.55 73.30 72.13 71.23 70.78 71.08 71.28 70.74 70.93 70.58 70.21 69.59 69.30 69.30 69.56 69.93 70.10 70.35 70.46 70.98
60.13 56.82 52.81 41.90 37.81 41.14 41.66 46.40 48.94 50.19 55.20 55.99 60.40 58.53 63.50 65.87 64.99 68.42 70.83 71.42 70.98 71.51 72.11 73.72 74.25 74.53 73.98 73.64 73.50 73.31 73.36 71.96 70.97 69.92 69.39 70.03 70.34 70.87 69.53 69.67 69.40 69.38 70.47 70.07 70.13 70.31 70.59 70.74 70.11
58.92 51.98 44.24 40.21 39.30 43.52 46.57 50.15 48.50 49.22 51.36 55.60 58.31 58.01 60.33 66.38 69.00 69.86 70.14 70.54 70.38 71.13 72.18 73.21 74.22 74.26 73.75 73.39 73.14 73.16 73.39 72.61 71.26 70.13 68.88 69.39 69.84 69.78 69.66 69.60 69.31 69.39 69.72 70.06 69.95 70.17 70.47 69.83 68.97
52.14 50.53 40.19 37.57 39.24 44.71 47.37 50.30 48.92 48.27 52.82 56.00 59.47 59.28 60.41 66.39 67.75 69.10 69.69 69.36 71.09 71.25 72.35 72.79 72.74 73.37 73.41 72.78 72.51 72.65 73.08 73.22 72.58 71.05 69.21 68.59 69.33 69.38 69.47 69.42 69.37 69.46 69.69 69.85 69.78 69.90 69.74 68.77 68.08
50.32 46.81 39.11 38.93 39.53 42.56 48.16 50.37 47.08 49.22 52.96 54.73 59.58 56.78 61.70 64.76 67.22 68.46 69.11 69.83 70.59 71.87 71.83 71.83 72.07 72.26 72.07 72.11 71.80 71.75 72.42 72.72 72.52 71.95 70.94 69.48 69.10 69.25 69.31 69.33 69.40 69.46 69.46 69.39 69.69 69.31 68.72 68.09 67.37
52.58 48.16 41.68 39.31 39.92 43.41 47.89 51.57 51.59 51.89 50.41 56.78 60.83 57.53 59.01 64.83 67.59 68.44 68.98 69.81 70.38 71.17 71.25 70.64 71.15 71.67 70.97 70.38 70.92 70.91 71.07 71.47 72.03 71.31 70.17 68.90 68.11 68.32 69.33 69.23 69.56 69.33 69.11 68.82 68.53 68.37 67.96 67.23 66.11
55.34 45.53 39.91 41.98 43.74 44.82 48.82 49.84 52.67 54.88 55.04 57.83 57.53 61.07 63.90 67.32 68.54 68.11 67.99 69.12 69.50 70.13 70.47 70.50 70.30 70.12 69.59 69.06 69.16 69.79 69.88 70.06 70.04 69.22 67.78 67.28 67.23 67.04 66.35 66.40 68.13 69.17 68.94 68.55 68.28 67.83 67.34 67.00 65.96
49.74 43.65 43.12 47.95 49.09 45.81 49.06 50.17 51.84 52.06 54.12 57.49 59.85 65.09 66.76 66.33 66.74 65.78 66.84 66.51 67.54 67.91 69.51 69.78 69.49 68.98 68.35 68.95 67.15 67.52 68.72 68.14 68.38 67.86 66.94 66.77 66.20 66.03 66.90 65.59 66.90 68.44 68.36 68.33 68.26 68.08 67.71 65.46 61.09
49.33 43.91 48.60 49.81 52.33 52.82 48.54 48.89 52.13 50.86 49.74 56.63 58.03 61.39 64.23 63.70 65.14 65.58 66.26 66.72 66.71 68.09 69.18 69.07 68.79 68.57 67.49 66.74 65.18 65.39 66.36 66.29 66.99 67.09 66.57 66.31 66.20 64.98 65.21 64.17 64.85 64.08 64.57 63.93 65.73 64.71 63.46 61.30 60.30
46.03 49.44 50.28 50.69 52.69 51.98 50.53 50.94 48.18 49.72 50.49 58.68 61.75 63.26 63.74 63.12 63.16 65.07 65.22 66.43 67.03 68.00 68.72 68.83 68.67 68.08 66.67 66.14 64.60 64.16 65.21 65.29 65.73 66.92 67.14 65.64 64.54 64.10 63.58 63.22 63.21 62.43 62.69 61.19 61.62 61.18 61.30 60.75 60.39
46.09 47.97 49.06 50.99 51.50 51.46 53.22 49.92 48.94 48.71 53.51 61.04 63.13 63.70 63.65 62.86 62.35 63.62 65.84 66.75 67.30 67.41 68.22 68.36 68.45 67.99 66.89 65.83 65.44 64.44 63.82 65.42 65.53 65.81 66.67 65.72 64.05 64.33 63.50 62.88 62.59 61.92 61.59 60.87 60.51 60.47 60.67 60.46 59.79
47.11 47.27 46.86 49.24 50.43 51.81 50.50 50.01 49.90 49.32 52.30 59.38 61.14 61.49 62.98 62.89 63.16 62.83 63.97 65.11 66.40 67.24 67.73 68.23 68.14 68.23 67.49 66.41 65.95 65.29 64.63 65.34 65.33 64.85 65.10 64.55 64.49 63.46 62.97 62.48 62.36 61.62 61.42 61.09 60.19 60.47 58.68 56.81 56.37
47.22 43.62 45.19 46.91 49.09 49.06 51.36 47.68 46.47 49.91 50.05 54.71 57.99 59.32 61.30 63.16 64.47 63.56 63.83 64.72 66.07 66.54 67.33 67.54 68.05 68.52 67.36 66.77 66.27 66.15 65.52 65.43 65.03 64.73 63.91 62.55 62.79 61.75 61.54 61.07 60.33 60.17 59.68 59.93 59.97 59.85 59.08 58.63 59.49
43.03 42.23 37.55 45.05 47.88 49.04 48.95 43.01 48.23 51.53 48.11 47.63 51.09 54.86 58.70 61.02 63.03 63.90 64.99 65.25 65.20 65.94 66.27 67.66 68.83 68.16 67.21 66.83 66.24 66.71 65.42 64.80 64.49 64.53 63.70 63.53 64.03 63.37 62.16 61.90 61.22 60.98 60.57 60.48 60.39 60.33 60.17 59.91 59.78
41.09 34.80 37.06 40.63 47.34 47.35 46.38 42.61 47.75 51.18 49.31 46.92 47.14 49.81 53.15 56.14 59.52 62.29 63.65 65.02 65.41 66.08 66.52 66.88 67.51 67.05 67.46 66.85 67.12 66.66 66.42 65.83 66.13 65.78 65.00 64.74 64.33 64.18 63.10 62.59 62.96 62.69 61.57 61.24 61.40 61.11 60.50 59.88 60.07
33.80 35.02 36.25 37.65 43.50 45.91 44.65 43.69 47.50 49.00 49.03 47.66 46.42 46.87 48.60 51.33 54.61 58.95 61.73 63.04 65.59 65.76 66.50 66.93 66.97 66.59 66.90 67.97 67.47 66.51 66.78 66.90 66.65 66.37 65.92 66.05 65.39 64.58 63.84 63.41 63.29 63.21 62.20 61.69 61.58 61.43 61.37 61.07 60.96
38.31 38.30 37.71 39.97 44.14 43.16 41.94 42.85 45.87 48.09 47.79 46.18 45.42 45.56 46.23 49.35 53.36 53.64 56.17 62.19 62.94 64.00 64.28 65.35 65.47 66.07 66.76 66.93 66.32 65.62 64.57 66.51 66.10 66.32 66.47 66.12 66.13 65.47 64.47 64.34 64.25 64.91 64.59 64.07 63.62 63.51 62.66 62.71 62.67
37.05 35.79 34.64 40.04 43.78 41.58 41.51 39.70 44.59 47.32 46.75 46.30 45.10 45.89 46.29 46.53 48.59 52.00 52.27 54.92 60.72 64.14 64.97 65.08 65.39 65.15 65.57 65.37 65.51 66.17 65.34 65.45 66.63 66.64 66.79 66.93 66.65 66.47 65.87 65.03 65.24 65.64 65.10 64.59 63.75 63.58 62.99 62.80 62.96
34.88 33.16 35.11 37.83 42.48 42.92 40.30 38.07 41.28 45.18 47.21 45.99 46.64 46.88 47.52 47.85 46.97 49.42 50.42 50.60 53.54 60.86 63.94 65.14 65.62 65.55 65.85 66.01 64.64 63.67 63.89 63.97 63.99 63.75 64.18 65.26 65.83 65.94 65.71 65.41 65.19 64.95 64.89 64.39 63.98 63.64 62.88 62.13 62.56
32.34 39.86 39.79 39.65 38.17 33.03 40.25 28.17 32.96 38.25 42.43 44.32 44.26 45.06 46.22 46.60 46.46 48.67 50.59 48.09 49.14 57.78 62.07 65.06 65.64 65.86 66.09 65.54 64.28 64.17 64.27 63.30 63.57 63.31 63.60 63.48 64.48 64.35 64.70 64.65 64.25 63.99 63.64 63.32 63.19 64.00 63.40 62.58 61.22
35.79 40.86 39.53 39.08 34.59 33.04 33.33 30.58 31.87 35.21 36.32 40.95 40.87 42.97 46.09 46.73 46.40 48.06 49.57 50.71 48.89 51.06 57.37 59.63 62.02 62.83 62.99 63.83 64.95 63.40 60.94 61.65 61.27 61.89 61.93 60.25 58.81 59.91 59.88 59.88 60.53 60.74 60.59 60.81 60.41 59.24 59.53 60.02 60.54
41.39 38.91 38.07 38.31 34.26 27.63 30.98 32.15 30.82 32.54 36.08 39.23 41.06 43.16 45.49 47.78 46.41 47.91 49.75 49.41 47.19 47.58 53.68 56.22 58.90 60.09 61.23 61.67 61.12 61.45 61.33 59.86 58.71 58.10 58.38 56.58 55.59 55.37 55.59 55.89 55.59 56.70 57.12 57.12 56.75 56.18 55.84 55.89 55.96
40.07 36.68 28.43 26.53 26.80 25.97 30.34 30.38 33.11 36.96 38.35 38.81 40.10 41.44 42.60 44.34 45.93 45.45 47.77 47.18 46.23 48.91 51.08 52.20 55.48 56.39 57.38 58.29 58.44 59.56 59.61 57.80 58.01 57.90 57.60 55.58 53.78 53.63 52.95 53.43 53.27 52.96 53.11 53.93 54.60 55.03 55.18 54.90 54.02
35.12 34.81 26.84 20.19 21.75 23.55 31.21 26.23 31.65 38.83 41.09 40.95 41.88 40.71 42.08 43.02 43.34 44.40 46.83 47.44 46.96 48.95 50.29 50.58 51.36 51.84 51.14 52.79 53.68 53.35 55.52 54.85 55.57 55.17 55.34 54.46 53.74 51.67 51.59 49.88 49.15 50.06 50.01 50.23 50.64 51.56 53.27 53.78 53.40
33.56 30.98 36.25 27.65 25.35 20.75 26.04 29.94 35.64 38.22 37.09 37.17 39.03 40.03 38.43 39.09 43.30 43.71 46.04 45.92 46.75 47.52 48.80 49.29 49.00 48.90 48.50 48.33 49.61 50.50 51.22 52.17 52.08 51.36 53.13 52.71 51.04 49.32 48.02 47.71 47.16 47.29 46.70 47.22 47.31 48.42 48.96 52.10 51.87
36.27 38.64 31.21 30.17 23.23 19.97 21.83 24.71 29.11 31.45 35.23 37.26 37.07 37.81 37.75 38.75 40.96 43.96 44.94 44.72 45.80 46.34 47.47 47.80 48.34 48.43 48.47 48.78 48.19 47.93 47.49 47.78 46.85 47.56 45.67 44.27 43.73 45.47 45.44 44.88 44.88 44.73 44.98 44.85 45.26 45.51 47.17 49.62 49.13
35.46 32.70 33.62 32.37 29.34 21.46 19.77 23.03 31.59 33.62 35.80 37.04 37.63 39.16 39.71 39.30 39.98 40.87 43.16 44.97 46.07 46.91 47.32 47.24 47.93 48.70 48.10 47.55 47.01 46.12 46.10 46.04 44.86 43.71 43.34 43.88 43.36 43.08 43.71 43.86 43.39 43.10 42.97 43.04 42.83 42.88 45.29 46.47 46.90
37.91 35.26 35.47 27.59 24.40 24.67 22.64 25.59 36.21 34.96 38.09 39.36 39.68 41.00 40.52 41.03 40.97 40.69 42.11 43.91 45.13 46.03 46.53 46.57 47.23 47.97 47.64 47.91 47.41 45.91 45.80 45.19 44.81 43.00 43.16 43.91 43.48 43.43 42.43 42.40 42.26 42.07 42.24 42.13 41.98 42.12 43.00 42.70 43.29

GFSSGP_sfc_wetblb_099.txt.gz
Wetbulb
66.61 65.57 62.35 56.84 45.80 40.34 36.39 42.77 47.16 48.58 49.60 50.21 53.53 57.03 56.21 55.57 53.71 49.23 66.95 69.40 71.13 71.58 72.65 73.04 74.50 74.41 74.00 72.38 71.51 70.75 71.84 73.01 73.80 73.81 73.87 73.83 73.73 73.21 72.16 71.36 70.61 69.92 69.58 69.78 70.38 70.48 70.29 70.27 70.32
65.18 63.01 57.69 51.99 40.70 33.43 36.17 43.15 45.74 51.21 52.14 58.61 59.36 58.42 56.42 56.78 63.71 65.59 67.47 70.70 71.65 71.93 72.34 72.30 74.16 74.33 73.64 72.84 71.58 70.90 71.62 72.22 72.68 73.13 73.43 73.53 72.93 72.20 71.56 70.76 70.28 69.90 69.52 69.22 69.31 69.66 70.19 70.36 70.95
64.00 62.65 53.22 45.91 39.66 35.74 35.02 43.36 45.75 53.04 54.85 53.46 56.82 59.45 58.49 60.21 65.23 66.18 69.95 71.06 71.60 71.27 71.84 72.44 73.95 74.08 73.89 73.22 72.38 71.21 70.98 71.41 71.95 72.54 72.78 72.84 71.92 71.33 70.87 70.11 69.58 69.42 69.59 69.73 70.07 70.36 70.69 70.97 70.27
60.03 57.51 54.01 42.66 36.73 39.67 39.92 44.71 47.75 52.66 55.70 55.99 58.97 57.87 61.71 64.88 64.74 68.28 70.97 71.21 70.54 70.75 71.36 72.96 73.69 74.10 73.43 73.24 73.24 71.94 70.57 70.32 70.56 71.32 71.78 72.05 71.83 70.51 70.04 69.47 69.19 69.39 69.97 70.13 70.40 70.74 70.98 70.01 70.46
58.24 53.62 45.10 40.11 38.28 40.18 43.03 48.62 49.90 52.12 53.92 54.63 59.11 57.86 60.26 64.95 68.84 70.13 70.62 70.83 70.15 70.59 71.70 72.09 73.76 73.78 73.34 73.31 73.29 72.86 71.42 70.09 69.45 69.94 70.25 70.79 70.12 69.85 69.65 69.23 69.40 69.87 70.15 70.19 70.41 70.71 70.34 69.36 69.67
52.07 52.51 41.69 38.14 38.21 42.33 45.07 49.00 48.33 51.93 53.64 54.33 58.22 58.19 61.16 67.02 68.58 69.75 70.28 70.07 70.73 70.89 71.56 71.85 72.57 72.91 73.05 72.91 72.84 73.10 72.36 70.66 69.43 69.21 69.77 69.99 69.81 69.65 69.35 69.12 69.27 69.73 70.01 70.06 70.31 70.38 69.48 68.55 68.60
49.04 47.58 40.62 38.72 38.91 40.83 44.84 50.13 47.64 52.10 53.02 54.23 60.10 57.24 62.51 65.39 68.47 69.15 69.27 70.10 70.86 71.20 71.11 71.13 71.41 71.54 71.53 71.81 72.31 72.80 72.44 71.68 70.60 69.70 69.59 69.87 69.71 69.54 69.22 69.24 69.36 69.55 69.69 69.72 69.79 69.48 68.56 67.73 67.52
50.52 48.83 40.82 38.75 39.27 40.66 46.21 50.22 52.53 53.34 51.38 57.08 59.83 57.20 59.36 64.27 66.94 68.35 69.18 69.40 69.61 69.63 70.36 70.05 70.55 70.61 69.75 69.65 70.69 71.26 71.69 71.43 70.86 69.74 68.65 67.98 68.07 68.73 69.49 69.12 69.54 69.27 68.97 69.05 68.99 68.63 67.84 67.07 66.30
53.71 44.97 38.61 39.60 41.87 43.74 47.09 48.52 52.75 55.58 55.55 58.50 59.10 60.85 64.19 66.83 67.19 66.85 67.04 68.27 69.03 69.74 70.05 70.34 70.04 69.83 68.40 68.24 68.95 69.93 70.24 70.37 69.82 68.73 67.05 66.17 65.08 65.71 66.18 66.60 68.27 69.18 68.70 68.27 67.77 67.35 66.78 66.30 64.79
48.43 43.64 41.58 48.03 48.66 45.20 47.70 49.49 52.20 53.38 55.91 57.35 61.00 64.35 65.76 66.24 64.79 65.38 64.80 65.73 66.30 67.66 68.98 69.49 69.03 68.76 67.85 68.82 67.03 66.86 68.81 69.14 68.37 66.99 65.98 65.93 64.90 64.44 65.11 64.93 67.03 68.60 68.41 68.33 67.77 67.40 67.42 64.90 60.14
48.60 43.78 48.56 49.49 52.06 51.87 47.80 48.56 51.61 52.96 50.49 57.16 59.79 62.64 63.98 64.43 63.53 64.67 65.25 66.39 66.54 68.00 68.60 68.83 68.56 68.18 67.17 66.78 65.88 66.20 67.08 67.40 67.69 66.28 65.70 65.36 65.04 64.40 63.82 63.23 63.91 63.26 64.08 63.04 64.52 63.31 62.58 60.22 59.81
42.63 49.38 50.25 50.44 51.88 50.99 49.45 49.12 47.91 49.87 51.34 56.64 62.73 63.93 64.20 63.91 62.77 63.24 62.96 63.41 65.30 67.23 68.30 68.71 68.78 67.59 66.33 66.05 65.65 65.95 66.11 65.77 67.33 66.42 65.80 64.61 63.38 63.31 62.98 62.35 62.27 61.55 61.76 60.27 60.43 60.55 60.15 59.84 59.44
41.00 45.04 48.96 51.02 51.32 51.10 51.38 48.85 47.24 48.11 58.27 61.62 62.94 63.48 63.47 64.03 63.80 60.77 61.81 62.47 66.58 66.91 68.23 68.30 68.38 67.24 65.92 64.96 64.10 65.06 65.21 65.52 66.00 66.58 66.29 64.96 63.91 62.97 62.88 62.13 61.88 61.29 60.80 59.96 59.27 59.45 59.56 59.57 59.62
44.61 47.54 46.70 49.61 49.49 50.53 48.74 48.89 48.25 48.12 56.86 60.60 60.89 61.21 61.74 62.47 63.13 63.10 63.72 62.81 65.94 66.84 68.17 68.50 67.93 67.68 66.30 64.88 63.75 63.74 64.59 65.06 65.42 65.69 66.81 65.60 64.40 63.84 63.19 62.29 61.81 61.10 60.81 60.52 60.04 60.03 59.57 58.67 56.66
47.14 41.33 44.39 46.17 48.44 47.78 49.81 45.99 45.73 49.05 51.55 57.20 59.49 59.35 60.58 61.44 62.83 63.38 64.46 65.21 65.07 66.93 67.95 67.91 67.79 67.96 66.41 65.33 64.91 64.05 63.98 65.11 64.87 65.19 65.08 65.49 64.18 63.36 63.07 62.18 61.62 61.46 60.97 60.77 59.85 58.89 58.73 57.54 58.13
42.88 40.46 35.61 44.64 47.47 47.83 48.17 40.65 47.47 49.42 47.69 47.97 51.77 52.65 58.01 61.09 63.11 63.11 63.67 64.18 66.61 67.35 67.64 68.25 68.41 67.95 66.99 65.85 65.71 65.42 64.82 64.72 64.64 64.40 64.79 63.61 63.69 62.89 61.41 60.92 60.34 60.64 59.40 58.96 59.07 59.37 59.31 58.85 59.17
40.33 34.59 34.80 38.84 47.02 45.80 45.91 42.56 46.30 49.44 47.49 45.89 46.37 48.74 54.95 57.68 59.04 62.60 63.45 64.04 64.80 65.89 66.58 66.88 67.50 67.46 66.98 66.13 65.67 65.34 65.15 64.35 64.81 64.20 63.37 62.92 63.02 62.88 61.94 61.63 61.47 60.75 59.74 59.52 59.70 59.73 59.53 59.01 59.36
32.65 34.69 37.20 36.59 43.20 43.98 41.67 42.78 46.55 47.99 47.54 45.67 44.87 45.37 46.97 52.29 56.97 60.17 62.64 63.74 64.54 65.12 65.45 65.96 66.50 67.28 67.23 66.48 65.93 65.63 65.77 64.79 64.50 64.12 63.94 63.96 64.20 63.84 62.79 62.25 62.27 62.36 61.30 60.69 60.71 60.69 60.67 60.63 60.73
37.59 37.40 36.76 39.68 43.85 42.66 40.76 41.81 44.85 48.02 46.52 44.99 44.93 44.86 46.39 48.04 51.44 54.27 57.19 61.12 62.48 64.30 64.92 64.78 65.01 65.81 66.37 65.64 65.48 65.28 65.28 64.87 64.56 64.74 65.77 65.56 65.07 64.80 63.84 62.84 62.66 62.78 62.22 62.64 62.55 62.84 62.16 62.11 62.44
36.08 35.21 33.69 39.86 43.81 41.93 41.92 41.08 43.99 45.97 46.01 45.63 45.14 44.47 45.44 46.67 48.07 50.81 52.15 55.46 60.65 62.62 63.76 64.06 65.29 64.84 66.23 66.69 65.89 65.63 65.04 64.95 65.46 65.66 65.67 66.14 65.67 65.44 64.77 64.18 63.48 63.83 64.36 64.38 63.61 62.73 61.97 62.08 62.04
33.99 31.33 32.42 36.43 41.29 42.16 40.31 37.92 40.22 44.03 47.29 46.90 47.42 45.34 45.79 47.25 48.01 48.27 50.17 50.84 55.63 60.20 62.60 64.31 64.98 64.83 65.24 64.73 64.22 62.87 63.58 63.22 63.04 63.88 64.36 65.51 66.11 65.92 65.08 64.69 64.52 64.21 64.49 63.63 63.68 63.35 62.34 61.40 62.11
31.43 38.47 37.77 39.55 36.90 31.09 39.19 29.14 32.51 41.54 42.96 45.37 46.17 43.74 44.81 45.45 46.17 47.62 48.91 49.60 49.97 56.43 61.58 63.23 64.19 64.66 64.92 64.11 63.49 62.97 63.60 62.59 64.34 63.37 63.27 63.79 64.61 64.28 64.21 64.40 64.42 64.57 64.05 63.16 63.50 63.39 62.80 62.01 60.26
35.19 40.27 38.69 39.30 34.79 32.62 35.23 29.09 32.98 36.37 38.12 41.27 44.99 42.80 43.56 45.61 46.32 46.68 47.88 50.48 50.23 50.39 57.79 59.93 61.66 62.78 62.59 63.01 63.12 62.76 62.23 62.73 61.26 60.97 61.85 62.30 61.87 62.53 62.15 61.73 61.59 61.80 61.73 61.31 61.41 61.37 61.13 61.12 60.11
39.77 36.91 36.99 37.22 34.62 28.76 30.78 31.31 30.25 32.51 36.24 37.99 41.52 43.09 43.71 46.16 46.59 46.46 47.26 48.64 48.54 46.89 54.13 57.86 60.30 60.39 61.21 61.28 61.86 61.87 61.49 59.45 58.83 58.54 59.37 58.32 58.09 58.68 59.22 59.21 58.83 58.65 58.26 58.11 57.75 57.33 57.08 56.96 56.30
37.91 32.80 28.59 25.94 27.60 22.59 29.89 31.03 32.11 37.18 37.39 38.39 40.43 42.02 42.36 44.72 46.10 45.65 45.86 46.58 46.65 46.22 48.90 54.01 57.09 58.74 59.62 59.77 60.38 60.45 59.39 58.94 58.61 58.10 57.41 56.00 55.72 56.10 56.73 55.65 54.35 54.16 54.42 54.55 54.87 54.44 54.41 55.29 54.53
33.68 34.24 25.10 19.78 21.76 24.25 31.40 28.24 31.71 38.63 39.13 40.08 40.61 40.71 41.16 41.30 41.83 44.03 45.32 46.92 46.18 46.65 47.49 50.41 53.35 55.41 56.53 56.61 58.37 57.46 58.66 57.10 56.12 56.03 56.17 55.77 54.96 53.96 53.00 52.18 51.27 51.05 50.78 50.63 50.20 50.73 52.04 53.09 53.72
33.58 27.89 35.15 30.10 23.29 19.87 27.49 28.74 34.38 37.95 38.15 37.34 38.12 39.56 39.61 39.24 41.20 42.71 44.13 45.87 46.83 45.93 47.70 49.16 50.96 51.50 50.90 51.08 51.71 51.32 52.64 52.45 52.68 52.21 52.76 53.51 53.66 52.96 51.91 50.45 48.98 47.93 47.26 47.22 47.29 47.65 47.71 49.36 51.80
35.64 37.13 29.57 29.61 22.65 19.39 21.81 23.25 27.11 32.00 35.77 36.92 36.87 38.26 38.52 39.69 41.70 43.16 42.81 44.09 44.75 45.34 46.97 47.92 48.68 48.77 47.86 48.02 48.80 49.06 49.58 49.97 49.44 49.64 49.08 48.64 48.34 47.96 45.62 45.02 44.92 45.10 44.35 43.98 44.40 44.12 46.15 47.63 49.68
34.19 30.99 32.84 31.98 30.09 19.74 18.73 22.35 31.19 33.52 35.20 37.22 38.35 38.05 37.62 39.15 40.23 41.29 42.87 43.53 44.45 45.38 46.14 46.59 47.04 47.46 47.25 47.44 46.51 45.87 45.68 45.72 45.46 44.93 44.06 43.62 43.67 44.20 42.87 42.77 42.83 42.68 42.42 42.32 42.64 42.53 43.87 45.44 46.99
38.19 35.73 34.87 28.44 24.45 22.79 19.33 23.71 33.98 33.48 36.05 37.24 37.83 39.27 39.09 40.03 40.06 40.43 42.12 43.55 44.34 45.00 45.66 46.07 46.51 47.18 46.95 46.26 45.52 44.68 44.17 43.51 43.13 43.20 43.66 44.25 43.24 42.78 41.73 41.82 41.36 41.42 41.92 41.81 42.15 42.19 41.99 42.37 42.82

GFSSGP_sfc_wetblb_102.txt.gz
Wetbulb
64.95 65.20 62.76 56.96 47.12 42.85 37.35 40.74 45.50 48.32 49.57 52.28 52.59 54.50 53.75 53.32 51.96 47.61 65.43 68.36 70.53 71.16 72.20 72.81 74.32 73.83 72.82 70.83 71.00 71.87 72.89 73.90 74.80 74.55 74.30 74.14 73.68 72.89 71.83 71.24 70.58 70.54 70.82 71.04 71.03 71.07 70.87 70.71 70.31
62.31 63.02 58.68 52.60 43.21 35.07 36.67 41.13 45.74 49.80 52.52 55.16 59.05 56.89 55.96 54.50 62.73 65.81 66.93 70.22 70.89 71.28 71.94 72.26 74.12 73.46 72.25 70.92 71.04 72.07 73.12 73.69 73.87 74.07 73.78 73.83 73.07 72.13 71.39 70.43 69.89 69.80 70.33 70.53 70.58 70.88 70.90 71.07 70.96
61.38 62.01 53.50 47.88 42.82 37.47 34.89 41.49 45.73 52.04 57.44 55.34 57.93 59.42 58.19 58.51 64.73 66.35 69.67 70.86 71.22 71.05 71.65 72.35 73.90 73.19 72.59 70.85 71.17 72.01 72.68 73.08 73.52 73.38 73.54 73.58 72.27 71.36 70.93 70.23 69.77 69.56 69.98 70.16 70.69 71.13 70.69 70.59 71.81
58.42 57.17 54.00 43.94 40.15 41.68 39.22 42.49 47.45 52.18 54.65 56.65 60.07 57.07 61.27 64.38 65.76 68.59 70.61 71.00 70.45 70.42 71.07 72.76 73.49 73.21 73.01 72.17 71.54 71.63 71.99 72.06 72.31 73.02 73.06 72.51 71.17 70.71 70.23 69.60 69.62 69.96 70.70 70.64 71.08 70.99 70.20 71.13 71.68
58.04 54.24 45.01 41.80 40.49 43.56 40.37 44.95 48.96 50.86 53.54 55.12 58.42 56.16 60.46 64.84 68.50 69.65 70.30 70.58 69.76 69.94 71.20 71.87 73.50 73.42 73.26 72.48 71.71 71.07 70.99 70.98 71.14 71.63 71.91 71.21 70.46 70.01 69.53 69.27 69.76 70.14 70.28 70.73 71.01 70.47 69.78 69.83 70.76
49.97 50.85 38.29 37.84 40.06 41.68 42.23 46.25 50.79 51.25 54.47 55.17 54.48 58.14 60.48 67.61 68.53 69.35 69.63 69.33 70.33 70.27 70.89 71.36 72.14 72.70 73.01 72.81 72.43 71.42 70.05 69.94 70.67 71.35 71.59 70.31 69.98 69.52 69.20 69.49 69.61 69.57 70.15 70.61 70.87 70.02 69.25 69.06 69.06
46.68 45.60 35.42 39.88 40.31 38.58 42.56 47.73 50.15 51.58 52.94 53.17 58.20 56.24 61.96 66.66 68.95 69.72 69.43 70.04 70.47 70.65 70.16 70.56 70.88 71.25 71.64 72.19 72.22 71.65 70.42 69.75 70.20 70.67 70.89 70.24 69.96 69.38 69.27 69.39 69.75 69.56 70.13 70.28 70.18 69.37 68.46 68.21 67.95
47.69 48.06 40.86 40.22 38.37 38.46 44.39 49.22 50.30 53.10 52.18 57.98 58.00 54.50 58.98 64.29 68.58 69.37 69.60 69.41 69.86 70.01 69.54 69.48 69.67 69.43 68.99 69.61 71.26 70.90 70.45 69.47 69.31 69.57 69.22 68.45 68.29 68.74 69.55 69.35 69.14 69.65 69.73 69.58 69.24 68.60 67.82 67.06 66.32
49.16 40.45 39.87 40.04 41.10 41.90 45.79 47.69 51.31 55.33 54.71 57.71 57.02 60.15 63.18 66.64 67.58 67.86 67.53 67.90 68.51 69.08 69.48 69.31 69.35 68.24 67.62 67.79 69.15 70.56 70.11 69.45 68.58 67.59 66.70 65.92 65.04 65.85 66.03 66.85 68.39 69.23 68.80 68.47 68.07 67.54 66.65 65.35 64.04
43.11 41.28 41.16 46.60 46.96 45.26 47.40 49.23 51.79 53.98 56.22 57.52 60.41 63.94 65.05 65.96 65.87 65.04 65.07 64.72 66.42 67.21 68.50 68.94 68.60 67.88 66.74 68.56 67.04 67.71 69.57 68.69 66.61 64.90 63.84 63.64 63.39 63.93 65.01 65.32 67.40 68.71 68.39 68.22 67.76 67.33 66.52 62.82 59.19
42.39 41.69 45.85 47.96 50.79 51.82 48.25 48.79 49.87 53.74 52.25 56.93 57.73 62.58 64.49 64.52 64.18 64.09 64.05 65.09 65.45 66.59 68.02 68.02 67.75 67.45 66.52 66.03 65.42 66.25 68.65 68.44 66.33 64.92 64.51 63.87 63.38 62.87 62.44 62.57 63.56 63.15 63.88 62.53 63.47 62.00 61.29 58.85 58.66
40.01 42.75 42.87 50.72 51.63 51.15 48.76 48.24 47.04 48.68 52.17 59.51 62.51 64.04 63.85 61.95 59.69 58.91 63.87 65.06 65.16 66.87 68.08 68.05 67.97 67.29 65.57 65.47 65.14 66.34 67.73 68.47 66.63 65.46 64.90 63.81 62.47 62.48 61.32 61.13 61.26 60.80 60.98 59.43 59.44 59.50 58.81 58.56 58.37
39.66 40.73 46.06 50.12 51.14 50.71 50.73 47.28 47.80 47.85 54.57 62.21 63.20 62.92 62.25 62.19 62.37 62.87 65.59 65.79 65.49 66.64 67.97 68.01 67.97 67.09 65.49 64.99 64.30 65.00 66.42 67.46 67.88 65.69 65.23 64.29 62.83 62.56 62.33 61.38 60.95 60.29 60.08 59.06 58.25 58.55 58.63 58.45 58.62
42.12 43.33 43.46 47.63 49.39 49.75 48.24 47.28 48.03 48.80 51.27 60.64 61.73 62.04 61.81 61.96 61.63 61.18 61.49 61.34 63.19 66.18 67.12 68.34 67.97 67.44 65.80 64.22 63.25 64.68 64.94 65.00 66.45 66.74 65.84 64.59 63.90 63.05 63.04 61.93 61.27 60.70 60.19 59.62 59.22 59.03 58.90 58.33 56.65
43.72 39.62 39.60 46.02 47.94 47.07 48.41 45.36 45.49 48.23 51.85 55.57 57.97 60.96 61.78 61.89 61.63 59.96 60.28 59.98 61.83 64.84 66.36 66.21 66.79 67.81 65.68 64.01 63.03 63.63 64.16 65.02 65.00 65.69 65.62 65.30 64.11 63.41 62.96 62.09 61.29 61.06 60.48 60.47 59.69 58.80 58.82 57.84 57.50
40.64 37.26 32.65 41.51 46.25 47.34 47.28 40.86 44.96 48.16 47.09 46.59 50.40 56.26 59.36 61.17 61.96 61.53 61.42 61.83 64.34 63.71 61.92 63.26 67.92 67.14 66.60 65.17 64.19 63.34 63.90 63.74 64.55 65.18 65.36 65.47 64.64 63.55 62.52 62.00 61.66 61.81 60.77 59.98 58.66 58.50 58.60 58.05 58.21
39.88 33.21 33.09 36.18 45.29 45.41 44.38 40.57 45.67 48.45 46.50 44.88 45.53 48.82 53.91 58.42 60.81 63.00 63.68 63.26 63.39 62.15 61.61 61.86 66.98 66.56 66.90 65.97 65.22 64.48 63.40 64.16 64.68 64.10 63.91 64.00 64.47 63.50 62.37 61.80 61.30 60.34 59.46 58.44 58.67 58.71 59.01 58.47 58.76
34.59 34.22 35.82 34.07 41.78 43.55 40.50 39.79 43.85 45.41 46.82 44.49 44.86 45.21 47.82 51.33 58.41 61.13 63.44 64.31 63.79 64.23 65.87 67.14 67.03 66.16 66.42 66.31 65.61 65.33 64.62 63.51 63.93 64.07 63.78 63.79 63.22 62.72 62.57 61.67 60.87 60.40 59.29 58.95 59.10 59.25 59.78 59.98 60.02
37.42 36.83 35.51 38.70 43.32 39.92 39.42 39.52 42.79 44.53 44.28 44.16 43.92 44.60 45.21 47.78 51.78 57.08 61.13 62.76 63.43 64.15 65.30 65.79 66.34 66.60 67.26 65.39 64.39 64.43 64.47 64.39 63.47 63.36 64.15 63.91 63.59 62.99 62.30 61.62 61.32 61.72 60.78 60.63 60.43 60.63 60.76 60.67 61.26
36.24 35.43 34.91 39.83 43.27 41.38 39.89 38.48 43.71 44.14 43.66 43.93 44.89 44.93 44.95 45.50 48.01 49.94 53.89 59.55 61.78 63.16 64.14 64.54 65.40 65.84 66.29 66.71 66.33 65.91 65.85 65.16 65.32 64.80 64.20 64.19 63.67 63.60 63.69 63.43 63.05 62.49 61.88 61.82 61.75 62.10 61.41 61.21 61.48
33.09 31.43 33.19 36.39 41.51 41.82 39.52 37.45 40.25 43.78 44.25 45.60 46.35 46.23 45.32 45.80 46.51 47.94 49.75 52.57 58.18 61.01 62.30 63.54 64.81 65.18 65.50 65.54 65.12 63.51 64.07 63.79 63.87 64.34 64.03 64.39 64.62 64.97 64.27 64.45 64.15 63.71 63.28 62.79 63.10 62.71 61.88 60.64 61.32
30.05 36.72 37.08 38.81 36.39 30.90 38.74 28.10 36.37 40.79 42.32 44.44 44.97 44.12 45.32 45.01 45.44 46.75 48.17 50.19 50.73 56.95 61.46 63.44 64.16 64.04 64.56 64.17 64.01 62.69 62.96 62.47 63.57 63.03 63.53 64.03 64.32 63.96 63.97 63.87 63.49 63.36 63.39 62.79 63.10 62.98 61.96 61.53 59.68
33.79 38.79 37.14 38.73 33.73 32.10 34.01 29.91 32.62 39.50 39.47 42.37 44.23 44.60 44.17 44.59 45.52 46.29 46.91 48.96 51.35 51.43 56.20 60.76 62.45 62.83 62.99 62.73 63.61 62.61 61.98 62.55 61.30 61.53 61.97 61.81 62.06 62.25 62.67 62.75 62.92 62.72 62.51 61.94 61.68 61.08 60.87 60.82 60.57
38.90 36.88 36.25 35.28 33.88 26.83 30.74 31.51 30.58 33.21 37.51 41.40 44.82 43.80 44.40 44.68 44.68 46.26 47.31 47.61 48.45 48.44 52.43 58.10 60.74 61.50 61.99 61.69 62.02 62.03 62.06 60.89 59.23 58.64 59.62 60.20 59.96 59.94 60.15 60.75 61.19 60.85 59.97 59.34 58.79 58.16 57.58 56.81 56.36
36.71 32.15 26.99 25.88 27.05 22.96 28.98 30.15 33.25 37.27 37.82 38.70 40.04 40.49 42.20 42.63 43.35 44.19 45.22 45.78 47.13 46.79 47.56 54.44 57.78 58.97 59.91 60.59 61.64 62.27 61.64 60.77 59.35 58.30 58.45 58.02 57.04 56.97 57.62 58.01 57.76 57.61 57.68 56.16 55.73 55.16 54.69 54.67 53.83
31.80 31.23 23.17 19.42 20.27 20.92 30.20 27.47 31.71 37.75 39.52 40.01 40.42 39.66 38.80 39.67 40.43 41.65 45.15 46.50 46.54 46.58 45.87 48.35 53.24 56.23 57.94 59.56 60.24 60.89 61.16 60.52 59.63 57.75 56.29 57.63 56.27 55.01 54.29 53.15 52.29 52.82 52.64 51.51 50.95 51.48 52.08 52.91 51.67
33.27 27.58 33.73 24.83 22.29 17.60 25.17 28.81 33.47 37.25 37.37 37.73 37.83 38.92 37.75 38.50 40.62 40.57 43.09 44.59 46.08 45.92 46.20 47.41 49.75 51.81 54.30 55.63 58.03 56.78 56.77 56.18 56.32 55.09 54.17 53.72 52.96 52.51 51.71 51.04 49.91 49.64 48.37 48.25 47.50 48.28 47.88 47.53 48.66
36.44 36.27 29.52 31.53 23.17 19.88 20.63 21.60 26.08 31.52 34.41 36.12 37.57 37.02 38.01 38.85 41.21 42.98 42.42 42.38 43.38 43.89 45.77 47.42 49.40 50.88 50.54 50.26 51.23 51.07 51.17 51.37 51.13 50.86 50.69 50.78 49.48 49.11 48.95 48.83 47.94 46.27 44.95 44.20 43.85 43.49 44.58 45.28 46.48
35.38 34.49 32.63 31.66 28.03 20.20 18.26 22.37 29.53 32.07 34.84 36.19 37.47 37.52 37.83 38.44 39.81 42.25 43.50 42.88 43.25 44.14 45.62 46.57 47.79 48.09 47.47 47.65 47.32 47.57 47.91 48.09 48.22 48.44 48.10 48.22 47.97 47.49 47.19 45.08 43.23 42.25 41.66 41.63 41.60 41.90 42.73 43.61 44.25
38.00 35.39 34.40 27.51 24.32 22.43 19.16 23.41 32.35 32.34 35.03 36.27 36.75 39.17 39.47 38.86 38.94 39.92 41.83 42.95 43.33 44.00 44.49 45.53 45.97 46.71 46.75 46.43 45.61 45.10 44.65 44.27 43.81 43.01 42.78 43.32 42.79 42.89 42.46 42.87 42.39 41.81 41.24 40.60 40.49 40.43 40.80 40.72 41.07

GFSSGP_sfc_wetblb_105.txt.gz
Wetbulb
63.00 62.90 64.03 58.79 48.49 46.51 42.03 44.83 50.38 49.83 51.23 54.61 55.35 56.83 56.08 56.94 54.37 51.54 67.67 69.28 71.41 72.03 73.10 73.06 73.90 73.56 72.15 72.18 72.77 73.18 74.29 73.99 74.64 74.61 75.13 74.79 73.95 72.86 72.00 71.42 71.35 72.40 71.40 71.45 71.12 71.30 71.47 71.41 71.19
61.95 60.87 59.96 54.24 43.83 38.60 40.78 47.34 47.10 51.38 54.63 56.01 58.59 59.37 57.79 56.47 63.32 65.07 66.62 70.30 71.67 72.31 72.86 72.55 73.62 73.21 71.21 72.29 72.96 73.57 74.51 74.65 74.05 74.33 74.49 74.61 73.16 72.10 71.49 70.93 70.95 71.67 71.06 71.22 70.98 70.84 71.16 71.18 70.71
60.09 60.23 53.10 47.89 43.25 38.77 40.26 45.29 48.27 52.65 55.38 56.04 56.95 60.63 59.72 59.26 64.77 66.05 69.85 70.76 71.76 72.20 72.43 72.88 73.25 72.77 70.93 72.48 72.93 73.90 74.20 74.34 74.03 73.81 73.91 73.86 72.29 71.51 70.71 70.26 71.14 71.57 71.67 71.14 70.78 70.98 71.09 72.00 71.80
55.94 55.50 54.13 44.60 40.46 44.04 45.35 46.09 49.31 53.29 55.57 58.92 59.33 57.11 63.27 66.33 66.60 69.09 70.65 70.83 71.28 71.80 72.51 72.73 72.82 72.69 71.80 72.89 73.37 73.74 73.92 73.46 73.27 73.13 73.46 73.04 71.61 71.03 70.33 70.21 70.79 71.05 71.44 71.54 70.94 70.82 71.65 71.85 71.25
55.25 52.11 43.28 41.36 41.88 45.74 48.40 46.96 51.46 52.74 54.39 56.24 57.08 54.94 60.44 65.64 69.21 70.02 69.74 70.37 70.21 71.18 72.46 71.98 73.01 72.61 72.08 72.21 72.86 72.85 73.00 73.47 72.85 73.34 72.51 71.70 70.82 70.36 70.08 69.82 69.70 70.94 71.08 71.50 70.40 70.44 71.28 70.52 70.03
47.18 49.66 40.09 36.35 40.57 45.69 47.75 49.51 50.27 54.14 55.11 55.88 55.32 54.73 59.88 67.22 68.84 69.54 69.92 69.60 70.47 70.92 71.96 71.39 71.90 72.27 71.77 71.55 71.82 72.21 72.20 72.58 72.58 72.62 71.73 70.70 70.20 69.67 69.63 69.73 69.95 70.70 70.95 70.74 70.20 69.86 69.74 69.85 69.43
45.09 43.62 37.28 36.53 41.07 43.43 46.65 50.07 49.67 52.49 54.65 54.69 57.79 53.49 60.67 65.90 68.92 69.96 69.23 69.64 70.33 71.40 71.26 71.63 71.44 71.57 71.22 70.89 70.79 71.15 71.42 70.83 71.51 71.56 71.21 70.54 69.90 69.76 69.73 69.52 70.07 70.14 71.11 70.98 69.90 69.29 68.99 68.75 68.33
48.30 45.58 40.03 36.82 40.32 42.09 47.57 48.21 52.04 53.08 53.17 59.12 59.07 53.16 55.28 64.47 68.73 68.61 68.83 69.43 69.56 70.53 70.97 71.11 71.40 71.22 71.35 71.08 70.15 69.52 69.60 70.00 70.46 69.66 69.38 68.61 68.30 68.90 69.83 68.80 68.87 69.51 70.50 70.33 69.42 68.67 68.03 67.28 66.98
49.48 40.87 35.49 39.80 40.55 43.88 47.44 48.01 54.14 56.81 55.83 57.00 57.63 57.51 59.97 66.55 68.41 67.30 67.22 67.45 67.74 69.26 69.73 70.31 70.09 70.20 70.79 71.23 69.98 69.35 68.76 68.61 68.59 68.34 67.02 67.17 68.48 68.82 68.61 67.62 68.16 69.87 70.03 69.51 68.76 67.90 66.75 65.64 65.49
44.04 40.38 38.45 45.08 46.39 46.04 49.40 49.78 53.72 54.68 56.20 54.03 56.03 59.42 63.69 65.13 66.36 65.51 65.05 64.97 66.29 67.44 68.60 69.60 69.37 69.20 69.60 70.32 70.61 69.92 68.72 68.12 68.25 68.24 68.14 68.13 68.34 68.37 68.08 66.93 67.73 69.11 68.77 68.56 68.07 67.18 65.72 63.51 63.96
43.93 40.55 42.69 44.45 48.49 49.11 48.79 49.42 53.06 54.01 53.23 54.71 54.65 58.61 62.74 63.85 64.73 64.90 64.70 65.38 65.26 67.80 68.40 68.50 68.90 68.81 68.83 68.90 69.90 69.75 69.09 67.99 66.91 66.96 67.14 67.31 67.24 67.40 67.75 68.06 67.99 67.98 65.44 67.28 66.98 66.42 65.03 63.49 63.92
40.29 43.50 43.01 44.49 45.24 50.03 48.03 50.45 50.30 53.52 54.35 58.76 58.93 61.58 61.91 61.55 59.83 59.70 63.15 65.02 66.33 67.15 67.70 67.81 68.19 67.88 67.77 68.02 68.78 69.50 69.06 68.19 66.38 66.03 66.19 66.08 65.72 65.65 65.83 66.02 66.03 65.77 65.57 64.67 65.07 64.30 63.64 62.97 63.01
41.24 41.58 44.35 44.77 46.53 50.67 51.03 47.95 49.56 50.11 52.59 60.86 62.18 62.50 63.20 60.56 59.49 60.24 61.39 64.84 66.13 66.35 67.35 67.13 67.50 67.42 67.08 66.65 67.45 68.20 68.58 68.27 67.33 66.87 66.67 65.91 65.01 64.49 64.55 64.37 64.78 64.42 64.53 63.44 63.33 63.76 63.28 63.47 63.91
41.50 42.45 42.57 43.87 45.07 46.06 48.43 48.39 49.13 50.52 51.55 59.47 60.34 61.57 62.82 60.80 59.24 58.98 60.48 64.50 66.06 66.30 67.17 67.77 67.31 67.55 66.86 66.13 66.29 67.35 67.49 68.49 68.16 67.37 67.38 66.62 65.45 65.67 65.03 64.85 64.64 64.39 64.23 63.76 63.46 63.82 63.99 63.92 63.53
43.33 39.36 41.07 43.13 42.73 44.45 48.77 46.55 45.04 49.10 52.16 57.53 58.81 60.81 61.53 61.35 60.12 60.59 64.08 64.30 65.74 66.72 68.01 67.95 67.66 67.56 66.66 66.03 65.94 66.20 67.45 67.85 67.11 67.39 67.43 67.04 66.08 65.78 66.20 65.58 65.28 64.86 64.46 63.85 63.59 63.62 64.00 63.75 62.30
39.47 38.94 34.09 40.64 41.46 41.90 47.04 41.65 46.14 49.16 49.17 49.59 54.50 58.19 59.31 61.09 61.09 61.02 63.56 63.72 64.68 66.71 67.13 67.88 67.99 67.94 66.83 65.68 64.89 65.40 65.84 67.18 67.70 67.37 68.10 67.68 67.01 66.56 66.24 65.92 65.69 65.63 64.76 64.34 64.11 63.74 62.98 62.91 62.99
38.82 32.89 33.57 36.70 41.36 41.83 44.72 41.98 45.53 48.07 47.93 47.40 48.54 51.34 57.56 59.08 60.46 61.42 61.83 61.53 62.62 65.18 65.70 65.26 67.05 67.78 67.17 66.03 65.72 65.24 65.71 66.00 66.83 67.65 67.97 68.08 67.49 66.88 66.75 66.41 66.46 65.77 64.85 63.80 62.97 62.38 63.39 63.18 63.28
34.17 34.16 35.34 34.60 38.19 41.33 40.86 41.04 43.73 46.10 46.66 46.34 46.58 48.40 51.77 58.21 59.25 61.69 62.00 62.26 63.56 63.66 63.02 61.84 63.79 66.73 67.70 66.14 65.88 66.18 65.21 65.21 66.31 66.43 66.51 66.96 67.68 67.06 66.60 66.37 65.96 65.03 63.63 63.10 61.98 62.30 62.64 63.49 63.48
38.08 36.56 34.58 37.18 40.25 40.04 38.76 39.84 42.35 45.21 45.94 46.12 46.61 47.18 48.61 51.50 55.85 60.47 62.61 63.39 62.62 63.06 63.06 62.97 64.04 66.80 66.45 65.20 64.56 64.54 64.98 65.28 65.12 65.97 66.48 66.17 66.33 65.88 66.00 65.96 65.25 64.28 63.07 62.74 62.27 62.50 62.40 62.56 64.14
38.04 36.50 35.95 39.42 41.94 40.27 38.54 38.10 42.44 44.81 44.82 46.16 46.20 47.07 48.07 48.19 50.68 54.67 59.90 62.82 63.00 64.02 64.64 65.86 65.17 66.50 66.51 66.05 65.79 65.89 65.12 65.69 65.97 66.78 66.28 66.68 66.17 65.93 65.56 65.14 64.82 63.85 62.69 63.06 62.92 63.21 63.39 63.82 63.63
35.45 35.09 35.52 36.31 40.63 42.27 38.76 36.80 39.77 43.47 45.14 46.08 46.99 47.82 48.26 49.08 49.05 50.02 53.66 59.12 62.34 62.79 63.94 64.81 65.32 65.60 64.49 65.53 64.62 64.05 65.18 64.84 64.84 65.46 64.78 64.38 65.51 65.77 65.91 64.54 64.61 64.02 63.69 63.20 64.42 64.14 63.73 62.17 62.52
33.11 38.17 38.03 39.15 37.20 31.62 39.48 29.51 36.67 40.36 42.18 44.27 46.79 47.21 47.97 48.34 48.67 49.24 51.21 52.84 56.90 61.51 63.78 64.12 64.61 65.05 65.39 65.56 64.73 61.70 61.99 62.13 64.25 64.38 65.33 65.55 64.96 65.08 65.58 65.32 65.03 65.20 65.20 63.91 64.01 63.66 63.47 62.49 59.62
34.99 39.76 39.03 38.98 35.01 34.90 35.51 31.68 35.05 38.57 38.84 41.82 44.69 47.39 48.21 48.39 49.01 49.54 49.76 51.25 53.70 55.54 61.09 63.52 63.70 64.71 64.85 65.73 64.80 64.21 62.77 63.93 64.51 64.24 64.18 63.67 64.76 65.03 65.27 65.53 65.23 64.59 64.19 63.69 62.79 61.76 61.30 62.02 61.10
40.01 37.39 36.74 36.40 34.94 28.70 32.27 32.07 31.87 35.63 38.66 41.82 44.64 46.93 46.82 48.10 48.34 49.11 50.33 50.56 51.05 52.99 54.35 59.82 62.61 63.05 64.08 64.11 64.28 63.72 63.34 63.02 62.15 62.65 62.07 62.77 62.58 62.45 63.33 63.46 63.61 62.99 62.31 62.13 61.80 61.07 59.73 59.52 59.68
37.87 33.39 26.59 27.11 27.54 24.72 30.05 31.42 33.52 38.24 40.27 41.32 42.77 44.86 46.08 47.70 48.43 48.27 48.82 49.00 50.10 50.68 51.55 56.52 60.55 61.76 62.66 62.74 63.08 63.48 63.27 62.36 62.03 61.06 61.63 60.73 59.97 59.05 59.91 60.74 60.89 61.03 61.54 61.70 61.07 59.77 57.39 56.83 56.96
34.45 32.97 25.16 19.60 21.98 24.27 31.60 28.95 33.98 39.96 42.24 42.25 42.80 42.81 42.61 44.19 45.30 46.09 47.50 48.81 49.65 50.53 50.56 52.91 57.84 59.66 61.37 62.02 62.72 63.71 63.68 63.30 62.65 61.29 60.57 60.62 59.71 59.01 59.00 59.01 58.34 56.77 57.61 56.97 56.29 55.44 54.98 55.41 55.65
33.92 31.90 34.90 25.84 24.65 22.88 27.32 30.68 35.15 37.67 37.88 39.11 39.75 40.57 41.43 42.76 43.92 43.60 43.92 46.60 48.71 49.84 50.28 50.00 52.51 56.10 58.94 60.43 61.08 61.05 61.35 61.23 61.03 60.14 59.30 59.39 58.58 56.97 55.75 54.98 53.95 53.09 52.43 51.19 50.98 49.99 50.23 51.38 52.39
36.79 37.80 31.39 32.18 21.97 19.88 23.61 24.54 29.11 33.44 35.63 37.76 39.64 40.67 40.72 41.98 43.83 44.90 44.30 44.43 46.23 47.96 48.94 49.22 51.04 53.76 56.38 58.00 59.44 58.52 57.42 57.44 57.47 57.32 57.12 56.62 55.19 53.98 52.88 51.64 50.66 49.72 48.82 48.08 48.34 47.45 48.14 48.92 50.50
35.12 33.74 33.57 32.95 30.11 23.07 20.26 25.18 32.02 33.78 35.20 35.84 37.28 40.05 41.23 41.43 42.07 43.87 44.43 44.44 45.61 47.03 48.22 49.18 50.39 51.82 52.55 53.30 53.49 53.25 53.06 53.19 53.34 54.03 53.79 53.12 52.37 51.69 50.75 49.38 47.71 46.64 45.87 46.05 46.42 46.47 46.80 47.24 47.79
36.83 34.31 33.47 28.87 26.00 23.91 23.25 26.14 34.46 34.66 36.07 37.35 37.46 40.09 41.48 41.70 41.66 42.37 44.28 44.88 45.49 46.25 47.40 48.84 49.75 50.71 50.92 50.39 50.01 50.00 50.02 50.00 50.18 50.12 49.89 50.03 48.23 47.35 46.01 45.47 45.27 45.05 44.90 45.26 45.27 44.87 44.94 45.14 45.12

GFSSGP_sfc_wetblb_108.txt.gz
Wetbulb
61.28 61.64 62.67 59.43 50.29 49.46 45.26 48.04 55.32 54.47 56.40 60.52 59.93 60.37 59.98 61.43 58.86 57.04 68.93 71.65 72.25 72.85 73.53 73.61 73.84 73.61 73.41 74.14 74.08 73.85 74.68 74.88 75.12 75.16 74.81 74.25 73.76 72.96 72.51 73.36 73.42 72.73 71.87 71.93 72.93 72.58 71.84 71.28 71.01
60.99 59.60 59.23 54.43 44.91 40.96 44.49 50.91 51.31 55.00 58.81 60.48 59.08 60.33 59.97 58.78 63.75 66.18 67.27 71.00 72.76 73.27 73.17 72.92 73.53 73.34 73.20 73.51 73.68 74.18 74.24 74.89 74.91 74.60 74.44 73.84 73.33 72.38 71.85 73.11 73.17 72.31 71.65 71.35 71.33 71.28 71.10 70.87 70.88
59.27 58.96 51.65 47.83 43.70 41.09 44.49 50.70 53.07 55.92 59.13 58.93 58.01 61.29 60.37 60.65 65.89 67.53 70.72 70.97 72.73 72.54 72.86 72.55 73.40 72.78 73.07 73.46 74.04 74.41 74.38 74.81 74.57 74.28 73.83 74.04 72.53 71.78 71.38 72.54 72.47 72.35 71.06 71.16 71.24 71.30 71.35 71.00 70.62
55.06 54.66 51.55 43.04 40.89 45.61 48.51 51.49 54.23 55.09 57.43 59.59 59.83 57.46 64.32 68.00 67.48 69.77 71.37 71.42 71.48 72.25 72.46 72.76 72.64 72.43 73.65 73.86 74.22 74.60 74.70 74.48 74.26 73.73 73.44 73.37 72.65 71.17 71.78 71.93 71.96 71.70 71.59 71.22 71.13 71.78 71.53 70.90 69.99
55.31 50.13 40.34 40.63 42.65 46.92 50.55 52.88 54.36 53.70 56.36 57.67 59.62 56.97 60.61 67.25 70.27 71.12 70.55 70.77 71.01 72.02 72.56 72.51 72.43 72.35 73.61 73.51 73.92 73.96 74.32 73.90 73.56 73.46 73.28 72.32 71.19 70.88 70.67 70.95 71.48 71.70 71.91 70.82 71.59 71.52 71.04 69.96 68.56
47.38 47.77 39.02 35.71 41.77 46.92 49.26 53.66 53.83 53.80 56.20 58.82 58.86 58.48 60.66 68.62 69.44 70.15 70.34 70.37 72.10 71.58 71.69 71.76 71.23 71.94 73.03 73.12 73.51 73.54 73.46 73.23 73.11 73.36 72.58 71.95 70.96 70.58 70.02 70.46 71.47 71.76 71.09 70.59 70.95 71.07 70.46 69.52 68.28
44.79 42.90 39.21 39.24 39.32 41.94 47.31 54.62 51.19 52.97 55.09 56.90 60.76 57.04 59.81 66.14 69.90 70.23 69.68 70.46 71.15 71.99 71.09 70.96 70.69 70.75 71.31 72.02 72.36 72.60 72.77 72.39 72.52 72.18 71.47 70.44 70.32 70.36 69.57 70.66 71.18 71.48 71.36 70.33 70.05 69.91 69.77 69.42 68.44
48.24 45.22 39.79 38.90 38.86 41.45 48.78 49.99 53.79 52.69 54.62 61.06 62.47 57.00 58.10 63.07 70.33 69.60 69.25 69.91 70.46 71.24 70.73 70.73 69.75 68.40 71.05 71.55 70.62 70.78 70.78 71.06 71.24 70.55 69.27 68.64 68.57 69.25 69.76 69.87 69.75 71.78 71.45 70.18 69.77 69.07 68.69 68.21 67.96
51.39 40.57 38.03 38.98 39.47 44.29 49.34 48.46 52.84 55.90 56.54 59.70 61.14 60.82 63.12 65.92 68.46 67.46 67.19 67.95 69.12 70.23 70.02 70.26 69.42 69.21 67.84 69.26 69.83 69.45 69.44 69.48 68.96 68.35 67.18 67.31 68.90 69.50 68.15 67.93 68.68 70.48 70.86 69.85 68.93 68.22 67.31 66.82 66.43
45.51 40.39 39.17 43.81 44.87 44.41 47.62 48.59 50.25 51.67 54.77 57.32 59.15 61.14 63.66 66.88 66.16 65.36 65.11 65.26 66.81 67.86 69.33 69.95 69.08 69.42 69.72 67.87 67.99 68.78 69.93 70.40 70.16 69.09 68.86 68.07 68.38 69.20 68.96 67.29 68.15 69.79 69.59 69.16 68.26 67.00 65.53 64.54 66.54
45.01 40.57 44.56 44.60 45.92 47.29 46.96 47.81 52.45 50.24 51.57 56.75 57.40 59.79 61.19 60.27 59.00 64.24 64.56 65.09 66.23 67.30 68.70 69.15 69.06 69.95 70.87 69.25 67.66 66.65 67.06 67.97 68.63 68.53 68.11 68.00 68.15 68.61 68.89 69.14 69.06 69.05 66.28 68.01 67.26 66.31 65.86 65.21 65.73
41.63 44.91 45.12 44.91 47.01 45.09 46.37 48.49 48.77 51.67 54.19 59.62 60.57 61.43 61.08 59.80 58.65 57.05 59.15 64.07 65.64 66.95 67.98 68.55 69.68 69.20 70.60 70.39 69.18 67.57 66.11 66.41 67.34 67.76 67.55 67.36 67.06 67.19 67.48 67.40 67.71 67.30 67.08 66.60 66.51 66.03 65.30 64.71 65.44
43.88 44.49 44.99 46.13 46.58 45.71 47.80 48.54 48.25 52.01 57.56 58.04 61.05 61.22 61.06 59.72 58.19 58.80 59.78 59.82 63.11 66.10 67.88 68.66 69.64 69.14 69.10 70.68 69.47 69.63 68.06 66.47 65.54 66.71 67.05 66.92 66.34 66.11 66.55 66.58 66.43 65.74 65.56 64.62 64.26 63.88 63.26 63.81 65.30
45.69 44.81 45.05 45.45 44.23 45.16 44.88 48.30 49.83 52.59 55.76 55.36 60.18 60.79 59.90 59.65 58.92 58.65 58.78 59.14 58.16 66.13 67.50 68.47 68.70 68.18 67.94 69.06 69.90 69.32 69.32 68.66 67.29 65.91 65.83 65.68 65.34 65.11 64.92 64.91 64.71 64.61 64.83 64.41 64.89 65.21 64.98 65.53 65.57
45.49 42.03 44.04 44.17 44.23 42.72 43.81 44.70 47.21 52.92 53.96 54.34 58.93 60.06 60.47 59.49 59.07 58.11 59.15 60.06 60.40 66.69 66.98 67.61 68.54 67.94 66.18 66.23 69.22 69.94 69.24 69.48 68.55 67.61 67.64 66.76 66.23 66.19 66.07 65.66 65.31 64.82 65.55 65.45 66.11 66.16 66.39 65.96 65.26
42.00 42.17 37.74 42.04 43.32 43.28 42.68 40.32 49.55 51.96 52.81 55.00 57.88 59.59 60.69 59.89 59.00 59.72 60.45 61.03 63.90 66.42 66.48 66.93 67.73 67.89 67.29 66.23 66.03 68.19 69.46 68.91 68.48 68.36 68.60 68.65 67.76 67.44 68.17 68.03 67.02 66.96 66.67 66.15 65.83 65.59 65.39 65.70 65.74
40.43 35.44 36.75 38.61 43.42 42.75 41.16 40.93 48.50 50.96 52.36 52.52 56.35 58.74 59.49 59.29 59.45 60.25 61.63 61.52 63.53 66.65 67.37 67.47 67.65 67.68 67.57 67.64 66.81 66.19 66.83 68.90 69.40 68.86 69.42 69.25 68.72 68.13 68.58 68.63 68.23 67.95 67.27 66.45 65.97 65.48 65.59 65.18 65.65
35.62 35.55 37.87 37.87 40.16 41.72 39.55 39.83 47.45 49.69 50.51 51.61 53.59 55.60 57.04 58.52 59.01 60.57 61.34 62.84 63.85 66.13 67.49 68.48 68.83 68.79 68.77 68.50 67.72 66.86 66.49 66.35 67.13 68.02 69.18 69.85 69.54 69.04 68.50 68.73 68.74 68.13 67.27 66.92 66.38 65.11 65.62 65.68 65.77
40.76 38.97 38.36 39.23 41.72 39.86 38.63 38.72 43.05 47.80 50.49 50.39 50.56 52.10 54.20 57.37 59.49 61.11 62.07 62.31 63.17 63.96 63.53 63.99 66.35 68.30 67.67 67.54 66.68 66.38 65.61 66.06 66.02 66.83 67.33 68.02 68.49 69.35 69.32 69.15 68.58 68.04 66.91 66.64 66.67 65.31 64.86 64.73 66.35
40.97 39.18 38.38 40.59 41.68 40.70 39.70 38.39 43.61 46.26 49.70 50.86 49.18 49.88 52.71 54.33 57.23 60.64 61.46 61.58 62.13 62.24 63.10 63.17 65.10 67.09 67.48 67.48 66.87 67.17 67.30 67.89 67.76 67.72 67.79 68.39 68.22 68.58 68.72 68.80 68.35 68.09 67.11 66.70 66.05 65.29 64.63 65.29 66.12
40.14 38.95 38.68 38.05 40.94 41.23 40.90 39.56 41.02 45.59 49.06 50.38 50.19 50.90 50.82 52.86 56.27 59.27 61.31 61.45 61.44 62.02 63.23 64.03 64.72 66.65 67.13 67.47 66.28 64.67 64.54 65.60 66.19 67.41 67.98 68.15 67.89 68.25 68.15 68.04 68.11 67.78 66.48 64.47 64.80 65.34 65.21 64.15 64.97
36.29 41.22 41.03 39.86 38.52 33.49 40.91 35.48 39.73 42.48 46.89 49.27 51.72 51.05 51.04 51.18 52.14 55.87 58.50 61.24 60.44 61.95 64.33 64.07 63.88 65.84 66.16 65.58 64.28 62.18 60.99 60.58 64.84 65.89 67.59 66.64 66.90 66.43 65.45 64.89 65.68 66.34 65.61 65.00 65.11 65.27 64.80 63.12 60.05
38.29 42.25 40.69 41.10 37.64 36.37 36.35 34.60 41.32 43.58 41.14 46.46 50.88 51.87 52.70 52.72 52.49 52.29 53.63 57.06 62.02 63.19 62.63 64.45 63.48 64.16 64.17 64.67 63.80 63.27 61.64 61.72 62.90 63.95 63.64 63.41 64.21 65.58 65.90 65.88 65.72 65.32 65.64 65.72 64.90 64.26 63.44 62.38 61.57
42.86 41.34 41.02 40.84 37.92 30.87 35.61 34.84 37.37 41.14 44.86 46.51 49.49 51.14 53.23 53.78 53.14 53.52 54.21 54.57 55.91 59.74 62.95 64.45 64.23 63.47 63.89 63.59 64.48 64.45 62.49 61.51 61.43 62.41 62.14 62.68 63.27 64.46 65.25 65.55 65.27 65.80 65.54 64.99 64.74 64.63 62.87 61.87 62.21
41.25 38.30 31.15 28.36 29.41 28.81 34.41 34.09 38.17 42.55 44.88 45.58 46.60 49.54 51.16 52.89 53.38 53.20 53.19 52.81 53.58 55.31 57.35 61.51 64.30 63.76 64.38 64.38 64.33 64.36 64.15 62.78 62.11 62.32 62.79 62.88 63.09 62.09 63.03 64.18 64.34 64.41 64.82 63.96 63.08 62.41 62.09 60.44 59.34
38.15 37.09 31.56 22.86 25.96 29.98 33.98 31.19 38.44 43.92 45.70 47.46 46.94 48.31 48.43 49.13 52.48 52.88 53.17 54.61 54.23 55.28 56.15 58.00 60.49 63.28 64.88 64.45 64.15 65.21 64.63 64.42 63.89 64.03 64.06 63.59 62.70 62.15 62.41 62.54 63.36 62.58 61.78 61.26 60.81 59.30 58.92 58.96 58.54
36.21 33.69 38.27 31.20 30.83 30.19 34.29 36.27 40.61 42.46 42.93 44.59 44.84 44.90 46.44 47.70 50.42 50.72 50.91 53.20 54.17 54.80 56.01 56.68 58.47 60.65 63.39 64.00 63.15 63.74 64.58 64.54 63.96 63.93 63.99 63.04 62.74 61.85 61.62 60.61 59.48 58.25 57.44 57.91 58.43 59.23 57.99 56.37 55.17
38.08 39.45 32.05 34.00 25.34 23.45 29.49 30.59 33.72 38.11 39.51 41.72 43.76 44.49 45.50 46.55 48.82 49.56 49.52 49.48 50.96 52.57 55.18 55.62 56.64 58.78 61.30 63.15 63.33 62.63 62.90 63.42 63.50 63.57 62.65 61.38 60.51 59.14 58.84 57.00 55.45 54.32 54.69 54.77 54.21 53.18 52.90 53.37 53.78
35.43 33.57 34.74 33.30 32.63 27.70 26.59 31.11 37.89 38.12 40.03 41.11 42.20 44.56 45.67 47.34 48.69 49.28 49.13 48.98 49.23 51.15 52.81 53.70 54.70 56.39 59.19 61.45 61.08 60.59 60.60 60.78 60.56 60.92 58.79 57.54 56.43 55.66 53.86 53.09 51.86 51.31 51.36 51.62 51.34 50.46 50.74 51.08 51.46
37.27 33.69 34.08 29.80 28.07 29.57 29.50 31.72 40.01 40.88 41.73 41.28 42.07 44.14 45.50 46.31 47.22 49.01 49.26 49.55 49.27 50.91 52.19 53.09 54.33 55.50 57.20 58.84 59.59 59.37 58.15 57.55 57.92 57.47 55.76 55.13 54.34 54.00 52.37 51.18 50.49 50.04 49.37 50.04 49.70 48.82 49.61 49.73 49.42

GFSSGP_sfc_wetblb_111.txt.gz
Wetbulb
61.46 61.69 62.63 57.22 48.55 48.45 46.00 47.68 53.50 52.93 54.73 60.19 61.83 60.65 60.58 61.93 59.41 56.81 69.71 72.20 72.04 73.30 73.36 73.72 74.05 73.84 74.01 74.44 74.21 75.12 75.41 74.94 74.68 75.04 74.73 73.98 73.40 72.83 73.66 73.62 73.11 72.03 72.82 73.04 71.97 71.70 71.92 71.23 70.91
59.67 59.52 59.38 52.98 43.96 39.20 44.50 51.82 50.15 53.89 56.85 60.22 61.04 60.94 60.69 59.08 65.31 66.36 68.29 71.60 72.54 73.51 73.07 73.04 73.79 73.73 74.24 74.67 74.29 74.75 75.09 75.07 74.82 74.62 74.50 73.87 73.45 73.15 73.92 73.28 73.49 73.01 72.94 72.70 72.15 71.57 70.64 70.78 70.37
57.77 58.28 49.99 45.72 41.95 39.67 43.66 50.11 52.70 55.18 57.97 58.24 59.29 62.15 61.77 60.77 65.82 67.77 71.01 71.83 72.63 72.42 72.88 72.78 73.58 73.59 74.39 74.25 74.17 74.35 74.74 74.63 74.32 74.14 73.97 73.77 73.72 72.52 73.03 73.20 72.89 72.23 72.06 72.15 71.43 71.19 71.01 70.40 69.88
55.10 54.06 50.88 42.08 37.91 43.47 47.68 51.47 54.14 54.39 56.81 59.30 60.45 57.44 62.73 69.11 67.68 70.02 71.66 72.05 72.22 72.34 72.45 72.43 73.02 73.48 73.12 74.13 74.15 74.16 74.31 74.14 74.15 73.70 73.55 73.57 72.97 72.83 72.54 72.69 72.03 71.49 71.74 71.69 71.54 71.32 71.12 70.10 68.62
54.35 50.38 40.88 37.39 39.38 45.27 48.47 52.06 52.90 52.92 54.79 57.00 58.60 57.26 60.16 67.47 70.62 71.33 71.10 71.65 71.28 71.72 71.96 72.44 72.74 73.34 73.87 74.40 74.18 73.96 73.91 73.91 73.70 73.64 73.70 73.16 72.62 72.56 71.95 72.02 71.47 71.88 71.70 71.66 71.69 71.39 70.53 68.83 67.83
46.69 46.98 37.44 35.72 38.81 42.91 48.17 51.72 52.70 51.95 54.97 56.29 57.09 58.08 61.27 69.25 69.80 70.27 70.96 70.83 71.59 71.57 71.58 71.76 71.39 73.08 73.71 74.10 74.04 74.12 73.97 73.46 73.38 73.19 73.08 72.52 72.17 71.94 71.12 71.15 71.68 71.61 71.04 72.07 71.20 70.80 69.72 68.22 67.68
44.50 41.37 37.04 37.59 38.97 40.40 43.81 49.99 49.99 50.90 52.78 54.61 58.99 55.73 62.49 67.13 70.04 70.75 70.81 70.73 71.12 71.54 70.52 70.45 69.83 72.52 72.21 72.80 72.89 73.17 73.21 72.55 72.50 72.47 71.99 69.81 70.69 71.01 70.96 69.73 71.84 71.22 70.86 71.55 71.47 70.44 69.51 68.56 67.90
46.84 43.99 37.61 38.95 38.22 39.78 46.23 47.95 51.45 50.82 50.66 58.17 59.25 55.21 58.74 66.77 70.25 70.04 70.20 69.96 70.15 70.34 70.23 69.42 68.58 72.28 72.08 72.28 71.49 71.51 71.52 71.39 71.41 70.75 69.82 69.03 68.94 68.88 69.88 69.44 70.66 71.29 70.87 70.58 70.48 69.70 69.26 68.81 68.00
49.69 38.78 35.50 37.85 39.04 42.57 47.13 47.07 52.24 55.06 52.24 55.02 56.02 60.47 63.56 68.68 70.25 68.35 67.70 68.51 68.53 69.39 69.51 69.12 67.13 70.00 71.87 71.30 70.33 70.17 70.13 69.80 69.11 68.35 67.17 67.30 68.25 68.43 68.65 68.27 69.63 70.70 70.55 69.93 69.23 68.65 68.13 67.68 67.42
43.25 38.10 38.73 43.24 44.54 44.20 46.47 46.03 47.60 48.48 50.94 52.93 56.11 61.13 65.56 68.97 68.18 66.68 65.36 65.57 66.66 67.30 68.89 68.24 66.23 66.93 70.49 70.68 69.53 69.56 69.58 69.27 68.89 68.05 67.87 67.39 67.99 68.64 68.74 67.37 68.25 70.16 69.83 69.25 68.57 67.52 66.72 65.80 65.74
43.67 38.40 43.82 44.86 45.65 46.51 45.19 45.83 48.22 48.53 48.34 52.96 52.56 59.13 63.87 66.36 66.05 65.93 65.48 65.59 67.17 68.07 68.46 67.96 67.03 65.52 68.14 70.27 70.33 70.43 69.68 69.77 69.58 68.48 67.17 67.11 67.83 68.16 68.60 67.97 68.48 69.09 66.82 67.95 66.95 65.53 64.51 64.95 65.27
40.55 45.07 45.99 46.20 47.09 46.01 44.14 46.55 46.43 49.48 50.96 54.45 54.84 57.62 63.83 64.32 64.90 62.04 58.02 58.84 60.65 66.72 67.75 67.96 67.51 66.97 66.27 66.87 68.59 69.41 69.38 69.84 68.15 67.69 66.40 66.84 67.70 67.43 67.53 67.92 67.87 67.74 67.62 67.08 66.58 65.36 65.25 64.77 64.77
43.64 44.70 46.16 47.42 46.87 46.29 46.59 44.09 43.72 49.00 53.45 54.92 56.02 57.65 62.35 63.82 62.44 60.89 59.72 59.39 59.10 58.91 67.14 67.92 67.57 68.22 68.03 66.05 66.24 66.37 66.53 66.90 67.11 67.35 66.94 67.14 67.00 66.66 66.99 66.69 66.95 66.72 66.60 66.14 65.54 64.80 63.89 63.09 64.04
46.42 45.58 46.04 46.22 45.91 45.98 43.87 43.98 45.91 50.24 54.04 54.29 55.74 56.48 61.66 61.76 60.70 59.22 58.80 57.29 57.46 59.63 60.89 68.23 67.04 68.66 68.58 67.42 66.81 65.50 65.09 65.76 66.71 66.92 66.84 66.63 66.63 66.54 66.45 66.15 65.85 65.34 65.03 64.21 63.61 62.89 62.87 62.79 64.66
46.12 42.80 44.91 45.13 44.76 44.21 46.72 44.06 44.97 50.65 53.34 52.96 55.11 58.70 60.93 61.60 61.22 58.52 57.95 57.19 58.31 59.50 60.43 67.58 67.94 67.41 68.40 68.18 67.58 67.25 66.48 65.24 64.99 65.46 65.69 65.40 65.36 65.37 64.92 64.12 64.24 64.33 64.27 63.58 64.47 64.72 65.20 64.90 64.70
42.06 43.14 38.59 44.78 44.47 44.74 44.61 38.02 46.53 51.48 51.85 52.70 55.19 57.97 59.66 60.77 59.72 59.08 58.88 58.95 59.01 59.48 61.19 66.98 67.79 67.13 66.90 68.53 67.87 68.30 67.77 67.22 66.14 65.62 65.40 64.63 64.78 65.48 65.46 65.51 65.07 65.01 64.94 65.23 64.98 65.22 64.81 64.99 64.83
41.13 36.70 37.73 40.60 45.49 44.22 42.69 39.60 46.03 49.21 51.99 52.42 55.22 56.91 58.25 59.58 59.29 58.96 58.87 59.06 60.03 61.22 61.99 66.74 67.18 66.46 64.86 65.88 68.38 69.08 68.51 67.93 67.90 67.38 67.31 66.68 66.14 66.36 66.59 67.62 66.93 66.96 66.46 65.63 65.59 65.06 64.89 64.41 65.02
37.25 36.79 38.74 37.48 42.77 42.23 41.13 41.95 44.56 46.10 51.58 52.64 55.34 56.03 58.11 58.74 58.38 59.09 59.96 61.03 62.02 63.40 64.67 66.62 66.20 66.96 66.45 65.80 65.81 66.07 68.18 68.88 68.82 68.39 68.42 68.08 67.84 67.07 67.47 68.32 67.73 67.51 66.82 66.43 66.10 64.95 65.22 65.26 65.33
41.02 40.75 39.22 41.09 43.41 40.97 42.29 42.25 43.34 46.57 51.50 52.42 55.13 56.83 57.75 57.93 59.87 60.72 61.51 62.28 62.32 63.08 64.30 66.51 66.55 66.66 66.64 66.79 65.79 65.16 64.10 65.13 66.38 68.24 69.37 68.86 68.60 68.18 68.14 68.41 68.29 68.06 66.86 66.78 66.82 65.98 64.63 64.73 65.93
42.14 40.52 39.80 42.45 43.17 41.38 42.82 42.03 46.01 46.90 50.68 52.94 53.99 56.03 57.31 57.12 58.36 59.75 60.93 61.62 62.27 61.95 62.49 62.66 64.68 65.89 66.54 67.07 67.16 67.19 66.51 67.16 66.82 66.95 67.38 67.89 68.15 68.67 68.03 67.67 68.15 68.22 67.47 66.87 66.73 66.27 64.60 65.50 67.33
41.21 40.05 39.94 39.73 42.23 43.36 41.51 40.97 43.44 46.80 51.20 52.54 53.71 55.56 57.07 56.94 57.11 58.24 59.75 61.04 61.41 61.26 62.12 62.22 62.51 64.78 66.10 66.75 66.66 66.56 66.84 67.07 66.73 67.40 67.44 68.04 68.08 68.81 69.40 68.70 68.55 68.21 68.17 67.34 66.08 65.68 65.08 64.37 65.31
36.70 42.76 42.13 40.71 39.40 35.65 42.11 34.26 42.29 44.19 48.03 50.40 51.70 52.40 53.76 55.87 57.86 57.99 59.60 60.37 59.99 59.39 60.46 62.18 62.08 62.99 66.50 66.65 65.00 63.88 63.18 62.90 65.48 66.44 67.39 67.41 67.69 67.74 67.88 67.87 67.63 67.16 66.99 65.93 65.53 65.47 65.72 64.35 61.69
38.56 43.62 41.95 41.49 39.52 38.38 38.46 35.53 41.22 46.02 44.98 48.45 51.46 52.18 52.35 54.07 56.34 57.82 59.70 60.92 60.54 59.60 60.08 62.24 62.26 62.81 63.67 64.64 64.20 64.27 62.92 64.09 65.55 64.95 64.34 64.20 63.92 66.43 66.74 66.46 66.19 65.61 65.47 65.28 65.36 64.24 63.27 63.07 62.36
44.02 41.83 41.41 41.54 38.11 31.72 36.78 35.91 38.64 42.16 45.15 48.15 51.91 53.01 52.83 52.51 52.86 54.76 59.00 61.41 60.24 61.90 62.92 62.28 61.69 62.21 63.20 63.32 63.78 63.48 62.92 62.25 62.47 62.12 62.06 62.31 62.85 63.22 65.21 65.93 65.92 65.11 64.45 64.06 64.36 64.09 64.18 63.04 62.63
41.65 38.00 30.91 28.44 30.31 29.66 36.84 35.01 38.42 43.59 46.13 48.84 50.09 52.44 53.87 53.71 53.13 53.22 53.32 54.42 57.76 59.72 61.74 61.48 62.28 61.46 62.23 62.18 61.64 62.70 63.20 62.23 61.63 60.79 60.35 60.88 61.38 61.91 62.90 64.55 64.87 64.57 64.46 64.73 64.75 64.24 64.09 63.38 61.23
37.97 37.10 30.90 24.05 26.61 31.05 36.41 31.95 37.42 44.88 47.05 48.39 48.69 50.15 51.62 52.84 54.16 53.38 53.86 53.74 54.84 57.21 59.36 61.44 62.31 61.73 62.28 61.63 61.84 62.98 63.11 62.85 61.20 61.30 61.16 60.95 61.77 62.25 64.21 63.97 64.88 64.25 64.37 63.75 63.72 63.09 62.09 60.73 59.57
35.99 34.15 39.58 32.63 34.11 30.45 34.51 37.31 41.50 44.02 44.58 46.03 46.76 47.17 47.98 49.07 50.81 54.33 54.83 54.87 54.84 55.58 57.07 58.94 61.37 62.36 62.62 62.36 62.59 63.08 63.07 62.10 61.89 61.90 62.48 62.51 63.45 63.34 62.99 62.84 62.40 61.67 61.16 60.99 60.53 59.20 57.58 58.75 59.10
38.05 39.45 31.75 33.99 24.75 23.73 31.09 31.84 33.04 38.43 40.67 43.66 44.76 45.94 47.30 48.13 50.07 52.65 51.48 52.33 54.48 55.99 56.87 58.02 59.23 60.76 63.67 64.44 64.02 64.04 63.80 64.07 63.95 64.03 63.66 63.29 62.90 61.69 61.35 59.83 58.29 58.21 57.00 57.07 56.63 56.35 55.23 55.76 56.08
35.17 32.75 33.88 32.42 31.98 26.96 26.07 28.52 39.41 39.79 41.56 42.04 43.79 45.73 46.98 48.87 50.05 50.87 50.88 50.88 50.54 52.22 55.05 56.27 57.45 59.15 60.69 63.68 63.69 62.83 63.72 63.75 63.85 62.82 62.31 61.42 59.84 59.14 57.59 55.64 54.18 53.63 53.75 53.41 53.63 53.40 53.41 53.20 52.99
37.72 33.42 33.34 29.24 28.07 32.00 30.12 29.30 43.05 43.00 42.73 43.54 44.36 45.69 47.00 47.87 48.73 50.42 50.88 50.37 50.83 51.07 51.96 53.92 55.21 56.84 59.60 61.84 62.16 61.72 61.70 61.21 60.64 60.41 58.70 58.08 57.12 56.44 55.46 53.60 52.13 51.06 51.07 51.51 51.49 49.73 50.21 50.09 50.42

GFSSGP_sfc_wetblb_114.txt.gz
Wetbulb
59.12 60.02 62.02 57.45 48.80 48.26 41.83 43.95 50.16 49.43 50.55 56.33 58.10 56.85 57.01 58.99 57.45 54.17 68.60 69.92 72.38 71.44 72.40 73.16 74.40 74.37 74.42 74.29 75.55 75.44 75.25 75.10 74.69 74.84 74.63 73.96 73.81 74.03 73.75 72.97 72.14 73.10 73.25 71.71 72.79 72.53 71.93 71.35 70.71
58.37 58.21 57.99 51.84 42.76 38.63 39.32 46.42 46.80 50.54 53.56 55.55 57.69 57.55 56.81 56.73 63.44 64.55 66.20 69.93 72.34 71.94 72.18 72.08 74.00 74.22 74.54 74.40 75.32 75.41 75.30 74.90 74.59 74.58 74.60 74.52 74.11 73.93 73.60 73.40 72.74 73.82 73.39 72.39 71.78 71.22 70.65 70.36 69.44
56.65 57.61 49.91 45.34 40.91 36.55 38.56 45.93 48.31 52.39 54.28 54.22 54.05 58.93 58.29 57.99 64.76 65.87 69.29 70.33 72.06 71.62 71.80 72.09 73.75 74.16 74.56 74.58 74.66 75.37 75.17 74.94 74.46 74.20 73.84 74.17 74.39 73.89 73.52 73.54 73.10 72.77 73.15 72.54 71.44 70.83 70.27 69.86 68.27
53.48 51.17 49.68 40.11 37.23 41.03 42.65 46.43 49.64 50.11 53.93 55.43 55.11 54.84 61.34 67.00 65.04 67.40 69.37 71.52 70.87 71.02 71.74 72.58 73.45 73.97 74.46 74.40 74.25 75.15 74.72 74.89 74.24 73.92 73.56 73.85 74.17 73.99 73.71 72.99 72.25 72.39 72.29 72.25 71.16 70.96 70.01 68.80 67.66
51.61 48.06 38.53 36.83 37.49 41.34 45.09 48.01 48.91 48.14 50.73 51.85 55.02 54.75 58.72 66.29 68.75 68.91 68.80 71.04 70.49 70.92 71.74 71.96 73.34 73.96 74.29 74.30 73.92 74.53 74.32 74.50 74.20 73.47 73.29 73.70 73.98 73.42 73.08 72.03 71.71 72.03 72.21 72.20 71.42 70.65 68.97 68.08 67.45
44.43 44.43 34.23 31.68 35.46 40.58 44.24 47.14 47.21 47.86 48.68 51.53 51.78 56.79 58.86 67.47 67.79 67.93 69.79 70.58 71.04 70.37 70.98 71.20 72.05 72.87 73.56 74.01 73.78 74.08 73.70 73.94 73.61 73.12 73.32 73.11 73.33 72.91 72.45 71.60 71.79 71.66 71.73 71.85 71.07 69.75 68.20 67.84 67.39
41.91 39.74 33.69 34.60 35.21 37.92 41.11 47.31 46.02 46.49 46.41 47.69 53.71 49.39 61.26 64.93 68.09 68.45 69.82 70.89 70.67 70.70 70.51 69.91 70.58 71.83 72.56 73.01 73.04 73.35 73.17 73.01 72.72 72.58 72.40 71.88 71.78 71.58 71.56 70.71 71.75 71.30 72.06 71.73 70.85 69.59 68.45 68.11 67.55
44.86 41.48 35.79 36.24 34.04 35.09 42.74 45.25 48.02 46.52 46.21 53.22 53.97 49.87 54.79 64.43 68.09 68.76 69.01 69.67 69.81 70.04 69.28 68.35 69.17 71.19 71.44 71.83 72.01 71.86 71.81 71.49 71.39 71.19 69.48 68.99 69.17 69.66 68.80 70.16 70.82 71.43 71.55 71.45 71.01 69.81 68.81 68.30 67.51
48.49 37.42 33.05 34.64 36.09 38.16 43.58 44.42 48.41 51.16 48.39 50.98 53.59 54.30 56.04 63.52 68.05 67.26 67.48 68.30 68.21 68.16 67.99 66.75 68.80 70.26 70.81 70.70 70.29 70.59 70.32 69.87 69.29 68.35 67.38 67.21 67.16 67.28 66.91 68.10 69.24 70.31 70.52 70.45 69.73 69.21 68.93 68.45 67.30
42.42 36.12 35.63 40.98 41.62 40.84 44.67 45.51 46.03 46.03 45.88 47.06 50.92 55.04 57.12 62.42 65.94 65.46 65.79 66.09 66.37 66.47 66.77 65.99 67.95 69.76 69.85 70.64 69.95 69.64 69.20 68.77 68.08 67.46 67.14 65.97 65.14 66.51 67.46 67.26 68.46 69.85 69.48 69.28 69.07 68.40 67.77 65.70 62.95
42.48 36.17 41.35 42.82 44.55 45.86 44.79 44.73 47.09 45.57 43.25 46.82 48.22 52.61 56.75 58.08 64.05 65.17 65.64 66.17 65.95 66.36 66.92 65.03 65.80 69.34 69.14 68.97 69.01 68.67 68.56 67.87 67.11 66.58 65.68 64.76 66.42 66.15 66.87 67.35 68.46 67.92 65.82 65.80 65.86 64.61 62.63 61.57 61.79
39.04 43.13 43.39 44.53 46.15 45.70 44.04 45.94 43.09 44.47 45.03 50.01 51.46 54.04 56.61 57.38 57.39 64.81 64.60 59.92 59.41 60.15 65.15 64.62 63.70 68.05 68.59 68.69 68.45 68.40 67.88 67.50 66.81 65.51 65.08 64.77 64.92 64.97 65.06 65.89 66.90 66.25 65.34 64.23 63.33 61.49 60.76 60.71 60.44
41.63 42.57 45.42 46.37 46.34 46.44 46.55 43.74 43.23 43.31 47.76 51.67 52.81 53.62 54.91 56.03 54.48 65.09 60.92 58.94 59.09 59.38 59.88 60.56 62.85 62.31 68.06 68.02 68.23 68.27 68.12 67.58 66.56 64.89 63.78 64.31 65.04 64.25 65.32 65.05 64.84 64.29 64.53 63.31 62.73 61.78 60.57 59.69 59.70
45.45 44.87 44.84 46.01 45.52 46.05 43.36 43.36 45.09 46.11 49.99 50.98 51.96 52.98 54.94 54.59 53.96 59.06 59.07 58.30 58.46 59.13 59.71 60.91 59.68 63.77 62.72 64.76 66.52 67.56 67.33 64.80 64.93 63.51 62.96 64.13 64.00 63.19 63.48 63.37 63.17 62.48 62.46 61.73 60.91 59.40 58.35 57.87 59.24
45.28 41.58 43.93 44.65 45.33 44.13 45.55 41.32 41.79 47.24 50.22 51.06 52.00 54.41 55.42 55.55 54.66 58.98 58.74 58.25 59.31 60.49 60.34 60.62 61.04 65.09 63.05 62.64 62.68 62.07 62.72 63.46 63.65 63.04 63.20 63.41 63.60 62.86 62.35 61.58 60.66 60.43 60.34 59.49 58.96 58.72 59.22 59.45 60.80
40.55 41.12 36.14 43.25 45.02 45.44 43.90 36.70 44.43 48.98 49.20 49.73 51.97 53.43 55.08 56.40 58.81 59.11 58.13 57.85 59.04 59.98 60.14 60.54 61.71 65.53 66.20 64.14 63.11 62.54 61.60 61.63 61.63 62.39 62.38 62.28 62.38 61.82 60.90 60.42 60.04 60.59 60.18 60.02 60.54 60.69 60.61 60.52 59.96
39.25 32.80 35.30 38.88 45.23 44.20 41.72 37.90 44.47 49.32 49.82 49.77 51.06 52.83 54.70 57.02 58.52 57.82 58.18 58.20 58.78 59.68 59.94 60.27 61.24 64.53 65.68 65.66 64.16 64.42 63.03 62.40 61.89 61.48 61.19 61.33 62.27 62.36 62.48 62.37 62.02 61.38 61.54 61.83 61.70 60.98 61.05 60.58 60.85
35.51 36.23 37.31 36.76 41.95 42.81 40.43 39.37 42.99 47.67 49.03 48.72 49.40 52.36 55.16 56.99 57.16 57.41 57.48 58.01 58.74 59.22 60.46 60.88 61.63 64.32 65.28 65.89 65.41 65.65 65.31 64.81 64.56 63.89 63.10 63.21 63.13 63.95 63.73 64.65 63.83 64.00 63.62 62.53 62.26 61.55 61.63 61.23 61.27
39.74 37.55 36.60 39.98 42.75 40.82 39.38 39.41 41.98 46.58 47.03 47.79 49.52 51.89 54.92 56.31 57.79 57.69 58.47 58.79 59.39 60.27 60.25 60.29 61.22 64.31 62.66 63.07 63.52 64.46 64.12 65.10 65.57 66.08 66.47 65.36 65.26 64.58 64.14 65.55 65.57 64.62 63.63 63.44 63.41 62.77 60.95 60.93 62.00
39.64 37.88 38.00 40.68 42.64 39.32 39.26 38.82 42.56 45.94 46.13 49.18 50.10 51.40 54.80 55.86 56.86 57.92 58.64 59.58 60.12 61.26 61.00 63.18 63.38 63.89 63.68 63.44 62.80 62.29 62.48 64.37 66.23 66.86 67.11 67.03 66.30 66.02 65.72 65.79 65.73 65.79 64.33 63.90 63.93 63.31 61.09 61.22 62.81
38.61 37.17 38.07 38.01 41.49 41.08 38.95 37.02 38.84 45.59 46.80 49.91 50.98 52.65 54.32 55.70 56.68 57.81 58.31 59.19 60.46 60.54 60.30 61.76 62.24 63.79 64.63 65.08 65.16 64.67 64.70 64.16 63.56 63.40 63.42 64.68 65.86 65.84 66.19 66.35 66.47 65.32 65.21 64.17 63.71 62.87 62.56 61.36 62.09
34.08 41.32 40.30 39.33 37.36 32.58 39.48 27.26 39.65 43.25 43.42 47.42 47.78 51.28 54.20 55.86 57.06 57.73 58.03 58.89 59.63 59.66 60.39 61.61 61.31 62.25 63.65 65.44 64.36 63.51 63.01 62.49 63.70 64.54 64.81 65.01 65.86 65.89 66.02 65.47 65.58 64.60 64.56 63.42 62.35 63.54 62.82 61.98 59.97
36.51 41.51 39.40 38.79 36.79 35.06 35.82 29.09 38.10 43.34 42.20 44.67 47.16 49.20 52.12 55.55 56.64 55.87 56.87 59.29 59.30 59.76 59.42 59.92 60.83 61.40 62.37 62.55 62.71 61.76 61.31 61.52 64.16 63.97 62.94 62.17 62.58 64.77 65.06 64.46 64.43 64.18 63.85 63.96 62.56 62.49 62.36 61.64 61.32
41.69 38.72 38.38 37.71 36.29 24.96 33.47 31.35 33.52 39.01 42.89 46.01 47.93 49.18 50.92 53.21 55.33 56.21 56.76 60.04 58.66 58.53 58.21 59.81 59.88 60.06 61.71 61.71 62.40 61.58 60.71 60.95 61.07 61.30 61.31 61.23 60.88 61.82 63.90 64.44 64.00 63.94 63.47 62.81 62.47 62.81 62.44 62.16 61.83
39.07 33.68 24.16 21.59 20.22 21.64 33.37 30.93 33.16 40.15 44.05 46.35 46.67 48.52 50.01 51.96 51.99 53.27 56.70 59.09 58.32 57.14 58.22 60.10 59.89 59.38 61.55 61.21 61.57 61.45 61.01 60.96 60.33 60.20 59.97 59.78 59.92 60.09 61.36 63.28 63.47 63.25 63.13 62.71 62.72 62.90 62.67 62.64 62.37
34.58 33.71 28.32 23.38 24.81 27.69 33.64 29.24 31.74 40.51 43.52 46.95 47.67 47.40 50.22 50.01 50.33 51.83 52.50 54.71 57.95 58.54 59.48 60.36 60.03 58.98 59.85 60.98 61.17 61.02 61.79 61.03 60.64 60.24 59.93 59.89 59.17 59.72 60.87 61.90 61.99 62.70 63.19 63.47 63.22 62.94 63.20 63.19 61.96
33.14 29.18 36.42 31.16 30.70 25.16 29.73 31.54 36.67 40.56 40.84 42.43 44.17 46.11 45.25 45.96 48.86 50.69 51.59 52.16 53.89 56.00 58.95 60.40 59.73 59.56 60.45 61.07 61.23 61.10 61.01 61.62 60.72 60.08 60.14 60.28 60.11 60.40 61.16 61.41 61.88 61.89 62.67 62.71 62.61 60.62 59.57 60.11 59.02
36.38 38.11 29.34 30.43 17.47 19.51 25.44 25.96 29.21 34.48 36.81 40.63 41.15 41.27 44.01 47.32 48.07 47.98 48.72 49.72 51.27 52.62 55.10 58.29 60.44 60.68 61.01 61.31 61.19 61.06 61.26 61.95 61.61 61.06 59.71 60.19 60.36 60.64 60.64 60.48 60.99 60.11 60.08 59.87 60.32 58.46 58.78 58.23 56.99
33.22 29.84 31.88 31.23 29.10 25.41 24.27 27.22 35.91 35.49 36.98 38.70 40.15 41.94 43.36 45.19 46.97 47.28 47.31 47.23 47.10 48.66 53.07 55.05 57.44 58.11 58.68 60.83 61.28 61.12 60.88 61.47 61.37 61.19 60.11 60.38 61.30 60.62 60.13 60.01 58.94 57.96 57.35 57.28 57.62 55.61 55.91 54.52 53.02
35.15 32.50 30.36 24.39 22.31 27.66 29.19 28.25 39.57 38.03 39.50 41.10 40.95 42.39 42.86 44.31 46.17 46.89 46.88 46.91 47.29 48.12 49.91 51.45 52.17 54.71 56.74 60.14 60.72 60.38 60.38 60.16 60.18 60.53 60.79 59.98 59.09 58.15 56.62 55.78 54.92 54.77 54.47 53.43 51.79 50.63 51.28 51.02 50.31

GFSSGP_sfc_wetblb_117.txt.gz
Wetbulb
57.44 58.15 58.36 54.98 45.77 46.51 40.12 40.58 47.22 45.41 46.76 51.53 55.10 53.32 54.23 56.44 54.50 50.72 66.24 69.27 71.17 71.02 72.65 73.54 74.65 74.77 75.50 76.10 75.88 75.36 75.12 75.03 74.42 75.00 75.10 74.48 74.03 74.02 72.82 72.56 73.16 72.88 72.41 73.11 72.86 71.89 71.62 71.45 71.80
55.99 57.50 54.77 49.13 41.18 35.26 33.64 43.24 43.51 46.73 50.29 51.52 52.85 54.86 54.01 52.62 61.91 63.75 65.54 70.95 71.46 71.38 72.16 72.61 74.28 74.56 74.82 75.83 75.78 75.34 75.16 74.80 74.86 74.96 74.69 74.75 74.33 74.01 73.63 73.52 73.96 73.14 73.02 72.29 71.81 71.05 70.65 70.52 70.20
56.09 56.75 47.13 41.83 38.48 35.30 35.15 41.11 43.10 47.89 50.01 50.29 50.04 53.26 54.96 53.96 63.24 65.52 67.96 71.19 71.09 71.05 71.46 72.40 74.12 74.49 74.47 75.59 75.49 75.18 74.99 74.78 74.76 74.71 74.21 74.49 74.32 74.05 73.48 73.85 73.35 73.15 72.44 71.81 70.78 70.38 69.45 68.47 68.11
50.90 48.56 47.58 39.51 35.76 39.53 40.50 42.59 45.32 45.73 48.25 50.77 50.43 47.67 54.34 64.63 64.58 66.10 71.08 71.01 70.46 70.48 70.99 72.88 73.89 74.40 74.13 75.11 75.24 75.17 74.99 74.70 74.24 74.35 73.95 74.22 74.08 74.36 74.00 73.10 72.97 72.58 72.05 71.69 70.58 70.08 68.71 67.68 68.57
50.08 45.25 36.99 34.89 34.93 39.06 41.37 43.81 45.39 44.31 45.85 47.38 49.41 47.56 50.46 61.90 66.97 68.15 70.35 70.81 69.81 70.05 71.17 72.14 73.75 74.27 74.15 74.59 75.04 74.85 74.74 74.50 74.17 74.14 73.91 74.28 73.71 73.84 72.86 72.83 72.60 72.44 72.12 71.32 70.19 68.94 68.14 67.48 68.01
41.02 41.71 33.66 30.05 33.15 38.08 40.25 42.81 44.15 44.32 45.78 46.49 47.18 48.60 49.98 61.28 65.51 68.40 70.20 69.94 70.52 70.41 71.09 71.71 72.47 73.55 73.72 73.78 74.79 74.49 74.45 74.21 73.90 73.59 73.61 73.52 73.63 73.17 72.42 72.48 72.28 72.40 72.10 71.19 69.82 68.38 67.86 67.44 67.42
41.27 38.20 31.02 32.61 33.05 35.03 38.66 42.21 40.84 43.19 44.26 45.26 49.52 46.45 50.76 55.45 62.66 68.05 69.60 69.98 70.24 70.70 70.43 70.74 71.55 72.27 72.44 72.51 73.65 73.60 73.67 73.41 73.14 72.85 72.70 72.38 72.25 71.86 72.08 71.82 71.88 72.66 72.30 71.02 69.45 68.29 68.07 67.73 67.30
44.89 41.70 34.38 34.86 32.63 33.38 40.51 41.21 43.27 42.74 43.80 49.15 51.97 46.50 49.52 58.50 60.31 60.43 68.12 68.72 69.21 69.57 69.68 69.80 70.22 70.70 71.64 71.43 71.98 72.06 72.26 72.00 71.92 71.42 70.88 69.92 69.55 69.81 70.27 70.22 71.09 72.18 71.83 71.11 70.30 68.90 68.42 67.90 67.26
48.10 38.02 32.42 33.47 34.64 36.58 41.97 40.25 44.72 48.22 46.10 47.53 51.03 50.92 54.36 57.12 59.56 59.20 59.87 67.34 67.65 68.40 68.51 68.77 69.29 70.01 70.99 71.01 70.77 70.92 70.83 70.35 69.98 69.02 67.72 67.64 67.58 67.11 67.08 68.07 69.50 70.90 71.18 71.00 70.16 69.33 68.76 67.84 66.65
41.60 37.28 35.75 39.14 39.69 38.34 41.03 42.14 44.02 44.58 44.69 45.64 48.34 51.03 54.44 57.08 58.96 57.40 56.50 65.65 66.26 66.22 66.75 67.65 68.99 69.48 70.30 70.93 70.27 70.19 69.81 69.50 68.35 67.56 67.27 66.94 65.41 66.26 67.43 66.97 68.04 69.71 69.57 69.52 69.57 68.98 68.36 65.87 62.93
40.78 35.24 39.97 40.49 42.20 42.75 43.06 43.01 45.66 44.47 42.70 45.50 45.87 48.78 52.18 54.77 56.63 58.19 58.12 65.79 65.21 65.77 65.85 67.43 68.72 69.31 69.59 69.67 69.67 69.28 68.60 67.59 67.30 66.78 66.00 65.35 64.63 66.11 67.28 66.96 67.08 66.52 65.46 65.96 66.11 65.17 63.26 61.70 61.10
38.59 41.93 41.69 41.85 43.41 43.13 41.49 45.47 43.43 44.50 44.57 48.78 49.87 51.27 52.19 52.87 53.84 56.04 56.70 63.30 65.30 64.51 64.62 67.04 68.79 68.76 69.35 69.43 68.93 68.49 67.64 66.91 66.56 66.14 65.47 64.82 64.53 65.67 66.49 67.16 66.31 65.27 64.25 63.22 62.29 60.91 60.26 60.30 60.57
40.98 42.42 43.61 44.45 44.80 44.44 46.00 43.75 43.46 43.60 47.15 49.44 49.53 50.67 51.60 52.32 52.75 56.09 57.39 58.99 64.10 60.79 61.46 61.19 65.21 68.00 68.47 68.49 68.35 67.83 66.82 66.50 66.25 65.44 64.43 65.09 64.74 64.60 64.32 65.79 65.93 64.83 64.26 62.83 61.71 60.15 59.24 59.21 58.66
44.49 44.17 43.49 43.91 44.07 44.77 43.25 43.55 43.73 45.16 47.85 47.62 48.59 49.11 52.27 53.27 55.30 55.47 57.40 57.99 61.40 61.23 61.37 61.69 61.56 63.42 67.73 67.65 67.91 67.39 66.71 66.60 65.86 64.65 64.01 64.94 65.21 64.69 63.89 63.99 63.53 63.79 64.25 62.72 61.67 60.71 59.00 58.04 57.97
44.38 40.18 42.85 43.81 44.50 43.73 45.69 41.12 41.62 46.07 47.33 46.56 47.63 50.79 52.41 54.76 56.62 55.12 57.87 59.20 61.25 61.04 62.14 61.92 62.47 62.24 63.99 67.04 67.48 67.10 67.18 66.80 65.01 63.77 62.54 64.82 64.31 64.69 64.00 64.16 63.55 63.30 62.45 60.84 59.39 57.94 56.82 56.44 58.41
40.54 39.79 34.35 42.34 44.40 44.71 42.82 35.75 42.82 46.76 47.26 47.05 50.70 52.23 53.81 54.74 55.23 55.90 59.21 59.63 60.69 60.89 61.07 62.22 63.56 62.48 62.27 63.31 66.72 65.55 65.85 65.43 63.56 62.34 64.07 64.22 63.41 63.53 63.12 62.79 60.65 59.48 58.83 57.67 58.02 58.85 59.08 59.10 59.12
37.78 30.12 33.48 37.10 43.62 43.63 41.46 36.44 42.37 45.91 47.32 46.63 49.72 51.07 52.90 55.22 57.85 56.08 57.08 58.52 59.49 60.98 61.37 61.12 61.85 61.56 62.06 62.63 62.51 63.44 63.16 63.65 62.45 61.79 62.55 62.39 62.21 61.48 61.16 60.27 59.19 59.03 58.79 58.94 59.73 59.86 60.12 59.68 59.82
34.40 34.34 36.80 36.26 41.61 42.56 39.75 38.49 42.25 44.85 46.99 46.82 47.66 48.89 50.93 55.91 57.52 57.92 58.17 59.03 59.46 60.16 60.60 61.10 61.63 61.95 63.18 62.77 62.06 61.52 61.98 61.25 61.43 60.80 60.88 61.42 61.55 61.46 61.19 60.52 60.26 60.03 60.27 60.44 60.55 60.09 60.43 60.42 60.29
38.31 36.32 35.58 39.43 42.51 40.92 39.62 39.06 40.66 42.83 45.53 45.15 46.45 47.99 50.91 55.23 57.76 58.02 58.44 58.73 58.86 59.47 59.19 59.92 61.15 62.46 64.23 62.54 61.89 60.24 60.47 60.93 60.75 60.82 61.06 61.55 62.11 62.40 62.76 62.63 61.94 62.08 61.98 61.13 61.40 61.00 60.24 59.48 61.29
38.06 36.18 36.21 40.83 42.54 40.24 38.43 37.73 40.87 43.09 44.54 45.28 46.72 47.53 53.37 55.07 56.11 57.22 58.02 58.77 59.17 58.57 59.67 60.08 61.12 63.27 63.74 63.98 63.55 62.42 62.23 62.74 62.95 62.69 62.86 63.01 63.20 63.51 63.63 64.45 63.59 63.24 62.80 62.46 62.06 61.99 60.18 59.92 61.57
35.83 35.07 35.98 36.33 40.13 40.08 37.93 35.24 37.75 42.27 46.15 47.98 48.23 51.82 54.05 54.31 55.23 56.92 57.73 58.53 59.37 60.05 60.46 61.39 60.59 63.22 63.38 64.29 63.44 62.99 64.37 64.39 63.66 64.13 63.63 64.26 64.13 64.21 64.32 65.20 65.10 64.37 63.78 62.95 63.31 62.41 60.89 60.38 61.33
31.80 39.48 38.24 36.74 33.72 28.75 38.50 28.12 37.77 41.34 43.86 46.54 47.47 51.54 53.08 54.18 56.21 57.19 57.94 58.85 59.51 59.88 61.16 60.57 62.43 62.72 63.51 63.57 63.06 62.26 61.74 61.07 62.76 63.67 64.75 64.85 65.27 64.95 64.92 65.02 64.87 64.62 64.27 63.21 62.52 62.94 61.89 61.45 59.38
34.45 39.12 36.73 36.32 33.23 30.98 32.75 31.12 35.12 42.93 41.89 44.60 46.40 50.67 52.59 55.13 56.46 56.56 57.90 58.92 59.35 58.98 58.96 60.08 61.08 62.65 62.31 62.03 62.78 61.96 60.94 61.66 63.13 63.89 63.37 63.75 64.11 64.81 64.79 64.69 64.53 63.92 63.62 62.81 62.67 62.24 62.44 62.13 60.97
39.72 36.60 35.55 34.43 33.10 21.94 30.93 31.85 32.42 35.24 40.90 44.37 45.55 48.43 52.48 54.83 55.48 55.80 57.68 58.19 58.67 58.80 58.74 59.18 59.17 60.60 61.53 61.85 60.94 60.92 60.80 62.45 61.88 61.37 60.73 60.95 61.60 62.97 63.65 63.89 63.58 63.28 63.32 63.10 62.60 62.16 62.12 61.34 60.95
37.07 31.29 18.35 19.97 16.97 20.03 31.37 30.12 31.16 37.38 43.77 44.21 44.29 45.34 50.94 53.10 55.19 55.06 56.69 56.89 56.16 56.96 57.89 58.86 58.28 59.01 60.87 61.33 60.80 60.37 60.24 60.80 60.65 61.25 61.48 60.23 59.47 59.75 61.59 62.65 62.40 62.36 62.44 62.49 62.61 62.38 62.13 61.61 60.63
32.46 32.61 27.03 21.49 23.56 24.26 32.15 24.82 30.81 38.20 41.82 45.65 47.26 46.47 48.67 50.21 52.77 54.05 55.35 57.25 57.21 56.34 57.31 58.73 57.99 58.63 60.00 60.62 60.62 60.77 60.50 60.02 60.09 59.60 59.81 59.49 59.73 59.98 60.49 62.20 62.06 61.78 62.04 61.26 61.59 61.96 62.12 62.18 62.13
31.27 27.23 35.42 30.45 31.33 26.76 26.56 30.24 33.80 38.72 38.39 41.29 43.76 45.17 45.62 46.98 46.97 50.08 53.15 55.30 57.14 57.65 57.32 59.26 58.64 58.14 59.25 59.63 60.53 60.29 60.43 60.21 59.82 59.91 59.83 59.70 59.28 58.98 59.72 60.30 60.38 60.54 60.78 60.57 61.08 61.41 61.62 61.69 62.07
34.97 36.11 25.71 25.89 19.09 22.10 25.98 25.48 29.12 33.20 34.88 38.43 40.29 41.99 43.84 46.92 46.59 46.98 47.51 48.96 53.05 55.68 57.61 59.66 59.74 58.96 58.74 59.64 59.85 60.17 60.69 61.15 61.01 60.65 59.67 59.35 59.54 59.55 59.61 59.58 59.87 60.67 60.85 60.50 60.91 60.17 59.73 60.03 58.94
30.48 28.02 29.56 24.97 27.09 24.73 21.80 27.37 36.75 33.85 35.73 36.20 38.05 40.87 42.45 44.50 45.72 45.91 45.92 47.08 47.12 48.87 53.89 57.50 59.17 59.10 59.32 60.13 60.33 60.17 60.29 60.72 60.91 60.40 60.09 59.71 59.89 59.89 59.77 60.24 59.89 59.19 58.94 59.35 59.35 58.85 58.74 58.34 56.58
33.07 29.24 27.05 19.30 19.87 28.84 24.37 28.52 38.65 38.02 36.63 38.03 38.17 40.45 41.23 41.71 44.14 46.38 46.24 47.04 47.14 46.95 49.43 52.48 55.80 58.34 59.47 60.05 60.25 59.99 60.47 60.71 60.67 60.97 61.17 60.92 59.40 60.23 59.45 59.23 58.61 58.30 58.21 58.13 58.29 56.77 57.07 55.23 54.36